<?xml version="1.0" encoding="UTF-8"?>
<gpx xmlns="http://www.topografix.com/GPX/1/1" xmlns:gpsies="http://www.gpsies.com/GPX/1/0" creator="GPSies http://www.gpsies.com - 200_LIFT_LVIV" version="1.1" xmlns:xsi="http://www.w3.org/2001/XMLSchema-instance" xsi:schemaLocation="http://www.topografix.com/GPX/1/1 http://www.topografix.com/GPX/1/1/gpx.xsd http://www.gpsies.com/GPX/1/0 http://www.gpsies.com/gpsies.xsd">
  <metadata>
    <name>200_LIFT_LVIV</name>
    <author>
      <name>LvivBicycleClub</name>
      <link href="http://www.gpsies.com/mapUser.do?username=LvivBicycleClub">
        <text>LvivBicycleClub on GPSies.com</text>
        <type>GPSiesUserOnWeb</type>
      </link>
    </author>
    <link href="http://www.gpsies.com/map.do?fileId=kodvyqzvmpfasjjx">
      <text>200_LIFT_LVIV on GPSies.com</text>
      <type>trackOnWeb</type>
    </link>
    <time>2016-11-20T22:16:40Z</time>
    <extensions>
      <gpsies:property>round trip</gpsies:property>
      <gpsies:trackLengthMeter>199154.67081008505</gpsies:trackLengthMeter>
      <gpsies:totalAscentMeter>2205.0</gpsies:totalAscentMeter>
      <gpsies:totalDescentMeter>2205.0</gpsies:totalDescentMeter>
      <gpsies:minHeightMeter>240.0</gpsies:minHeightMeter>
      <gpsies:maxHeightMeter>426.0</gpsies:maxHeightMeter>
    </extensions>
  </metadata>
  <wpt lat="49.44599054" lon="24.94373381">
    <ele>272.00000</ele>
    <name>KP</name>
    <sym>food</sym>
    <type>Food</type>
  </wpt>
  <trk>
    <name>200_LIFT_LVIV on GPSies.com</name>
    <link href="http://www.gpsies.com/map.do?fileId=kodvyqzvmpfasjjx">
      <type>trackOnWeb</type>
    </link>
    <link href="http://www.gpsies.com/charts/ko/map/kodvyqzvmpfasjjx_map.png">
      <type>elevationChartUrlMap</type>
    </link>
    <link href="http://www.gpsies.com/charts/ko/mapThumb/kodvyqzvmpfasjjx_mapThumb.png">
      <type>elevationChartUrlMapThumb</type>
    </link>
    <link href="http://www.gpsies.com/charts/ko/tab/kodvyqzvmpfasjjx_tab.png">
      <type>elevationChartUrlTab</type>
    </link>
    <trkseg>
      <trkpt lat="49.82542170" lon="24.02072660">
        <ele>337.00000</ele>
        <time>2010-01-01T00:00:00Z</time>
      </trkpt>
      <trkpt lat="49.82455610" lon="24.02069120">
        <ele>341.00000</ele>
        <time>2010-01-01T00:00:34Z</time>
      </trkpt>
      <trkpt lat="49.82383350" lon="24.02066990">
        <ele>344.00000</ele>
        <time>2010-01-01T00:01:03Z</time>
      </trkpt>
      <trkpt lat="49.82326640" lon="24.02061140">
        <ele>342.00000</ele>
        <time>2010-01-01T00:01:26Z</time>
      </trkpt>
      <trkpt lat="49.82265920" lon="24.02051460">
        <ele>339.00000</ele>
        <time>2010-01-01T00:01:50Z</time>
      </trkpt>
      <trkpt lat="49.82231680" lon="24.02047670">
        <ele>340.00000</ele>
        <time>2010-01-01T00:02:04Z</time>
      </trkpt>
      <trkpt lat="49.82225170" lon="24.02049580">
        <ele>340.00000</ele>
        <time>2010-01-01T00:02:07Z</time>
      </trkpt>
      <trkpt lat="49.82205940" lon="24.02048360">
        <ele>341.00000</ele>
        <time>2010-01-01T00:02:14Z</time>
      </trkpt>
      <trkpt lat="49.82166330" lon="24.02042330">
        <ele>341.00000</ele>
        <time>2010-01-01T00:02:30Z</time>
      </trkpt>
      <trkpt lat="49.82113240" lon="24.02042360">
        <ele>345.00000</ele>
        <time>2010-01-01T00:02:52Z</time>
      </trkpt>
      <trkpt lat="49.82077390" lon="24.02034840">
        <ele>345.00000</ele>
        <time>2010-01-01T00:03:06Z</time>
      </trkpt>
      <trkpt lat="49.82057690" lon="24.02032770">
        <ele>345.00000</ele>
        <time>2010-01-01T00:03:14Z</time>
      </trkpt>
      <trkpt lat="49.82038830" lon="24.02025600">
        <ele>345.00000</ele>
        <time>2010-01-01T00:03:22Z</time>
      </trkpt>
      <trkpt lat="49.81982150" lon="24.02024410">
        <ele>344.00000</ele>
        <time>2010-01-01T00:03:44Z</time>
      </trkpt>
      <trkpt lat="49.81969000" lon="24.02023110">
        <ele>342.00000</ele>
        <time>2010-01-01T00:03:50Z</time>
      </trkpt>
      <trkpt lat="49.81937450" lon="24.02016500">
        <ele>341.00000</ele>
        <time>2010-01-01T00:04:02Z</time>
      </trkpt>
      <trkpt lat="49.81903450" lon="24.02012420">
        <ele>342.00000</ele>
        <time>2010-01-01T00:04:16Z</time>
      </trkpt>
      <trkpt lat="49.81816060" lon="24.02006000">
        <ele>343.00000</ele>
        <time>2010-01-01T00:04:51Z</time>
      </trkpt>
      <trkpt lat="49.81777490" lon="24.01998020">
        <ele>342.00000</ele>
        <time>2010-01-01T00:05:07Z</time>
      </trkpt>
      <trkpt lat="49.81654370" lon="24.01989590">
        <ele>340.00000</ele>
        <time>2010-01-01T00:05:56Z</time>
      </trkpt>
      <trkpt lat="49.81612690" lon="24.01984120">
        <ele>339.00000</ele>
        <time>2010-01-01T00:06:13Z</time>
      </trkpt>
      <trkpt lat="49.81585530" lon="24.01982800">
        <ele>342.00000</ele>
        <time>2010-01-01T00:06:24Z</time>
      </trkpt>
      <trkpt lat="49.81528790" lon="24.01977030">
        <ele>340.00000</ele>
        <time>2010-01-01T00:06:46Z</time>
      </trkpt>
      <trkpt lat="49.81518630" lon="24.01973690">
        <ele>340.00000</ele>
        <time>2010-01-01T00:06:51Z</time>
      </trkpt>
      <trkpt lat="49.81515870" lon="24.01966690">
        <ele>340.00000</ele>
        <time>2010-01-01T00:06:53Z</time>
      </trkpt>
      <trkpt lat="49.81509730" lon="24.01967610">
        <ele>340.00000</ele>
        <time>2010-01-01T00:06:55Z</time>
      </trkpt>
      <trkpt lat="49.81457050" lon="24.01965750">
        <ele>341.00000</ele>
        <time>2010-01-01T00:07:16Z</time>
      </trkpt>
      <trkpt lat="49.81408360" lon="24.01960940">
        <ele>344.00000</ele>
        <time>2010-01-01T00:07:36Z</time>
      </trkpt>
      <trkpt lat="49.81313950" lon="24.01956980">
        <ele>345.00000</ele>
        <time>2010-01-01T00:08:14Z</time>
      </trkpt>
      <trkpt lat="49.81192160" lon="24.01941790">
        <ele>340.00000</ele>
        <time>2010-01-01T00:09:02Z</time>
      </trkpt>
      <trkpt lat="49.80956810" lon="24.01920230">
        <ele>342.00000</ele>
        <time>2010-01-01T00:10:37Z</time>
      </trkpt>
      <trkpt lat="49.80821650" lon="24.01906430">
        <ele>343.00000</ele>
        <time>2010-01-01T00:11:31Z</time>
      </trkpt>
      <trkpt lat="49.80736550" lon="24.01896040">
        <ele>345.00000</ele>
        <time>2010-01-01T00:12:05Z</time>
      </trkpt>
      <trkpt lat="49.80654560" lon="24.01889210">
        <ele>344.00000</ele>
        <time>2010-01-01T00:12:38Z</time>
      </trkpt>
      <trkpt lat="49.80591710" lon="24.01880500">
        <ele>344.00000</ele>
        <time>2010-01-01T00:13:03Z</time>
      </trkpt>
      <trkpt lat="49.80465760" lon="24.01854190">
        <ele>344.00000</ele>
        <time>2010-01-01T00:13:54Z</time>
      </trkpt>
      <trkpt lat="49.80267600" lon="24.01809170">
        <ele>344.00000</ele>
        <time>2010-01-01T00:15:14Z</time>
      </trkpt>
      <trkpt lat="49.80221390" lon="24.01800350">
        <ele>344.00000</ele>
        <time>2010-01-01T00:15:33Z</time>
      </trkpt>
      <trkpt lat="49.80212940" lon="24.01796850">
        <ele>344.00000</ele>
        <time>2010-01-01T00:15:37Z</time>
      </trkpt>
      <trkpt lat="49.80204410" lon="24.01790340">
        <ele>344.00000</ele>
        <time>2010-01-01T00:15:40Z</time>
      </trkpt>
      <trkpt lat="49.80186140" lon="24.01780050">
        <ele>343.00000</ele>
        <time>2010-01-01T00:15:48Z</time>
      </trkpt>
      <trkpt lat="49.80154970" lon="24.01771060">
        <ele>342.00000</ele>
        <time>2010-01-01T00:16:01Z</time>
      </trkpt>
      <trkpt lat="49.80103480" lon="24.01759670">
        <ele>342.00000</ele>
        <time>2010-01-01T00:16:22Z</time>
      </trkpt>
      <trkpt lat="49.80074400" lon="24.01750680">
        <ele>342.00000</ele>
        <time>2010-01-01T00:16:34Z</time>
      </trkpt>
      <trkpt lat="49.79684890" lon="24.01665560">
        <ele>339.00000</ele>
        <time>2010-01-01T00:19:11Z</time>
      </trkpt>
      <trkpt lat="49.79535510" lon="24.01631410">
        <ele>340.00000</ele>
        <time>2010-01-01T00:20:11Z</time>
      </trkpt>
      <trkpt lat="49.79478310" lon="24.01620200">
        <ele>341.00000</ele>
        <time>2010-01-01T00:20:35Z</time>
      </trkpt>
      <trkpt lat="49.79182860" lon="24.01556440">
        <ele>344.00000</ele>
        <time>2010-01-01T00:22:34Z</time>
      </trkpt>
      <trkpt lat="49.79118380" lon="24.01544090">
        <ele>344.00000</ele>
        <time>2010-01-01T00:23:00Z</time>
      </trkpt>
      <trkpt lat="49.79061560" lon="24.01528090">
        <ele>344.00000</ele>
        <time>2010-01-01T00:23:23Z</time>
      </trkpt>
      <trkpt lat="49.78882890" lon="24.01489320">
        <ele>343.00000</ele>
        <time>2010-01-01T00:24:35Z</time>
      </trkpt>
      <trkpt lat="49.78740370" lon="24.01461760">
        <ele>344.00000</ele>
        <time>2010-01-01T00:25:33Z</time>
      </trkpt>
      <trkpt lat="49.78648610" lon="24.01438390">
        <ele>345.00000</ele>
        <time>2010-01-01T00:26:10Z</time>
      </trkpt>
      <trkpt lat="49.78524060" lon="24.01411410">
        <ele>345.00000</ele>
        <time>2010-01-01T00:27:00Z</time>
      </trkpt>
      <trkpt lat="49.78507080" lon="24.01408790">
        <ele>346.00000</ele>
        <time>2010-01-01T00:27:07Z</time>
      </trkpt>
      <trkpt lat="49.78276790" lon="24.01385700">
        <ele>344.00000</ele>
        <time>2010-01-01T00:28:40Z</time>
      </trkpt>
      <trkpt lat="49.78142060" lon="24.01380350">
        <ele>343.00000</ele>
        <time>2010-01-01T00:29:34Z</time>
      </trkpt>
      <trkpt lat="49.78043420" lon="24.01380650">
        <ele>342.00000</ele>
        <time>2010-01-01T00:30:13Z</time>
      </trkpt>
      <trkpt lat="49.77810830" lon="24.01386310">
        <ele>343.00000</ele>
        <time>2010-01-01T00:31:46Z</time>
      </trkpt>
      <trkpt lat="49.77709870" lon="24.01391560">
        <ele>340.00000</ele>
        <time>2010-01-01T00:32:27Z</time>
      </trkpt>
      <trkpt lat="49.77571620" lon="24.01393940">
        <ele>341.00000</ele>
        <time>2010-01-01T00:33:22Z</time>
      </trkpt>
      <trkpt lat="49.77158800" lon="24.01407730">
        <ele>339.00000</ele>
        <time>2010-01-01T00:36:07Z</time>
      </trkpt>
      <trkpt lat="49.76985710" lon="24.01411460">
        <ele>339.00000</ele>
        <time>2010-01-01T00:37:16Z</time>
      </trkpt>
      <trkpt lat="49.76920540" lon="24.01411150">
        <ele>336.00000</ele>
        <time>2010-01-01T00:37:43Z</time>
      </trkpt>
      <trkpt lat="49.76863530" lon="24.01412610">
        <ele>335.00000</ele>
        <time>2010-01-01T00:38:05Z</time>
      </trkpt>
      <trkpt lat="49.76854160" lon="24.01411700">
        <ele>334.00000</ele>
        <time>2010-01-01T00:38:09Z</time>
      </trkpt>
      <trkpt lat="49.76835230" lon="24.01407320">
        <ele>334.00000</ele>
        <time>2010-01-01T00:38:17Z</time>
      </trkpt>
      <trkpt lat="49.76825890" lon="24.01402430">
        <ele>334.00000</ele>
        <time>2010-01-01T00:38:21Z</time>
      </trkpt>
      <trkpt lat="49.76808090" lon="24.01387140">
        <ele>333.00000</ele>
        <time>2010-01-01T00:38:29Z</time>
      </trkpt>
      <trkpt lat="49.76800340" lon="24.01376270">
        <ele>332.00000</ele>
        <time>2010-01-01T00:38:33Z</time>
      </trkpt>
      <trkpt lat="49.76794150" lon="24.01363940">
        <ele>331.00000</ele>
        <time>2010-01-01T00:38:37Z</time>
      </trkpt>
      <trkpt lat="49.76785170" lon="24.01336400">
        <ele>331.00000</ele>
        <time>2010-01-01T00:38:45Z</time>
      </trkpt>
      <trkpt lat="49.76782530" lon="24.01321940">
        <ele>331.00000</ele>
        <time>2010-01-01T00:38:49Z</time>
      </trkpt>
      <trkpt lat="49.76783120" lon="24.01279050">
        <ele>332.00000</ele>
        <time>2010-01-01T00:39:00Z</time>
      </trkpt>
      <trkpt lat="49.76793210" lon="24.01242060">
        <ele>332.00000</ele>
        <time>2010-01-01T00:39:10Z</time>
      </trkpt>
      <trkpt lat="49.76809970" lon="24.01216370">
        <ele>332.00000</ele>
        <time>2010-01-01T00:39:20Z</time>
      </trkpt>
      <trkpt lat="49.76837320" lon="24.01199090">
        <ele>334.00000</ele>
        <time>2010-01-01T00:39:32Z</time>
      </trkpt>
      <trkpt lat="49.76850800" lon="24.01197710">
        <ele>335.00000</ele>
        <time>2010-01-01T00:39:37Z</time>
      </trkpt>
      <trkpt lat="49.76863500" lon="24.01200520">
        <ele>336.00000</ele>
        <time>2010-01-01T00:39:42Z</time>
      </trkpt>
      <trkpt lat="49.76880090" lon="24.01211080">
        <ele>336.00000</ele>
        <time>2010-01-01T00:39:49Z</time>
      </trkpt>
      <trkpt lat="49.76885090" lon="24.01216260">
        <ele>336.00000</ele>
        <time>2010-01-01T00:39:52Z</time>
      </trkpt>
      <trkpt lat="49.76900120" lon="24.01241740">
        <ele>337.00000</ele>
        <time>2010-01-01T00:40:01Z</time>
      </trkpt>
      <trkpt lat="49.76906920" lon="24.01262470">
        <ele>337.00000</ele>
        <time>2010-01-01T00:40:07Z</time>
      </trkpt>
      <trkpt lat="49.76910390" lon="24.01285270">
        <ele>337.00000</ele>
        <time>2010-01-01T00:40:13Z</time>
      </trkpt>
      <trkpt lat="49.76912400" lon="24.01325810">
        <ele>336.00000</ele>
        <time>2010-01-01T00:40:23Z</time>
      </trkpt>
      <trkpt lat="49.76902930" lon="24.01495430">
        <ele>337.00000</ele>
        <time>2010-01-01T00:41:07Z</time>
      </trkpt>
      <trkpt lat="49.76886560" lon="24.01748200">
        <ele>339.00000</ele>
        <time>2010-01-01T00:42:13Z</time>
      </trkpt>
      <trkpt lat="49.76862610" lon="24.02087640">
        <ele>344.00000</ele>
        <time>2010-01-01T00:43:41Z</time>
      </trkpt>
      <trkpt lat="49.76827770" lon="24.02643170">
        <ele>341.00000</ele>
        <time>2010-01-01T00:46:06Z</time>
      </trkpt>
      <trkpt lat="49.76771980" lon="24.03454780">
        <ele>338.00000</ele>
        <time>2010-01-01T00:49:37Z</time>
      </trkpt>
      <trkpt lat="49.76743780" lon="24.03900210">
        <ele>336.00000</ele>
        <time>2010-01-01T00:51:32Z</time>
      </trkpt>
      <trkpt lat="49.76723160" lon="24.04281370">
        <ele>325.00000</ele>
        <time>2010-01-01T00:53:11Z</time>
      </trkpt>
      <trkpt lat="49.76712320" lon="24.04564520">
        <ele>319.00000</ele>
        <time>2010-01-01T00:54:25Z</time>
      </trkpt>
      <trkpt lat="49.76704310" lon="24.04735470">
        <ele>314.00000</ele>
        <time>2010-01-01T00:55:09Z</time>
      </trkpt>
      <trkpt lat="49.76700720" lon="24.04938210">
        <ele>312.00000</ele>
        <time>2010-01-01T00:56:01Z</time>
      </trkpt>
      <trkpt lat="49.76694850" lon="24.05142510">
        <ele>310.00000</ele>
        <time>2010-01-01T00:56:54Z</time>
      </trkpt>
      <trkpt lat="49.76691030" lon="24.05428130">
        <ele>331.00000</ele>
        <time>2010-01-01T00:58:08Z</time>
      </trkpt>
      <trkpt lat="49.76687300" lon="24.05540580">
        <ele>334.00000</ele>
        <time>2010-01-01T00:58:37Z</time>
      </trkpt>
      <trkpt lat="49.76684730" lon="24.05868820">
        <ele>339.00000</ele>
        <time>2010-01-01T01:00:02Z</time>
      </trkpt>
      <trkpt lat="49.76694770" lon="24.07227840">
        <ele>340.00000</ele>
        <time>2010-01-01T01:05:54Z</time>
      </trkpt>
      <trkpt lat="49.76695040" lon="24.07480340">
        <ele>341.00000</ele>
        <time>2010-01-01T01:06:59Z</time>
      </trkpt>
      <trkpt lat="49.76698460" lon="24.08014740">
        <ele>344.00000</ele>
        <time>2010-01-01T01:09:17Z</time>
      </trkpt>
      <trkpt lat="49.76697740" lon="24.08088600">
        <ele>344.00000</ele>
        <time>2010-01-01T01:09:36Z</time>
      </trkpt>
      <trkpt lat="49.76701480" lon="24.08464680">
        <ele>346.00000</ele>
        <time>2010-01-01T01:11:13Z</time>
      </trkpt>
      <trkpt lat="49.76701000" lon="24.08586090">
        <ele>346.00000</ele>
        <time>2010-01-01T01:11:45Z</time>
      </trkpt>
      <trkpt lat="49.76706890" lon="24.09344500">
        <ele>346.00000</ele>
        <time>2010-01-01T01:15:01Z</time>
      </trkpt>
      <trkpt lat="49.76710010" lon="24.09444900">
        <ele>346.00000</ele>
        <time>2010-01-01T01:15:27Z</time>
      </trkpt>
      <trkpt lat="49.76716120" lon="24.09564770">
        <ele>345.00000</ele>
        <time>2010-01-01T01:15:58Z</time>
      </trkpt>
      <trkpt lat="49.76725830" lon="24.09685470">
        <ele>345.00000</ele>
        <time>2010-01-01T01:16:29Z</time>
      </trkpt>
      <trkpt lat="49.76745620" lon="24.09851390">
        <ele>343.00000</ele>
        <time>2010-01-01T01:17:13Z</time>
      </trkpt>
      <trkpt lat="49.76794340" lon="24.10172290">
        <ele>333.00000</ele>
        <time>2010-01-01T01:18:38Z</time>
      </trkpt>
      <trkpt lat="49.76834550" lon="24.10467700">
        <ele>335.00000</ele>
        <time>2010-01-01T01:19:56Z</time>
      </trkpt>
      <trkpt lat="49.76869400" lon="24.10688760">
        <ele>343.00000</ele>
        <time>2010-01-01T01:20:55Z</time>
      </trkpt>
      <trkpt lat="49.76871550" lon="24.10707550">
        <ele>343.00000</ele>
        <time>2010-01-01T01:21:00Z</time>
      </trkpt>
      <trkpt lat="49.76867480" lon="24.10734190">
        <ele>343.00000</ele>
        <time>2010-01-01T01:21:07Z</time>
      </trkpt>
      <trkpt lat="49.76855310" lon="24.10753700">
        <ele>343.00000</ele>
        <time>2010-01-01T01:21:14Z</time>
      </trkpt>
      <trkpt lat="49.76850620" lon="24.10758730">
        <ele>343.00000</ele>
        <time>2010-01-01T01:21:16Z</time>
      </trkpt>
      <trkpt lat="49.76832360" lon="24.10774760">
        <ele>343.00000</ele>
        <time>2010-01-01T01:21:25Z</time>
      </trkpt>
      <trkpt lat="49.76827720" lon="24.10776730">
        <ele>343.00000</ele>
        <time>2010-01-01T01:21:27Z</time>
      </trkpt>
      <trkpt lat="49.76823100" lon="24.10777250">
        <ele>343.00000</ele>
        <time>2010-01-01T01:21:29Z</time>
      </trkpt>
      <trkpt lat="49.76801080" lon="24.10763590">
        <ele>341.00000</ele>
        <time>2010-01-01T01:21:38Z</time>
      </trkpt>
      <trkpt lat="49.76799150" lon="24.10760420">
        <ele>341.00000</ele>
        <time>2010-01-01T01:21:39Z</time>
      </trkpt>
      <trkpt lat="49.76790750" lon="24.10758210">
        <ele>341.00000</ele>
        <time>2010-01-01T01:21:43Z</time>
      </trkpt>
      <trkpt lat="49.76782290" lon="24.10769340">
        <ele>342.00000</ele>
        <time>2010-01-01T01:21:47Z</time>
      </trkpt>
      <trkpt lat="49.76722170" lon="24.10883010">
        <ele>344.00000</ele>
        <time>2010-01-01T01:22:25Z</time>
      </trkpt>
      <trkpt lat="49.76596830" lon="24.11133350">
        <ele>345.00000</ele>
        <time>2010-01-01T01:23:47Z</time>
      </trkpt>
      <trkpt lat="49.76538790" lon="24.11245090">
        <ele>340.00000</ele>
        <time>2010-01-01T01:24:24Z</time>
      </trkpt>
      <trkpt lat="49.76489740" lon="24.11346700">
        <ele>344.00000</ele>
        <time>2010-01-01T01:24:57Z</time>
      </trkpt>
      <trkpt lat="49.76438540" lon="24.11461400">
        <ele>353.00000</ele>
        <time>2010-01-01T01:25:33Z</time>
      </trkpt>
      <trkpt lat="49.76278350" lon="24.11854090">
        <ele>352.00000</ele>
        <time>2010-01-01T01:27:33Z</time>
      </trkpt>
      <trkpt lat="49.76262070" lon="24.11898520">
        <ele>349.00000</ele>
        <time>2010-01-01T01:27:46Z</time>
      </trkpt>
      <trkpt lat="49.76236320" lon="24.11976450">
        <ele>349.00000</ele>
        <time>2010-01-01T01:28:09Z</time>
      </trkpt>
      <trkpt lat="49.76163460" lon="24.12204290">
        <ele>353.00000</ele>
        <time>2010-01-01T01:29:15Z</time>
      </trkpt>
      <trkpt lat="49.76138790" lon="24.12268830">
        <ele>350.00000</ele>
        <time>2010-01-01T01:29:34Z</time>
      </trkpt>
      <trkpt lat="49.76063870" lon="24.12429910">
        <ele>346.00000</ele>
        <time>2010-01-01T01:30:25Z</time>
      </trkpt>
      <trkpt lat="49.76007650" lon="24.12539640">
        <ele>350.00000</ele>
        <time>2010-01-01T01:31:01Z</time>
      </trkpt>
      <trkpt lat="49.75686550" lon="24.13139170">
        <ele>346.00000</ele>
        <time>2010-01-01T01:34:23Z</time>
      </trkpt>
      <trkpt lat="49.75615070" lon="24.13261160">
        <ele>347.00000</ele>
        <time>2010-01-01T01:35:05Z</time>
      </trkpt>
      <trkpt lat="49.75549920" lon="24.13366840">
        <ele>342.00000</ele>
        <time>2010-01-01T01:35:43Z</time>
      </trkpt>
      <trkpt lat="49.75383120" lon="24.13643970">
        <ele>338.00000</ele>
        <time>2010-01-01T01:37:21Z</time>
      </trkpt>
      <trkpt lat="49.75333490" lon="24.13735050">
        <ele>338.00000</ele>
        <time>2010-01-01T01:37:52Z</time>
      </trkpt>
      <trkpt lat="49.75288340" lon="24.13860120">
        <ele>337.00000</ele>
        <time>2010-01-01T01:38:29Z</time>
      </trkpt>
      <trkpt lat="49.75169100" lon="24.14207460">
        <ele>332.00000</ele>
        <time>2010-01-01T01:40:11Z</time>
      </trkpt>
      <trkpt lat="49.75140690" lon="24.14286030">
        <ele>333.00000</ele>
        <time>2010-01-01T01:40:34Z</time>
      </trkpt>
      <trkpt lat="49.75116820" lon="24.14358100">
        <ele>326.00000</ele>
        <time>2010-01-01T01:40:55Z</time>
      </trkpt>
      <trkpt lat="49.75046880" lon="24.14550900">
        <ele>317.00000</ele>
        <time>2010-01-01T01:41:52Z</time>
      </trkpt>
      <trkpt lat="49.74990590" lon="24.14701350">
        <ele>309.00000</ele>
        <time>2010-01-01T01:42:37Z</time>
      </trkpt>
      <trkpt lat="49.74884080" lon="24.15001220">
        <ele>315.00000</ele>
        <time>2010-01-01T01:44:06Z</time>
      </trkpt>
      <trkpt lat="49.74861880" lon="24.15067860">
        <ele>317.00000</ele>
        <time>2010-01-01T01:44:25Z</time>
      </trkpt>
      <trkpt lat="49.74839980" lon="24.15139030">
        <ele>322.00000</ele>
        <time>2010-01-01T01:44:45Z</time>
      </trkpt>
      <trkpt lat="49.74829030" lon="24.15180330">
        <ele>323.00000</ele>
        <time>2010-01-01T01:44:57Z</time>
      </trkpt>
      <trkpt lat="49.74725500" lon="24.15602410">
        <ele>331.00000</ele>
        <time>2010-01-01T01:46:54Z</time>
      </trkpt>
      <trkpt lat="49.74701810" lon="24.15679470">
        <ele>333.00000</ele>
        <time>2010-01-01T01:47:16Z</time>
      </trkpt>
      <trkpt lat="49.74673400" lon="24.15758730">
        <ele>332.00000</ele>
        <time>2010-01-01T01:47:39Z</time>
      </trkpt>
      <trkpt lat="49.74641240" lon="24.15837920">
        <ele>330.00000</ele>
        <time>2010-01-01T01:48:03Z</time>
      </trkpt>
      <trkpt lat="49.74602970" lon="24.15925720">
        <ele>330.00000</ele>
        <time>2010-01-01T01:48:31Z</time>
      </trkpt>
      <trkpt lat="49.74570770" lon="24.15993400">
        <ele>327.00000</ele>
        <time>2010-01-01T01:48:53Z</time>
      </trkpt>
      <trkpt lat="49.74371040" lon="24.16359090">
        <ele>334.00000</ele>
        <time>2010-01-01T01:50:56Z</time>
      </trkpt>
      <trkpt lat="49.74335180" lon="24.16418990">
        <ele>332.00000</ele>
        <time>2010-01-01T01:51:18Z</time>
      </trkpt>
      <trkpt lat="49.74289660" lon="24.16479270">
        <ele>331.00000</ele>
        <time>2010-01-01T01:51:42Z</time>
      </trkpt>
      <trkpt lat="49.74241850" lon="24.16531460">
        <ele>333.00000</ele>
        <time>2010-01-01T01:52:05Z</time>
      </trkpt>
      <trkpt lat="49.74229730" lon="24.16543070">
        <ele>334.00000</ele>
        <time>2010-01-01T01:52:11Z</time>
      </trkpt>
      <trkpt lat="49.74150520" lon="24.16606130">
        <ele>334.00000</ele>
        <time>2010-01-01T01:52:46Z</time>
      </trkpt>
      <trkpt lat="49.74056890" lon="24.16686150">
        <ele>334.00000</ele>
        <time>2010-01-01T01:53:29Z</time>
      </trkpt>
      <trkpt lat="49.73962910" lon="24.16776250">
        <ele>334.00000</ele>
        <time>2010-01-01T01:54:13Z</time>
      </trkpt>
      <trkpt lat="49.73892220" lon="24.16851060">
        <ele>334.00000</ele>
        <time>2010-01-01T01:54:48Z</time>
      </trkpt>
      <trkpt lat="49.73841100" lon="24.16902310">
        <ele>336.00000</ele>
        <time>2010-01-01T01:55:12Z</time>
      </trkpt>
      <trkpt lat="49.73798540" lon="24.16940820">
        <ele>336.00000</ele>
        <time>2010-01-01T01:55:32Z</time>
      </trkpt>
      <trkpt lat="49.73571920" lon="24.17134900">
        <ele>339.00000</ele>
        <time>2010-01-01T01:57:16Z</time>
      </trkpt>
      <trkpt lat="49.73439210" lon="24.17244930">
        <ele>339.00000</ele>
        <time>2010-01-01T01:58:16Z</time>
      </trkpt>
      <trkpt lat="49.73089170" lon="24.17492640">
        <ele>343.00000</ele>
        <time>2010-01-01T02:00:50Z</time>
      </trkpt>
      <trkpt lat="49.73029210" lon="24.17538520">
        <ele>346.00000</ele>
        <time>2010-01-01T02:01:17Z</time>
      </trkpt>
      <trkpt lat="49.72981940" lon="24.17582360">
        <ele>347.00000</ele>
        <time>2010-01-01T02:01:39Z</time>
      </trkpt>
      <trkpt lat="49.72961520" lon="24.17603780">
        <ele>347.00000</ele>
        <time>2010-01-01T02:01:49Z</time>
      </trkpt>
      <trkpt lat="49.72921840" lon="24.17651280">
        <ele>348.00000</ele>
        <time>2010-01-01T02:02:09Z</time>
      </trkpt>
      <trkpt lat="49.72889030" lon="24.17695730">
        <ele>348.00000</ele>
        <time>2010-01-01T02:02:26Z</time>
      </trkpt>
      <trkpt lat="49.72665630" lon="24.18031280">
        <ele>350.00000</ele>
        <time>2010-01-01T02:04:31Z</time>
      </trkpt>
      <trkpt lat="49.72636790" lon="24.18075870">
        <ele>348.00000</ele>
        <time>2010-01-01T02:04:47Z</time>
      </trkpt>
      <trkpt lat="49.72619860" lon="24.18105710">
        <ele>349.00000</ele>
        <time>2010-01-01T02:04:57Z</time>
      </trkpt>
      <trkpt lat="49.72604220" lon="24.18141060">
        <ele>349.00000</ele>
        <time>2010-01-01T02:05:08Z</time>
      </trkpt>
      <trkpt lat="49.72596360" lon="24.18169170">
        <ele>348.00000</ele>
        <time>2010-01-01T02:05:16Z</time>
      </trkpt>
      <trkpt lat="49.72586500" lon="24.18214910">
        <ele>347.00000</ele>
        <time>2010-01-01T02:05:29Z</time>
      </trkpt>
      <trkpt lat="49.72533790" lon="24.18500810">
        <ele>325.00000</ele>
        <time>2010-01-01T02:06:46Z</time>
      </trkpt>
      <trkpt lat="49.72428780" lon="24.19046830">
        <ele>314.00000</ele>
        <time>2010-01-01T02:09:13Z</time>
      </trkpt>
      <trkpt lat="49.72410660" lon="24.19148970">
        <ele>310.00000</ele>
        <time>2010-01-01T02:09:41Z</time>
      </trkpt>
      <trkpt lat="49.72327440" lon="24.19572370">
        <ele>320.00000</ele>
        <time>2010-01-01T02:11:35Z</time>
      </trkpt>
      <trkpt lat="49.72254590" lon="24.19962850">
        <ele>330.00000</ele>
        <time>2010-01-01T02:13:20Z</time>
      </trkpt>
      <trkpt lat="49.72229000" lon="24.20092700">
        <ele>333.00000</ele>
        <time>2010-01-01T02:13:55Z</time>
      </trkpt>
      <trkpt lat="49.72214620" lon="24.20150890">
        <ele>339.00000</ele>
        <time>2010-01-01T02:14:12Z</time>
      </trkpt>
      <trkpt lat="49.72196110" lon="24.20195540">
        <ele>341.00000</ele>
        <time>2010-01-01T02:14:25Z</time>
      </trkpt>
      <trkpt lat="49.72182010" lon="24.20222330">
        <ele>340.00000</ele>
        <time>2010-01-01T02:14:34Z</time>
      </trkpt>
      <trkpt lat="49.72136580" lon="24.20287360">
        <ele>341.00000</ele>
        <time>2010-01-01T02:14:59Z</time>
      </trkpt>
      <trkpt lat="49.71886220" lon="24.20582480">
        <ele>334.00000</ele>
        <time>2010-01-01T02:17:05Z</time>
      </trkpt>
      <trkpt lat="49.71861960" lon="24.20612750">
        <ele>333.00000</ele>
        <time>2010-01-01T02:17:17Z</time>
      </trkpt>
      <trkpt lat="49.71743980" lon="24.20782290">
        <ele>332.00000</ele>
        <time>2010-01-01T02:18:22Z</time>
      </trkpt>
      <trkpt lat="49.71418130" lon="24.21263830">
        <ele>333.00000</ele>
        <time>2010-01-01T02:21:22Z</time>
      </trkpt>
      <trkpt lat="49.71391970" lon="24.21307520">
        <ele>333.00000</ele>
        <time>2010-01-01T02:21:38Z</time>
      </trkpt>
      <trkpt lat="49.71380840" lon="24.21329500">
        <ele>334.00000</ele>
        <time>2010-01-01T02:21:45Z</time>
      </trkpt>
      <trkpt lat="49.71354020" lon="24.21389150">
        <ele>336.00000</ele>
        <time>2010-01-01T02:22:04Z</time>
      </trkpt>
      <trkpt lat="49.71314100" lon="24.21484620">
        <ele>336.00000</ele>
        <time>2010-01-01T02:22:33Z</time>
      </trkpt>
      <trkpt lat="49.71283280" lon="24.21536100">
        <ele>334.00000</ele>
        <time>2010-01-01T02:22:51Z</time>
      </trkpt>
      <trkpt lat="49.71248100" lon="24.21575920">
        <ele>334.00000</ele>
        <time>2010-01-01T02:23:09Z</time>
      </trkpt>
      <trkpt lat="49.71030170" lon="24.21804350">
        <ele>336.00000</ele>
        <time>2010-01-01T02:24:54Z</time>
      </trkpt>
      <trkpt lat="49.70971460" lon="24.21870100">
        <ele>336.00000</ele>
        <time>2010-01-01T02:25:23Z</time>
      </trkpt>
      <trkpt lat="49.70944320" lon="24.21904280">
        <ele>337.00000</ele>
        <time>2010-01-01T02:25:37Z</time>
      </trkpt>
      <trkpt lat="49.70908460" lon="24.21953350">
        <ele>340.00000</ele>
        <time>2010-01-01T02:25:56Z</time>
      </trkpt>
      <trkpt lat="49.70696500" lon="24.22265360">
        <ele>341.00000</ele>
        <time>2010-01-01T02:27:54Z</time>
      </trkpt>
      <trkpt lat="49.70648550" lon="24.22334490">
        <ele>341.00000</ele>
        <time>2010-01-01T02:28:20Z</time>
      </trkpt>
      <trkpt lat="49.70587570" lon="24.22417630">
        <ele>341.00000</ele>
        <time>2010-01-01T02:28:52Z</time>
      </trkpt>
      <trkpt lat="49.70551850" lon="24.22470930">
        <ele>341.00000</ele>
        <time>2010-01-01T02:29:12Z</time>
      </trkpt>
      <trkpt lat="49.70528030" lon="24.22503780">
        <ele>340.00000</ele>
        <time>2010-01-01T02:29:25Z</time>
      </trkpt>
      <trkpt lat="49.70457270" lon="24.22585110">
        <ele>335.00000</ele>
        <time>2010-01-01T02:30:00Z</time>
      </trkpt>
      <trkpt lat="49.70398920" lon="24.22647630">
        <ele>333.00000</ele>
        <time>2010-01-01T02:30:29Z</time>
      </trkpt>
      <trkpt lat="49.70287860" lon="24.22761640">
        <ele>329.00000</ele>
        <time>2010-01-01T02:31:22Z</time>
      </trkpt>
      <trkpt lat="49.70234170" lon="24.22822560">
        <ele>329.00000</ele>
        <time>2010-01-01T02:31:49Z</time>
      </trkpt>
      <trkpt lat="49.70199840" lon="24.22878010">
        <ele>328.00000</ele>
        <time>2010-01-01T02:32:09Z</time>
      </trkpt>
      <trkpt lat="49.70133540" lon="24.23003610">
        <ele>331.00000</ele>
        <time>2010-01-01T02:32:51Z</time>
      </trkpt>
      <trkpt lat="49.70111100" lon="24.23042910">
        <ele>330.00000</ele>
        <time>2010-01-01T02:33:04Z</time>
      </trkpt>
      <trkpt lat="49.70048710" lon="24.23159650">
        <ele>334.00000</ele>
        <time>2010-01-01T02:33:43Z</time>
      </trkpt>
      <trkpt lat="49.69989190" lon="24.23257180">
        <ele>336.00000</ele>
        <time>2010-01-01T02:34:18Z</time>
      </trkpt>
      <trkpt lat="49.69915270" lon="24.23368710">
        <ele>344.00000</ele>
        <time>2010-01-01T02:34:59Z</time>
      </trkpt>
      <trkpt lat="49.69818990" lon="24.23510060">
        <ele>344.00000</ele>
        <time>2010-01-01T02:35:53Z</time>
      </trkpt>
      <trkpt lat="49.69785370" lon="24.23557350">
        <ele>346.00000</ele>
        <time>2010-01-01T02:36:11Z</time>
      </trkpt>
      <trkpt lat="49.69739930" lon="24.23617710">
        <ele>343.00000</ele>
        <time>2010-01-01T02:36:35Z</time>
      </trkpt>
      <trkpt lat="49.69684130" lon="24.23687170">
        <ele>344.00000</ele>
        <time>2010-01-01T02:37:03Z</time>
      </trkpt>
      <trkpt lat="49.69664930" lon="24.23707270">
        <ele>344.00000</ele>
        <time>2010-01-01T02:37:13Z</time>
      </trkpt>
      <trkpt lat="49.69631900" lon="24.23736650">
        <ele>343.00000</ele>
        <time>2010-01-01T02:37:28Z</time>
      </trkpt>
      <trkpt lat="49.69467120" lon="24.23851270">
        <ele>342.00000</ele>
        <time>2010-01-01T02:38:40Z</time>
      </trkpt>
      <trkpt lat="49.69343180" lon="24.23942600">
        <ele>341.00000</ele>
        <time>2010-01-01T02:39:35Z</time>
      </trkpt>
      <trkpt lat="49.69235380" lon="24.24028160">
        <ele>343.00000</ele>
        <time>2010-01-01T02:40:24Z</time>
      </trkpt>
      <trkpt lat="49.69171660" lon="24.24081380">
        <ele>345.00000</ele>
        <time>2010-01-01T02:40:53Z</time>
      </trkpt>
      <trkpt lat="49.69058540" lon="24.24180510">
        <ele>345.00000</ele>
        <time>2010-01-01T02:41:45Z</time>
      </trkpt>
      <trkpt lat="49.68954270" lon="24.24275160">
        <ele>355.00000</ele>
        <time>2010-01-01T02:42:33Z</time>
      </trkpt>
      <trkpt lat="49.68877370" lon="24.24354290">
        <ele>351.00000</ele>
        <time>2010-01-01T02:43:10Z</time>
      </trkpt>
      <trkpt lat="49.68723960" lon="24.24500040">
        <ele>352.00000</ele>
        <time>2010-01-01T02:44:22Z</time>
      </trkpt>
      <trkpt lat="49.68668340" lon="24.24555750">
        <ele>359.00000</ele>
        <time>2010-01-01T02:44:49Z</time>
      </trkpt>
      <trkpt lat="49.68624130" lon="24.24597220">
        <ele>360.00000</ele>
        <time>2010-01-01T02:45:10Z</time>
      </trkpt>
      <trkpt lat="49.68607070" lon="24.24619030">
        <ele>359.00000</ele>
        <time>2010-01-01T02:45:18Z</time>
      </trkpt>
      <trkpt lat="49.68572470" lon="24.24676250">
        <ele>360.00000</ele>
        <time>2010-01-01T02:45:39Z</time>
      </trkpt>
      <trkpt lat="49.68508980" lon="24.24800430">
        <ele>349.00000</ele>
        <time>2010-01-01T02:46:20Z</time>
      </trkpt>
      <trkpt lat="49.68484960" lon="24.24851700">
        <ele>345.00000</ele>
        <time>2010-01-01T02:46:36Z</time>
      </trkpt>
      <trkpt lat="49.68444020" lon="24.24922270">
        <ele>339.00000</ele>
        <time>2010-01-01T02:47:01Z</time>
      </trkpt>
      <trkpt lat="49.68343510" lon="24.25122480">
        <ele>339.00000</ele>
        <time>2010-01-01T02:48:06Z</time>
      </trkpt>
      <trkpt lat="49.68280790" lon="24.25240110">
        <ele>348.00000</ele>
        <time>2010-01-01T02:48:46Z</time>
      </trkpt>
      <trkpt lat="49.68279020" lon="24.25247930">
        <ele>348.00000</ele>
        <time>2010-01-01T02:48:48Z</time>
      </trkpt>
      <trkpt lat="49.68262290" lon="24.25287850">
        <ele>353.00000</ele>
        <time>2010-01-01T02:49:00Z</time>
      </trkpt>
      <trkpt lat="49.68244840" lon="24.25328430">
        <ele>354.00000</ele>
        <time>2010-01-01T02:49:13Z</time>
      </trkpt>
      <trkpt lat="49.68227110" lon="24.25365050">
        <ele>355.00000</ele>
        <time>2010-01-01T02:49:25Z</time>
      </trkpt>
      <trkpt lat="49.68151810" lon="24.25511210">
        <ele>357.00000</ele>
        <time>2010-01-01T02:50:13Z</time>
      </trkpt>
      <trkpt lat="49.68061830" lon="24.25691800">
        <ele>361.00000</ele>
        <time>2010-01-01T02:51:12Z</time>
      </trkpt>
      <trkpt lat="49.67926890" lon="24.25953700">
        <ele>355.00000</ele>
        <time>2010-01-01T02:52:39Z</time>
      </trkpt>
      <trkpt lat="49.67781840" lon="24.26226480">
        <ele>360.00000</ele>
        <time>2010-01-01T02:54:10Z</time>
      </trkpt>
      <trkpt lat="49.67775580" lon="24.26236850">
        <ele>360.00000</ele>
        <time>2010-01-01T02:54:14Z</time>
      </trkpt>
      <trkpt lat="49.67733610" lon="24.26292070">
        <ele>354.00000</ele>
        <time>2010-01-01T02:54:36Z</time>
      </trkpt>
      <trkpt lat="49.67699470" lon="24.26323480">
        <ele>353.00000</ele>
        <time>2010-01-01T02:54:52Z</time>
      </trkpt>
      <trkpt lat="49.67671520" lon="24.26340890">
        <ele>351.00000</ele>
        <time>2010-01-01T02:55:04Z</time>
      </trkpt>
      <trkpt lat="49.67642150" lon="24.26352020">
        <ele>351.00000</ele>
        <time>2010-01-01T02:55:16Z</time>
      </trkpt>
      <trkpt lat="49.67604350" lon="24.26363150">
        <ele>350.00000</ele>
        <time>2010-01-01T02:55:31Z</time>
      </trkpt>
      <trkpt lat="49.67477560" lon="24.26393480">
        <ele>355.00000</ele>
        <time>2010-01-01T02:56:23Z</time>
      </trkpt>
      <trkpt lat="49.67423990" lon="24.26408890">
        <ele>355.00000</ele>
        <time>2010-01-01T02:56:45Z</time>
      </trkpt>
      <trkpt lat="49.67380180" lon="24.26423970">
        <ele>355.00000</ele>
        <time>2010-01-01T02:57:03Z</time>
      </trkpt>
      <trkpt lat="49.67321520" lon="24.26448710">
        <ele>353.00000</ele>
        <time>2010-01-01T02:57:27Z</time>
      </trkpt>
      <trkpt lat="49.67251390" lon="24.26485650">
        <ele>355.00000</ele>
        <time>2010-01-01T02:57:57Z</time>
      </trkpt>
      <trkpt lat="49.67195460" lon="24.26519920">
        <ele>355.00000</ele>
        <time>2010-01-01T02:58:21Z</time>
      </trkpt>
      <trkpt lat="49.67020580" lon="24.26646020">
        <ele>350.00000</ele>
        <time>2010-01-01T02:59:38Z</time>
      </trkpt>
      <trkpt lat="49.66982460" lon="24.26675300">
        <ele>346.00000</ele>
        <time>2010-01-01T02:59:55Z</time>
      </trkpt>
      <trkpt lat="49.66964660" lon="24.26691980">
        <ele>346.00000</ele>
        <time>2010-01-01T03:00:03Z</time>
      </trkpt>
      <trkpt lat="49.66932730" lon="24.26734520">
        <ele>343.00000</ele>
        <time>2010-01-01T03:00:20Z</time>
      </trkpt>
      <trkpt lat="49.66905940" lon="24.26781720">
        <ele>345.00000</ele>
        <time>2010-01-01T03:00:36Z</time>
      </trkpt>
      <trkpt lat="49.66854560" lon="24.26886280">
        <ele>342.00000</ele>
        <time>2010-01-01T03:01:10Z</time>
      </trkpt>
      <trkpt lat="49.66814460" lon="24.26974220">
        <ele>349.00000</ele>
        <time>2010-01-01T03:01:38Z</time>
      </trkpt>
      <trkpt lat="49.66782550" lon="24.27050040">
        <ele>348.00000</ele>
        <time>2010-01-01T03:02:02Z</time>
      </trkpt>
      <trkpt lat="49.66699000" lon="24.27265590">
        <ele>347.00000</ele>
        <time>2010-01-01T03:03:07Z</time>
      </trkpt>
      <trkpt lat="49.66649570" lon="24.27389110">
        <ele>349.00000</ele>
        <time>2010-01-01T03:03:44Z</time>
      </trkpt>
      <trkpt lat="49.66636200" lon="24.27418060">
        <ele>349.00000</ele>
        <time>2010-01-01T03:03:54Z</time>
      </trkpt>
      <trkpt lat="49.66607930" lon="24.27464750">
        <ele>351.00000</ele>
        <time>2010-01-01T03:04:10Z</time>
      </trkpt>
      <trkpt lat="49.66575850" lon="24.27492540">
        <ele>352.00000</ele>
        <time>2010-01-01T03:04:25Z</time>
      </trkpt>
      <trkpt lat="49.66532170" lon="24.27511760">
        <ele>352.00000</ele>
        <time>2010-01-01T03:04:43Z</time>
      </trkpt>
      <trkpt lat="49.66170700" lon="24.27642120">
        <ele>365.00000</ele>
        <time>2010-01-01T03:07:12Z</time>
      </trkpt>
      <trkpt lat="49.66137100" lon="24.27656670">
        <ele>367.00000</ele>
        <time>2010-01-01T03:07:26Z</time>
      </trkpt>
      <trkpt lat="49.66099620" lon="24.27680400">
        <ele>369.00000</ele>
        <time>2010-01-01T03:07:42Z</time>
      </trkpt>
      <trkpt lat="49.66079710" lon="24.27697840">
        <ele>371.00000</ele>
        <time>2010-01-01T03:07:51Z</time>
      </trkpt>
      <trkpt lat="49.66057050" lon="24.27723490">
        <ele>371.00000</ele>
        <time>2010-01-01T03:08:02Z</time>
      </trkpt>
      <trkpt lat="49.66004820" lon="24.27807460">
        <ele>371.00000</ele>
        <time>2010-01-01T03:08:33Z</time>
      </trkpt>
      <trkpt lat="49.65930120" lon="24.27942560">
        <ele>368.00000</ele>
        <time>2010-01-01T03:09:19Z</time>
      </trkpt>
      <trkpt lat="49.65896650" lon="24.27988950">
        <ele>366.00000</ele>
        <time>2010-01-01T03:09:37Z</time>
      </trkpt>
      <trkpt lat="49.65807020" lon="24.28097010">
        <ele>362.00000</ele>
        <time>2010-01-01T03:10:22Z</time>
      </trkpt>
      <trkpt lat="49.65761610" lon="24.28148760">
        <ele>359.00000</ele>
        <time>2010-01-01T03:10:45Z</time>
      </trkpt>
      <trkpt lat="49.65708010" lon="24.28213590">
        <ele>357.00000</ele>
        <time>2010-01-01T03:11:12Z</time>
      </trkpt>
      <trkpt lat="49.65633560" lon="24.28300140">
        <ele>356.00000</ele>
        <time>2010-01-01T03:11:49Z</time>
      </trkpt>
      <trkpt lat="49.65577130" lon="24.28359630">
        <ele>357.00000</ele>
        <time>2010-01-01T03:12:17Z</time>
      </trkpt>
      <trkpt lat="49.65527970" lon="24.28394860">
        <ele>355.00000</ele>
        <time>2010-01-01T03:12:38Z</time>
      </trkpt>
      <trkpt lat="49.65494580" lon="24.28412130">
        <ele>356.00000</ele>
        <time>2010-01-01T03:12:52Z</time>
      </trkpt>
      <trkpt lat="49.65238810" lon="24.28527960">
        <ele>359.00000</ele>
        <time>2010-01-01T03:14:39Z</time>
      </trkpt>
      <trkpt lat="49.65204100" lon="24.28545070">
        <ele>357.00000</ele>
        <time>2010-01-01T03:14:54Z</time>
      </trkpt>
      <trkpt lat="49.65152980" lon="24.28585040">
        <ele>358.00000</ele>
        <time>2010-01-01T03:15:17Z</time>
      </trkpt>
      <trkpt lat="49.64969870" lon="24.28786780">
        <ele>353.00000</ele>
        <time>2010-01-01T03:16:47Z</time>
      </trkpt>
      <trkpt lat="49.64770670" lon="24.28999970">
        <ele>349.00000</ele>
        <time>2010-01-01T03:18:24Z</time>
      </trkpt>
      <trkpt lat="49.64727540" lon="24.29041420">
        <ele>346.00000</ele>
        <time>2010-01-01T03:18:44Z</time>
      </trkpt>
      <trkpt lat="49.64703860" lon="24.29061100">
        <ele>344.00000</ele>
        <time>2010-01-01T03:18:55Z</time>
      </trkpt>
      <trkpt lat="49.64676790" lon="24.29080070">
        <ele>341.00000</ele>
        <time>2010-01-01T03:19:07Z</time>
      </trkpt>
      <trkpt lat="49.64662870" lon="24.29086800">
        <ele>339.00000</ele>
        <time>2010-01-01T03:19:12Z</time>
      </trkpt>
      <trkpt lat="49.64618570" lon="24.29103450">
        <ele>337.00000</ele>
        <time>2010-01-01T03:19:31Z</time>
      </trkpt>
      <trkpt lat="49.64602940" lon="24.29107790">
        <ele>336.00000</ele>
        <time>2010-01-01T03:19:37Z</time>
      </trkpt>
      <trkpt lat="49.64418610" lon="24.29126420">
        <ele>316.00000</ele>
        <time>2010-01-01T03:20:51Z</time>
      </trkpt>
      <trkpt lat="49.64385460" lon="24.29132610">
        <ele>312.00000</ele>
        <time>2010-01-01T03:21:04Z</time>
      </trkpt>
      <trkpt lat="49.64353040" lon="24.29140830">
        <ele>308.00000</ele>
        <time>2010-01-01T03:21:18Z</time>
      </trkpt>
      <trkpt lat="49.64337280" lon="24.29146690">
        <ele>305.00000</ele>
        <time>2010-01-01T03:21:24Z</time>
      </trkpt>
      <trkpt lat="49.64305320" lon="24.29163310">
        <ele>303.00000</ele>
        <time>2010-01-01T03:21:38Z</time>
      </trkpt>
      <trkpt lat="49.64290390" lon="24.29174090">
        <ele>303.00000</ele>
        <time>2010-01-01T03:21:44Z</time>
      </trkpt>
      <trkpt lat="49.64276270" lon="24.29186830">
        <ele>302.00000</ele>
        <time>2010-01-01T03:21:51Z</time>
      </trkpt>
      <trkpt lat="49.64262820" lon="24.29201540">
        <ele>301.00000</ele>
        <time>2010-01-01T03:21:57Z</time>
      </trkpt>
      <trkpt lat="49.64249960" lon="24.29218370">
        <ele>300.00000</ele>
        <time>2010-01-01T03:22:04Z</time>
      </trkpt>
      <trkpt lat="49.64225830" lon="24.29255290">
        <ele>300.00000</ele>
        <time>2010-01-01T03:22:18Z</time>
      </trkpt>
      <trkpt lat="49.64184310" lon="24.29336640">
        <ele>297.00000</ele>
        <time>2010-01-01T03:22:44Z</time>
      </trkpt>
      <trkpt lat="49.64173290" lon="24.29355700">
        <ele>296.00000</ele>
        <time>2010-01-01T03:22:51Z</time>
      </trkpt>
      <trkpt lat="49.64160470" lon="24.29371290">
        <ele>295.00000</ele>
        <time>2010-01-01T03:22:58Z</time>
      </trkpt>
      <trkpt lat="49.64146360" lon="24.29383090">
        <ele>294.00000</ele>
        <time>2010-01-01T03:23:04Z</time>
      </trkpt>
      <trkpt lat="49.64131240" lon="24.29391120">
        <ele>293.00000</ele>
        <time>2010-01-01T03:23:10Z</time>
      </trkpt>
      <trkpt lat="49.64086450" lon="24.29405430">
        <ele>292.00000</ele>
        <time>2010-01-01T03:23:29Z</time>
      </trkpt>
      <trkpt lat="49.64057950" lon="24.29407970">
        <ele>291.00000</ele>
        <time>2010-01-01T03:23:40Z</time>
      </trkpt>
      <trkpt lat="49.64018090" lon="24.29399620">
        <ele>291.00000</ele>
        <time>2010-01-01T03:23:56Z</time>
      </trkpt>
      <trkpt lat="49.63952990" lon="24.29377340">
        <ele>296.00000</ele>
        <time>2010-01-01T03:24:23Z</time>
      </trkpt>
      <trkpt lat="49.63928170" lon="24.29366110">
        <ele>298.00000</ele>
        <time>2010-01-01T03:24:33Z</time>
      </trkpt>
      <trkpt lat="49.63921670" lon="24.29360530">
        <ele>299.00000</ele>
        <time>2010-01-01T03:24:36Z</time>
      </trkpt>
      <trkpt lat="49.63904380" lon="24.29335880">
        <ele>301.00000</ele>
        <time>2010-01-01T03:24:46Z</time>
      </trkpt>
      <trkpt lat="49.63856990" lon="24.29255350">
        <ele>299.00000</ele>
        <time>2010-01-01T03:25:14Z</time>
      </trkpt>
      <trkpt lat="49.63842900" lon="24.29233930">
        <ele>297.00000</ele>
        <time>2010-01-01T03:25:22Z</time>
      </trkpt>
      <trkpt lat="49.63805880" lon="24.29196570">
        <ele>291.00000</ele>
        <time>2010-01-01T03:25:40Z</time>
      </trkpt>
      <trkpt lat="49.63736400" lon="24.29118770">
        <ele>290.00000</ele>
        <time>2010-01-01T03:26:14Z</time>
      </trkpt>
      <trkpt lat="49.63666960" lon="24.29044610">
        <ele>289.00000</ele>
        <time>2010-01-01T03:26:48Z</time>
      </trkpt>
      <trkpt lat="49.63609810" lon="24.28988090">
        <ele>286.00000</ele>
        <time>2010-01-01T03:27:15Z</time>
      </trkpt>
      <trkpt lat="49.63574100" lon="24.28970020">
        <ele>286.00000</ele>
        <time>2010-01-01T03:27:30Z</time>
      </trkpt>
      <trkpt lat="49.63531020" lon="24.28961060">
        <ele>289.00000</ele>
        <time>2010-01-01T03:27:47Z</time>
      </trkpt>
      <trkpt lat="49.63422460" lon="24.28955590">
        <ele>288.00000</ele>
        <time>2010-01-01T03:28:31Z</time>
      </trkpt>
      <trkpt lat="49.63381200" lon="24.28948270">
        <ele>287.00000</ele>
        <time>2010-01-01T03:28:47Z</time>
      </trkpt>
      <trkpt lat="49.63342350" lon="24.28931660">
        <ele>286.00000</ele>
        <time>2010-01-01T03:29:04Z</time>
      </trkpt>
      <trkpt lat="49.63292450" lon="24.28898590">
        <ele>286.00000</ele>
        <time>2010-01-01T03:29:25Z</time>
      </trkpt>
      <trkpt lat="49.63188970" lon="24.28790110">
        <ele>288.00000</ele>
        <time>2010-01-01T03:30:15Z</time>
      </trkpt>
      <trkpt lat="49.63138060" lon="24.28740620">
        <ele>289.00000</ele>
        <time>2010-01-01T03:30:39Z</time>
      </trkpt>
      <trkpt lat="49.63090080" lon="24.28700600">
        <ele>288.00000</ele>
        <time>2010-01-01T03:31:01Z</time>
      </trkpt>
      <trkpt lat="49.63006340" lon="24.28627410">
        <ele>290.00000</ele>
        <time>2010-01-01T03:31:40Z</time>
      </trkpt>
      <trkpt lat="49.62963230" lon="24.28587820">
        <ele>293.00000</ele>
        <time>2010-01-01T03:32:00Z</time>
      </trkpt>
      <trkpt lat="49.62906990" lon="24.28541910">
        <ele>291.00000</ele>
        <time>2010-01-01T03:32:25Z</time>
      </trkpt>
      <trkpt lat="49.62858830" lon="24.28499870">
        <ele>291.00000</ele>
        <time>2010-01-01T03:32:47Z</time>
      </trkpt>
      <trkpt lat="49.62804260" lon="24.28462530">
        <ele>288.00000</ele>
        <time>2010-01-01T03:33:11Z</time>
      </trkpt>
      <trkpt lat="49.62705100" lon="24.28401270">
        <ele>283.00000</ele>
        <time>2010-01-01T03:33:54Z</time>
      </trkpt>
      <trkpt lat="49.62612950" lon="24.28347710">
        <ele>288.00000</ele>
        <time>2010-01-01T03:34:34Z</time>
      </trkpt>
      <trkpt lat="49.62540400" lon="24.28316340">
        <ele>295.00000</ele>
        <time>2010-01-01T03:35:04Z</time>
      </trkpt>
      <trkpt lat="49.62462640" lon="24.28293810">
        <ele>298.00000</ele>
        <time>2010-01-01T03:35:35Z</time>
      </trkpt>
      <trkpt lat="49.62451580" lon="24.28291760">
        <ele>298.00000</ele>
        <time>2010-01-01T03:35:40Z</time>
      </trkpt>
      <trkpt lat="49.62422840" lon="24.28291250">
        <ele>299.00000</ele>
        <time>2010-01-01T03:35:51Z</time>
      </trkpt>
      <trkpt lat="49.62388150" lon="24.28295610">
        <ele>300.00000</ele>
        <time>2010-01-01T03:36:05Z</time>
      </trkpt>
      <trkpt lat="49.62302240" lon="24.28318850">
        <ele>297.00000</ele>
        <time>2010-01-01T03:36:40Z</time>
      </trkpt>
      <trkpt lat="49.62273910" lon="24.28323970">
        <ele>296.00000</ele>
        <time>2010-01-01T03:36:52Z</time>
      </trkpt>
      <trkpt lat="49.62234420" lon="24.28328350">
        <ele>295.00000</ele>
        <time>2010-01-01T03:37:07Z</time>
      </trkpt>
      <trkpt lat="49.61976850" lon="24.28336400">
        <ele>293.00000</ele>
        <time>2010-01-01T03:38:51Z</time>
      </trkpt>
      <trkpt lat="49.61798900" lon="24.28347080">
        <ele>290.00000</ele>
        <time>2010-01-01T03:40:02Z</time>
      </trkpt>
      <trkpt lat="49.61619000" lon="24.28353700">
        <ele>283.00000</ele>
        <time>2010-01-01T03:41:14Z</time>
      </trkpt>
      <trkpt lat="49.61435830" lon="24.28363890">
        <ele>292.00000</ele>
        <time>2010-01-01T03:42:27Z</time>
      </trkpt>
      <trkpt lat="49.61411750" lon="24.28363730">
        <ele>293.00000</ele>
        <time>2010-01-01T03:42:37Z</time>
      </trkpt>
      <trkpt lat="49.61324590" lon="24.28369710">
        <ele>296.00000</ele>
        <time>2010-01-01T03:43:12Z</time>
      </trkpt>
      <trkpt lat="49.60942870" lon="24.28458250">
        <ele>286.00000</ele>
        <time>2010-01-01T03:45:46Z</time>
      </trkpt>
      <trkpt lat="49.60538670" lon="24.28548520">
        <ele>283.00000</ele>
        <time>2010-01-01T03:48:30Z</time>
      </trkpt>
      <trkpt lat="49.60465490" lon="24.28563260">
        <ele>286.00000</ele>
        <time>2010-01-01T03:48:59Z</time>
      </trkpt>
      <trkpt lat="49.60426360" lon="24.28568500">
        <ele>286.00000</ele>
        <time>2010-01-01T03:49:15Z</time>
      </trkpt>
      <trkpt lat="49.60395440" lon="24.28565170">
        <ele>286.00000</ele>
        <time>2010-01-01T03:49:28Z</time>
      </trkpt>
      <trkpt lat="49.60169540" lon="24.28511490">
        <ele>289.00000</ele>
        <time>2010-01-01T03:50:59Z</time>
      </trkpt>
      <trkpt lat="49.60123800" lon="24.28503210">
        <ele>289.00000</ele>
        <time>2010-01-01T03:51:17Z</time>
      </trkpt>
      <trkpt lat="49.60104030" lon="24.28502660">
        <ele>289.00000</ele>
        <time>2010-01-01T03:51:25Z</time>
      </trkpt>
      <trkpt lat="49.59915940" lon="24.28508190">
        <ele>290.00000</ele>
        <time>2010-01-01T03:52:41Z</time>
      </trkpt>
      <trkpt lat="49.59739940" lon="24.28509790">
        <ele>291.00000</ele>
        <time>2010-01-01T03:53:51Z</time>
      </trkpt>
      <trkpt lat="49.59517790" lon="24.28507230">
        <ele>297.00000</ele>
        <time>2010-01-01T03:55:20Z</time>
      </trkpt>
      <trkpt lat="49.59298000" lon="24.28507870">
        <ele>296.00000</ele>
        <time>2010-01-01T03:56:48Z</time>
      </trkpt>
      <trkpt lat="49.59264060" lon="24.28506180">
        <ele>295.00000</ele>
        <time>2010-01-01T03:57:02Z</time>
      </trkpt>
      <trkpt lat="49.59202090" lon="24.28493130">
        <ele>297.00000</ele>
        <time>2010-01-01T03:57:27Z</time>
      </trkpt>
      <trkpt lat="49.59148370" lon="24.28475760">
        <ele>290.00000</ele>
        <time>2010-01-01T03:57:49Z</time>
      </trkpt>
      <trkpt lat="49.59086010" lon="24.28453200">
        <ele>284.00000</ele>
        <time>2010-01-01T03:58:14Z</time>
      </trkpt>
      <trkpt lat="49.59034640" lon="24.28429200">
        <ele>280.00000</ele>
        <time>2010-01-01T03:58:36Z</time>
      </trkpt>
      <trkpt lat="49.58937330" lon="24.28373230">
        <ele>282.00000</ele>
        <time>2010-01-01T03:59:17Z</time>
      </trkpt>
      <trkpt lat="49.58813860" lon="24.28294010">
        <ele>288.00000</ele>
        <time>2010-01-01T04:00:11Z</time>
      </trkpt>
      <trkpt lat="49.58718660" lon="24.28229880">
        <ele>294.00000</ele>
        <time>2010-01-01T04:00:52Z</time>
      </trkpt>
      <trkpt lat="49.58393650" lon="24.27999100">
        <ele>286.00000</ele>
        <time>2010-01-01T04:03:16Z</time>
      </trkpt>
      <trkpt lat="49.58325410" lon="24.27952110">
        <ele>281.00000</ele>
        <time>2010-01-01T04:03:46Z</time>
      </trkpt>
      <trkpt lat="49.58302150" lon="24.27938990">
        <ele>280.00000</ele>
        <time>2010-01-01T04:03:56Z</time>
      </trkpt>
      <trkpt lat="49.58277660" lon="24.27931970">
        <ele>280.00000</ele>
        <time>2010-01-01T04:04:05Z</time>
      </trkpt>
      <trkpt lat="49.58243080" lon="24.27928210">
        <ele>281.00000</ele>
        <time>2010-01-01T04:04:19Z</time>
      </trkpt>
      <trkpt lat="49.58180290" lon="24.27924770">
        <ele>283.00000</ele>
        <time>2010-01-01T04:04:45Z</time>
      </trkpt>
      <trkpt lat="49.58112590" lon="24.27929750">
        <ele>284.00000</ele>
        <time>2010-01-01T04:05:12Z</time>
      </trkpt>
      <trkpt lat="49.58076310" lon="24.27935000">
        <ele>284.00000</ele>
        <time>2010-01-01T04:05:26Z</time>
      </trkpt>
      <trkpt lat="49.58054760" lon="24.27939170">
        <ele>285.00000</ele>
        <time>2010-01-01T04:05:35Z</time>
      </trkpt>
      <trkpt lat="49.58020600" lon="24.27949640">
        <ele>287.00000</ele>
        <time>2010-01-01T04:05:49Z</time>
      </trkpt>
      <trkpt lat="49.57990090" lon="24.27968500">
        <ele>287.00000</ele>
        <time>2010-01-01T04:06:02Z</time>
      </trkpt>
      <trkpt lat="49.57946620" lon="24.28003930">
        <ele>287.00000</ele>
        <time>2010-01-01T04:06:22Z</time>
      </trkpt>
      <trkpt lat="49.57913910" lon="24.28035430">
        <ele>287.00000</ele>
        <time>2010-01-01T04:06:37Z</time>
      </trkpt>
      <trkpt lat="49.57875500" lon="24.28075240">
        <ele>288.00000</ele>
        <time>2010-01-01T04:06:56Z</time>
      </trkpt>
      <trkpt lat="49.57854340" lon="24.28109060">
        <ele>288.00000</ele>
        <time>2010-01-01T04:07:08Z</time>
      </trkpt>
      <trkpt lat="49.57828700" lon="24.28165830">
        <ele>286.00000</ele>
        <time>2010-01-01T04:07:26Z</time>
      </trkpt>
      <trkpt lat="49.57784600" lon="24.28291470">
        <ele>280.00000</ele>
        <time>2010-01-01T04:08:03Z</time>
      </trkpt>
      <trkpt lat="49.57766050" lon="24.28339150">
        <ele>278.00000</ele>
        <time>2010-01-01T04:08:17Z</time>
      </trkpt>
      <trkpt lat="49.57750050" lon="24.28367520">
        <ele>275.00000</ele>
        <time>2010-01-01T04:08:27Z</time>
      </trkpt>
      <trkpt lat="49.57740310" lon="24.28379760">
        <ele>274.00000</ele>
        <time>2010-01-01T04:08:32Z</time>
      </trkpt>
      <trkpt lat="49.57729980" lon="24.28390960">
        <ele>274.00000</ele>
        <time>2010-01-01T04:08:37Z</time>
      </trkpt>
      <trkpt lat="49.57718510" lon="24.28400350">
        <ele>273.00000</ele>
        <time>2010-01-01T04:08:42Z</time>
      </trkpt>
      <trkpt lat="49.57643060" lon="24.28457940">
        <ele>270.00000</ele>
        <time>2010-01-01T04:09:16Z</time>
      </trkpt>
      <trkpt lat="49.57371200" lon="24.28656190">
        <ele>272.00000</ele>
        <time>2010-01-01T04:11:16Z</time>
      </trkpt>
      <trkpt lat="49.57345420" lon="24.28678970">
        <ele>273.00000</ele>
        <time>2010-01-01T04:11:28Z</time>
      </trkpt>
      <trkpt lat="49.57334170" lon="24.28692030">
        <ele>274.00000</ele>
        <time>2010-01-01T04:11:34Z</time>
      </trkpt>
      <trkpt lat="49.57323540" lon="24.28706490">
        <ele>274.00000</ele>
        <time>2010-01-01T04:11:40Z</time>
      </trkpt>
      <trkpt lat="49.57305840" lon="24.28737210">
        <ele>274.00000</ele>
        <time>2010-01-01T04:11:50Z</time>
      </trkpt>
      <trkpt lat="49.57258910" lon="24.28826350">
        <ele>278.00000</ele>
        <time>2010-01-01T04:12:20Z</time>
      </trkpt>
      <trkpt lat="49.57250550" lon="24.28845090">
        <ele>280.00000</ele>
        <time>2010-01-01T04:12:26Z</time>
      </trkpt>
      <trkpt lat="49.57237940" lon="24.28867070">
        <ele>282.00000</ele>
        <time>2010-01-01T04:12:34Z</time>
      </trkpt>
      <trkpt lat="49.57223450" lon="24.28891120">
        <ele>284.00000</ele>
        <time>2010-01-01T04:12:42Z</time>
      </trkpt>
      <trkpt lat="49.57201860" lon="24.28922790">
        <ele>287.00000</ele>
        <time>2010-01-01T04:12:54Z</time>
      </trkpt>
      <trkpt lat="49.57169400" lon="24.28977390">
        <ele>290.00000</ele>
        <time>2010-01-01T04:13:13Z</time>
      </trkpt>
      <trkpt lat="49.57138180" lon="24.29022550">
        <ele>294.00000</ele>
        <time>2010-01-01T04:13:30Z</time>
      </trkpt>
      <trkpt lat="49.57112900" lon="24.29055510">
        <ele>295.00000</ele>
        <time>2010-01-01T04:13:44Z</time>
      </trkpt>
      <trkpt lat="49.57086420" lon="24.29080860">
        <ele>295.00000</ele>
        <time>2010-01-01T04:13:56Z</time>
      </trkpt>
      <trkpt lat="49.57068670" lon="24.29093350">
        <ele>296.00000</ele>
        <time>2010-01-01T04:14:04Z</time>
      </trkpt>
      <trkpt lat="49.57047240" lon="24.29111870">
        <ele>296.00000</ele>
        <time>2010-01-01T04:14:14Z</time>
      </trkpt>
      <trkpt lat="49.57043790" lon="24.29116790">
        <ele>296.00000</ele>
        <time>2010-01-01T04:14:16Z</time>
      </trkpt>
      <trkpt lat="49.57030800" lon="24.29144860">
        <ele>295.00000</ele>
        <time>2010-01-01T04:14:25Z</time>
      </trkpt>
      <trkpt lat="49.57003510" lon="24.29213250">
        <ele>293.00000</ele>
        <time>2010-01-01T04:14:46Z</time>
      </trkpt>
      <trkpt lat="49.56975090" lon="24.29260180">
        <ele>295.00000</ele>
        <time>2010-01-01T04:15:02Z</time>
      </trkpt>
      <trkpt lat="49.56904760" lon="24.29356550">
        <ele>297.00000</ele>
        <time>2010-01-01T04:15:40Z</time>
      </trkpt>
      <trkpt lat="49.56891300" lon="24.29378490">
        <ele>296.00000</ele>
        <time>2010-01-01T04:15:48Z</time>
      </trkpt>
      <trkpt lat="49.56880270" lon="24.29402150">
        <ele>297.00000</ele>
        <time>2010-01-01T04:15:55Z</time>
      </trkpt>
      <trkpt lat="49.56866870" lon="24.29440950">
        <ele>299.00000</ele>
        <time>2010-01-01T04:16:07Z</time>
      </trkpt>
      <trkpt lat="49.56824540" lon="24.29584160">
        <ele>304.00000</ele>
        <time>2010-01-01T04:16:48Z</time>
      </trkpt>
      <trkpt lat="49.56815680" lon="24.29625870">
        <ele>305.00000</ele>
        <time>2010-01-01T04:16:59Z</time>
      </trkpt>
      <trkpt lat="49.56812770" lon="24.29644680">
        <ele>305.00000</ele>
        <time>2010-01-01T04:17:04Z</time>
      </trkpt>
      <trkpt lat="49.56794390" lon="24.29931990">
        <ele>308.00000</ele>
        <time>2010-01-01T04:18:19Z</time>
      </trkpt>
      <trkpt lat="49.56780600" lon="24.30035540">
        <ele>310.00000</ele>
        <time>2010-01-01T04:18:46Z</time>
      </trkpt>
      <trkpt lat="49.56764230" lon="24.30115520">
        <ele>309.00000</ele>
        <time>2010-01-01T04:19:08Z</time>
      </trkpt>
      <trkpt lat="49.56756500" lon="24.30149850">
        <ele>309.00000</ele>
        <time>2010-01-01T04:19:18Z</time>
      </trkpt>
      <trkpt lat="49.56737170" lon="24.30221830">
        <ele>307.00000</ele>
        <time>2010-01-01T04:19:38Z</time>
      </trkpt>
      <trkpt lat="49.56721020" lon="24.30273730">
        <ele>304.00000</ele>
        <time>2010-01-01T04:19:53Z</time>
      </trkpt>
      <trkpt lat="49.56694310" lon="24.30345410">
        <ele>297.00000</ele>
        <time>2010-01-01T04:20:14Z</time>
      </trkpt>
      <trkpt lat="49.56663850" lon="24.30418930">
        <ele>297.00000</ele>
        <time>2010-01-01T04:20:37Z</time>
      </trkpt>
      <trkpt lat="49.56635360" lon="24.30476650">
        <ele>295.00000</ele>
        <time>2010-01-01T04:20:56Z</time>
      </trkpt>
      <trkpt lat="49.56595230" lon="24.30548760">
        <ele>290.00000</ele>
        <time>2010-01-01T04:21:20Z</time>
      </trkpt>
      <trkpt lat="49.56561960" lon="24.30604730">
        <ele>288.00000</ele>
        <time>2010-01-01T04:21:40Z</time>
      </trkpt>
      <trkpt lat="49.56494430" lon="24.30712730">
        <ele>288.00000</ele>
        <time>2010-01-01T04:22:19Z</time>
      </trkpt>
      <trkpt lat="49.56440650" lon="24.30795200">
        <ele>291.00000</ele>
        <time>2010-01-01T04:22:49Z</time>
      </trkpt>
      <trkpt lat="49.56295960" lon="24.31003680">
        <ele>295.00000</ele>
        <time>2010-01-01T04:24:09Z</time>
      </trkpt>
      <trkpt lat="49.56264070" lon="24.31056420">
        <ele>299.00000</ele>
        <time>2010-01-01T04:24:27Z</time>
      </trkpt>
      <trkpt lat="49.56251380" lon="24.31081980">
        <ele>299.00000</ele>
        <time>2010-01-01T04:24:36Z</time>
      </trkpt>
      <trkpt lat="49.56223450" lon="24.31144470">
        <ele>298.00000</ele>
        <time>2010-01-01T04:24:55Z</time>
      </trkpt>
      <trkpt lat="49.56198990" lon="24.31217130">
        <ele>298.00000</ele>
        <time>2010-01-01T04:25:17Z</time>
      </trkpt>
      <trkpt lat="49.56142170" lon="24.31405290">
        <ele>301.00000</ele>
        <time>2010-01-01T04:26:11Z</time>
      </trkpt>
      <trkpt lat="49.56110360" lon="24.31496480">
        <ele>301.00000</ele>
        <time>2010-01-01T04:26:37Z</time>
      </trkpt>
      <trkpt lat="49.56071940" lon="24.31593120">
        <ele>304.00000</ele>
        <time>2010-01-01T04:27:07Z</time>
      </trkpt>
      <trkpt lat="49.56014740" lon="24.31744510">
        <ele>308.00000</ele>
        <time>2010-01-01T04:27:52Z</time>
      </trkpt>
      <trkpt lat="49.55967970" lon="24.31894160">
        <ele>309.00000</ele>
        <time>2010-01-01T04:28:35Z</time>
      </trkpt>
      <trkpt lat="49.55875320" lon="24.32093690">
        <ele>309.00000</ele>
        <time>2010-01-01T04:29:39Z</time>
      </trkpt>
      <trkpt lat="49.55825750" lon="24.32204550">
        <ele>310.00000</ele>
        <time>2010-01-01T04:30:14Z</time>
      </trkpt>
      <trkpt lat="49.55791970" lon="24.32284170">
        <ele>310.00000</ele>
        <time>2010-01-01T04:30:39Z</time>
      </trkpt>
      <trkpt lat="49.55734950" lon="24.32428850">
        <ele>313.00000</ele>
        <time>2010-01-01T04:31:23Z</time>
      </trkpt>
      <trkpt lat="49.55703490" lon="24.32504010">
        <ele>315.00000</ele>
        <time>2010-01-01T04:31:46Z</time>
      </trkpt>
      <trkpt lat="49.55641890" lon="24.32637710">
        <ele>317.00000</ele>
        <time>2010-01-01T04:32:29Z</time>
      </trkpt>
      <trkpt lat="49.55587650" lon="24.32760000">
        <ele>323.00000</ele>
        <time>2010-01-01T04:33:07Z</time>
      </trkpt>
      <trkpt lat="49.55510030" lon="24.32930750">
        <ele>329.00000</ele>
        <time>2010-01-01T04:34:01Z</time>
      </trkpt>
      <trkpt lat="49.55441710" lon="24.33073220">
        <ele>333.00000</ele>
        <time>2010-01-01T04:34:47Z</time>
      </trkpt>
      <trkpt lat="49.55377040" lon="24.33213650">
        <ele>334.00000</ele>
        <time>2010-01-01T04:35:32Z</time>
      </trkpt>
      <trkpt lat="49.55366850" lon="24.33232780">
        <ele>334.00000</ele>
        <time>2010-01-01T04:35:38Z</time>
      </trkpt>
      <trkpt lat="49.55317410" lon="24.33340650">
        <ele>338.00000</ele>
        <time>2010-01-01T04:36:13Z</time>
      </trkpt>
      <trkpt lat="49.55309620" lon="24.33360230">
        <ele>339.00000</ele>
        <time>2010-01-01T04:36:19Z</time>
      </trkpt>
      <trkpt lat="49.55290020" lon="24.33399260">
        <ele>340.00000</ele>
        <time>2010-01-01T04:36:31Z</time>
      </trkpt>
      <trkpt lat="49.55172660" lon="24.33653680">
        <ele>344.00000</ele>
        <time>2010-01-01T04:37:53Z</time>
      </trkpt>
      <trkpt lat="49.55123670" lon="24.33753500">
        <ele>342.00000</ele>
        <time>2010-01-01T04:38:25Z</time>
      </trkpt>
      <trkpt lat="49.55090810" lon="24.33819150">
        <ele>342.00000</ele>
        <time>2010-01-01T04:38:47Z</time>
      </trkpt>
      <trkpt lat="49.55067710" lon="24.33860620">
        <ele>342.00000</ele>
        <time>2010-01-01T04:39:01Z</time>
      </trkpt>
      <trkpt lat="49.55028480" lon="24.33925840">
        <ele>337.00000</ele>
        <time>2010-01-01T04:39:24Z</time>
      </trkpt>
      <trkpt lat="49.54997230" lon="24.33972340">
        <ele>334.00000</ele>
        <time>2010-01-01T04:39:41Z</time>
      </trkpt>
      <trkpt lat="49.54953150" lon="24.34034810">
        <ele>332.00000</ele>
        <time>2010-01-01T04:40:05Z</time>
      </trkpt>
      <trkpt lat="49.54914280" lon="24.34086090">
        <ele>326.00000</ele>
        <time>2010-01-01T04:40:26Z</time>
      </trkpt>
      <trkpt lat="49.54731050" lon="24.34336660">
        <ele>315.00000</ele>
        <time>2010-01-01T04:42:04Z</time>
      </trkpt>
      <trkpt lat="49.54620430" lon="24.34493140">
        <ele>310.00000</ele>
        <time>2010-01-01T04:43:04Z</time>
      </trkpt>
      <trkpt lat="49.54562370" lon="24.34571740">
        <ele>308.00000</ele>
        <time>2010-01-01T04:43:35Z</time>
      </trkpt>
      <trkpt lat="49.54547170" lon="24.34595580">
        <ele>307.00000</ele>
        <time>2010-01-01T04:43:44Z</time>
      </trkpt>
      <trkpt lat="49.54516270" lon="24.34664180">
        <ele>304.00000</ele>
        <time>2010-01-01T04:44:05Z</time>
      </trkpt>
      <trkpt lat="49.54418420" lon="24.34927290">
        <ele>300.00000</ele>
        <time>2010-01-01T04:45:24Z</time>
      </trkpt>
      <trkpt lat="49.54388540" lon="24.34999040">
        <ele>299.00000</ele>
        <time>2010-01-01T04:45:46Z</time>
      </trkpt>
      <trkpt lat="49.54342130" lon="24.35083150">
        <ele>298.00000</ele>
        <time>2010-01-01T04:46:15Z</time>
      </trkpt>
      <trkpt lat="49.54308760" lon="24.35135760">
        <ele>299.00000</ele>
        <time>2010-01-01T04:46:34Z</time>
      </trkpt>
      <trkpt lat="49.54270500" lon="24.35186920">
        <ele>301.00000</ele>
        <time>2010-01-01T04:46:54Z</time>
      </trkpt>
      <trkpt lat="49.54140470" lon="24.35346700">
        <ele>305.00000</ele>
        <time>2010-01-01T04:48:01Z</time>
      </trkpt>
      <trkpt lat="49.54111630" lon="24.35388200">
        <ele>305.00000</ele>
        <time>2010-01-01T04:48:17Z</time>
      </trkpt>
      <trkpt lat="49.54086670" lon="24.35428190">
        <ele>305.00000</ele>
        <time>2010-01-01T04:48:31Z</time>
      </trkpt>
      <trkpt lat="49.54058060" lon="24.35484540">
        <ele>305.00000</ele>
        <time>2010-01-01T04:48:50Z</time>
      </trkpt>
      <trkpt lat="49.54000500" lon="24.35607720">
        <ele>305.00000</ele>
        <time>2010-01-01T04:49:29Z</time>
      </trkpt>
      <trkpt lat="49.53966180" lon="24.35658030">
        <ele>305.00000</ele>
        <time>2010-01-01T04:49:48Z</time>
      </trkpt>
      <trkpt lat="49.53938530" lon="24.35686240">
        <ele>307.00000</ele>
        <time>2010-01-01T04:50:01Z</time>
      </trkpt>
      <trkpt lat="49.53932820" lon="24.35690190">
        <ele>307.00000</ele>
        <time>2010-01-01T04:50:04Z</time>
      </trkpt>
      <trkpt lat="49.53909230" lon="24.35699040">
        <ele>307.00000</ele>
        <time>2010-01-01T04:50:13Z</time>
      </trkpt>
      <trkpt lat="49.53903420" lon="24.35700020">
        <ele>307.00000</ele>
        <time>2010-01-01T04:50:16Z</time>
      </trkpt>
      <trkpt lat="49.53792340" lon="24.35698690">
        <ele>311.00000</ele>
        <time>2010-01-01T04:51:00Z</time>
      </trkpt>
      <trkpt lat="49.53761120" lon="24.35702700">
        <ele>312.00000</ele>
        <time>2010-01-01T04:51:13Z</time>
      </trkpt>
      <trkpt lat="49.53738400" lon="24.35707190">
        <ele>313.00000</ele>
        <time>2010-01-01T04:51:22Z</time>
      </trkpt>
      <trkpt lat="49.53673430" lon="24.35726010">
        <ele>313.00000</ele>
        <time>2010-01-01T04:51:48Z</time>
      </trkpt>
      <trkpt lat="49.53639050" lon="24.35741180">
        <ele>315.00000</ele>
        <time>2010-01-01T04:52:03Z</time>
      </trkpt>
      <trkpt lat="49.53602660" lon="24.35771820">
        <ele>316.00000</ele>
        <time>2010-01-01T04:52:19Z</time>
      </trkpt>
      <trkpt lat="49.53555700" lon="24.35819300">
        <ele>316.00000</ele>
        <time>2010-01-01T04:52:42Z</time>
      </trkpt>
      <trkpt lat="49.53517050" lon="24.35861040">
        <ele>317.00000</ele>
        <time>2010-01-01T04:53:01Z</time>
      </trkpt>
      <trkpt lat="49.53472160" lon="24.35914900">
        <ele>318.00000</ele>
        <time>2010-01-01T04:53:23Z</time>
      </trkpt>
      <trkpt lat="49.53354880" lon="24.36061670">
        <ele>316.00000</ele>
        <time>2010-01-01T04:54:24Z</time>
      </trkpt>
      <trkpt lat="49.53314970" lon="24.36120080">
        <ele>316.00000</ele>
        <time>2010-01-01T04:54:46Z</time>
      </trkpt>
      <trkpt lat="49.53275660" lon="24.36186110">
        <ele>316.00000</ele>
        <time>2010-01-01T04:55:09Z</time>
      </trkpt>
      <trkpt lat="49.53182700" lon="24.36351090">
        <ele>319.00000</ele>
        <time>2010-01-01T04:56:06Z</time>
      </trkpt>
      <trkpt lat="49.53131070" lon="24.36439380">
        <ele>320.00000</ele>
        <time>2010-01-01T04:56:37Z</time>
      </trkpt>
      <trkpt lat="49.53091270" lon="24.36499330">
        <ele>318.00000</ele>
        <time>2010-01-01T04:56:59Z</time>
      </trkpt>
      <trkpt lat="49.53084040" lon="24.36507220">
        <ele>317.00000</ele>
        <time>2010-01-01T04:57:03Z</time>
      </trkpt>
      <trkpt lat="49.52719540" lon="24.36826590">
        <ele>307.00000</ele>
        <time>2010-01-01T04:59:51Z</time>
      </trkpt>
      <trkpt lat="49.52678520" lon="24.36858810">
        <ele>306.00000</ele>
        <time>2010-01-01T05:00:09Z</time>
      </trkpt>
      <trkpt lat="49.52616460" lon="24.36902740">
        <ele>302.00000</ele>
        <time>2010-01-01T05:00:36Z</time>
      </trkpt>
      <trkpt lat="49.52568900" lon="24.36939130">
        <ele>299.00000</ele>
        <time>2010-01-01T05:00:58Z</time>
      </trkpt>
      <trkpt lat="49.52387810" lon="24.37068800">
        <ele>294.00000</ele>
        <time>2010-01-01T05:02:18Z</time>
      </trkpt>
      <trkpt lat="49.52087980" lon="24.37295310">
        <ele>289.00000</ele>
        <time>2010-01-01T05:04:31Z</time>
      </trkpt>
      <trkpt lat="49.52073300" lon="24.37312450">
        <ele>289.00000</ele>
        <time>2010-01-01T05:04:39Z</time>
      </trkpt>
      <trkpt lat="49.52053600" lon="24.37343260">
        <ele>290.00000</ele>
        <time>2010-01-01T05:04:50Z</time>
      </trkpt>
      <trkpt lat="49.52029670" lon="24.37389520">
        <ele>289.00000</ele>
        <time>2010-01-01T05:05:05Z</time>
      </trkpt>
      <trkpt lat="49.52017860" lon="24.37415960">
        <ele>288.00000</ele>
        <time>2010-01-01T05:05:14Z</time>
      </trkpt>
      <trkpt lat="49.51921310" lon="24.37657830">
        <ele>277.00000</ele>
        <time>2010-01-01T05:06:27Z</time>
      </trkpt>
      <trkpt lat="49.51911830" lon="24.37686500">
        <ele>276.00000</ele>
        <time>2010-01-01T05:06:36Z</time>
      </trkpt>
      <trkpt lat="49.51891670" lon="24.37775280">
        <ele>275.00000</ele>
        <time>2010-01-01T05:07:00Z</time>
      </trkpt>
      <trkpt lat="49.51885610" lon="24.37831880">
        <ele>275.00000</ele>
        <time>2010-01-01T05:07:15Z</time>
      </trkpt>
      <trkpt lat="49.51880730" lon="24.37902450">
        <ele>278.00000</ele>
        <time>2010-01-01T05:07:34Z</time>
      </trkpt>
      <trkpt lat="49.51879930" lon="24.37956760">
        <ele>282.00000</ele>
        <time>2010-01-01T05:07:48Z</time>
      </trkpt>
      <trkpt lat="49.51876320" lon="24.37991280">
        <ele>284.00000</ele>
        <time>2010-01-01T05:07:57Z</time>
      </trkpt>
      <trkpt lat="49.51874890" lon="24.38060740">
        <ele>290.00000</ele>
        <time>2010-01-01T05:08:15Z</time>
      </trkpt>
      <trkpt lat="49.51872520" lon="24.38096510">
        <ele>294.00000</ele>
        <time>2010-01-01T05:08:24Z</time>
      </trkpt>
      <trkpt lat="49.51869620" lon="24.38234180">
        <ele>301.00000</ele>
        <time>2010-01-01T05:09:00Z</time>
      </trkpt>
      <trkpt lat="49.51866780" lon="24.38262760">
        <ele>302.00000</ele>
        <time>2010-01-01T05:09:07Z</time>
      </trkpt>
      <trkpt lat="49.51856870" lon="24.38318490">
        <ele>303.00000</ele>
        <time>2010-01-01T05:09:22Z</time>
      </trkpt>
      <trkpt lat="49.51840660" lon="24.38388600">
        <ele>306.00000</ele>
        <time>2010-01-01T05:09:42Z</time>
      </trkpt>
      <trkpt lat="49.51822840" lon="24.38477650">
        <ele>310.00000</ele>
        <time>2010-01-01T05:10:06Z</time>
      </trkpt>
      <trkpt lat="49.51800630" lon="24.38561150">
        <ele>311.00000</ele>
        <time>2010-01-01T05:10:29Z</time>
      </trkpt>
      <trkpt lat="49.51790130" lon="24.38606790">
        <ele>310.00000</ele>
        <time>2010-01-01T05:10:42Z</time>
      </trkpt>
      <trkpt lat="49.51780590" lon="24.38658670">
        <ele>310.00000</ele>
        <time>2010-01-01T05:10:56Z</time>
      </trkpt>
      <trkpt lat="49.51773870" lon="24.38722990">
        <ele>313.00000</ele>
        <time>2010-01-01T05:11:13Z</time>
      </trkpt>
      <trkpt lat="49.51775980" lon="24.38822800">
        <ele>314.00000</ele>
        <time>2010-01-01T05:11:39Z</time>
      </trkpt>
      <trkpt lat="49.51781760" lon="24.38872970">
        <ele>316.00000</ele>
        <time>2010-01-01T05:11:52Z</time>
      </trkpt>
      <trkpt lat="49.51793590" lon="24.39066890">
        <ele>327.00000</ele>
        <time>2010-01-01T05:12:43Z</time>
      </trkpt>
      <trkpt lat="49.51800510" lon="24.39129570">
        <ele>329.00000</ele>
        <time>2010-01-01T05:12:59Z</time>
      </trkpt>
      <trkpt lat="49.51802210" lon="24.39236500">
        <ele>330.00000</ele>
        <time>2010-01-01T05:13:27Z</time>
      </trkpt>
      <trkpt lat="49.51798810" lon="24.39272800">
        <ele>330.00000</ele>
        <time>2010-01-01T05:13:37Z</time>
      </trkpt>
      <trkpt lat="49.51782890" lon="24.39327590">
        <ele>329.00000</ele>
        <time>2010-01-01T05:13:52Z</time>
      </trkpt>
      <trkpt lat="49.51762540" lon="24.39368680">
        <ele>329.00000</ele>
        <time>2010-01-01T05:14:06Z</time>
      </trkpt>
      <trkpt lat="49.51747830" lon="24.39388520">
        <ele>329.00000</ele>
        <time>2010-01-01T05:14:14Z</time>
      </trkpt>
      <trkpt lat="49.51736050" lon="24.39401070">
        <ele>329.00000</ele>
        <time>2010-01-01T05:14:19Z</time>
      </trkpt>
      <trkpt lat="49.51602830" lon="24.39517430">
        <ele>319.00000</ele>
        <time>2010-01-01T05:15:21Z</time>
      </trkpt>
      <trkpt lat="49.51576510" lon="24.39536040">
        <ele>320.00000</ele>
        <time>2010-01-01T05:15:32Z</time>
      </trkpt>
      <trkpt lat="49.51471900" lon="24.39625380">
        <ele>318.00000</ele>
        <time>2010-01-01T05:16:20Z</time>
      </trkpt>
      <trkpt lat="49.51433060" lon="24.39656120">
        <ele>315.00000</ele>
        <time>2010-01-01T05:16:37Z</time>
      </trkpt>
      <trkpt lat="49.51317830" lon="24.39755780">
        <ele>305.00000</ele>
        <time>2010-01-01T05:17:30Z</time>
      </trkpt>
      <trkpt lat="49.51285720" lon="24.39781790">
        <ele>307.00000</ele>
        <time>2010-01-01T05:17:45Z</time>
      </trkpt>
      <trkpt lat="49.51255750" lon="24.39810620">
        <ele>311.00000</ele>
        <time>2010-01-01T05:17:59Z</time>
      </trkpt>
      <trkpt lat="49.51221360" lon="24.39838200">
        <ele>316.00000</ele>
        <time>2010-01-01T05:18:15Z</time>
      </trkpt>
      <trkpt lat="49.51206410" lon="24.39853730">
        <ele>318.00000</ele>
        <time>2010-01-01T05:18:22Z</time>
      </trkpt>
      <trkpt lat="49.51189200" lon="24.39864780">
        <ele>320.00000</ele>
        <time>2010-01-01T05:18:29Z</time>
      </trkpt>
      <trkpt lat="49.51156440" lon="24.39890930">
        <ele>322.00000</ele>
        <time>2010-01-01T05:18:44Z</time>
      </trkpt>
      <trkpt lat="49.51126930" lon="24.39918350">
        <ele>323.00000</ele>
        <time>2010-01-01T05:18:58Z</time>
      </trkpt>
      <trkpt lat="49.51049970" lon="24.39975580">
        <ele>324.00000</ele>
        <time>2010-01-01T05:19:32Z</time>
      </trkpt>
      <trkpt lat="49.51010170" lon="24.40002130">
        <ele>323.00000</ele>
        <time>2010-01-01T05:19:49Z</time>
      </trkpt>
      <trkpt lat="49.50963750" lon="24.40029550">
        <ele>321.00000</ele>
        <time>2010-01-01T05:20:09Z</time>
      </trkpt>
      <trkpt lat="49.50898840" lon="24.40064900">
        <ele>319.00000</ele>
        <time>2010-01-01T05:20:37Z</time>
      </trkpt>
      <trkpt lat="49.50844010" lon="24.40086990">
        <ele>317.00000</ele>
        <time>2010-01-01T05:21:00Z</time>
      </trkpt>
      <trkpt lat="49.50812510" lon="24.40093630">
        <ele>316.00000</ele>
        <time>2010-01-01T05:21:12Z</time>
      </trkpt>
      <trkpt lat="49.50788810" lon="24.40096920">
        <ele>315.00000</ele>
        <time>2010-01-01T05:21:22Z</time>
      </trkpt>
      <trkpt lat="49.50745510" lon="24.40107270">
        <ele>315.00000</ele>
        <time>2010-01-01T05:21:39Z</time>
      </trkpt>
      <trkpt lat="49.50536840" lon="24.40222960">
        <ele>320.00000</ele>
        <time>2010-01-01T05:23:08Z</time>
      </trkpt>
      <trkpt lat="49.50494980" lon="24.40254970">
        <ele>320.00000</ele>
        <time>2010-01-01T05:23:27Z</time>
      </trkpt>
      <trkpt lat="49.50428300" lon="24.40318290">
        <ele>320.00000</ele>
        <time>2010-01-01T05:23:58Z</time>
      </trkpt>
      <trkpt lat="49.50406920" lon="24.40341620">
        <ele>320.00000</ele>
        <time>2010-01-01T05:24:09Z</time>
      </trkpt>
      <trkpt lat="49.50325740" lon="24.40418990">
        <ele>321.00000</ele>
        <time>2010-01-01T05:24:47Z</time>
      </trkpt>
      <trkpt lat="49.50254110" lon="24.40490890">
        <ele>321.00000</ele>
        <time>2010-01-01T05:25:21Z</time>
      </trkpt>
      <trkpt lat="49.50054560" lon="24.40721440">
        <ele>313.00000</ele>
        <time>2010-01-01T05:27:01Z</time>
      </trkpt>
      <trkpt lat="49.49953270" lon="24.40840770">
        <ele>311.00000</ele>
        <time>2010-01-01T05:27:52Z</time>
      </trkpt>
      <trkpt lat="49.49889580" lon="24.40905350">
        <ele>310.00000</ele>
        <time>2010-01-01T05:28:23Z</time>
      </trkpt>
      <trkpt lat="49.49864360" lon="24.40924300">
        <ele>309.00000</ele>
        <time>2010-01-01T05:28:34Z</time>
      </trkpt>
      <trkpt lat="49.49820590" lon="24.40952390">
        <ele>308.00000</ele>
        <time>2010-01-01T05:28:53Z</time>
      </trkpt>
      <trkpt lat="49.49755150" lon="24.40991090">
        <ele>309.00000</ele>
        <time>2010-01-01T05:29:21Z</time>
      </trkpt>
      <trkpt lat="49.49610670" lon="24.41074080">
        <ele>317.00000</ele>
        <time>2010-01-01T05:30:23Z</time>
      </trkpt>
      <trkpt lat="49.49547720" lon="24.41106960">
        <ele>316.00000</ele>
        <time>2010-01-01T05:30:49Z</time>
      </trkpt>
      <trkpt lat="49.49456480" lon="24.41160660">
        <ele>318.00000</ele>
        <time>2010-01-01T05:31:28Z</time>
      </trkpt>
      <trkpt lat="49.49408530" lon="24.41196320">
        <ele>317.00000</ele>
        <time>2010-01-01T05:31:50Z</time>
      </trkpt>
      <trkpt lat="49.49296420" lon="24.41284520">
        <ele>314.00000</ele>
        <time>2010-01-01T05:32:40Z</time>
      </trkpt>
      <trkpt lat="49.49212230" lon="24.41355200">
        <ele>308.00000</ele>
        <time>2010-01-01T05:33:18Z</time>
      </trkpt>
      <trkpt lat="49.49017970" lon="24.41509180">
        <ele>301.00000</ele>
        <time>2010-01-01T05:34:46Z</time>
      </trkpt>
      <trkpt lat="49.48972290" lon="24.41552410">
        <ele>302.00000</ele>
        <time>2010-01-01T05:35:07Z</time>
      </trkpt>
      <trkpt lat="49.48912010" lon="24.41614930">
        <ele>303.00000</ele>
        <time>2010-01-01T05:35:36Z</time>
      </trkpt>
      <trkpt lat="49.48865450" lon="24.41665750">
        <ele>308.00000</ele>
        <time>2010-01-01T05:35:59Z</time>
      </trkpt>
      <trkpt lat="49.48658820" lon="24.41895840">
        <ele>319.00000</ele>
        <time>2010-01-01T05:37:41Z</time>
      </trkpt>
      <trkpt lat="49.48620590" lon="24.41934380">
        <ele>320.00000</ele>
        <time>2010-01-01T05:38:00Z</time>
      </trkpt>
      <trkpt lat="49.48579780" lon="24.41969430">
        <ele>319.00000</ele>
        <time>2010-01-01T05:38:18Z</time>
      </trkpt>
      <trkpt lat="49.48511460" lon="24.42014290">
        <ele>313.00000</ele>
        <time>2010-01-01T05:38:48Z</time>
      </trkpt>
      <trkpt lat="49.48418650" lon="24.42079230">
        <ele>310.00000</ele>
        <time>2010-01-01T05:39:29Z</time>
      </trkpt>
      <trkpt lat="49.48385150" lon="24.42105880">
        <ele>310.00000</ele>
        <time>2010-01-01T05:39:44Z</time>
      </trkpt>
      <trkpt lat="49.48370050" lon="24.42120180">
        <ele>309.00000</ele>
        <time>2010-01-01T05:39:51Z</time>
      </trkpt>
      <trkpt lat="49.48356260" lon="24.42135880">
        <ele>310.00000</ele>
        <time>2010-01-01T05:39:58Z</time>
      </trkpt>
      <trkpt lat="49.48337570" lon="24.42161990">
        <ele>310.00000</ele>
        <time>2010-01-01T05:40:08Z</time>
      </trkpt>
      <trkpt lat="49.48297520" lon="24.42224500">
        <ele>310.00000</ele>
        <time>2010-01-01T05:40:31Z</time>
      </trkpt>
      <trkpt lat="49.48201380" lon="24.42386300">
        <ele>308.00000</ele>
        <time>2010-01-01T05:41:28Z</time>
      </trkpt>
      <trkpt lat="49.48084980" lon="24.42578140">
        <ele>311.00000</ele>
        <time>2010-01-01T05:42:36Z</time>
      </trkpt>
      <trkpt lat="49.48038990" lon="24.42657150">
        <ele>317.00000</ele>
        <time>2010-01-01T05:43:04Z</time>
      </trkpt>
      <trkpt lat="49.47757460" lon="24.43123530">
        <ele>299.00000</ele>
        <time>2010-01-01T05:45:49Z</time>
      </trkpt>
      <trkpt lat="49.47574850" lon="24.43431840">
        <ele>293.00000</ele>
        <time>2010-01-01T05:47:38Z</time>
      </trkpt>
      <trkpt lat="49.47400850" lon="24.43711660">
        <ele>283.00000</ele>
        <time>2010-01-01T05:49:19Z</time>
      </trkpt>
      <trkpt lat="49.47285580" lon="24.43907500">
        <ele>271.00000</ele>
        <time>2010-01-01T05:50:27Z</time>
      </trkpt>
      <trkpt lat="49.47262190" lon="24.43941440">
        <ele>269.00000</ele>
        <time>2010-01-01T05:50:40Z</time>
      </trkpt>
      <trkpt lat="49.47202600" lon="24.44018010">
        <ele>263.00000</ele>
        <time>2010-01-01T05:51:11Z</time>
      </trkpt>
      <trkpt lat="49.47120240" lon="24.44137270">
        <ele>261.00000</ele>
        <time>2010-01-01T05:51:57Z</time>
      </trkpt>
      <trkpt lat="49.47092190" lon="24.44180650">
        <ele>261.00000</ele>
        <time>2010-01-01T05:52:12Z</time>
      </trkpt>
      <trkpt lat="49.47066360" lon="24.44226340">
        <ele>260.00000</ele>
        <time>2010-01-01T05:52:28Z</time>
      </trkpt>
      <trkpt lat="49.47019080" lon="24.44325040">
        <ele>255.00000</ele>
        <time>2010-01-01T05:53:00Z</time>
      </trkpt>
      <trkpt lat="49.47002560" lon="24.44354250">
        <ele>254.00000</ele>
        <time>2010-01-01T05:53:10Z</time>
      </trkpt>
      <trkpt lat="49.46985170" lon="24.44380400">
        <ele>253.00000</ele>
        <time>2010-01-01T05:53:20Z</time>
      </trkpt>
      <trkpt lat="49.46949090" lon="24.44419360">
        <ele>252.00000</ele>
        <time>2010-01-01T05:53:38Z</time>
      </trkpt>
      <trkpt lat="49.46912910" lon="24.44443180">
        <ele>253.00000</ele>
        <time>2010-01-01T05:53:53Z</time>
      </trkpt>
      <trkpt lat="49.46762740" lon="24.44523390">
        <ele>252.00000</ele>
        <time>2010-01-01T05:54:57Z</time>
      </trkpt>
      <trkpt lat="49.46663700" lon="24.44584150">
        <ele>256.00000</ele>
        <time>2010-01-01T05:55:40Z</time>
      </trkpt>
      <trkpt lat="49.46514480" lon="24.44681280">
        <ele>259.00000</ele>
        <time>2010-01-01T05:56:44Z</time>
      </trkpt>
      <trkpt lat="49.46460690" lon="24.44724520">
        <ele>258.00000</ele>
        <time>2010-01-01T05:57:09Z</time>
      </trkpt>
      <trkpt lat="49.46259470" lon="24.44914550">
        <ele>257.00000</ele>
        <time>2010-01-01T05:58:43Z</time>
      </trkpt>
      <trkpt lat="49.46144570" lon="24.45024750">
        <ele>255.00000</ele>
        <time>2010-01-01T05:59:37Z</time>
      </trkpt>
      <trkpt lat="49.46097430" lon="24.45072300">
        <ele>257.00000</ele>
        <time>2010-01-01T06:00:00Z</time>
      </trkpt>
      <trkpt lat="49.45948730" lon="24.45216280">
        <ele>257.00000</ele>
        <time>2010-01-01T06:01:10Z</time>
      </trkpt>
      <trkpt lat="49.45763660" lon="24.45391140">
        <ele>255.00000</ele>
        <time>2010-01-01T06:02:37Z</time>
      </trkpt>
      <trkpt lat="49.45517140" lon="24.45628840">
        <ele>258.00000</ele>
        <time>2010-01-01T06:04:34Z</time>
      </trkpt>
      <trkpt lat="49.45473490" lon="24.45681490">
        <ele>257.00000</ele>
        <time>2010-01-01T06:04:56Z</time>
      </trkpt>
      <trkpt lat="49.45382320" lon="24.45816590">
        <ele>261.00000</ele>
        <time>2010-01-01T06:05:47Z</time>
      </trkpt>
      <trkpt lat="49.45351400" lon="24.45876130">
        <ele>262.00000</ele>
        <time>2010-01-01T06:06:07Z</time>
      </trkpt>
      <trkpt lat="49.45323880" lon="24.45951210">
        <ele>263.00000</ele>
        <time>2010-01-01T06:06:29Z</time>
      </trkpt>
      <trkpt lat="49.45304640" lon="24.45991610">
        <ele>262.00000</ele>
        <time>2010-01-01T06:06:42Z</time>
      </trkpt>
      <trkpt lat="49.45290280" lon="24.46017630">
        <ele>262.00000</ele>
        <time>2010-01-01T06:06:51Z</time>
      </trkpt>
      <trkpt lat="49.45276400" lon="24.46037860">
        <ele>262.00000</ele>
        <time>2010-01-01T06:06:58Z</time>
      </trkpt>
      <trkpt lat="49.45237790" lon="24.46081950">
        <ele>261.00000</ele>
        <time>2010-01-01T06:07:18Z</time>
      </trkpt>
      <trkpt lat="49.44899010" lon="24.46425840">
        <ele>270.00000</ele>
        <time>2010-01-01T06:10:00Z</time>
      </trkpt>
      <trkpt lat="49.44774380" lon="24.46550300">
        <ele>268.00000</ele>
        <time>2010-01-01T06:11:00Z</time>
      </trkpt>
      <trkpt lat="49.44761960" lon="24.46564540">
        <ele>267.00000</ele>
        <time>2010-01-01T06:11:06Z</time>
      </trkpt>
      <trkpt lat="49.44739570" lon="24.46597220">
        <ele>267.00000</ele>
        <time>2010-01-01T06:11:18Z</time>
      </trkpt>
      <trkpt lat="49.44729090" lon="24.46615850">
        <ele>267.00000</ele>
        <time>2010-01-01T06:11:25Z</time>
      </trkpt>
      <trkpt lat="49.44715830" lon="24.46647010">
        <ele>267.00000</ele>
        <time>2010-01-01T06:11:34Z</time>
      </trkpt>
      <trkpt lat="49.44701330" lon="24.46691650">
        <ele>266.00000</ele>
        <time>2010-01-01T06:11:47Z</time>
      </trkpt>
      <trkpt lat="49.44695950" lon="24.46716610">
        <ele>266.00000</ele>
        <time>2010-01-01T06:11:54Z</time>
      </trkpt>
      <trkpt lat="49.44693780" lon="24.46760020">
        <ele>264.00000</ele>
        <time>2010-01-01T06:12:06Z</time>
      </trkpt>
      <trkpt lat="49.44694240" lon="24.46775880">
        <ele>263.00000</ele>
        <time>2010-01-01T06:12:10Z</time>
      </trkpt>
      <trkpt lat="49.44728690" lon="24.47091770">
        <ele>265.00000</ele>
        <time>2010-01-01T06:13:33Z</time>
      </trkpt>
      <trkpt lat="49.44729400" lon="24.47124270">
        <ele>267.00000</ele>
        <time>2010-01-01T06:13:41Z</time>
      </trkpt>
      <trkpt lat="49.44740320" lon="24.47238500">
        <ele>271.00000</ele>
        <time>2010-01-01T06:14:12Z</time>
      </trkpt>
      <trkpt lat="49.44773100" lon="24.47441820">
        <ele>266.00000</ele>
        <time>2010-01-01T06:15:06Z</time>
      </trkpt>
      <trkpt lat="49.44787600" lon="24.47520400">
        <ele>266.00000</ele>
        <time>2010-01-01T06:15:27Z</time>
      </trkpt>
      <trkpt lat="49.44802080" lon="24.47589440">
        <ele>269.00000</ele>
        <time>2010-01-01T06:15:46Z</time>
      </trkpt>
      <trkpt lat="49.44816940" lon="24.47629720">
        <ele>270.00000</ele>
        <time>2010-01-01T06:15:58Z</time>
      </trkpt>
      <trkpt lat="49.44852260" lon="24.47708190">
        <ele>268.00000</ele>
        <time>2010-01-01T06:16:23Z</time>
      </trkpt>
      <trkpt lat="49.44868940" lon="24.47749490">
        <ele>268.00000</ele>
        <time>2010-01-01T06:16:36Z</time>
      </trkpt>
      <trkpt lat="49.44883990" lon="24.47798880">
        <ele>270.00000</ele>
        <time>2010-01-01T06:16:50Z</time>
      </trkpt>
      <trkpt lat="49.44910260" lon="24.47909220">
        <ele>276.00000</ele>
        <time>2010-01-01T06:17:21Z</time>
      </trkpt>
      <trkpt lat="49.44919960" lon="24.47937280">
        <ele>277.00000</ele>
        <time>2010-01-01T06:17:29Z</time>
      </trkpt>
      <trkpt lat="49.44940120" lon="24.47976940">
        <ele>278.00000</ele>
        <time>2010-01-01T06:17:42Z</time>
      </trkpt>
      <trkpt lat="49.44989080" lon="24.48051730">
        <ele>277.00000</ele>
        <time>2010-01-01T06:18:10Z</time>
      </trkpt>
      <trkpt lat="49.45008950" lon="24.48091360">
        <ele>279.00000</ele>
        <time>2010-01-01T06:18:23Z</time>
      </trkpt>
      <trkpt lat="49.45050080" lon="24.48192490">
        <ele>281.00000</ele>
        <time>2010-01-01T06:18:54Z</time>
      </trkpt>
      <trkpt lat="49.45065280" lon="24.48235390">
        <ele>280.00000</ele>
        <time>2010-01-01T06:19:06Z</time>
      </trkpt>
      <trkpt lat="49.45076490" lon="24.48286360">
        <ele>278.00000</ele>
        <time>2010-01-01T06:19:20Z</time>
      </trkpt>
      <trkpt lat="49.45087260" lon="24.48399300">
        <ele>275.00000</ele>
        <time>2010-01-01T06:19:50Z</time>
      </trkpt>
      <trkpt lat="49.45112250" lon="24.48569670">
        <ele>267.00000</ele>
        <time>2010-01-01T06:20:35Z</time>
      </trkpt>
      <trkpt lat="49.45122440" lon="24.48628040">
        <ele>267.00000</ele>
        <time>2010-01-01T06:20:51Z</time>
      </trkpt>
      <trkpt lat="49.45130170" lon="24.48696330">
        <ele>270.00000</ele>
        <time>2010-01-01T06:21:09Z</time>
      </trkpt>
      <trkpt lat="49.45129030" lon="24.48708160">
        <ele>271.00000</ele>
        <time>2010-01-01T06:21:12Z</time>
      </trkpt>
      <trkpt lat="49.45119090" lon="24.48737580">
        <ele>272.00000</ele>
        <time>2010-01-01T06:21:21Z</time>
      </trkpt>
      <trkpt lat="49.45111140" lon="24.48753570">
        <ele>273.00000</ele>
        <time>2010-01-01T06:21:26Z</time>
      </trkpt>
      <trkpt lat="49.45091240" lon="24.48787130">
        <ele>274.00000</ele>
        <time>2010-01-01T06:21:38Z</time>
      </trkpt>
      <trkpt lat="49.45077790" lon="24.48819050">
        <ele>275.00000</ele>
        <time>2010-01-01T06:21:48Z</time>
      </trkpt>
      <trkpt lat="49.45042420" lon="24.48954180">
        <ele>282.00000</ele>
        <time>2010-01-01T06:22:26Z</time>
      </trkpt>
      <trkpt lat="49.45030050" lon="24.49008950">
        <ele>284.00000</ele>
        <time>2010-01-01T06:22:41Z</time>
      </trkpt>
      <trkpt lat="49.45019060" lon="24.49087840">
        <ele>285.00000</ele>
        <time>2010-01-01T06:23:02Z</time>
      </trkpt>
      <trkpt lat="49.45017880" lon="24.49107410">
        <ele>286.00000</ele>
        <time>2010-01-01T06:23:07Z</time>
      </trkpt>
      <trkpt lat="49.45018370" lon="24.49145620">
        <ele>287.00000</ele>
        <time>2010-01-01T06:23:17Z</time>
      </trkpt>
      <trkpt lat="49.45021420" lon="24.49189170">
        <ele>290.00000</ele>
        <time>2010-01-01T06:23:28Z</time>
      </trkpt>
      <trkpt lat="49.45032520" lon="24.49294120">
        <ele>293.00000</ele>
        <time>2010-01-01T06:23:56Z</time>
      </trkpt>
      <trkpt lat="49.45032610" lon="24.49327370">
        <ele>294.00000</ele>
        <time>2010-01-01T06:24:05Z</time>
      </trkpt>
      <trkpt lat="49.45030210" lon="24.49361560">
        <ele>296.00000</ele>
        <time>2010-01-01T06:24:14Z</time>
      </trkpt>
      <trkpt lat="49.45018130" lon="24.49448130">
        <ele>302.00000</ele>
        <time>2010-01-01T06:24:37Z</time>
      </trkpt>
      <trkpt lat="49.45016110" lon="24.49454000">
        <ele>302.00000</ele>
        <time>2010-01-01T06:24:38Z</time>
      </trkpt>
      <trkpt lat="49.45012870" lon="24.49479760">
        <ele>303.00000</ele>
        <time>2010-01-01T06:24:45Z</time>
      </trkpt>
      <trkpt lat="49.45004150" lon="24.49526040">
        <ele>304.00000</ele>
        <time>2010-01-01T06:24:58Z</time>
      </trkpt>
      <trkpt lat="49.44987340" lon="24.49596930">
        <ele>310.00000</ele>
        <time>2010-01-01T06:25:17Z</time>
      </trkpt>
      <trkpt lat="49.44977990" lon="24.49622460">
        <ele>313.00000</ele>
        <time>2010-01-01T06:25:25Z</time>
      </trkpt>
      <trkpt lat="49.44966280" lon="24.49662390">
        <ele>315.00000</ele>
        <time>2010-01-01T06:25:36Z</time>
      </trkpt>
      <trkpt lat="49.44935400" lon="24.49755740">
        <ele>317.00000</ele>
        <time>2010-01-01T06:26:04Z</time>
      </trkpt>
      <trkpt lat="49.44927900" lon="24.49791620">
        <ele>319.00000</ele>
        <time>2010-01-01T06:26:14Z</time>
      </trkpt>
      <trkpt lat="49.44918420" lon="24.49876150">
        <ele>320.00000</ele>
        <time>2010-01-01T06:26:36Z</time>
      </trkpt>
      <trkpt lat="49.44915630" lon="24.49942060">
        <ele>319.00000</ele>
        <time>2010-01-01T06:26:53Z</time>
      </trkpt>
      <trkpt lat="49.44916860" lon="24.49968940">
        <ele>317.00000</ele>
        <time>2010-01-01T06:27:00Z</time>
      </trkpt>
      <trkpt lat="49.44943750" lon="24.50272740">
        <ele>326.00000</ele>
        <time>2010-01-01T06:28:20Z</time>
      </trkpt>
      <trkpt lat="49.44957910" lon="24.50497440">
        <ele>328.00000</ele>
        <time>2010-01-01T06:29:19Z</time>
      </trkpt>
      <trkpt lat="49.44959240" lon="24.50576700">
        <ele>328.00000</ele>
        <time>2010-01-01T06:29:39Z</time>
      </trkpt>
      <trkpt lat="49.44954210" lon="24.50734060">
        <ele>328.00000</ele>
        <time>2010-01-01T06:30:20Z</time>
      </trkpt>
      <trkpt lat="49.44954700" lon="24.50996450">
        <ele>329.00000</ele>
        <time>2010-01-01T06:31:28Z</time>
      </trkpt>
      <trkpt lat="49.44952490" lon="24.51026300">
        <ele>329.00000</ele>
        <time>2010-01-01T06:31:36Z</time>
      </trkpt>
      <trkpt lat="49.44942010" lon="24.51090890">
        <ele>330.00000</ele>
        <time>2010-01-01T06:31:54Z</time>
      </trkpt>
      <trkpt lat="49.44930100" lon="24.51131710">
        <ele>331.00000</ele>
        <time>2010-01-01T06:32:05Z</time>
      </trkpt>
      <trkpt lat="49.44916180" lon="24.51164440">
        <ele>330.00000</ele>
        <time>2010-01-01T06:32:15Z</time>
      </trkpt>
      <trkpt lat="49.44887640" lon="24.51224480">
        <ele>329.00000</ele>
        <time>2010-01-01T06:32:35Z</time>
      </trkpt>
      <trkpt lat="49.44719650" lon="24.51551350">
        <ele>325.00000</ele>
        <time>2010-01-01T06:34:23Z</time>
      </trkpt>
      <trkpt lat="49.44682660" lon="24.51618920">
        <ele>324.00000</ele>
        <time>2010-01-01T06:34:46Z</time>
      </trkpt>
      <trkpt lat="49.44645630" lon="24.51663210">
        <ele>324.00000</ele>
        <time>2010-01-01T06:35:05Z</time>
      </trkpt>
      <trkpt lat="49.44542160" lon="24.51759940">
        <ele>325.00000</ele>
        <time>2010-01-01T06:35:53Z</time>
      </trkpt>
      <trkpt lat="49.44480200" lon="24.51820930">
        <ele>328.00000</ele>
        <time>2010-01-01T06:36:23Z</time>
      </trkpt>
      <trkpt lat="49.44365980" lon="24.51939120">
        <ele>337.00000</ele>
        <time>2010-01-01T06:37:18Z</time>
      </trkpt>
      <trkpt lat="49.44350270" lon="24.51958190">
        <ele>338.00000</ele>
        <time>2010-01-01T06:37:26Z</time>
      </trkpt>
      <trkpt lat="49.44327450" lon="24.51995800">
        <ele>337.00000</ele>
        <time>2010-01-01T06:37:39Z</time>
      </trkpt>
      <trkpt lat="49.44298190" lon="24.52060650">
        <ele>335.00000</ele>
        <time>2010-01-01T06:38:00Z</time>
      </trkpt>
      <trkpt lat="49.44279570" lon="24.52121000">
        <ele>335.00000</ele>
        <time>2010-01-01T06:38:17Z</time>
      </trkpt>
      <trkpt lat="49.44261200" lon="24.52204510">
        <ele>334.00000</ele>
        <time>2010-01-01T06:38:40Z</time>
      </trkpt>
      <trkpt lat="49.44251320" lon="24.52258490">
        <ele>333.00000</ele>
        <time>2010-01-01T06:38:55Z</time>
      </trkpt>
      <trkpt lat="49.44225450" lon="24.52422240">
        <ele>328.00000</ele>
        <time>2010-01-01T06:39:39Z</time>
      </trkpt>
      <trkpt lat="49.44205920" lon="24.52559290">
        <ele>317.00000</ele>
        <time>2010-01-01T06:40:15Z</time>
      </trkpt>
      <trkpt lat="49.44186150" lon="24.52740860">
        <ele>320.00000</ele>
        <time>2010-01-01T06:41:03Z</time>
      </trkpt>
      <trkpt lat="49.44162140" lon="24.52907020">
        <ele>321.00000</ele>
        <time>2010-01-01T06:41:48Z</time>
      </trkpt>
      <trkpt lat="49.44142960" lon="24.52974180">
        <ele>319.00000</ele>
        <time>2010-01-01T06:42:07Z</time>
      </trkpt>
      <trkpt lat="49.44069890" lon="24.53124810">
        <ele>312.00000</ele>
        <time>2010-01-01T06:42:56Z</time>
      </trkpt>
      <trkpt lat="49.43989900" lon="24.53295290">
        <ele>306.00000</ele>
        <time>2010-01-01T06:43:50Z</time>
      </trkpt>
      <trkpt lat="49.43970990" lon="24.53341000">
        <ele>307.00000</ele>
        <time>2010-01-01T06:44:04Z</time>
      </trkpt>
      <trkpt lat="49.43914020" lon="24.53498290">
        <ele>305.00000</ele>
        <time>2010-01-01T06:44:51Z</time>
      </trkpt>
      <trkpt lat="49.43891850" lon="24.53555450">
        <ele>306.00000</ele>
        <time>2010-01-01T06:45:09Z</time>
      </trkpt>
      <trkpt lat="49.43878960" lon="24.53584000">
        <ele>306.00000</ele>
        <time>2010-01-01T06:45:18Z</time>
      </trkpt>
      <trkpt lat="49.43854720" lon="24.53631980">
        <ele>307.00000</ele>
        <time>2010-01-01T06:45:33Z</time>
      </trkpt>
      <trkpt lat="49.43835160" lon="24.53666490">
        <ele>309.00000</ele>
        <time>2010-01-01T06:45:45Z</time>
      </trkpt>
      <trkpt lat="49.43763970" lon="24.53782220">
        <ele>307.00000</ele>
        <time>2010-01-01T06:46:27Z</time>
      </trkpt>
      <trkpt lat="49.43737080" lon="24.53834850">
        <ele>305.00000</ele>
        <time>2010-01-01T06:46:44Z</time>
      </trkpt>
      <trkpt lat="49.43723080" lon="24.53874430">
        <ele>302.00000</ele>
        <time>2010-01-01T06:46:56Z</time>
      </trkpt>
      <trkpt lat="49.43712490" lon="24.53921550">
        <ele>299.00000</ele>
        <time>2010-01-01T06:47:09Z</time>
      </trkpt>
      <trkpt lat="49.43702800" lon="24.54011700">
        <ele>296.00000</ele>
        <time>2010-01-01T06:47:33Z</time>
      </trkpt>
      <trkpt lat="49.43697130" lon="24.54048910">
        <ele>294.00000</ele>
        <time>2010-01-01T06:47:43Z</time>
      </trkpt>
      <trkpt lat="49.43693240" lon="24.54066100">
        <ele>294.00000</ele>
        <time>2010-01-01T06:47:47Z</time>
      </trkpt>
      <trkpt lat="49.43682040" lon="24.54097310">
        <ele>294.00000</ele>
        <time>2010-01-01T06:47:57Z</time>
      </trkpt>
      <trkpt lat="49.43675180" lon="24.54111180">
        <ele>294.00000</ele>
        <time>2010-01-01T06:48:01Z</time>
      </trkpt>
      <trkpt lat="49.43659690" lon="24.54134510">
        <ele>294.00000</ele>
        <time>2010-01-01T06:48:10Z</time>
      </trkpt>
      <trkpt lat="49.43634550" lon="24.54162410">
        <ele>294.00000</ele>
        <time>2010-01-01T06:48:22Z</time>
      </trkpt>
      <trkpt lat="49.43563820" lon="24.54234600">
        <ele>294.00000</ele>
        <time>2010-01-01T06:48:56Z</time>
      </trkpt>
      <trkpt lat="49.43495060" lon="24.54297260">
        <ele>295.00000</ele>
        <time>2010-01-01T06:49:28Z</time>
      </trkpt>
      <trkpt lat="49.43451580" lon="24.54326540">
        <ele>293.00000</ele>
        <time>2010-01-01T06:49:47Z</time>
      </trkpt>
      <trkpt lat="49.43358610" lon="24.54377960">
        <ele>293.00000</ele>
        <time>2010-01-01T06:50:27Z</time>
      </trkpt>
      <trkpt lat="49.43297950" lon="24.54414440">
        <ele>296.00000</ele>
        <time>2010-01-01T06:50:53Z</time>
      </trkpt>
      <trkpt lat="49.43257690" lon="24.54443280">
        <ele>298.00000</ele>
        <time>2010-01-01T06:51:11Z</time>
      </trkpt>
      <trkpt lat="49.43241390" lon="24.54459360">
        <ele>298.00000</ele>
        <time>2010-01-01T06:51:18Z</time>
      </trkpt>
      <trkpt lat="49.43185490" lon="24.54522460">
        <ele>300.00000</ele>
        <time>2010-01-01T06:51:46Z</time>
      </trkpt>
      <trkpt lat="49.43149180" lon="24.54569010">
        <ele>299.00000</ele>
        <time>2010-01-01T06:52:05Z</time>
      </trkpt>
      <trkpt lat="49.43053640" lon="24.54700920">
        <ele>287.00000</ele>
        <time>2010-01-01T06:52:57Z</time>
      </trkpt>
      <trkpt lat="49.42986410" lon="24.54798360">
        <ele>282.00000</ele>
        <time>2010-01-01T06:53:33Z</time>
      </trkpt>
      <trkpt lat="49.42956860" lon="24.54844900">
        <ele>279.00000</ele>
        <time>2010-01-01T06:53:50Z</time>
      </trkpt>
      <trkpt lat="49.42928870" lon="24.54894610">
        <ele>276.00000</ele>
        <time>2010-01-01T06:54:08Z</time>
      </trkpt>
      <trkpt lat="49.42921290" lon="24.54913060">
        <ele>275.00000</ele>
        <time>2010-01-01T06:54:13Z</time>
      </trkpt>
      <trkpt lat="49.42915660" lon="24.54932850">
        <ele>274.00000</ele>
        <time>2010-01-01T06:54:19Z</time>
      </trkpt>
      <trkpt lat="49.42910040" lon="24.54976240">
        <ele>272.00000</ele>
        <time>2010-01-01T06:54:30Z</time>
      </trkpt>
      <trkpt lat="49.42908690" lon="24.54997930">
        <ele>271.00000</ele>
        <time>2010-01-01T06:54:36Z</time>
      </trkpt>
      <trkpt lat="49.42904880" lon="24.55017980">
        <ele>270.00000</ele>
        <time>2010-01-01T06:54:41Z</time>
      </trkpt>
      <trkpt lat="49.42898510" lon="24.55037100">
        <ele>270.00000</ele>
        <time>2010-01-01T06:54:47Z</time>
      </trkpt>
      <trkpt lat="49.42876790" lon="24.55091160">
        <ele>268.00000</ele>
        <time>2010-01-01T06:55:04Z</time>
      </trkpt>
      <trkpt lat="49.42861690" lon="24.55124690">
        <ele>268.00000</ele>
        <time>2010-01-01T06:55:14Z</time>
      </trkpt>
      <trkpt lat="49.42821770" lon="24.55195850">
        <ele>265.00000</ele>
        <time>2010-01-01T06:55:39Z</time>
      </trkpt>
      <trkpt lat="49.42797950" lon="24.55233610">
        <ele>264.00000</ele>
        <time>2010-01-01T06:55:52Z</time>
      </trkpt>
      <trkpt lat="49.42791920" lon="24.55247480">
        <ele>264.00000</ele>
        <time>2010-01-01T06:55:57Z</time>
      </trkpt>
      <trkpt lat="49.42772580" lon="24.55304570">
        <ele>264.00000</ele>
        <time>2010-01-01T06:56:14Z</time>
      </trkpt>
      <trkpt lat="49.42748560" lon="24.55390550">
        <ele>265.00000</ele>
        <time>2010-01-01T06:56:38Z</time>
      </trkpt>
      <trkpt lat="49.42742780" lon="24.55421820">
        <ele>265.00000</ele>
        <time>2010-01-01T06:56:46Z</time>
      </trkpt>
      <trkpt lat="49.42739240" lon="24.55454740">
        <ele>264.00000</ele>
        <time>2010-01-01T06:56:55Z</time>
      </trkpt>
      <trkpt lat="49.42734280" lon="24.55535520">
        <ele>264.00000</ele>
        <time>2010-01-01T06:57:16Z</time>
      </trkpt>
      <trkpt lat="49.42733720" lon="24.55582130">
        <ele>263.00000</ele>
        <time>2010-01-01T06:57:28Z</time>
      </trkpt>
      <trkpt lat="49.42750580" lon="24.55791810">
        <ele>258.00000</ele>
        <time>2010-01-01T06:58:23Z</time>
      </trkpt>
      <trkpt lat="49.42765530" lon="24.55956950">
        <ele>255.00000</ele>
        <time>2010-01-01T06:59:07Z</time>
      </trkpt>
      <trkpt lat="49.42767240" lon="24.55983930">
        <ele>255.00000</ele>
        <time>2010-01-01T06:59:14Z</time>
      </trkpt>
      <trkpt lat="49.42766320" lon="24.56062460">
        <ele>254.00000</ele>
        <time>2010-01-01T06:59:34Z</time>
      </trkpt>
      <trkpt lat="49.42756150" lon="24.56123970">
        <ele>254.00000</ele>
        <time>2010-01-01T06:59:51Z</time>
      </trkpt>
      <trkpt lat="49.42704940" lon="24.56391680">
        <ele>256.00000</ele>
        <time>2010-01-01T07:01:03Z</time>
      </trkpt>
      <trkpt lat="49.42646250" lon="24.56664050">
        <ele>252.00000</ele>
        <time>2010-01-01T07:02:18Z</time>
      </trkpt>
      <trkpt lat="49.42642520" lon="24.56674790">
        <ele>252.00000</ele>
        <time>2010-01-01T07:02:21Z</time>
      </trkpt>
      <trkpt lat="49.42614110" lon="24.56734390">
        <ele>252.00000</ele>
        <time>2010-01-01T07:02:40Z</time>
      </trkpt>
      <trkpt lat="49.42527710" lon="24.56884660">
        <ele>251.00000</ele>
        <time>2010-01-01T07:03:33Z</time>
      </trkpt>
      <trkpt lat="49.42442560" lon="24.57037470">
        <ele>250.00000</ele>
        <time>2010-01-01T07:04:25Z</time>
      </trkpt>
      <trkpt lat="49.42289470" lon="24.57304020">
        <ele>250.00000</ele>
        <time>2010-01-01T07:05:58Z</time>
      </trkpt>
      <trkpt lat="49.42253180" lon="24.57370460">
        <ele>249.00000</ele>
        <time>2010-01-01T07:06:20Z</time>
      </trkpt>
      <trkpt lat="49.42173060" lon="24.57509340">
        <ele>247.00000</ele>
        <time>2010-01-01T07:07:09Z</time>
      </trkpt>
      <trkpt lat="49.42084100" lon="24.57668030">
        <ele>246.00000</ele>
        <time>2010-01-01T07:08:03Z</time>
      </trkpt>
      <trkpt lat="49.41981380" lon="24.57842050">
        <ele>252.00000</ele>
        <time>2010-01-01T07:09:04Z</time>
      </trkpt>
      <trkpt lat="49.41831070" lon="24.58103690">
        <ele>246.00000</ele>
        <time>2010-01-01T07:10:35Z</time>
      </trkpt>
      <trkpt lat="49.41807950" lon="24.58148220">
        <ele>245.00000</ele>
        <time>2010-01-01T07:10:50Z</time>
      </trkpt>
      <trkpt lat="49.41794310" lon="24.58187070">
        <ele>245.00000</ele>
        <time>2010-01-01T07:11:02Z</time>
      </trkpt>
      <trkpt lat="49.41788570" lon="24.58214450">
        <ele>245.00000</ele>
        <time>2010-01-01T07:11:09Z</time>
      </trkpt>
      <trkpt lat="49.41785690" lon="24.58242940">
        <ele>244.00000</ele>
        <time>2010-01-01T07:11:17Z</time>
      </trkpt>
      <trkpt lat="49.41786620" lon="24.58313950">
        <ele>244.00000</ele>
        <time>2010-01-01T07:11:35Z</time>
      </trkpt>
      <trkpt lat="49.41811420" lon="24.58943140">
        <ele>240.00000</ele>
        <time>2010-01-01T07:14:19Z</time>
      </trkpt>
      <trkpt lat="49.41825660" lon="24.59255110">
        <ele>240.00000</ele>
        <time>2010-01-01T07:15:41Z</time>
      </trkpt>
      <trkpt lat="49.41845970" lon="24.59833480">
        <ele>245.00000</ele>
        <time>2010-01-01T07:18:12Z</time>
      </trkpt>
      <trkpt lat="49.41860050" lon="24.60130710">
        <ele>247.00000</ele>
        <time>2010-01-01T07:19:29Z</time>
      </trkpt>
      <trkpt lat="49.41861460" lon="24.60194350">
        <ele>245.00000</ele>
        <time>2010-01-01T07:19:46Z</time>
      </trkpt>
      <trkpt lat="49.41868190" lon="24.60347110">
        <ele>245.00000</ele>
        <time>2010-01-01T07:20:26Z</time>
      </trkpt>
      <trkpt lat="49.41866430" lon="24.60354790">
        <ele>245.00000</ele>
        <time>2010-01-01T07:20:28Z</time>
      </trkpt>
      <trkpt lat="49.41856840" lon="24.60366770">
        <ele>246.00000</ele>
        <time>2010-01-01T07:20:33Z</time>
      </trkpt>
      <trkpt lat="49.41812700" lon="24.60400310">
        <ele>247.00000</ele>
        <time>2010-01-01T07:20:52Z</time>
      </trkpt>
      <trkpt lat="49.41514470" lon="24.60610090">
        <ele>245.00000</ele>
        <time>2010-01-01T07:23:04Z</time>
      </trkpt>
      <trkpt lat="49.41379020" lon="24.60702660">
        <ele>245.00000</ele>
        <time>2010-01-01T07:24:03Z</time>
      </trkpt>
      <trkpt lat="49.41228020" lon="24.60811620">
        <ele>249.00000</ele>
        <time>2010-01-01T07:25:10Z</time>
      </trkpt>
      <trkpt lat="49.41198560" lon="24.60834340">
        <ele>250.00000</ele>
        <time>2010-01-01T07:25:23Z</time>
      </trkpt>
      <trkpt lat="49.41137360" lon="24.60888780">
        <ele>253.00000</ele>
        <time>2010-01-01T07:25:51Z</time>
      </trkpt>
      <trkpt lat="49.41115140" lon="24.60912630">
        <ele>256.00000</ele>
        <time>2010-01-01T07:26:02Z</time>
      </trkpt>
      <trkpt lat="49.41087240" lon="24.60946290">
        <ele>259.00000</ele>
        <time>2010-01-01T07:26:16Z</time>
      </trkpt>
      <trkpt lat="49.41067210" lon="24.60964800">
        <ele>259.00000</ele>
        <time>2010-01-01T07:26:26Z</time>
      </trkpt>
      <trkpt lat="49.41056140" lon="24.60971770">
        <ele>259.00000</ele>
        <time>2010-01-01T07:26:30Z</time>
      </trkpt>
      <trkpt lat="49.41043320" lon="24.60977220">
        <ele>259.00000</ele>
        <time>2010-01-01T07:26:36Z</time>
      </trkpt>
      <trkpt lat="49.40999060" lon="24.60982670">
        <ele>258.00000</ele>
        <time>2010-01-01T07:26:54Z</time>
      </trkpt>
      <trkpt lat="49.40993950" lon="24.60981890">
        <ele>258.00000</ele>
        <time>2010-01-01T07:26:56Z</time>
      </trkpt>
      <trkpt lat="49.40988910" lon="24.60989430">
        <ele>258.00000</ele>
        <time>2010-01-01T07:26:58Z</time>
      </trkpt>
      <trkpt lat="49.40989660" lon="24.60999220">
        <ele>258.00000</ele>
        <time>2010-01-01T07:27:01Z</time>
      </trkpt>
      <trkpt lat="49.40994510" lon="24.61020240">
        <ele>259.00000</ele>
        <time>2010-01-01T07:27:07Z</time>
      </trkpt>
      <trkpt lat="49.41042440" lon="24.61170110">
        <ele>257.00000</ele>
        <time>2010-01-01T07:27:50Z</time>
      </trkpt>
      <trkpt lat="49.41078820" lon="24.61291430">
        <ele>260.00000</ele>
        <time>2010-01-01T07:28:25Z</time>
      </trkpt>
      <trkpt lat="49.41081850" lon="24.61394580">
        <ele>260.00000</ele>
        <time>2010-01-01T07:28:52Z</time>
      </trkpt>
      <trkpt lat="49.41088100" lon="24.61517750">
        <ele>258.00000</ele>
        <time>2010-01-01T07:29:24Z</time>
      </trkpt>
      <trkpt lat="49.41107250" lon="24.61849690">
        <ele>258.00000</ele>
        <time>2010-01-01T07:30:51Z</time>
      </trkpt>
      <trkpt lat="49.41107880" lon="24.61939340">
        <ele>262.00000</ele>
        <time>2010-01-01T07:31:14Z</time>
      </trkpt>
      <trkpt lat="49.41101570" lon="24.62027040">
        <ele>258.00000</ele>
        <time>2010-01-01T07:31:37Z</time>
      </trkpt>
      <trkpt lat="49.41090360" lon="24.62112260">
        <ele>256.00000</ele>
        <time>2010-01-01T07:32:00Z</time>
      </trkpt>
      <trkpt lat="49.41075740" lon="24.62200790">
        <ele>257.00000</ele>
        <time>2010-01-01T07:32:24Z</time>
      </trkpt>
      <trkpt lat="49.41052070" lon="24.62364950">
        <ele>257.00000</ele>
        <time>2010-01-01T07:33:07Z</time>
      </trkpt>
      <trkpt lat="49.41042450" lon="24.62435510">
        <ele>257.00000</ele>
        <time>2010-01-01T07:33:26Z</time>
      </trkpt>
      <trkpt lat="49.41034710" lon="24.62515800">
        <ele>258.00000</ele>
        <time>2010-01-01T07:33:47Z</time>
      </trkpt>
      <trkpt lat="49.41031940" lon="24.62595240">
        <ele>259.00000</ele>
        <time>2010-01-01T07:34:08Z</time>
      </trkpt>
      <trkpt lat="49.41027030" lon="24.62644160">
        <ele>260.00000</ele>
        <time>2010-01-01T07:34:21Z</time>
      </trkpt>
      <trkpt lat="49.41021700" lon="24.62751490">
        <ele>260.00000</ele>
        <time>2010-01-01T07:34:49Z</time>
      </trkpt>
      <trkpt lat="49.41014550" lon="24.62971020">
        <ele>260.00000</ele>
        <time>2010-01-01T07:35:46Z</time>
      </trkpt>
      <trkpt lat="49.41010090" lon="24.63016860">
        <ele>259.00000</ele>
        <time>2010-01-01T07:35:58Z</time>
      </trkpt>
      <trkpt lat="49.41004530" lon="24.63038160">
        <ele>259.00000</ele>
        <time>2010-01-01T07:36:04Z</time>
      </trkpt>
      <trkpt lat="49.40996820" lon="24.63056710">
        <ele>258.00000</ele>
        <time>2010-01-01T07:36:10Z</time>
      </trkpt>
      <trkpt lat="49.40962720" lon="24.63127300">
        <ele>257.00000</ele>
        <time>2010-01-01T07:36:33Z</time>
      </trkpt>
      <trkpt lat="49.40935040" lon="24.63191490">
        <ele>255.00000</ele>
        <time>2010-01-01T07:36:53Z</time>
      </trkpt>
      <trkpt lat="49.40917750" lon="24.63251700">
        <ele>256.00000</ele>
        <time>2010-01-01T07:37:10Z</time>
      </trkpt>
      <trkpt lat="49.40908720" lon="24.63303110">
        <ele>257.00000</ele>
        <time>2010-01-01T07:37:24Z</time>
      </trkpt>
      <trkpt lat="49.40898060" lon="24.63412580">
        <ele>263.00000</ele>
        <time>2010-01-01T07:37:53Z</time>
      </trkpt>
      <trkpt lat="49.40896510" lon="24.63449630">
        <ele>264.00000</ele>
        <time>2010-01-01T07:38:03Z</time>
      </trkpt>
      <trkpt lat="49.40889170" lon="24.63516230">
        <ele>266.00000</ele>
        <time>2010-01-01T07:38:20Z</time>
      </trkpt>
      <trkpt lat="49.40849840" lon="24.63727470">
        <ele>273.00000</ele>
        <time>2010-01-01T07:39:17Z</time>
      </trkpt>
      <trkpt lat="49.40846470" lon="24.63765440">
        <ele>272.00000</ele>
        <time>2010-01-01T07:39:27Z</time>
      </trkpt>
      <trkpt lat="49.40837190" lon="24.63811490">
        <ele>271.00000</ele>
        <time>2010-01-01T07:39:40Z</time>
      </trkpt>
      <trkpt lat="49.40829480" lon="24.63867390">
        <ele>268.00000</ele>
        <time>2010-01-01T07:39:55Z</time>
      </trkpt>
      <trkpt lat="49.40808260" lon="24.63977320">
        <ele>265.00000</ele>
        <time>2010-01-01T07:40:25Z</time>
      </trkpt>
      <trkpt lat="49.40784510" lon="24.64075010">
        <ele>265.00000</ele>
        <time>2010-01-01T07:40:52Z</time>
      </trkpt>
      <trkpt lat="49.40770330" lon="24.64119100">
        <ele>267.00000</ele>
        <time>2010-01-01T07:41:05Z</time>
      </trkpt>
      <trkpt lat="49.40754540" lon="24.64160120">
        <ele>269.00000</ele>
        <time>2010-01-01T07:41:17Z</time>
      </trkpt>
      <trkpt lat="49.40733330" lon="24.64205940">
        <ele>272.00000</ele>
        <time>2010-01-01T07:41:32Z</time>
      </trkpt>
      <trkpt lat="49.40713080" lon="24.64241280">
        <ele>272.00000</ele>
        <time>2010-01-01T07:41:44Z</time>
      </trkpt>
      <trkpt lat="49.40695150" lon="24.64267570">
        <ele>271.00000</ele>
        <time>2010-01-01T07:41:54Z</time>
      </trkpt>
      <trkpt lat="49.40650910" lon="24.64338850">
        <ele>273.00000</ele>
        <time>2010-01-01T07:42:20Z</time>
      </trkpt>
      <trkpt lat="49.40617960" lon="24.64395400">
        <ele>279.00000</ele>
        <time>2010-01-01T07:42:39Z</time>
      </trkpt>
      <trkpt lat="49.40605370" lon="24.64420240">
        <ele>280.00000</ele>
        <time>2010-01-01T07:42:48Z</time>
      </trkpt>
      <trkpt lat="49.40588460" lon="24.64460660">
        <ele>278.00000</ele>
        <time>2010-01-01T07:43:00Z</time>
      </trkpt>
      <trkpt lat="49.40570250" lon="24.64524240">
        <ele>278.00000</ele>
        <time>2010-01-01T07:43:18Z</time>
      </trkpt>
      <trkpt lat="49.40552880" lon="24.64594280">
        <ele>278.00000</ele>
        <time>2010-01-01T07:43:38Z</time>
      </trkpt>
      <trkpt lat="49.40486310" lon="24.64886370">
        <ele>275.00000</ele>
        <time>2010-01-01T07:44:58Z</time>
      </trkpt>
      <trkpt lat="49.40476520" lon="24.64945340">
        <ele>275.00000</ele>
        <time>2010-01-01T07:45:14Z</time>
      </trkpt>
      <trkpt lat="49.40473260" lon="24.64985100">
        <ele>275.00000</ele>
        <time>2010-01-01T07:45:25Z</time>
      </trkpt>
      <trkpt lat="49.40473010" lon="24.65024580">
        <ele>274.00000</ele>
        <time>2010-01-01T07:45:35Z</time>
      </trkpt>
      <trkpt lat="49.40476390" lon="24.65105580">
        <ele>273.00000</ele>
        <time>2010-01-01T07:45:56Z</time>
      </trkpt>
      <trkpt lat="49.40481720" lon="24.65172510">
        <ele>270.00000</ele>
        <time>2010-01-01T07:46:14Z</time>
      </trkpt>
      <trkpt lat="49.40488790" lon="24.65235730">
        <ele>270.00000</ele>
        <time>2010-01-01T07:46:30Z</time>
      </trkpt>
      <trkpt lat="49.40500690" lon="24.65369020">
        <ele>268.00000</ele>
        <time>2010-01-01T07:47:05Z</time>
      </trkpt>
      <trkpt lat="49.40502100" lon="24.65480560">
        <ele>271.00000</ele>
        <time>2010-01-01T07:47:34Z</time>
      </trkpt>
      <trkpt lat="49.40512620" lon="24.65611720">
        <ele>274.00000</ele>
        <time>2010-01-01T07:48:09Z</time>
      </trkpt>
      <trkpt lat="49.40518400" lon="24.65733850">
        <ele>276.00000</ele>
        <time>2010-01-01T07:48:41Z</time>
      </trkpt>
      <trkpt lat="49.40517630" lon="24.65782990">
        <ele>278.00000</ele>
        <time>2010-01-01T07:48:53Z</time>
      </trkpt>
      <trkpt lat="49.40511830" lon="24.65856920">
        <ele>280.00000</ele>
        <time>2010-01-01T07:49:13Z</time>
      </trkpt>
      <trkpt lat="49.40479610" lon="24.66117630">
        <ele>282.00000</ele>
        <time>2010-01-01T07:50:22Z</time>
      </trkpt>
      <trkpt lat="49.40450980" lon="24.66288210">
        <ele>279.00000</ele>
        <time>2010-01-01T07:51:08Z</time>
      </trkpt>
      <trkpt lat="49.40420750" lon="24.66452110">
        <ele>279.00000</ele>
        <time>2010-01-01T07:51:52Z</time>
      </trkpt>
      <trkpt lat="49.40397300" lon="24.66565370">
        <ele>278.00000</ele>
        <time>2010-01-01T07:52:23Z</time>
      </trkpt>
      <trkpt lat="49.40375830" lon="24.66693840">
        <ele>278.00000</ele>
        <time>2010-01-01T07:52:58Z</time>
      </trkpt>
      <trkpt lat="49.40333120" lon="24.66912620">
        <ele>276.00000</ele>
        <time>2010-01-01T07:53:57Z</time>
      </trkpt>
      <trkpt lat="49.40301380" lon="24.67085530">
        <ele>272.00000</ele>
        <time>2010-01-01T07:54:44Z</time>
      </trkpt>
      <trkpt lat="49.40284430" lon="24.67166310">
        <ele>273.00000</ele>
        <time>2010-01-01T07:55:06Z</time>
      </trkpt>
      <trkpt lat="49.40276540" lon="24.67225560">
        <ele>273.00000</ele>
        <time>2010-01-01T07:55:22Z</time>
      </trkpt>
      <trkpt lat="49.40262590" lon="24.67302310">
        <ele>273.00000</ele>
        <time>2010-01-01T07:55:43Z</time>
      </trkpt>
      <trkpt lat="49.40251170" lon="24.67350730">
        <ele>271.00000</ele>
        <time>2010-01-01T07:55:56Z</time>
      </trkpt>
      <trkpt lat="49.40240030" lon="24.67411240">
        <ele>271.00000</ele>
        <time>2010-01-01T07:56:12Z</time>
      </trkpt>
      <trkpt lat="49.40226680" lon="24.67471190">
        <ele>270.00000</ele>
        <time>2010-01-01T07:56:29Z</time>
      </trkpt>
      <trkpt lat="49.40217550" lon="24.67500560">
        <ele>270.00000</ele>
        <time>2010-01-01T07:56:37Z</time>
      </trkpt>
      <trkpt lat="49.40192250" lon="24.67598170">
        <ele>267.00000</ele>
        <time>2010-01-01T07:57:05Z</time>
      </trkpt>
      <trkpt lat="49.40144180" lon="24.67747600">
        <ele>266.00000</ele>
        <time>2010-01-01T07:57:48Z</time>
      </trkpt>
      <trkpt lat="49.40070630" lon="24.68019650">
        <ele>267.00000</ele>
        <time>2010-01-01T07:59:05Z</time>
      </trkpt>
      <trkpt lat="49.40059410" lon="24.68054320">
        <ele>265.00000</ele>
        <time>2010-01-01T07:59:15Z</time>
      </trkpt>
      <trkpt lat="49.40058540" lon="24.68063560">
        <ele>265.00000</ele>
        <time>2010-01-01T07:59:18Z</time>
      </trkpt>
      <trkpt lat="49.40034430" lon="24.68164100">
        <ele>267.00000</ele>
        <time>2010-01-01T07:59:45Z</time>
      </trkpt>
      <trkpt lat="49.40020680" lon="24.68227870">
        <ele>266.00000</ele>
        <time>2010-01-01T08:00:03Z</time>
      </trkpt>
      <trkpt lat="49.39974830" lon="24.68458190">
        <ele>264.00000</ele>
        <time>2010-01-01T08:01:06Z</time>
      </trkpt>
      <trkpt lat="49.39964350" lon="24.68499830">
        <ele>264.00000</ele>
        <time>2010-01-01T08:01:17Z</time>
      </trkpt>
      <trkpt lat="49.39948340" lon="24.68551280">
        <ele>261.00000</ele>
        <time>2010-01-01T08:01:32Z</time>
      </trkpt>
      <trkpt lat="49.39916380" lon="24.68642340">
        <ele>260.00000</ele>
        <time>2010-01-01T08:01:59Z</time>
      </trkpt>
      <trkpt lat="49.39889850" lon="24.68706120">
        <ele>260.00000</ele>
        <time>2010-01-01T08:02:19Z</time>
      </trkpt>
      <trkpt lat="49.39864890" lon="24.68757200">
        <ele>261.00000</ele>
        <time>2010-01-01T08:02:35Z</time>
      </trkpt>
      <trkpt lat="49.39719110" lon="24.69015070">
        <ele>259.00000</ele>
        <time>2010-01-01T08:04:04Z</time>
      </trkpt>
      <trkpt lat="49.39694910" lon="24.69054430">
        <ele>257.00000</ele>
        <time>2010-01-01T08:04:19Z</time>
      </trkpt>
      <trkpt lat="49.39627770" lon="24.69176190">
        <ele>258.00000</ele>
        <time>2010-01-01T08:05:00Z</time>
      </trkpt>
      <trkpt lat="49.39593950" lon="24.69241990">
        <ele>257.00000</ele>
        <time>2010-01-01T08:05:22Z</time>
      </trkpt>
      <trkpt lat="49.39530770" lon="24.69348610">
        <ele>258.00000</ele>
        <time>2010-01-01T08:06:00Z</time>
      </trkpt>
      <trkpt lat="49.39508630" lon="24.69384090">
        <ele>259.00000</ele>
        <time>2010-01-01T08:06:12Z</time>
      </trkpt>
      <trkpt lat="49.39479010" lon="24.69424220">
        <ele>260.00000</ele>
        <time>2010-01-01T08:06:28Z</time>
      </trkpt>
      <trkpt lat="49.39456270" lon="24.69453840">
        <ele>261.00000</ele>
        <time>2010-01-01T08:06:40Z</time>
      </trkpt>
      <trkpt lat="49.39435080" lon="24.69475240">
        <ele>261.00000</ele>
        <time>2010-01-01T08:06:50Z</time>
      </trkpt>
      <trkpt lat="49.39415280" lon="24.69487970">
        <ele>261.00000</ele>
        <time>2010-01-01T08:06:59Z</time>
      </trkpt>
      <trkpt lat="49.39389280" lon="24.69501090">
        <ele>261.00000</ele>
        <time>2010-01-01T08:07:10Z</time>
      </trkpt>
      <trkpt lat="49.39383520" lon="24.69501630">
        <ele>261.00000</ele>
        <time>2010-01-01T08:07:12Z</time>
      </trkpt>
      <trkpt lat="49.39207740" lon="24.69507430">
        <ele>253.00000</ele>
        <time>2010-01-01T08:08:22Z</time>
      </trkpt>
      <trkpt lat="49.39001010" lon="24.69508690">
        <ele>251.00000</ele>
        <time>2010-01-01T08:09:45Z</time>
      </trkpt>
      <trkpt lat="49.38972250" lon="24.69506840">
        <ele>251.00000</ele>
        <time>2010-01-01T08:09:57Z</time>
      </trkpt>
      <trkpt lat="49.38937700" lon="24.69506710">
        <ele>252.00000</ele>
        <time>2010-01-01T08:10:11Z</time>
      </trkpt>
      <trkpt lat="49.38890260" lon="24.69511210">
        <ele>250.00000</ele>
        <time>2010-01-01T08:10:30Z</time>
      </trkpt>
      <trkpt lat="49.38853140" lon="24.69522400">
        <ele>249.00000</ele>
        <time>2010-01-01T08:10:45Z</time>
      </trkpt>
      <trkpt lat="49.38816990" lon="24.69547900">
        <ele>249.00000</ele>
        <time>2010-01-01T08:11:01Z</time>
      </trkpt>
      <trkpt lat="49.38786850" lon="24.69582430">
        <ele>249.00000</ele>
        <time>2010-01-01T08:11:16Z</time>
      </trkpt>
      <trkpt lat="49.38763520" lon="24.69622790">
        <ele>251.00000</ele>
        <time>2010-01-01T08:11:30Z</time>
      </trkpt>
      <trkpt lat="49.38744100" lon="24.69676440">
        <ele>253.00000</ele>
        <time>2010-01-01T08:11:46Z</time>
      </trkpt>
      <trkpt lat="49.38728620" lon="24.69729540">
        <ele>254.00000</ele>
        <time>2010-01-01T08:12:01Z</time>
      </trkpt>
      <trkpt lat="49.38706770" lon="24.69793060">
        <ele>252.00000</ele>
        <time>2010-01-01T08:12:20Z</time>
      </trkpt>
      <trkpt lat="49.38644260" lon="24.69967960">
        <ele>255.00000</ele>
        <time>2010-01-01T08:13:12Z</time>
      </trkpt>
      <trkpt lat="49.38625840" lon="24.70015630">
        <ele>257.00000</ele>
        <time>2010-01-01T08:13:26Z</time>
      </trkpt>
      <trkpt lat="49.38612150" lon="24.70042670">
        <ele>259.00000</ele>
        <time>2010-01-01T08:13:35Z</time>
      </trkpt>
      <trkpt lat="49.38603440" lon="24.70063570">
        <ele>261.00000</ele>
        <time>2010-01-01T08:13:42Z</time>
      </trkpt>
      <trkpt lat="49.38496360" lon="24.70347860">
        <ele>271.00000</ele>
        <time>2010-01-01T08:15:07Z</time>
      </trkpt>
      <trkpt lat="49.38449910" lon="24.70476450">
        <ele>274.00000</ele>
        <time>2010-01-01T08:15:45Z</time>
      </trkpt>
      <trkpt lat="49.38432230" lon="24.70529420">
        <ele>275.00000</ele>
        <time>2010-01-01T08:16:01Z</time>
      </trkpt>
      <trkpt lat="49.38415340" lon="24.70588570">
        <ele>279.00000</ele>
        <time>2010-01-01T08:16:18Z</time>
      </trkpt>
      <trkpt lat="49.38400860" lon="24.70646530">
        <ele>283.00000</ele>
        <time>2010-01-01T08:16:34Z</time>
      </trkpt>
      <trkpt lat="49.38383950" lon="24.70738510">
        <ele>286.00000</ele>
        <time>2010-01-01T08:16:59Z</time>
      </trkpt>
      <trkpt lat="49.38377170" lon="24.70799920">
        <ele>286.00000</ele>
        <time>2010-01-01T08:17:15Z</time>
      </trkpt>
      <trkpt lat="49.38368350" lon="24.70911530">
        <ele>289.00000</ele>
        <time>2010-01-01T08:17:44Z</time>
      </trkpt>
      <trkpt lat="49.38354520" lon="24.71018980">
        <ele>292.00000</ele>
        <time>2010-01-01T08:18:13Z</time>
      </trkpt>
      <trkpt lat="49.38351120" lon="24.71066950">
        <ele>293.00000</ele>
        <time>2010-01-01T08:18:26Z</time>
      </trkpt>
      <trkpt lat="49.38344950" lon="24.71106390">
        <ele>293.00000</ele>
        <time>2010-01-01T08:18:36Z</time>
      </trkpt>
      <trkpt lat="49.38337500" lon="24.71172390">
        <ele>294.00000</ele>
        <time>2010-01-01T08:18:54Z</time>
      </trkpt>
      <trkpt lat="49.38312530" lon="24.71409000">
        <ele>298.00000</ele>
        <time>2010-01-01T08:19:56Z</time>
      </trkpt>
      <trkpt lat="49.38301500" lon="24.71485560">
        <ele>299.00000</ele>
        <time>2010-01-01T08:20:16Z</time>
      </trkpt>
      <trkpt lat="49.38286860" lon="24.71566000">
        <ele>303.00000</ele>
        <time>2010-01-01T08:20:38Z</time>
      </trkpt>
      <trkpt lat="49.38270500" lon="24.71636120">
        <ele>306.00000</ele>
        <time>2010-01-01T08:20:58Z</time>
      </trkpt>
      <trkpt lat="49.38257560" lon="24.71681420">
        <ele>309.00000</ele>
        <time>2010-01-01T08:21:11Z</time>
      </trkpt>
      <trkpt lat="49.38211280" lon="24.71814650">
        <ele>313.00000</ele>
        <time>2010-01-01T08:21:50Z</time>
      </trkpt>
      <trkpt lat="49.38183010" lon="24.71902870">
        <ele>313.00000</ele>
        <time>2010-01-01T08:22:15Z</time>
      </trkpt>
      <trkpt lat="49.38140430" lon="24.72022530">
        <ele>319.00000</ele>
        <time>2010-01-01T08:22:51Z</time>
      </trkpt>
      <trkpt lat="49.38128530" lon="24.72063360">
        <ele>320.00000</ele>
        <time>2010-01-01T08:23:03Z</time>
      </trkpt>
      <trkpt lat="49.38114270" lon="24.72125710">
        <ele>322.00000</ele>
        <time>2010-01-01T08:23:20Z</time>
      </trkpt>
      <trkpt lat="49.38106230" lon="24.72182500">
        <ele>325.00000</ele>
        <time>2010-01-01T08:23:35Z</time>
      </trkpt>
      <trkpt lat="49.38099580" lon="24.72246200">
        <ele>326.00000</ele>
        <time>2010-01-01T08:23:52Z</time>
      </trkpt>
      <trkpt lat="49.38088310" lon="24.72326230">
        <ele>329.00000</ele>
        <time>2010-01-01T08:24:13Z</time>
      </trkpt>
      <trkpt lat="49.38084310" lon="24.72370580">
        <ele>328.00000</ele>
        <time>2010-01-01T08:24:25Z</time>
      </trkpt>
      <trkpt lat="49.38067800" lon="24.72476920">
        <ele>327.00000</ele>
        <time>2010-01-01T08:24:53Z</time>
      </trkpt>
      <trkpt lat="49.38058340" lon="24.72554810">
        <ele>327.00000</ele>
        <time>2010-01-01T08:25:14Z</time>
      </trkpt>
      <trkpt lat="49.38019080" lon="24.72826140">
        <ele>336.00000</ele>
        <time>2010-01-01T08:26:26Z</time>
      </trkpt>
      <trkpt lat="49.37977210" lon="24.73167410">
        <ele>341.00000</ele>
        <time>2010-01-01T08:27:57Z</time>
      </trkpt>
      <trkpt lat="49.37936220" lon="24.73463630">
        <ele>349.00000</ele>
        <time>2010-01-01T08:29:16Z</time>
      </trkpt>
      <trkpt lat="49.37921210" lon="24.73593900">
        <ele>348.00000</ele>
        <time>2010-01-01T08:29:50Z</time>
      </trkpt>
      <trkpt lat="49.37908100" lon="24.73690260">
        <ele>348.00000</ele>
        <time>2010-01-01T08:30:16Z</time>
      </trkpt>
      <trkpt lat="49.37900190" lon="24.73769260">
        <ele>350.00000</ele>
        <time>2010-01-01T08:30:37Z</time>
      </trkpt>
      <trkpt lat="49.37863680" lon="24.74033920">
        <ele>358.00000</ele>
        <time>2010-01-01T08:31:47Z</time>
      </trkpt>
      <trkpt lat="49.37843360" lon="24.74214480">
        <ele>365.00000</ele>
        <time>2010-01-01T08:32:35Z</time>
      </trkpt>
      <trkpt lat="49.37840480" lon="24.74250740">
        <ele>364.00000</ele>
        <time>2010-01-01T08:32:45Z</time>
      </trkpt>
      <trkpt lat="49.37839730" lon="24.74300080">
        <ele>363.00000</ele>
        <time>2010-01-01T08:32:57Z</time>
      </trkpt>
      <trkpt lat="49.37842390" lon="24.74340620">
        <ele>362.00000</ele>
        <time>2010-01-01T08:33:08Z</time>
      </trkpt>
      <trkpt lat="49.37859960" lon="24.74487630">
        <ele>356.00000</ele>
        <time>2010-01-01T08:33:47Z</time>
      </trkpt>
      <trkpt lat="49.37881360" lon="24.74640720">
        <ele>349.00000</ele>
        <time>2010-01-01T08:34:28Z</time>
      </trkpt>
      <trkpt lat="49.37888810" lon="24.74680990">
        <ele>349.00000</ele>
        <time>2010-01-01T08:34:39Z</time>
      </trkpt>
      <trkpt lat="49.37896510" lon="24.74734720">
        <ele>347.00000</ele>
        <time>2010-01-01T08:34:53Z</time>
      </trkpt>
      <trkpt lat="49.37916050" lon="24.74806700">
        <ele>346.00000</ele>
        <time>2010-01-01T08:35:13Z</time>
      </trkpt>
      <trkpt lat="49.37931800" lon="24.74856660">
        <ele>347.00000</ele>
        <time>2010-01-01T08:35:28Z</time>
      </trkpt>
      <trkpt lat="49.38039220" lon="24.75152970">
        <ele>349.00000</ele>
        <time>2010-01-01T08:36:56Z</time>
      </trkpt>
      <trkpt lat="49.38055730" lon="24.75206840">
        <ele>348.00000</ele>
        <time>2010-01-01T08:37:12Z</time>
      </trkpt>
      <trkpt lat="49.38063040" lon="24.75266920">
        <ele>347.00000</ele>
        <time>2010-01-01T08:37:28Z</time>
      </trkpt>
      <trkpt lat="49.38062380" lon="24.75318140">
        <ele>348.00000</ele>
        <time>2010-01-01T08:37:41Z</time>
      </trkpt>
      <trkpt lat="49.38060280" lon="24.75350530">
        <ele>349.00000</ele>
        <time>2010-01-01T08:37:50Z</time>
      </trkpt>
      <trkpt lat="49.38054450" lon="24.75392000">
        <ele>349.00000</ele>
        <time>2010-01-01T08:38:01Z</time>
      </trkpt>
      <trkpt lat="49.38029420" lon="24.75547480">
        <ele>347.00000</ele>
        <time>2010-01-01T08:38:42Z</time>
      </trkpt>
      <trkpt lat="49.38026800" lon="24.75631490">
        <ele>346.00000</ele>
        <time>2010-01-01T08:39:04Z</time>
      </trkpt>
      <trkpt lat="49.38026110" lon="24.75867090">
        <ele>335.00000</ele>
        <time>2010-01-01T08:40:06Z</time>
      </trkpt>
      <trkpt lat="49.38021610" lon="24.75939790">
        <ele>333.00000</ele>
        <time>2010-01-01T08:40:25Z</time>
      </trkpt>
      <trkpt lat="49.38016220" lon="24.75997140">
        <ele>333.00000</ele>
        <time>2010-01-01T08:40:40Z</time>
      </trkpt>
      <trkpt lat="49.37995650" lon="24.76136320">
        <ele>327.00000</ele>
        <time>2010-01-01T08:41:17Z</time>
      </trkpt>
      <trkpt lat="49.37979080" lon="24.76218230">
        <ele>322.00000</ele>
        <time>2010-01-01T08:41:39Z</time>
      </trkpt>
      <trkpt lat="49.37954640" lon="24.76319100">
        <ele>320.00000</ele>
        <time>2010-01-01T08:42:07Z</time>
      </trkpt>
      <trkpt lat="49.37939360" lon="24.76375920">
        <ele>317.00000</ele>
        <time>2010-01-01T08:42:23Z</time>
      </trkpt>
      <trkpt lat="49.37919440" lon="24.76429030">
        <ele>316.00000</ele>
        <time>2010-01-01T08:42:39Z</time>
      </trkpt>
      <trkpt lat="49.37896580" lon="24.76477080">
        <ele>313.00000</ele>
        <time>2010-01-01T08:42:55Z</time>
      </trkpt>
      <trkpt lat="49.37872980" lon="24.76523730">
        <ele>313.00000</ele>
        <time>2010-01-01T08:43:10Z</time>
      </trkpt>
      <trkpt lat="49.37826300" lon="24.76608590">
        <ele>310.00000</ele>
        <time>2010-01-01T08:43:39Z</time>
      </trkpt>
      <trkpt lat="49.37812910" lon="24.76642950">
        <ele>307.00000</ele>
        <time>2010-01-01T08:43:50Z</time>
      </trkpt>
      <trkpt lat="49.37807460" lon="24.76660840">
        <ele>306.00000</ele>
        <time>2010-01-01T08:43:55Z</time>
      </trkpt>
      <trkpt lat="49.37799980" lon="24.76698420">
        <ele>304.00000</ele>
        <time>2010-01-01T08:44:05Z</time>
      </trkpt>
      <trkpt lat="49.37797730" lon="24.76717720">
        <ele>303.00000</ele>
        <time>2010-01-01T08:44:10Z</time>
      </trkpt>
      <trkpt lat="49.37786800" lon="24.76830200">
        <ele>301.00000</ele>
        <time>2010-01-01T08:44:40Z</time>
      </trkpt>
      <trkpt lat="49.37782260" lon="24.76918610">
        <ele>295.00000</ele>
        <time>2010-01-01T08:45:03Z</time>
      </trkpt>
      <trkpt lat="49.37786430" lon="24.76953880">
        <ele>293.00000</ele>
        <time>2010-01-01T08:45:12Z</time>
      </trkpt>
      <trkpt lat="49.37795000" lon="24.76986010">
        <ele>292.00000</ele>
        <time>2010-01-01T08:45:21Z</time>
      </trkpt>
      <trkpt lat="49.37814100" lon="24.77033560">
        <ele>290.00000</ele>
        <time>2010-01-01T08:45:36Z</time>
      </trkpt>
      <trkpt lat="49.37835800" lon="24.77079900">
        <ele>287.00000</ele>
        <time>2010-01-01T08:45:51Z</time>
      </trkpt>
      <trkpt lat="49.37861270" lon="24.77124230">
        <ele>284.00000</ele>
        <time>2010-01-01T08:46:06Z</time>
      </trkpt>
      <trkpt lat="49.37947810" lon="24.77258320">
        <ele>275.00000</ele>
        <time>2010-01-01T08:46:55Z</time>
      </trkpt>
      <trkpt lat="49.37966580" lon="24.77285840">
        <ele>275.00000</ele>
        <time>2010-01-01T08:47:06Z</time>
      </trkpt>
      <trkpt lat="49.37986890" lon="24.77307880">
        <ele>276.00000</ele>
        <time>2010-01-01T08:47:16Z</time>
      </trkpt>
      <trkpt lat="49.37997820" lon="24.77315270">
        <ele>277.00000</ele>
        <time>2010-01-01T08:47:21Z</time>
      </trkpt>
      <trkpt lat="49.38031040" lon="24.77329870">
        <ele>277.00000</ele>
        <time>2010-01-01T08:47:34Z</time>
      </trkpt>
      <trkpt lat="49.38155950" lon="24.77389820">
        <ele>271.00000</ele>
        <time>2010-01-01T08:48:27Z</time>
      </trkpt>
      <trkpt lat="49.38248390" lon="24.77438830">
        <ele>266.00000</ele>
        <time>2010-01-01T08:49:06Z</time>
      </trkpt>
      <trkpt lat="49.38319860" lon="24.77486600">
        <ele>265.00000</ele>
        <time>2010-01-01T08:49:37Z</time>
      </trkpt>
      <trkpt lat="49.38334290" lon="24.77499870">
        <ele>265.00000</ele>
        <time>2010-01-01T08:49:44Z</time>
      </trkpt>
      <trkpt lat="49.38367430" lon="24.77539890">
        <ele>264.00000</ele>
        <time>2010-01-01T08:50:01Z</time>
      </trkpt>
      <trkpt lat="49.38393780" lon="24.77588700">
        <ele>262.00000</ele>
        <time>2010-01-01T08:50:17Z</time>
      </trkpt>
      <trkpt lat="49.38555880" lon="24.77952830">
        <ele>260.00000</ele>
        <time>2010-01-01T08:52:12Z</time>
      </trkpt>
      <trkpt lat="49.38616750" lon="24.78093450">
        <ele>261.00000</ele>
        <time>2010-01-01T08:52:56Z</time>
      </trkpt>
      <trkpt lat="49.38650940" lon="24.78168140">
        <ele>262.00000</ele>
        <time>2010-01-01T08:53:20Z</time>
      </trkpt>
      <trkpt lat="49.38686930" lon="24.78256360">
        <ele>261.00000</ele>
        <time>2010-01-01T08:53:47Z</time>
      </trkpt>
      <trkpt lat="49.38710700" lon="24.78329340">
        <ele>261.00000</ele>
        <time>2010-01-01T08:54:08Z</time>
      </trkpt>
      <trkpt lat="49.38733630" lon="24.78412250">
        <ele>259.00000</ele>
        <time>2010-01-01T08:54:32Z</time>
      </trkpt>
      <trkpt lat="49.38754070" lon="24.78494320">
        <ele>261.00000</ele>
        <time>2010-01-01T08:54:55Z</time>
      </trkpt>
      <trkpt lat="49.38807010" lon="24.78747530">
        <ele>262.00000</ele>
        <time>2010-01-01T08:56:04Z</time>
      </trkpt>
      <trkpt lat="49.38827320" lon="24.78819290">
        <ele>263.00000</ele>
        <time>2010-01-01T08:56:24Z</time>
      </trkpt>
      <trkpt lat="49.38847620" lon="24.78881080">
        <ele>263.00000</ele>
        <time>2010-01-01T08:56:42Z</time>
      </trkpt>
      <trkpt lat="49.38878080" lon="24.78956600">
        <ele>262.00000</ele>
        <time>2010-01-01T08:57:06Z</time>
      </trkpt>
      <trkpt lat="49.38902350" lon="24.79000840">
        <ele>261.00000</ele>
        <time>2010-01-01T08:57:21Z</time>
      </trkpt>
      <trkpt lat="49.38931630" lon="24.79048040">
        <ele>261.00000</ele>
        <time>2010-01-01T08:57:38Z</time>
      </trkpt>
      <trkpt lat="49.38969520" lon="24.79099010">
        <ele>261.00000</ele>
        <time>2010-01-01T08:57:58Z</time>
      </trkpt>
      <trkpt lat="49.38999710" lon="24.79132760">
        <ele>261.00000</ele>
        <time>2010-01-01T08:58:13Z</time>
      </trkpt>
      <trkpt lat="49.39098440" lon="24.79225270">
        <ele>262.00000</ele>
        <time>2010-01-01T08:58:59Z</time>
      </trkpt>
      <trkpt lat="49.39288290" lon="24.79395940">
        <ele>263.00000</ele>
        <time>2010-01-01T09:00:27Z</time>
      </trkpt>
      <trkpt lat="49.39346970" lon="24.79446860">
        <ele>263.00000</ele>
        <time>2010-01-01T09:00:54Z</time>
      </trkpt>
      <trkpt lat="49.39387130" lon="24.79476480">
        <ele>263.00000</ele>
        <time>2010-01-01T09:01:12Z</time>
      </trkpt>
      <trkpt lat="49.39437270" lon="24.79507440">
        <ele>263.00000</ele>
        <time>2010-01-01T09:01:34Z</time>
      </trkpt>
      <trkpt lat="49.39501390" lon="24.79538640">
        <ele>264.00000</ele>
        <time>2010-01-01T09:02:00Z</time>
      </trkpt>
      <trkpt lat="49.39547500" lon="24.79555660">
        <ele>264.00000</ele>
        <time>2010-01-01T09:02:19Z</time>
      </trkpt>
      <trkpt lat="49.39757760" lon="24.79621660">
        <ele>266.00000</ele>
        <time>2010-01-01T09:03:45Z</time>
      </trkpt>
      <trkpt lat="49.39834270" lon="24.79649150">
        <ele>262.00000</ele>
        <time>2010-01-01T09:04:17Z</time>
      </trkpt>
      <trkpt lat="49.39922340" lon="24.79687610">
        <ele>264.00000</ele>
        <time>2010-01-01T09:04:53Z</time>
      </trkpt>
      <trkpt lat="49.39965730" lon="24.79709950">
        <ele>264.00000</ele>
        <time>2010-01-01T09:05:12Z</time>
      </trkpt>
      <trkpt lat="49.40053620" lon="24.79750320">
        <ele>264.00000</ele>
        <time>2010-01-01T09:05:49Z</time>
      </trkpt>
      <trkpt lat="49.40093870" lon="24.79764040">
        <ele>263.00000</ele>
        <time>2010-01-01T09:06:05Z</time>
      </trkpt>
      <trkpt lat="49.40128770" lon="24.79773090">
        <ele>264.00000</ele>
        <time>2010-01-01T09:06:19Z</time>
      </trkpt>
      <trkpt lat="49.40163000" lon="24.79779360">
        <ele>264.00000</ele>
        <time>2010-01-01T09:06:33Z</time>
      </trkpt>
      <trkpt lat="49.40200770" lon="24.79781600">
        <ele>262.00000</ele>
        <time>2010-01-01T09:06:48Z</time>
      </trkpt>
      <trkpt lat="49.40247750" lon="24.79776530">
        <ele>262.00000</ele>
        <time>2010-01-01T09:07:07Z</time>
      </trkpt>
      <trkpt lat="49.40301680" lon="24.79763910">
        <ele>263.00000</ele>
        <time>2010-01-01T09:07:29Z</time>
      </trkpt>
      <trkpt lat="49.40347390" lon="24.79746810">
        <ele>263.00000</ele>
        <time>2010-01-01T09:07:48Z</time>
      </trkpt>
      <trkpt lat="49.40377570" lon="24.79731140">
        <ele>264.00000</ele>
        <time>2010-01-01T09:08:00Z</time>
      </trkpt>
      <trkpt lat="49.40416600" lon="24.79706130">
        <ele>264.00000</ele>
        <time>2010-01-01T09:08:17Z</time>
      </trkpt>
      <trkpt lat="49.40552320" lon="24.79599440">
        <ele>265.00000</ele>
        <time>2010-01-01T09:09:18Z</time>
      </trkpt>
      <trkpt lat="49.40562840" lon="24.79593910">
        <ele>264.00000</ele>
        <time>2010-01-01T09:09:23Z</time>
      </trkpt>
      <trkpt lat="49.40569820" lon="24.79587210">
        <ele>264.00000</ele>
        <time>2010-01-01T09:09:26Z</time>
      </trkpt>
      <trkpt lat="49.40614620" lon="24.79555130">
        <ele>265.00000</ele>
        <time>2010-01-01T09:09:46Z</time>
      </trkpt>
      <trkpt lat="49.40651700" lon="24.79535100">
        <ele>266.00000</ele>
        <time>2010-01-01T09:10:02Z</time>
      </trkpt>
      <trkpt lat="49.40704860" lon="24.79513480">
        <ele>266.00000</ele>
        <time>2010-01-01T09:10:24Z</time>
      </trkpt>
      <trkpt lat="49.40752390" lon="24.79501310">
        <ele>268.00000</ele>
        <time>2010-01-01T09:10:43Z</time>
      </trkpt>
      <trkpt lat="49.40802480" lon="24.79492570">
        <ele>269.00000</ele>
        <time>2010-01-01T09:11:03Z</time>
      </trkpt>
      <trkpt lat="49.40855800" lon="24.79487860">
        <ele>268.00000</ele>
        <time>2010-01-01T09:11:24Z</time>
      </trkpt>
      <trkpt lat="49.40903430" lon="24.79488670">
        <ele>268.00000</ele>
        <time>2010-01-01T09:11:44Z</time>
      </trkpt>
      <trkpt lat="49.41040940" lon="24.79494510">
        <ele>269.00000</ele>
        <time>2010-01-01T09:12:39Z</time>
      </trkpt>
      <trkpt lat="49.41104250" lon="24.79495300">
        <ele>270.00000</ele>
        <time>2010-01-01T09:13:04Z</time>
      </trkpt>
      <trkpt lat="49.41457730" lon="24.79507950">
        <ele>274.00000</ele>
        <time>2010-01-01T09:15:25Z</time>
      </trkpt>
      <trkpt lat="49.41507970" lon="24.79511910">
        <ele>270.00000</ele>
        <time>2010-01-01T09:15:46Z</time>
      </trkpt>
      <trkpt lat="49.41568300" lon="24.79520780">
        <ele>269.00000</ele>
        <time>2010-01-01T09:16:10Z</time>
      </trkpt>
      <trkpt lat="49.41614050" lon="24.79530280">
        <ele>268.00000</ele>
        <time>2010-01-01T09:16:28Z</time>
      </trkpt>
      <trkpt lat="49.41665290" lon="24.79545330">
        <ele>270.00000</ele>
        <time>2010-01-01T09:16:49Z</time>
      </trkpt>
      <trkpt lat="49.41702860" lon="24.79559300">
        <ele>269.00000</ele>
        <time>2010-01-01T09:17:05Z</time>
      </trkpt>
      <trkpt lat="49.41786860" lon="24.79596710">
        <ele>268.00000</ele>
        <time>2010-01-01T09:17:40Z</time>
      </trkpt>
      <trkpt lat="49.42449550" lon="24.79897110">
        <ele>267.00000</ele>
        <time>2010-01-01T09:22:16Z</time>
      </trkpt>
      <trkpt lat="49.42556450" lon="24.79949170">
        <ele>269.00000</ele>
        <time>2010-01-01T09:23:01Z</time>
      </trkpt>
      <trkpt lat="49.42614050" lon="24.79981310">
        <ele>268.00000</ele>
        <time>2010-01-01T09:23:26Z</time>
      </trkpt>
      <trkpt lat="49.42690160" lon="24.80035570">
        <ele>271.00000</ele>
        <time>2010-01-01T09:23:59Z</time>
      </trkpt>
      <trkpt lat="49.42776360" lon="24.80104470">
        <ele>273.00000</ele>
        <time>2010-01-01T09:24:38Z</time>
      </trkpt>
      <trkpt lat="49.42919260" lon="24.80223890">
        <ele>269.00000</ele>
        <time>2010-01-01T09:25:43Z</time>
      </trkpt>
      <trkpt lat="49.42969530" lon="24.80264190">
        <ele>269.00000</ele>
        <time>2010-01-01T09:26:06Z</time>
      </trkpt>
      <trkpt lat="49.43063870" lon="24.80346320">
        <ele>270.00000</ele>
        <time>2010-01-01T09:26:49Z</time>
      </trkpt>
      <trkpt lat="49.43141080" lon="24.80407140">
        <ele>272.00000</ele>
        <time>2010-01-01T09:27:24Z</time>
      </trkpt>
      <trkpt lat="49.43191680" lon="24.80439630">
        <ele>272.00000</ele>
        <time>2010-01-01T09:27:46Z</time>
      </trkpt>
      <trkpt lat="49.43273410" lon="24.80480640">
        <ele>274.00000</ele>
        <time>2010-01-01T09:28:20Z</time>
      </trkpt>
      <trkpt lat="49.43327790" lon="24.80502450">
        <ele>273.00000</ele>
        <time>2010-01-01T09:28:43Z</time>
      </trkpt>
      <trkpt lat="49.43402710" lon="24.80520060">
        <ele>275.00000</ele>
        <time>2010-01-01T09:29:13Z</time>
      </trkpt>
      <trkpt lat="49.43673650" lon="24.80566060">
        <ele>281.00000</ele>
        <time>2010-01-01T09:31:02Z</time>
      </trkpt>
      <trkpt lat="49.43723540" lon="24.80579060">
        <ele>281.00000</ele>
        <time>2010-01-01T09:31:23Z</time>
      </trkpt>
      <trkpt lat="49.43792500" lon="24.80590910">
        <ele>287.00000</ele>
        <time>2010-01-01T09:31:50Z</time>
      </trkpt>
      <trkpt lat="49.43895690" lon="24.80611910">
        <ele>296.00000</ele>
        <time>2010-01-01T09:32:32Z</time>
      </trkpt>
      <trkpt lat="49.43925560" lon="24.80615550">
        <ele>298.00000</ele>
        <time>2010-01-01T09:32:44Z</time>
      </trkpt>
      <trkpt lat="49.43981560" lon="24.80627690">
        <ele>302.00000</ele>
        <time>2010-01-01T09:33:07Z</time>
      </trkpt>
      <trkpt lat="49.44018820" lon="24.80632590">
        <ele>306.00000</ele>
        <time>2010-01-01T09:33:22Z</time>
      </trkpt>
      <trkpt lat="49.44030080" lon="24.80636310">
        <ele>306.00000</ele>
        <time>2010-01-01T09:33:26Z</time>
      </trkpt>
      <trkpt lat="49.44101180" lon="24.80652460">
        <ele>307.00000</ele>
        <time>2010-01-01T09:33:55Z</time>
      </trkpt>
      <trkpt lat="49.44129320" lon="24.80665530">
        <ele>310.00000</ele>
        <time>2010-01-01T09:34:07Z</time>
      </trkpt>
      <trkpt lat="49.44216550" lon="24.80711010">
        <ele>315.00000</ele>
        <time>2010-01-01T09:34:44Z</time>
      </trkpt>
      <trkpt lat="49.44323600" lon="24.80771410">
        <ele>321.00000</ele>
        <time>2010-01-01T09:35:29Z</time>
      </trkpt>
      <trkpt lat="49.44338840" lon="24.80781510">
        <ele>322.00000</ele>
        <time>2010-01-01T09:35:36Z</time>
      </trkpt>
      <trkpt lat="49.44358010" lon="24.80788590">
        <ele>322.00000</ele>
        <time>2010-01-01T09:35:44Z</time>
      </trkpt>
      <trkpt lat="49.44398960" lon="24.80810160">
        <ele>325.00000</ele>
        <time>2010-01-01T09:36:01Z</time>
      </trkpt>
      <trkpt lat="49.44413860" lon="24.80820260">
        <ele>326.00000</ele>
        <time>2010-01-01T09:36:08Z</time>
      </trkpt>
      <trkpt lat="49.44424360" lon="24.80824820">
        <ele>326.00000</ele>
        <time>2010-01-01T09:36:12Z</time>
      </trkpt>
      <trkpt lat="49.44463290" lon="24.80848380">
        <ele>326.00000</ele>
        <time>2010-01-01T09:36:29Z</time>
      </trkpt>
      <trkpt lat="49.44494800" lon="24.80864870">
        <ele>329.00000</ele>
        <time>2010-01-01T09:36:42Z</time>
      </trkpt>
      <trkpt lat="49.44634540" lon="24.80944880">
        <ele>335.00000</ele>
        <time>2010-01-01T09:37:42Z</time>
      </trkpt>
      <trkpt lat="49.44677930" lon="24.80975480">
        <ele>337.00000</ele>
        <time>2010-01-01T09:38:01Z</time>
      </trkpt>
      <trkpt lat="49.44702900" lon="24.80996880">
        <ele>338.00000</ele>
        <time>2010-01-01T09:38:12Z</time>
      </trkpt>
      <trkpt lat="49.44747160" lon="24.81047940">
        <ele>341.00000</ele>
        <time>2010-01-01T09:38:35Z</time>
      </trkpt>
      <trkpt lat="49.44807690" lon="24.81129370">
        <ele>346.00000</ele>
        <time>2010-01-01T09:39:07Z</time>
      </trkpt>
      <trkpt lat="49.44832450" lon="24.81165220">
        <ele>349.00000</ele>
        <time>2010-01-01T09:39:20Z</time>
      </trkpt>
      <trkpt lat="49.44882540" lon="24.81230460">
        <ele>354.00000</ele>
        <time>2010-01-01T09:39:47Z</time>
      </trkpt>
      <trkpt lat="49.44904870" lon="24.81264280">
        <ele>356.00000</ele>
        <time>2010-01-01T09:39:59Z</time>
      </trkpt>
      <trkpt lat="49.44943390" lon="24.81317960">
        <ele>356.00000</ele>
        <time>2010-01-01T09:40:20Z</time>
      </trkpt>
      <trkpt lat="49.44975590" lon="24.81368530">
        <ele>358.00000</ele>
        <time>2010-01-01T09:40:38Z</time>
      </trkpt>
      <trkpt lat="49.44996910" lon="24.81416590">
        <ele>356.00000</ele>
        <time>2010-01-01T09:40:54Z</time>
      </trkpt>
      <trkpt lat="49.45033930" lon="24.81522520">
        <ele>360.00000</ele>
        <time>2010-01-01T09:41:25Z</time>
      </trkpt>
      <trkpt lat="49.45043370" lon="24.81567870">
        <ele>360.00000</ele>
        <time>2010-01-01T09:41:37Z</time>
      </trkpt>
      <trkpt lat="49.45049490" lon="24.81605690">
        <ele>362.00000</ele>
        <time>2010-01-01T09:41:47Z</time>
      </trkpt>
      <trkpt lat="49.45056950" lon="24.81676560">
        <ele>365.00000</ele>
        <time>2010-01-01T09:42:06Z</time>
      </trkpt>
      <trkpt lat="49.45058400" lon="24.81709380">
        <ele>367.00000</ele>
        <time>2010-01-01T09:42:15Z</time>
      </trkpt>
      <trkpt lat="49.45057360" lon="24.81756620">
        <ele>368.00000</ele>
        <time>2010-01-01T09:42:27Z</time>
      </trkpt>
      <trkpt lat="49.45057920" lon="24.81977280">
        <ele>376.00000</ele>
        <time>2010-01-01T09:43:24Z</time>
      </trkpt>
      <trkpt lat="49.45056200" lon="24.82031990">
        <ele>380.00000</ele>
        <time>2010-01-01T09:43:39Z</time>
      </trkpt>
      <trkpt lat="49.45056310" lon="24.82129830">
        <ele>382.00000</ele>
        <time>2010-01-01T09:44:04Z</time>
      </trkpt>
      <trkpt lat="49.45054700" lon="24.82141690">
        <ele>382.00000</ele>
        <time>2010-01-01T09:44:07Z</time>
      </trkpt>
      <trkpt lat="49.45055520" lon="24.82166560">
        <ele>383.00000</ele>
        <time>2010-01-01T09:44:14Z</time>
      </trkpt>
      <trkpt lat="49.45054120" lon="24.82221510">
        <ele>385.00000</ele>
        <time>2010-01-01T09:44:28Z</time>
      </trkpt>
      <trkpt lat="49.45055350" lon="24.82286530">
        <ele>389.00000</ele>
        <time>2010-01-01T09:44:45Z</time>
      </trkpt>
      <trkpt lat="49.45053320" lon="24.82321490">
        <ele>389.00000</ele>
        <time>2010-01-01T09:44:54Z</time>
      </trkpt>
      <trkpt lat="49.45047810" lon="24.82373450">
        <ele>390.00000</ele>
        <time>2010-01-01T09:45:08Z</time>
      </trkpt>
      <trkpt lat="49.45040670" lon="24.82414850">
        <ele>391.00000</ele>
        <time>2010-01-01T09:45:19Z</time>
      </trkpt>
      <trkpt lat="49.45023900" lon="24.82492800">
        <ele>395.00000</ele>
        <time>2010-01-01T09:45:40Z</time>
      </trkpt>
      <trkpt lat="49.44995600" lon="24.82610430">
        <ele>398.00000</ele>
        <time>2010-01-01T09:46:13Z</time>
      </trkpt>
      <trkpt lat="49.44987070" lon="24.82654350">
        <ele>399.00000</ele>
        <time>2010-01-01T09:46:25Z</time>
      </trkpt>
      <trkpt lat="49.44977330" lon="24.82694770">
        <ele>402.00000</ele>
        <time>2010-01-01T09:46:36Z</time>
      </trkpt>
      <trkpt lat="49.44968740" lon="24.82744310">
        <ele>404.00000</ele>
        <time>2010-01-01T09:46:49Z</time>
      </trkpt>
      <trkpt lat="49.44943150" lon="24.82966580">
        <ele>417.00000</ele>
        <time>2010-01-01T09:47:48Z</time>
      </trkpt>
      <trkpt lat="49.44936450" lon="24.83008650">
        <ele>418.00000</ele>
        <time>2010-01-01T09:47:59Z</time>
      </trkpt>
      <trkpt lat="49.44927250" lon="24.83096820">
        <ele>421.00000</ele>
        <time>2010-01-01T09:48:23Z</time>
      </trkpt>
      <trkpt lat="49.44914770" lon="24.83195280">
        <ele>422.00000</ele>
        <time>2010-01-01T09:48:49Z</time>
      </trkpt>
      <trkpt lat="49.44872710" lon="24.83601070">
        <ele>426.00000</ele>
        <time>2010-01-01T09:50:36Z</time>
      </trkpt>
      <trkpt lat="49.44789910" lon="24.84323910">
        <ele>420.00000</ele>
        <time>2010-01-01T09:53:47Z</time>
      </trkpt>
      <trkpt lat="49.44779810" lon="24.84395940">
        <ele>419.00000</ele>
        <time>2010-01-01T09:54:06Z</time>
      </trkpt>
      <trkpt lat="49.44745050" lon="24.84703710">
        <ele>421.00000</ele>
        <time>2010-01-01T09:55:27Z</time>
      </trkpt>
      <trkpt lat="49.44694120" lon="24.85098990">
        <ele>417.00000</ele>
        <time>2010-01-01T09:57:12Z</time>
      </trkpt>
      <trkpt lat="49.44637290" lon="24.85576860">
        <ele>415.00000</ele>
        <time>2010-01-01T09:59:19Z</time>
      </trkpt>
      <trkpt lat="49.44615290" lon="24.85797110">
        <ele>417.00000</ele>
        <time>2010-01-01T10:00:17Z</time>
      </trkpt>
      <trkpt lat="49.44613700" lon="24.85833770">
        <ele>417.00000</ele>
        <time>2010-01-01T10:00:26Z</time>
      </trkpt>
      <trkpt lat="49.44613860" lon="24.85888190">
        <ele>416.00000</ele>
        <time>2010-01-01T10:00:40Z</time>
      </trkpt>
      <trkpt lat="49.44615310" lon="24.85916710">
        <ele>415.00000</ele>
        <time>2010-01-01T10:00:48Z</time>
      </trkpt>
      <trkpt lat="49.44627830" lon="24.86055520">
        <ele>410.00000</ele>
        <time>2010-01-01T10:01:24Z</time>
      </trkpt>
      <trkpt lat="49.44635970" lon="24.86171770">
        <ele>410.00000</ele>
        <time>2010-01-01T10:01:55Z</time>
      </trkpt>
      <trkpt lat="49.44638470" lon="24.86251320">
        <ele>409.00000</ele>
        <time>2010-01-01T10:02:15Z</time>
      </trkpt>
      <trkpt lat="49.44635220" lon="24.86307060">
        <ele>410.00000</ele>
        <time>2010-01-01T10:02:30Z</time>
      </trkpt>
      <trkpt lat="49.44622860" lon="24.86388950">
        <ele>410.00000</ele>
        <time>2010-01-01T10:02:52Z</time>
      </trkpt>
      <trkpt lat="49.44588090" lon="24.86557440">
        <ele>411.00000</ele>
        <time>2010-01-01T10:03:38Z</time>
      </trkpt>
      <trkpt lat="49.44562830" lon="24.86663060">
        <ele>407.00000</ele>
        <time>2010-01-01T10:04:07Z</time>
      </trkpt>
      <trkpt lat="49.44503220" lon="24.86939270">
        <ele>403.00000</ele>
        <time>2010-01-01T10:05:23Z</time>
      </trkpt>
      <trkpt lat="49.44490760" lon="24.87013780">
        <ele>399.00000</ele>
        <time>2010-01-01T10:05:43Z</time>
      </trkpt>
      <trkpt lat="49.44481670" lon="24.87050310">
        <ele>399.00000</ele>
        <time>2010-01-01T10:05:53Z</time>
      </trkpt>
      <trkpt lat="49.44472080" lon="24.87104080">
        <ele>400.00000</ele>
        <time>2010-01-01T10:06:08Z</time>
      </trkpt>
      <trkpt lat="49.44459850" lon="24.87159550">
        <ele>399.00000</ele>
        <time>2010-01-01T10:06:23Z</time>
      </trkpt>
      <trkpt lat="49.44438560" lon="24.87269270">
        <ele>396.00000</ele>
        <time>2010-01-01T10:06:53Z</time>
      </trkpt>
      <trkpt lat="49.44425130" lon="24.87354910">
        <ele>389.00000</ele>
        <time>2010-01-01T10:07:16Z</time>
      </trkpt>
      <trkpt lat="49.44418340" lon="24.87407680">
        <ele>387.00000</ele>
        <time>2010-01-01T10:07:30Z</time>
      </trkpt>
      <trkpt lat="49.44406190" lon="24.87538720">
        <ele>374.00000</ele>
        <time>2010-01-01T10:08:04Z</time>
      </trkpt>
      <trkpt lat="49.44362410" lon="24.87895790">
        <ele>355.00000</ele>
        <time>2010-01-01T10:09:39Z</time>
      </trkpt>
      <trkpt lat="49.44348710" lon="24.88024970">
        <ele>351.00000</ele>
        <time>2010-01-01T10:10:13Z</time>
      </trkpt>
      <trkpt lat="49.44338640" lon="24.88219220">
        <ele>338.00000</ele>
        <time>2010-01-01T10:11:03Z</time>
      </trkpt>
      <trkpt lat="49.44330480" lon="24.88454120">
        <ele>328.00000</ele>
        <time>2010-01-01T10:12:05Z</time>
      </trkpt>
      <trkpt lat="49.44324130" lon="24.88589980">
        <ele>325.00000</ele>
        <time>2010-01-01T10:12:40Z</time>
      </trkpt>
      <trkpt lat="49.44325270" lon="24.88672220">
        <ele>323.00000</ele>
        <time>2010-01-01T10:13:01Z</time>
      </trkpt>
      <trkpt lat="49.44330760" lon="24.88756240">
        <ele>320.00000</ele>
        <time>2010-01-01T10:13:23Z</time>
      </trkpt>
      <trkpt lat="49.44338610" lon="24.88828580">
        <ele>318.00000</ele>
        <time>2010-01-01T10:13:43Z</time>
      </trkpt>
      <trkpt lat="49.44354640" lon="24.89019010">
        <ele>310.00000</ele>
        <time>2010-01-01T10:14:32Z</time>
      </trkpt>
      <trkpt lat="49.44359730" lon="24.89056650">
        <ele>308.00000</ele>
        <time>2010-01-01T10:14:42Z</time>
      </trkpt>
      <trkpt lat="49.44368790" lon="24.89147860">
        <ele>303.00000</ele>
        <time>2010-01-01T10:15:07Z</time>
      </trkpt>
      <trkpt lat="49.44379970" lon="24.89225940">
        <ele>301.00000</ele>
        <time>2010-01-01T10:15:27Z</time>
      </trkpt>
      <trkpt lat="49.44388780" lon="24.89281330">
        <ele>299.00000</ele>
        <time>2010-01-01T10:15:42Z</time>
      </trkpt>
      <trkpt lat="49.44402390" lon="24.89349380">
        <ele>298.00000</ele>
        <time>2010-01-01T10:16:01Z</time>
      </trkpt>
      <trkpt lat="49.44419480" lon="24.89410240">
        <ele>299.00000</ele>
        <time>2010-01-01T10:16:18Z</time>
      </trkpt>
      <trkpt lat="49.44432770" lon="24.89443020">
        <ele>299.00000</ele>
        <time>2010-01-01T10:16:28Z</time>
      </trkpt>
      <trkpt lat="49.44467150" lon="24.89516200">
        <ele>296.00000</ele>
        <time>2010-01-01T10:16:51Z</time>
      </trkpt>
      <trkpt lat="49.44491090" lon="24.89557810">
        <ele>296.00000</ele>
        <time>2010-01-01T10:17:06Z</time>
      </trkpt>
      <trkpt lat="49.44516570" lon="24.89593710">
        <ele>295.00000</ele>
        <time>2010-01-01T10:17:20Z</time>
      </trkpt>
      <trkpt lat="49.44541780" lon="24.89641020">
        <ele>293.00000</ele>
        <time>2010-01-01T10:17:36Z</time>
      </trkpt>
      <trkpt lat="49.44581360" lon="24.89744160">
        <ele>294.00000</ele>
        <time>2010-01-01T10:18:07Z</time>
      </trkpt>
      <trkpt lat="49.44599920" lon="24.89801700">
        <ele>295.00000</ele>
        <time>2010-01-01T10:18:24Z</time>
      </trkpt>
      <trkpt lat="49.44614390" lon="24.89867120">
        <ele>295.00000</ele>
        <time>2010-01-01T10:18:42Z</time>
      </trkpt>
      <trkpt lat="49.44632240" lon="24.89984390">
        <ele>295.00000</ele>
        <time>2010-01-01T10:19:13Z</time>
      </trkpt>
      <trkpt lat="49.44651450" lon="24.90128000">
        <ele>295.00000</ele>
        <time>2010-01-01T10:19:51Z</time>
      </trkpt>
      <trkpt lat="49.44667210" lon="24.90260320">
        <ele>294.00000</ele>
        <time>2010-01-01T10:20:26Z</time>
      </trkpt>
      <trkpt lat="49.44681350" lon="24.90365370">
        <ele>292.00000</ele>
        <time>2010-01-01T10:20:54Z</time>
      </trkpt>
      <trkpt lat="49.44700210" lon="24.90534280">
        <ele>287.00000</ele>
        <time>2010-01-01T10:21:39Z</time>
      </trkpt>
      <trkpt lat="49.44708390" lon="24.90590410">
        <ele>288.00000</ele>
        <time>2010-01-01T10:21:54Z</time>
      </trkpt>
      <trkpt lat="49.44718690" lon="24.90689130">
        <ele>288.00000</ele>
        <time>2010-01-01T10:22:20Z</time>
      </trkpt>
      <trkpt lat="49.44729910" lon="24.90952070">
        <ele>289.00000</ele>
        <time>2010-01-01T10:23:28Z</time>
      </trkpt>
      <trkpt lat="49.44752670" lon="24.91205780">
        <ele>286.00000</ele>
        <time>2010-01-01T10:24:35Z</time>
      </trkpt>
      <trkpt lat="49.44751270" lon="24.91220060">
        <ele>286.00000</ele>
        <time>2010-01-01T10:24:39Z</time>
      </trkpt>
      <trkpt lat="49.44755190" lon="24.91275420">
        <ele>287.00000</ele>
        <time>2010-01-01T10:24:53Z</time>
      </trkpt>
      <trkpt lat="49.44754330" lon="24.91364300">
        <ele>286.00000</ele>
        <time>2010-01-01T10:25:16Z</time>
      </trkpt>
      <trkpt lat="49.44733350" lon="24.91691570">
        <ele>285.00000</ele>
        <time>2010-01-01T10:26:42Z</time>
      </trkpt>
      <trkpt lat="49.44734350" lon="24.91718610">
        <ele>285.00000</ele>
        <time>2010-01-01T10:26:49Z</time>
      </trkpt>
      <trkpt lat="49.44733170" lon="24.91742850">
        <ele>285.00000</ele>
        <time>2010-01-01T10:26:55Z</time>
      </trkpt>
      <trkpt lat="49.44726620" lon="24.91800340">
        <ele>283.00000</ele>
        <time>2010-01-01T10:27:10Z</time>
      </trkpt>
      <trkpt lat="49.44725370" lon="24.91831120">
        <ele>283.00000</ele>
        <time>2010-01-01T10:27:18Z</time>
      </trkpt>
      <trkpt lat="49.44718990" lon="24.91901520">
        <ele>282.00000</ele>
        <time>2010-01-01T10:27:37Z</time>
      </trkpt>
      <trkpt lat="49.44715690" lon="24.91917430">
        <ele>281.00000</ele>
        <time>2010-01-01T10:27:41Z</time>
      </trkpt>
      <trkpt lat="49.44711190" lon="24.91924410">
        <ele>281.00000</ele>
        <time>2010-01-01T10:27:44Z</time>
      </trkpt>
      <trkpt lat="49.44689260" lon="24.92129910">
        <ele>282.00000</ele>
        <time>2010-01-01T10:28:38Z</time>
      </trkpt>
      <trkpt lat="49.44691910" lon="24.92140430">
        <ele>282.00000</ele>
        <time>2010-01-01T10:28:41Z</time>
      </trkpt>
      <trkpt lat="49.44691640" lon="24.92152950">
        <ele>283.00000</ele>
        <time>2010-01-01T10:28:44Z</time>
      </trkpt>
      <trkpt lat="49.44666310" lon="24.92421720">
        <ele>278.00000</ele>
        <time>2010-01-01T10:29:55Z</time>
      </trkpt>
      <trkpt lat="49.44662390" lon="24.92522360">
        <ele>278.00000</ele>
        <time>2010-01-01T10:30:21Z</time>
      </trkpt>
      <trkpt lat="49.44658960" lon="24.92567570">
        <ele>279.00000</ele>
        <time>2010-01-01T10:30:33Z</time>
      </trkpt>
      <trkpt lat="49.44659900" lon="24.92620610">
        <ele>279.00000</ele>
        <time>2010-01-01T10:30:47Z</time>
      </trkpt>
      <trkpt lat="49.44669380" lon="24.92703970">
        <ele>279.00000</ele>
        <time>2010-01-01T10:31:09Z</time>
      </trkpt>
      <trkpt lat="49.44676200" lon="24.92745570">
        <ele>277.00000</ele>
        <time>2010-01-01T10:31:20Z</time>
      </trkpt>
      <trkpt lat="49.44680840" lon="24.92787180">
        <ele>276.00000</ele>
        <time>2010-01-01T10:31:31Z</time>
      </trkpt>
      <trkpt lat="49.44685150" lon="24.92864670">
        <ele>275.00000</ele>
        <time>2010-01-01T10:31:51Z</time>
      </trkpt>
      <trkpt lat="49.44684500" lon="24.92893980">
        <ele>275.00000</ele>
        <time>2010-01-01T10:31:59Z</time>
      </trkpt>
      <trkpt lat="49.44674080" lon="24.92914330">
        <ele>275.00000</ele>
        <time>2010-01-01T10:32:06Z</time>
      </trkpt>
      <trkpt lat="49.44642130" lon="24.92963660">
        <ele>273.00000</ele>
        <time>2010-01-01T10:32:24Z</time>
      </trkpt>
      <trkpt lat="49.44631150" lon="24.92993750">
        <ele>273.00000</ele>
        <time>2010-01-01T10:32:33Z</time>
      </trkpt>
      <trkpt lat="49.44630200" lon="24.93022090">
        <ele>273.00000</ele>
        <time>2010-01-01T10:32:40Z</time>
      </trkpt>
      <trkpt lat="49.44639810" lon="24.93127500">
        <ele>275.00000</ele>
        <time>2010-01-01T10:33:08Z</time>
      </trkpt>
      <trkpt lat="49.44641090" lon="24.93168310">
        <ele>274.00000</ele>
        <time>2010-01-01T10:33:18Z</time>
      </trkpt>
      <trkpt lat="49.44639190" lon="24.93305500">
        <ele>274.00000</ele>
        <time>2010-01-01T10:33:54Z</time>
      </trkpt>
      <trkpt lat="49.44633540" lon="24.93351020">
        <ele>275.00000</ele>
        <time>2010-01-01T10:34:06Z</time>
      </trkpt>
      <trkpt lat="49.44633910" lon="24.93374690">
        <ele>275.00000</ele>
        <time>2010-01-01T10:34:12Z</time>
      </trkpt>
      <trkpt lat="49.44632230" lon="24.93390030">
        <ele>275.00000</ele>
        <time>2010-01-01T10:34:16Z</time>
      </trkpt>
      <trkpt lat="49.44621490" lon="24.93449590">
        <ele>276.00000</ele>
        <time>2010-01-01T10:34:32Z</time>
      </trkpt>
      <trkpt lat="49.44615670" lon="24.93464560">
        <ele>276.00000</ele>
        <time>2010-01-01T10:34:37Z</time>
      </trkpt>
      <trkpt lat="49.44587770" lon="24.93576860">
        <ele>276.00000</ele>
        <time>2010-01-01T10:35:08Z</time>
      </trkpt>
      <trkpt lat="49.44583290" lon="24.93649930">
        <ele>277.00000</ele>
        <time>2010-01-01T10:35:27Z</time>
      </trkpt>
      <trkpt lat="49.44577920" lon="24.93653530">
        <ele>277.00000</ele>
        <time>2010-01-01T10:35:30Z</time>
      </trkpt>
      <trkpt lat="49.44560970" lon="24.93651140">
        <ele>278.00000</ele>
        <time>2010-01-01T10:35:37Z</time>
      </trkpt>
      <trkpt lat="49.44557750" lon="24.93652250">
        <ele>278.00000</ele>
        <time>2010-01-01T10:35:38Z</time>
      </trkpt>
      <trkpt lat="49.44521180" lon="24.93649810">
        <ele>281.00000</ele>
        <time>2010-01-01T10:35:53Z</time>
      </trkpt>
      <trkpt lat="49.44516480" lon="24.93647360">
        <ele>281.00000</ele>
        <time>2010-01-01T10:35:55Z</time>
      </trkpt>
      <trkpt lat="49.44503770" lon="24.93646160">
        <ele>282.00000</ele>
        <time>2010-01-01T10:36:00Z</time>
      </trkpt>
      <trkpt lat="49.44492470" lon="24.93647640">
        <ele>284.00000</ele>
        <time>2010-01-01T10:36:04Z</time>
      </trkpt>
      <trkpt lat="49.44486600" lon="24.93650410">
        <ele>284.00000</ele>
        <time>2010-01-01T10:36:07Z</time>
      </trkpt>
      <trkpt lat="49.44474450" lon="24.93650220">
        <ele>286.00000</ele>
        <time>2010-01-01T10:36:11Z</time>
      </trkpt>
      <trkpt lat="49.44470190" lon="24.93652700">
        <ele>286.00000</ele>
        <time>2010-01-01T10:36:13Z</time>
      </trkpt>
      <trkpt lat="49.44446720" lon="24.93656900">
        <ele>288.00000</ele>
        <time>2010-01-01T10:36:23Z</time>
      </trkpt>
      <trkpt lat="49.44438020" lon="24.93661660">
        <ele>289.00000</ele>
        <time>2010-01-01T10:36:26Z</time>
      </trkpt>
      <trkpt lat="49.44435930" lon="24.93661040">
        <ele>289.00000</ele>
        <time>2010-01-01T10:36:27Z</time>
      </trkpt>
      <trkpt lat="49.44422080" lon="24.93663940">
        <ele>289.00000</ele>
        <time>2010-01-01T10:36:33Z</time>
      </trkpt>
      <trkpt lat="49.44412820" lon="24.93669330">
        <ele>289.00000</ele>
        <time>2010-01-01T10:36:37Z</time>
      </trkpt>
      <trkpt lat="49.44402200" lon="24.93672080">
        <ele>289.00000</ele>
        <time>2010-01-01T10:36:41Z</time>
      </trkpt>
      <trkpt lat="49.44392230" lon="24.93678040">
        <ele>290.00000</ele>
        <time>2010-01-01T10:36:45Z</time>
      </trkpt>
      <trkpt lat="49.44387630" lon="24.93692650">
        <ele>291.00000</ele>
        <time>2010-01-01T10:36:50Z</time>
      </trkpt>
      <trkpt lat="49.44389500" lon="24.93711140">
        <ele>292.00000</ele>
        <time>2010-01-01T10:36:55Z</time>
      </trkpt>
      <trkpt lat="49.44400550" lon="24.93747050">
        <ele>292.00000</ele>
        <time>2010-01-01T10:37:05Z</time>
      </trkpt>
      <trkpt lat="49.44401860" lon="24.93766210">
        <ele>292.00000</ele>
        <time>2010-01-01T10:37:10Z</time>
      </trkpt>
      <trkpt lat="49.44400140" lon="24.93788630">
        <ele>292.00000</ele>
        <time>2010-01-01T10:37:16Z</time>
      </trkpt>
      <trkpt lat="49.44393730" lon="24.93818520">
        <ele>291.00000</ele>
        <time>2010-01-01T10:37:24Z</time>
      </trkpt>
      <trkpt lat="49.44392820" lon="24.93852090">
        <ele>286.00000</ele>
        <time>2010-01-01T10:37:33Z</time>
      </trkpt>
      <trkpt lat="49.44390810" lon="24.93866750">
        <ele>284.00000</ele>
        <time>2010-01-01T10:37:37Z</time>
      </trkpt>
      <trkpt lat="49.44394420" lon="24.93904950">
        <ele>279.00000</ele>
        <time>2010-01-01T10:37:47Z</time>
      </trkpt>
      <trkpt lat="49.44409640" lon="24.93959890">
        <ele>275.00000</ele>
        <time>2010-01-01T10:38:02Z</time>
      </trkpt>
      <trkpt lat="49.44415710" lon="24.93976960">
        <ele>274.00000</ele>
        <time>2010-01-01T10:38:07Z</time>
      </trkpt>
      <trkpt lat="49.44420800" lon="24.94001860">
        <ele>273.00000</ele>
        <time>2010-01-01T10:38:14Z</time>
      </trkpt>
      <trkpt lat="49.44435860" lon="24.94036520">
        <ele>273.00000</ele>
        <time>2010-01-01T10:38:25Z</time>
      </trkpt>
      <trkpt lat="49.44528150" lon="24.94181220">
        <ele>271.00000</ele>
        <time>2010-01-01T10:39:18Z</time>
      </trkpt>
      <trkpt lat="49.44534280" lon="24.94194440">
        <ele>271.00000</ele>
        <time>2010-01-01T10:39:22Z</time>
      </trkpt>
      <trkpt lat="49.44546150" lon="24.94251800">
        <ele>272.00000</ele>
        <time>2010-01-01T10:39:38Z</time>
      </trkpt>
      <trkpt lat="49.44546280" lon="24.94273730">
        <ele>272.00000</ele>
        <time>2010-01-01T10:39:43Z</time>
      </trkpt>
      <trkpt lat="49.44541490" lon="24.94301200">
        <ele>271.00000</ele>
        <time>2010-01-01T10:39:51Z</time>
      </trkpt>
      <trkpt lat="49.44540480" lon="24.94332290">
        <ele>271.00000</ele>
        <time>2010-01-01T10:39:59Z</time>
      </trkpt>
      <trkpt lat="49.44543880" lon="24.94385250">
        <ele>272.00000</ele>
        <time>2010-01-01T10:40:13Z</time>
      </trkpt>
      <trkpt lat="49.44543770" lon="24.94414150">
        <ele>272.00000</ele>
        <time>2010-01-01T10:40:20Z</time>
      </trkpt>
      <trkpt lat="49.44553270" lon="24.94413000">
        <ele>272.00000</ele>
        <time>2010-01-01T10:40:24Z</time>
      </trkpt>
      <trkpt lat="49.44571400" lon="24.94404220">
        <ele>273.00000</ele>
        <time>2010-01-01T10:40:32Z</time>
      </trkpt>
      <trkpt lat="49.44595560" lon="24.94383570">
        <ele>272.00000</ele>
        <time>2010-01-01T10:40:43Z</time>
      </trkpt>
      <trkpt lat="49.44604790" lon="24.94379780">
        <ele>272.00000</ele>
        <time>2010-01-01T10:40:46Z</time>
      </trkpt>
      <trkpt lat="49.44604450" lon="24.94381300">
        <ele>272.00000</ele>
        <time>2010-01-01T10:40:47Z</time>
      </trkpt>
      <trkpt lat="49.44603000" lon="24.94379950">
        <ele>272.00000</ele>
        <time>2010-01-01T10:40:48Z</time>
      </trkpt>
      <trkpt lat="49.44601940" lon="24.94381460">
        <ele>272.00000</ele>
        <time>2010-01-01T10:40:48Z</time>
      </trkpt>
      <trkpt lat="49.44601110" lon="24.94379920">
        <ele>272.00000</ele>
        <time>2010-01-01T10:40:49Z</time>
      </trkpt>
      <trkpt lat="49.44600300" lon="24.94381140">
        <ele>272.00000</ele>
        <time>2010-01-01T10:40:49Z</time>
      </trkpt>
      <trkpt lat="49.44601100" lon="24.94380040">
        <ele>272.00000</ele>
        <time>2010-01-01T10:40:50Z</time>
      </trkpt>
      <trkpt lat="49.44598010" lon="24.94379470">
        <ele>272.00000</ele>
        <time>2010-01-01T10:40:51Z</time>
      </trkpt>
      <trkpt lat="49.44598210" lon="24.94383100">
        <ele>272.00000</ele>
        <time>2010-01-01T10:40:52Z</time>
      </trkpt>
      <trkpt lat="49.44595950" lon="24.94386120">
        <ele>272.00000</ele>
        <time>2010-01-01T10:40:53Z</time>
      </trkpt>
      <trkpt lat="49.44582820" lon="24.94390390">
        <ele>273.00000</ele>
        <time>2010-01-01T10:40:58Z</time>
      </trkpt>
      <trkpt lat="49.44555700" lon="24.94404880">
        <ele>273.00000</ele>
        <time>2010-01-01T10:41:10Z</time>
      </trkpt>
      <trkpt lat="49.44549550" lon="24.94405940">
        <ele>272.00000</ele>
        <time>2010-01-01T10:41:12Z</time>
      </trkpt>
      <trkpt lat="49.44546560" lon="24.94396020">
        <ele>272.00000</ele>
        <time>2010-01-01T10:41:15Z</time>
      </trkpt>
      <trkpt lat="49.44546140" lon="24.94389470">
        <ele>272.00000</ele>
        <time>2010-01-01T10:41:17Z</time>
      </trkpt>
      <trkpt lat="49.44543190" lon="24.94337290">
        <ele>271.00000</ele>
        <time>2010-01-01T10:41:30Z</time>
      </trkpt>
      <trkpt lat="49.44544690" lon="24.94290920">
        <ele>271.00000</ele>
        <time>2010-01-01T10:41:43Z</time>
      </trkpt>
      <trkpt lat="49.44553730" lon="24.94242220">
        <ele>271.00000</ele>
        <time>2010-01-01T10:41:56Z</time>
      </trkpt>
      <trkpt lat="49.44555660" lon="24.94222790">
        <ele>271.00000</ele>
        <time>2010-01-01T10:42:01Z</time>
      </trkpt>
      <trkpt lat="49.44551090" lon="24.94204930">
        <ele>271.00000</ele>
        <time>2010-01-01T10:42:06Z</time>
      </trkpt>
      <trkpt lat="49.44545510" lon="24.94189910">
        <ele>271.00000</ele>
        <time>2010-01-01T10:42:10Z</time>
      </trkpt>
      <trkpt lat="49.44541330" lon="24.94175970">
        <ele>271.00000</ele>
        <time>2010-01-01T10:42:14Z</time>
      </trkpt>
      <trkpt lat="49.44537490" lon="24.94160950">
        <ele>271.00000</ele>
        <time>2010-01-01T10:42:19Z</time>
      </trkpt>
      <trkpt lat="49.44533180" lon="24.94139930">
        <ele>271.00000</ele>
        <time>2010-01-01T10:42:24Z</time>
      </trkpt>
      <trkpt lat="49.44513670" lon="24.94083620">
        <ele>273.00000</ele>
        <time>2010-01-01T10:42:41Z</time>
      </trkpt>
      <trkpt lat="49.44510250" lon="24.94068620">
        <ele>273.00000</ele>
        <time>2010-01-01T10:42:45Z</time>
      </trkpt>
      <trkpt lat="49.44498110" lon="24.94046220">
        <ele>274.00000</ele>
        <time>2010-01-01T10:42:53Z</time>
      </trkpt>
      <trkpt lat="49.44488140" lon="24.94019840">
        <ele>274.00000</ele>
        <time>2010-01-01T10:43:01Z</time>
      </trkpt>
      <trkpt lat="49.44485400" lon="24.94008610">
        <ele>275.00000</ele>
        <time>2010-01-01T10:43:04Z</time>
      </trkpt>
      <trkpt lat="49.44482260" lon="24.93961870">
        <ele>275.00000</ele>
        <time>2010-01-01T10:43:16Z</time>
      </trkpt>
      <trkpt lat="49.44467650" lon="24.93879970">
        <ele>279.00000</ele>
        <time>2010-01-01T10:43:38Z</time>
      </trkpt>
      <trkpt lat="49.44468390" lon="24.93870220">
        <ele>279.00000</ele>
        <time>2010-01-01T10:43:41Z</time>
      </trkpt>
      <trkpt lat="49.44471200" lon="24.93865370">
        <ele>279.00000</ele>
        <time>2010-01-01T10:43:42Z</time>
      </trkpt>
      <trkpt lat="49.44522360" lon="24.93819180">
        <ele>277.00000</ele>
        <time>2010-01-01T10:44:06Z</time>
      </trkpt>
      <trkpt lat="49.44561400" lon="24.93788280">
        <ele>275.00000</ele>
        <time>2010-01-01T10:44:24Z</time>
      </trkpt>
      <trkpt lat="49.44614540" lon="24.93781010">
        <ele>273.00000</ele>
        <time>2010-01-01T10:44:45Z</time>
      </trkpt>
      <trkpt lat="49.44629870" lon="24.93780760">
        <ele>273.00000</ele>
        <time>2010-01-01T10:44:51Z</time>
      </trkpt>
      <trkpt lat="49.44644640" lon="24.93775260">
        <ele>273.00000</ele>
        <time>2010-01-01T10:44:57Z</time>
      </trkpt>
      <trkpt lat="49.44675420" lon="24.93778410">
        <ele>273.00000</ele>
        <time>2010-01-01T10:45:09Z</time>
      </trkpt>
      <trkpt lat="49.44703000" lon="24.93783290">
        <ele>273.00000</ele>
        <time>2010-01-01T10:45:21Z</time>
      </trkpt>
      <trkpt lat="49.44751290" lon="24.93797510">
        <ele>278.00000</ele>
        <time>2010-01-01T10:45:40Z</time>
      </trkpt>
      <trkpt lat="49.44792250" lon="24.93802450">
        <ele>280.00000</ele>
        <time>2010-01-01T10:45:57Z</time>
      </trkpt>
      <trkpt lat="49.44805050" lon="24.93805350">
        <ele>280.00000</ele>
        <time>2010-01-01T10:46:02Z</time>
      </trkpt>
      <trkpt lat="49.44812480" lon="24.93809040">
        <ele>279.00000</ele>
        <time>2010-01-01T10:46:05Z</time>
      </trkpt>
      <trkpt lat="49.44829600" lon="24.93805580">
        <ele>279.00000</ele>
        <time>2010-01-01T10:46:12Z</time>
      </trkpt>
      <trkpt lat="49.44842180" lon="24.93809470">
        <ele>279.00000</ele>
        <time>2010-01-01T10:46:17Z</time>
      </trkpt>
      <trkpt lat="49.44861040" lon="24.93811090">
        <ele>280.00000</ele>
        <time>2010-01-01T10:46:25Z</time>
      </trkpt>
      <trkpt lat="49.44912850" lon="24.93810630">
        <ele>279.00000</ele>
        <time>2010-01-01T10:46:45Z</time>
      </trkpt>
      <trkpt lat="49.44950030" lon="24.93804940">
        <ele>280.00000</ele>
        <time>2010-01-01T10:47:00Z</time>
      </trkpt>
      <trkpt lat="49.44995850" lon="24.93788600">
        <ele>278.00000</ele>
        <time>2010-01-01T10:47:19Z</time>
      </trkpt>
      <trkpt lat="49.45015120" lon="24.93779630">
        <ele>277.00000</ele>
        <time>2010-01-01T10:47:27Z</time>
      </trkpt>
      <trkpt lat="49.45043590" lon="24.93769410">
        <ele>276.00000</ele>
        <time>2010-01-01T10:47:39Z</time>
      </trkpt>
      <trkpt lat="49.45127670" lon="24.93748340">
        <ele>277.00000</ele>
        <time>2010-01-01T10:48:13Z</time>
      </trkpt>
      <trkpt lat="49.45163290" lon="24.93732500">
        <ele>276.00000</ele>
        <time>2010-01-01T10:48:28Z</time>
      </trkpt>
      <trkpt lat="49.45193810" lon="24.93714000">
        <ele>276.00000</ele>
        <time>2010-01-01T10:48:41Z</time>
      </trkpt>
      <trkpt lat="49.45220860" lon="24.93695390">
        <ele>277.00000</ele>
        <time>2010-01-01T10:48:53Z</time>
      </trkpt>
      <trkpt lat="49.45282220" lon="24.93649300">
        <ele>279.00000</ele>
        <time>2010-01-01T10:49:20Z</time>
      </trkpt>
      <trkpt lat="49.45348180" lon="24.93595840">
        <ele>277.00000</ele>
        <time>2010-01-01T10:49:50Z</time>
      </trkpt>
      <trkpt lat="49.45410930" lon="24.93540800">
        <ele>278.00000</ele>
        <time>2010-01-01T10:50:19Z</time>
      </trkpt>
      <trkpt lat="49.45434820" lon="24.93518760">
        <ele>277.00000</ele>
        <time>2010-01-01T10:50:30Z</time>
      </trkpt>
      <trkpt lat="49.45485510" lon="24.93465370">
        <ele>279.00000</ele>
        <time>2010-01-01T10:50:55Z</time>
      </trkpt>
      <trkpt lat="49.45546420" lon="24.93375640">
        <ele>282.00000</ele>
        <time>2010-01-01T10:51:28Z</time>
      </trkpt>
      <trkpt lat="49.45565790" lon="24.93343340">
        <ele>282.00000</ele>
        <time>2010-01-01T10:51:40Z</time>
      </trkpt>
      <trkpt lat="49.45596000" lon="24.93298880">
        <ele>283.00000</ele>
        <time>2010-01-01T10:51:57Z</time>
      </trkpt>
      <trkpt lat="49.45654220" lon="24.93201220">
        <ele>285.00000</ele>
        <time>2010-01-01T10:52:31Z</time>
      </trkpt>
      <trkpt lat="49.45672540" lon="24.93176150">
        <ele>285.00000</ele>
        <time>2010-01-01T10:52:41Z</time>
      </trkpt>
      <trkpt lat="49.45683500" lon="24.93157550">
        <ele>286.00000</ele>
        <time>2010-01-01T10:52:47Z</time>
      </trkpt>
      <trkpt lat="49.45703280" lon="24.93132170">
        <ele>286.00000</ele>
        <time>2010-01-01T10:52:58Z</time>
      </trkpt>
      <trkpt lat="49.45743670" lon="24.93086420">
        <ele>288.00000</ele>
        <time>2010-01-01T10:53:18Z</time>
      </trkpt>
      <trkpt lat="49.45792790" lon="24.93022870">
        <ele>288.00000</ele>
        <time>2010-01-01T10:53:44Z</time>
      </trkpt>
      <trkpt lat="49.45808690" lon="24.93004430">
        <ele>288.00000</ele>
        <time>2010-01-01T10:53:52Z</time>
      </trkpt>
      <trkpt lat="49.45827830" lon="24.92982960">
        <ele>291.00000</ele>
        <time>2010-01-01T10:54:01Z</time>
      </trkpt>
      <trkpt lat="49.45841070" lon="24.92972300">
        <ele>293.00000</ele>
        <time>2010-01-01T10:54:07Z</time>
      </trkpt>
      <trkpt lat="49.45852380" lon="24.92959300">
        <ele>293.00000</ele>
        <time>2010-01-01T10:54:13Z</time>
      </trkpt>
      <trkpt lat="49.45855060" lon="24.92959510">
        <ele>293.00000</ele>
        <time>2010-01-01T10:54:14Z</time>
      </trkpt>
      <trkpt lat="49.45856870" lon="24.92954320">
        <ele>293.00000</ele>
        <time>2010-01-01T10:54:15Z</time>
      </trkpt>
      <trkpt lat="49.45875880" lon="24.92927650">
        <ele>293.00000</ele>
        <time>2010-01-01T10:54:26Z</time>
      </trkpt>
      <trkpt lat="49.45917190" lon="24.92882690">
        <ele>293.00000</ele>
        <time>2010-01-01T10:54:46Z</time>
      </trkpt>
      <trkpt lat="49.45966470" lon="24.92824050">
        <ele>294.00000</ele>
        <time>2010-01-01T10:55:11Z</time>
      </trkpt>
      <trkpt lat="49.45976380" lon="24.92815430">
        <ele>294.00000</ele>
        <time>2010-01-01T10:55:15Z</time>
      </trkpt>
      <trkpt lat="49.45987590" lon="24.92799690">
        <ele>296.00000</ele>
        <time>2010-01-01T10:55:21Z</time>
      </trkpt>
      <trkpt lat="49.45999530" lon="24.92792230">
        <ele>295.00000</ele>
        <time>2010-01-01T10:55:27Z</time>
      </trkpt>
      <trkpt lat="49.46004520" lon="24.92786080">
        <ele>296.00000</ele>
        <time>2010-01-01T10:55:29Z</time>
      </trkpt>
      <trkpt lat="49.46008100" lon="24.92778450">
        <ele>297.00000</ele>
        <time>2010-01-01T10:55:32Z</time>
      </trkpt>
      <trkpt lat="49.46038220" lon="24.92747370">
        <ele>297.00000</ele>
        <time>2010-01-01T10:55:46Z</time>
      </trkpt>
      <trkpt lat="49.46054370" lon="24.92728650">
        <ele>296.00000</ele>
        <time>2010-01-01T10:55:54Z</time>
      </trkpt>
      <trkpt lat="49.46063470" lon="24.92715210">
        <ele>293.00000</ele>
        <time>2010-01-01T10:55:59Z</time>
      </trkpt>
      <trkpt lat="49.46068640" lon="24.92702880">
        <ele>292.00000</ele>
        <time>2010-01-01T10:56:03Z</time>
      </trkpt>
      <trkpt lat="49.46098990" lon="24.92672630">
        <ele>288.00000</ele>
        <time>2010-01-01T10:56:17Z</time>
      </trkpt>
      <trkpt lat="49.46127880" lon="24.92636780">
        <ele>289.00000</ele>
        <time>2010-01-01T10:56:32Z</time>
      </trkpt>
      <trkpt lat="49.46157130" lon="24.92608100">
        <ele>291.00000</ele>
        <time>2010-01-01T10:56:46Z</time>
      </trkpt>
      <trkpt lat="49.46177330" lon="24.92583530">
        <ele>294.00000</ele>
        <time>2010-01-01T10:56:57Z</time>
      </trkpt>
      <trkpt lat="49.46217350" lon="24.92539610">
        <ele>300.00000</ele>
        <time>2010-01-01T10:57:16Z</time>
      </trkpt>
      <trkpt lat="49.46223850" lon="24.92529670">
        <ele>300.00000</ele>
        <time>2010-01-01T10:57:20Z</time>
      </trkpt>
      <trkpt lat="49.46274460" lon="24.92470410">
        <ele>304.00000</ele>
        <time>2010-01-01T10:57:45Z</time>
      </trkpt>
      <trkpt lat="49.46307580" lon="24.92428790">
        <ele>306.00000</ele>
        <time>2010-01-01T10:58:02Z</time>
      </trkpt>
      <trkpt lat="49.46330070" lon="24.92394960">
        <ele>307.00000</ele>
        <time>2010-01-01T10:58:15Z</time>
      </trkpt>
      <trkpt lat="49.46373890" lon="24.92319710">
        <ele>309.00000</ele>
        <time>2010-01-01T10:58:41Z</time>
      </trkpt>
      <trkpt lat="49.46432860" lon="24.92209270">
        <ele>311.00000</ele>
        <time>2010-01-01T10:59:19Z</time>
      </trkpt>
      <trkpt lat="49.46517280" lon="24.92057070">
        <ele>310.00000</ele>
        <time>2010-01-01T11:00:11Z</time>
      </trkpt>
      <trkpt lat="49.46577450" lon="24.91942320">
        <ele>310.00000</ele>
        <time>2010-01-01T11:00:49Z</time>
      </trkpt>
      <trkpt lat="49.46640330" lon="24.91831700">
        <ele>310.00000</ele>
        <time>2010-01-01T11:01:27Z</time>
      </trkpt>
      <trkpt lat="49.46695330" lon="24.91730790">
        <ele>309.00000</ele>
        <time>2010-01-01T11:02:01Z</time>
      </trkpt>
      <trkpt lat="49.46732540" lon="24.91658730">
        <ele>305.00000</ele>
        <time>2010-01-01T11:02:25Z</time>
      </trkpt>
      <trkpt lat="49.46776980" lon="24.91578900">
        <ele>303.00000</ele>
        <time>2010-01-01T11:02:53Z</time>
      </trkpt>
      <trkpt lat="49.46821200" lon="24.91488150">
        <ele>305.00000</ele>
        <time>2010-01-01T11:03:22Z</time>
      </trkpt>
      <trkpt lat="49.46894260" lon="24.91358930">
        <ele>303.00000</ele>
        <time>2010-01-01T11:04:07Z</time>
      </trkpt>
      <trkpt lat="49.46964700" lon="24.91226140">
        <ele>299.00000</ele>
        <time>2010-01-01T11:04:51Z</time>
      </trkpt>
      <trkpt lat="49.47017420" lon="24.91131080">
        <ele>300.00000</ele>
        <time>2010-01-01T11:05:24Z</time>
      </trkpt>
      <trkpt lat="49.47064560" lon="24.91041610">
        <ele>301.00000</ele>
        <time>2010-01-01T11:05:54Z</time>
      </trkpt>
      <trkpt lat="49.47073320" lon="24.91022640">
        <ele>301.00000</ele>
        <time>2010-01-01T11:06:00Z</time>
      </trkpt>
      <trkpt lat="49.47241380" lon="24.90710700">
        <ele>295.00000</ele>
        <time>2010-01-01T11:07:45Z</time>
      </trkpt>
      <trkpt lat="49.47276320" lon="24.90639680">
        <ele>297.00000</ele>
        <time>2010-01-01T11:08:08Z</time>
      </trkpt>
      <trkpt lat="49.47320820" lon="24.90562250">
        <ele>298.00000</ele>
        <time>2010-01-01T11:08:35Z</time>
      </trkpt>
      <trkpt lat="49.47576040" lon="24.90088870">
        <ele>283.00000</ele>
        <time>2010-01-01T11:11:15Z</time>
      </trkpt>
      <trkpt lat="49.47604550" lon="24.90033510">
        <ele>279.00000</ele>
        <time>2010-01-01T11:11:34Z</time>
      </trkpt>
      <trkpt lat="49.47783250" lon="24.89704990">
        <ele>287.00000</ele>
        <time>2010-01-01T11:13:25Z</time>
      </trkpt>
      <trkpt lat="49.47806300" lon="24.89660250">
        <ele>287.00000</ele>
        <time>2010-01-01T11:13:40Z</time>
      </trkpt>
      <trkpt lat="49.47842620" lon="24.89569140">
        <ele>289.00000</ele>
        <time>2010-01-01T11:14:08Z</time>
      </trkpt>
      <trkpt lat="49.47881950" lon="24.89459500">
        <ele>293.00000</ele>
        <time>2010-01-01T11:14:40Z</time>
      </trkpt>
      <trkpt lat="49.47995300" lon="24.89138250">
        <ele>299.00000</ele>
        <time>2010-01-01T11:16:15Z</time>
      </trkpt>
      <trkpt lat="49.48020020" lon="24.89064700">
        <ele>300.00000</ele>
        <time>2010-01-01T11:16:37Z</time>
      </trkpt>
      <trkpt lat="49.48054290" lon="24.88971780">
        <ele>299.00000</ele>
        <time>2010-01-01T11:17:05Z</time>
      </trkpt>
      <trkpt lat="49.48224020" lon="24.88491620">
        <ele>298.00000</ele>
        <time>2010-01-01T11:19:27Z</time>
      </trkpt>
      <trkpt lat="49.48309250" lon="24.88255170">
        <ele>304.00000</ele>
        <time>2010-01-01T11:20:37Z</time>
      </trkpt>
      <trkpt lat="49.48314310" lon="24.88236400">
        <ele>305.00000</ele>
        <time>2010-01-01T11:20:43Z</time>
      </trkpt>
      <trkpt lat="49.48337390" lon="24.88170240">
        <ele>308.00000</ele>
        <time>2010-01-01T11:21:02Z</time>
      </trkpt>
      <trkpt lat="49.48458850" lon="24.87829720">
        <ele>316.00000</ele>
        <time>2010-01-01T11:22:43Z</time>
      </trkpt>
      <trkpt lat="49.48537470" lon="24.87602430">
        <ele>316.00000</ele>
        <time>2010-01-01T11:23:50Z</time>
      </trkpt>
      <trkpt lat="49.48618810" lon="24.87377070">
        <ele>318.00000</ele>
        <time>2010-01-01T11:24:57Z</time>
      </trkpt>
      <trkpt lat="49.48649520" lon="24.87287240">
        <ele>317.00000</ele>
        <time>2010-01-01T11:25:24Z</time>
      </trkpt>
      <trkpt lat="49.48673580" lon="24.87224720">
        <ele>318.00000</ele>
        <time>2010-01-01T11:25:42Z</time>
      </trkpt>
      <trkpt lat="49.48757160" lon="24.86985860">
        <ele>320.00000</ele>
        <time>2010-01-01T11:26:53Z</time>
      </trkpt>
      <trkpt lat="49.48782070" lon="24.86917520">
        <ele>321.00000</ele>
        <time>2010-01-01T11:27:13Z</time>
      </trkpt>
      <trkpt lat="49.48806800" lon="24.86856290">
        <ele>319.00000</ele>
        <time>2010-01-01T11:27:32Z</time>
      </trkpt>
      <trkpt lat="49.48835610" lon="24.86798550">
        <ele>321.00000</ele>
        <time>2010-01-01T11:27:51Z</time>
      </trkpt>
      <trkpt lat="49.48852320" lon="24.86769550">
        <ele>322.00000</ele>
        <time>2010-01-01T11:28:01Z</time>
      </trkpt>
      <trkpt lat="49.48902660" lon="24.86717500">
        <ele>319.00000</ele>
        <time>2010-01-01T11:28:25Z</time>
      </trkpt>
      <trkpt lat="49.48932600" lon="24.86691490">
        <ele>320.00000</ele>
        <time>2010-01-01T11:28:39Z</time>
      </trkpt>
      <trkpt lat="49.48972020" lon="24.86653820">
        <ele>322.00000</ele>
        <time>2010-01-01T11:28:58Z</time>
      </trkpt>
      <trkpt lat="49.49013760" lon="24.86606580">
        <ele>319.00000</ele>
        <time>2010-01-01T11:29:18Z</time>
      </trkpt>
      <trkpt lat="49.49040480" lon="24.86571820">
        <ele>319.00000</ele>
        <time>2010-01-01T11:29:32Z</time>
      </trkpt>
      <trkpt lat="49.49070750" lon="24.86528150">
        <ele>319.00000</ele>
        <time>2010-01-01T11:29:49Z</time>
      </trkpt>
      <trkpt lat="49.49098690" lon="24.86477920">
        <ele>319.00000</ele>
        <time>2010-01-01T11:30:06Z</time>
      </trkpt>
      <trkpt lat="49.49122760" lon="24.86425270">
        <ele>321.00000</ele>
        <time>2010-01-01T11:30:23Z</time>
      </trkpt>
      <trkpt lat="49.49146720" lon="24.86359110">
        <ele>320.00000</ele>
        <time>2010-01-01T11:30:43Z</time>
      </trkpt>
      <trkpt lat="49.49187100" lon="24.86197420">
        <ele>318.00000</ele>
        <time>2010-01-01T11:31:28Z</time>
      </trkpt>
      <trkpt lat="49.49197230" lon="24.86144670">
        <ele>319.00000</ele>
        <time>2010-01-01T11:31:42Z</time>
      </trkpt>
      <trkpt lat="49.49212810" lon="24.86079250">
        <ele>322.00000</ele>
        <time>2010-01-01T11:32:00Z</time>
      </trkpt>
      <trkpt lat="49.49220520" lon="24.86054030">
        <ele>324.00000</ele>
        <time>2010-01-01T11:32:07Z</time>
      </trkpt>
      <trkpt lat="49.49264130" lon="24.85832460">
        <ele>330.00000</ele>
        <time>2010-01-01T11:33:08Z</time>
      </trkpt>
      <trkpt lat="49.49273470" lon="24.85774490">
        <ele>334.00000</ele>
        <time>2010-01-01T11:33:23Z</time>
      </trkpt>
      <trkpt lat="49.49278350" lon="24.85729850">
        <ele>335.00000</ele>
        <time>2010-01-01T11:33:35Z</time>
      </trkpt>
      <trkpt lat="49.49281570" lon="24.85683180">
        <ele>336.00000</ele>
        <time>2010-01-01T11:33:47Z</time>
      </trkpt>
      <trkpt lat="49.49298820" lon="24.85325800">
        <ele>338.00000</ele>
        <time>2010-01-01T11:35:20Z</time>
      </trkpt>
      <trkpt lat="49.49313290" lon="24.85183450">
        <ele>341.00000</ele>
        <time>2010-01-01T11:35:58Z</time>
      </trkpt>
      <trkpt lat="49.49318790" lon="24.85139870">
        <ele>338.00000</ele>
        <time>2010-01-01T11:36:09Z</time>
      </trkpt>
      <trkpt lat="49.49329230" lon="24.85075230">
        <ele>336.00000</ele>
        <time>2010-01-01T11:36:27Z</time>
      </trkpt>
      <trkpt lat="49.49358330" lon="24.84985980">
        <ele>332.00000</ele>
        <time>2010-01-01T11:36:53Z</time>
      </trkpt>
      <trkpt lat="49.49403290" lon="24.84882600">
        <ele>328.00000</ele>
        <time>2010-01-01T11:37:25Z</time>
      </trkpt>
      <trkpt lat="49.49419320" lon="24.84835740">
        <ele>326.00000</ele>
        <time>2010-01-01T11:37:39Z</time>
      </trkpt>
      <trkpt lat="49.49428100" lon="24.84796190">
        <ele>327.00000</ele>
        <time>2010-01-01T11:37:50Z</time>
      </trkpt>
      <trkpt lat="49.49437760" lon="24.84716560">
        <ele>327.00000</ele>
        <time>2010-01-01T11:38:11Z</time>
      </trkpt>
      <trkpt lat="49.49453780" lon="24.84527300">
        <ele>331.00000</ele>
        <time>2010-01-01T11:39:00Z</time>
      </trkpt>
      <trkpt lat="49.49460270" lon="24.84426420">
        <ele>334.00000</ele>
        <time>2010-01-01T11:39:27Z</time>
      </trkpt>
      <trkpt lat="49.49475200" lon="24.84260620">
        <ele>337.00000</ele>
        <time>2010-01-01T11:40:10Z</time>
      </trkpt>
      <trkpt lat="49.49477640" lon="24.84190930">
        <ele>336.00000</ele>
        <time>2010-01-01T11:40:28Z</time>
      </trkpt>
      <trkpt lat="49.49476610" lon="24.84141450">
        <ele>337.00000</ele>
        <time>2010-01-01T11:40:41Z</time>
      </trkpt>
      <trkpt lat="49.49465390" lon="24.83981210">
        <ele>343.00000</ele>
        <time>2010-01-01T11:41:23Z</time>
      </trkpt>
      <trkpt lat="49.49458360" lon="24.83923930">
        <ele>345.00000</ele>
        <time>2010-01-01T11:41:38Z</time>
      </trkpt>
      <trkpt lat="49.49446440" lon="24.83776720">
        <ele>352.00000</ele>
        <time>2010-01-01T11:42:17Z</time>
      </trkpt>
      <trkpt lat="49.49445480" lon="24.83727490">
        <ele>355.00000</ele>
        <time>2010-01-01T11:42:30Z</time>
      </trkpt>
      <trkpt lat="49.49451690" lon="24.83670840">
        <ele>358.00000</ele>
        <time>2010-01-01T11:42:45Z</time>
      </trkpt>
      <trkpt lat="49.49472490" lon="24.83581920">
        <ele>360.00000</ele>
        <time>2010-01-01T11:43:09Z</time>
      </trkpt>
      <trkpt lat="49.49475480" lon="24.83580070">
        <ele>361.00000</ele>
        <time>2010-01-01T11:43:10Z</time>
      </trkpt>
      <trkpt lat="49.49483300" lon="24.83565320">
        <ele>362.00000</ele>
        <time>2010-01-01T11:43:15Z</time>
      </trkpt>
      <trkpt lat="49.49501560" lon="24.83516130">
        <ele>366.00000</ele>
        <time>2010-01-01T11:43:30Z</time>
      </trkpt>
      <trkpt lat="49.49521940" lon="24.83467060">
        <ele>373.00000</ele>
        <time>2010-01-01T11:43:45Z</time>
      </trkpt>
      <trkpt lat="49.49533900" lon="24.83429160">
        <ele>375.00000</ele>
        <time>2010-01-01T11:43:56Z</time>
      </trkpt>
      <trkpt lat="49.49547900" lon="24.83376160">
        <ele>376.00000</ele>
        <time>2010-01-01T11:44:11Z</time>
      </trkpt>
      <trkpt lat="49.49568700" lon="24.83281370">
        <ele>378.00000</ele>
        <time>2010-01-01T11:44:37Z</time>
      </trkpt>
      <trkpt lat="49.49579080" lon="24.83243960">
        <ele>379.00000</ele>
        <time>2010-01-01T11:44:48Z</time>
      </trkpt>
      <trkpt lat="49.49611310" lon="24.83093900">
        <ele>382.00000</ele>
        <time>2010-01-01T11:45:29Z</time>
      </trkpt>
      <trkpt lat="49.49637860" lon="24.82989420">
        <ele>383.00000</ele>
        <time>2010-01-01T11:45:58Z</time>
      </trkpt>
      <trkpt lat="49.49652530" lon="24.82950970">
        <ele>385.00000</ele>
        <time>2010-01-01T11:46:10Z</time>
      </trkpt>
      <trkpt lat="49.49677760" lon="24.82898950">
        <ele>392.00000</ele>
        <time>2010-01-01T11:46:26Z</time>
      </trkpt>
      <trkpt lat="49.49691830" lon="24.82875870">
        <ele>394.00000</ele>
        <time>2010-01-01T11:46:35Z</time>
      </trkpt>
      <trkpt lat="49.49701460" lon="24.82854990">
        <ele>396.00000</ele>
        <time>2010-01-01T11:46:41Z</time>
      </trkpt>
      <trkpt lat="49.49720850" lon="24.82824640">
        <ele>399.00000</ele>
        <time>2010-01-01T11:46:52Z</time>
      </trkpt>
      <trkpt lat="49.49726540" lon="24.82818060">
        <ele>400.00000</ele>
        <time>2010-01-01T11:46:55Z</time>
      </trkpt>
      <trkpt lat="49.49742770" lon="24.82789780">
        <ele>402.00000</ele>
        <time>2010-01-01T11:47:05Z</time>
      </trkpt>
      <trkpt lat="49.49776890" lon="24.82736260">
        <ele>405.00000</ele>
        <time>2010-01-01T11:47:25Z</time>
      </trkpt>
      <trkpt lat="49.49787890" lon="24.82715700">
        <ele>406.00000</ele>
        <time>2010-01-01T11:47:31Z</time>
      </trkpt>
      <trkpt lat="49.49807660" lon="24.82685600">
        <ele>407.00000</ele>
        <time>2010-01-01T11:47:43Z</time>
      </trkpt>
      <trkpt lat="49.49816480" lon="24.82666440">
        <ele>407.00000</ele>
        <time>2010-01-01T11:47:49Z</time>
      </trkpt>
      <trkpt lat="49.49829640" lon="24.82647290">
        <ele>407.00000</ele>
        <time>2010-01-01T11:47:56Z</time>
      </trkpt>
      <trkpt lat="49.49851760" lon="24.82605750">
        <ele>411.00000</ele>
        <time>2010-01-01T11:48:10Z</time>
      </trkpt>
      <trkpt lat="49.49897540" lon="24.82528010">
        <ele>414.00000</ele>
        <time>2010-01-01T11:48:37Z</time>
      </trkpt>
      <trkpt lat="49.49931880" lon="24.82475310">
        <ele>413.00000</ele>
        <time>2010-01-01T11:48:57Z</time>
      </trkpt>
      <trkpt lat="49.49998190" lon="24.82367540">
        <ele>412.00000</ele>
        <time>2010-01-01T11:49:35Z</time>
      </trkpt>
      <trkpt lat="49.50023680" lon="24.82331600">
        <ele>410.00000</ele>
        <time>2010-01-01T11:49:49Z</time>
      </trkpt>
      <trkpt lat="49.50061760" lon="24.82271150">
        <ele>411.00000</ele>
        <time>2010-01-01T11:50:11Z</time>
      </trkpt>
      <trkpt lat="49.50111560" lon="24.82197510">
        <ele>406.00000</ele>
        <time>2010-01-01T11:50:39Z</time>
      </trkpt>
      <trkpt lat="49.50131980" lon="24.82170240">
        <ele>405.00000</ele>
        <time>2010-01-01T11:50:49Z</time>
      </trkpt>
      <trkpt lat="49.50150550" lon="24.82140140">
        <ele>403.00000</ele>
        <time>2010-01-01T11:51:00Z</time>
      </trkpt>
      <trkpt lat="49.50195670" lon="24.82075620">
        <ele>398.00000</ele>
        <time>2010-01-01T11:51:25Z</time>
      </trkpt>
      <trkpt lat="49.50215620" lon="24.82048870">
        <ele>395.00000</ele>
        <time>2010-01-01T11:51:35Z</time>
      </trkpt>
      <trkpt lat="49.50223280" lon="24.82041040">
        <ele>394.00000</ele>
        <time>2010-01-01T11:51:39Z</time>
      </trkpt>
      <trkpt lat="49.50240250" lon="24.82027530">
        <ele>392.00000</ele>
        <time>2010-01-01T11:51:47Z</time>
      </trkpt>
      <trkpt lat="49.50248380" lon="24.82021790">
        <ele>390.00000</ele>
        <time>2010-01-01T11:51:50Z</time>
      </trkpt>
      <trkpt lat="49.50256770" lon="24.82017980">
        <ele>389.00000</ele>
        <time>2010-01-01T11:51:54Z</time>
      </trkpt>
      <trkpt lat="49.50284430" lon="24.82011310">
        <ele>385.00000</ele>
        <time>2010-01-01T11:52:05Z</time>
      </trkpt>
      <trkpt lat="49.50294040" lon="24.82010170">
        <ele>384.00000</ele>
        <time>2010-01-01T11:52:09Z</time>
      </trkpt>
      <trkpt lat="49.50323580" lon="24.82011670">
        <ele>381.00000</ele>
        <time>2010-01-01T11:52:21Z</time>
      </trkpt>
      <trkpt lat="49.50352510" lon="24.82016680">
        <ele>380.00000</ele>
        <time>2010-01-01T11:52:32Z</time>
      </trkpt>
      <trkpt lat="49.50371350" lon="24.82017320">
        <ele>380.00000</ele>
        <time>2010-01-01T11:52:40Z</time>
      </trkpt>
      <trkpt lat="49.50452670" lon="24.82031580">
        <ele>384.00000</ele>
        <time>2010-01-01T11:53:13Z</time>
      </trkpt>
      <trkpt lat="49.50492830" lon="24.82035370">
        <ele>383.00000</ele>
        <time>2010-01-01T11:53:29Z</time>
      </trkpt>
      <trkpt lat="49.50556900" lon="24.82046170">
        <ele>377.00000</ele>
        <time>2010-01-01T11:53:55Z</time>
      </trkpt>
      <trkpt lat="49.50655240" lon="24.82058360">
        <ele>382.00000</ele>
        <time>2010-01-01T11:54:34Z</time>
      </trkpt>
      <trkpt lat="49.50666750" lon="24.82061110">
        <ele>384.00000</ele>
        <time>2010-01-01T11:54:39Z</time>
      </trkpt>
      <trkpt lat="49.50679660" lon="24.82062540">
        <ele>384.00000</ele>
        <time>2010-01-01T11:54:44Z</time>
      </trkpt>
      <trkpt lat="49.50708810" lon="24.82062840">
        <ele>384.00000</ele>
        <time>2010-01-01T11:54:56Z</time>
      </trkpt>
      <trkpt lat="49.50750070" lon="24.82066780">
        <ele>384.00000</ele>
        <time>2010-01-01T11:55:12Z</time>
      </trkpt>
      <trkpt lat="49.50776980" lon="24.82064070">
        <ele>381.00000</ele>
        <time>2010-01-01T11:55:23Z</time>
      </trkpt>
      <trkpt lat="49.50806330" lon="24.82055200">
        <ele>376.00000</ele>
        <time>2010-01-01T11:55:35Z</time>
      </trkpt>
      <trkpt lat="49.50814120" lon="24.82054750">
        <ele>376.00000</ele>
        <time>2010-01-01T11:55:38Z</time>
      </trkpt>
      <trkpt lat="49.50830050" lon="24.82047000">
        <ele>376.00000</ele>
        <time>2010-01-01T11:55:45Z</time>
      </trkpt>
      <trkpt lat="49.50867440" lon="24.82021490">
        <ele>376.00000</ele>
        <time>2010-01-01T11:56:01Z</time>
      </trkpt>
      <trkpt lat="49.50922300" lon="24.81963250">
        <ele>372.00000</ele>
        <time>2010-01-01T11:56:28Z</time>
      </trkpt>
      <trkpt lat="49.50974820" lon="24.81892330">
        <ele>370.00000</ele>
        <time>2010-01-01T11:56:56Z</time>
      </trkpt>
      <trkpt lat="49.51078080" lon="24.81732520">
        <ele>347.00000</ele>
        <time>2010-01-01T11:57:54Z</time>
      </trkpt>
      <trkpt lat="49.51188320" lon="24.81568190">
        <ele>332.00000</ele>
        <time>2010-01-01T11:58:56Z</time>
      </trkpt>
      <trkpt lat="49.51201630" lon="24.81544570">
        <ele>332.00000</ele>
        <time>2010-01-01T11:59:04Z</time>
      </trkpt>
      <trkpt lat="49.51256880" lon="24.81459020">
        <ele>331.00000</ele>
        <time>2010-01-01T11:59:35Z</time>
      </trkpt>
      <trkpt lat="49.51278800" lon="24.81427710">
        <ele>328.00000</ele>
        <time>2010-01-01T11:59:47Z</time>
      </trkpt>
      <trkpt lat="49.51422780" lon="24.81207650">
        <ele>319.00000</ele>
        <time>2010-01-01T12:01:08Z</time>
      </trkpt>
      <trkpt lat="49.51477760" lon="24.81125980">
        <ele>315.00000</ele>
        <time>2010-01-01T12:01:39Z</time>
      </trkpt>
      <trkpt lat="49.51522010" lon="24.81052140">
        <ele>315.00000</ele>
        <time>2010-01-01T12:02:05Z</time>
      </trkpt>
      <trkpt lat="49.51528770" lon="24.81044990">
        <ele>316.00000</ele>
        <time>2010-01-01T12:02:08Z</time>
      </trkpt>
      <trkpt lat="49.51695150" lon="24.80796860">
        <ele>321.00000</ele>
        <time>2010-01-01T12:03:41Z</time>
      </trkpt>
      <trkpt lat="49.51753690" lon="24.80714200">
        <ele>322.00000</ele>
        <time>2010-01-01T12:04:13Z</time>
      </trkpt>
      <trkpt lat="49.51871420" lon="24.80531880">
        <ele>326.00000</ele>
        <time>2010-01-01T12:05:20Z</time>
      </trkpt>
      <trkpt lat="49.51905350" lon="24.80490030">
        <ele>325.00000</ele>
        <time>2010-01-01T12:05:37Z</time>
      </trkpt>
      <trkpt lat="49.51940790" lon="24.80453720">
        <ele>325.00000</ele>
        <time>2010-01-01T12:05:54Z</time>
      </trkpt>
      <trkpt lat="49.52037400" lon="24.80343730">
        <ele>330.00000</ele>
        <time>2010-01-01T12:06:42Z</time>
      </trkpt>
      <trkpt lat="49.52090910" lon="24.80289760">
        <ele>330.00000</ele>
        <time>2010-01-01T12:07:08Z</time>
      </trkpt>
      <trkpt lat="49.52113980" lon="24.80264030">
        <ele>329.00000</ele>
        <time>2010-01-01T12:07:19Z</time>
      </trkpt>
      <trkpt lat="49.52144110" lon="24.80234520">
        <ele>329.00000</ele>
        <time>2010-01-01T12:07:33Z</time>
      </trkpt>
      <trkpt lat="49.52153820" lon="24.80221950">
        <ele>329.00000</ele>
        <time>2010-01-01T12:07:39Z</time>
      </trkpt>
      <trkpt lat="49.52213920" lon="24.80157420">
        <ele>331.00000</ele>
        <time>2010-01-01T12:08:08Z</time>
      </trkpt>
      <trkpt lat="49.52224230" lon="24.80149120">
        <ele>332.00000</ele>
        <time>2010-01-01T12:08:13Z</time>
      </trkpt>
      <trkpt lat="49.52249960" lon="24.80119120">
        <ele>333.00000</ele>
        <time>2010-01-01T12:08:25Z</time>
      </trkpt>
      <trkpt lat="49.52253150" lon="24.80117970">
        <ele>333.00000</ele>
        <time>2010-01-01T12:08:27Z</time>
      </trkpt>
      <trkpt lat="49.52266810" lon="24.80105250">
        <ele>333.00000</ele>
        <time>2010-01-01T12:08:33Z</time>
      </trkpt>
      <trkpt lat="49.52308890" lon="24.80055290">
        <ele>335.00000</ele>
        <time>2010-01-01T12:08:54Z</time>
      </trkpt>
      <trkpt lat="49.52397030" lon="24.79956000">
        <ele>333.00000</ele>
        <time>2010-01-01T12:09:38Z</time>
      </trkpt>
      <trkpt lat="49.52431050" lon="24.79907830">
        <ele>331.00000</ele>
        <time>2010-01-01T12:09:57Z</time>
      </trkpt>
      <trkpt lat="49.52460380" lon="24.79848090">
        <ele>332.00000</ele>
        <time>2010-01-01T12:10:16Z</time>
      </trkpt>
      <trkpt lat="49.52487620" lon="24.79776100">
        <ele>334.00000</ele>
        <time>2010-01-01T12:10:38Z</time>
      </trkpt>
      <trkpt lat="49.52525540" lon="24.79656320">
        <ele>332.00000</ele>
        <time>2010-01-01T12:11:12Z</time>
      </trkpt>
      <trkpt lat="49.52607010" lon="24.79385880">
        <ele>335.00000</ele>
        <time>2010-01-01T12:12:30Z</time>
      </trkpt>
      <trkpt lat="49.52655230" lon="24.79231190">
        <ele>333.00000</ele>
        <time>2010-01-01T12:13:14Z</time>
      </trkpt>
      <trkpt lat="49.52718990" lon="24.79017130">
        <ele>331.00000</ele>
        <time>2010-01-01T12:14:16Z</time>
      </trkpt>
      <trkpt lat="49.52741790" lon="24.78947170">
        <ele>331.00000</ele>
        <time>2010-01-01T12:14:36Z</time>
      </trkpt>
      <trkpt lat="49.52894540" lon="24.78436370">
        <ele>321.00000</ele>
        <time>2010-01-01T12:17:02Z</time>
      </trkpt>
      <trkpt lat="49.52923400" lon="24.78345770">
        <ele>320.00000</ele>
        <time>2010-01-01T12:17:28Z</time>
      </trkpt>
      <trkpt lat="49.52934390" lon="24.78297700">
        <ele>319.00000</ele>
        <time>2010-01-01T12:17:42Z</time>
      </trkpt>
      <trkpt lat="49.52937990" lon="24.78273480">
        <ele>318.00000</ele>
        <time>2010-01-01T12:17:48Z</time>
      </trkpt>
      <trkpt lat="49.52940810" lon="24.78223160">
        <ele>316.00000</ele>
        <time>2010-01-01T12:18:01Z</time>
      </trkpt>
      <trkpt lat="49.52937710" lon="24.78170480">
        <ele>316.00000</ele>
        <time>2010-01-01T12:18:15Z</time>
      </trkpt>
      <trkpt lat="49.52907150" lon="24.77876660">
        <ele>306.00000</ele>
        <time>2010-01-01T12:19:32Z</time>
      </trkpt>
      <trkpt lat="49.52903680" lon="24.77805690">
        <ele>305.00000</ele>
        <time>2010-01-01T12:19:51Z</time>
      </trkpt>
      <trkpt lat="49.52906800" lon="24.77626560">
        <ele>309.00000</ele>
        <time>2010-01-01T12:20:37Z</time>
      </trkpt>
      <trkpt lat="49.52908880" lon="24.77581640">
        <ele>312.00000</ele>
        <time>2010-01-01T12:20:49Z</time>
      </trkpt>
      <trkpt lat="49.52910300" lon="24.77430160">
        <ele>315.00000</ele>
        <time>2010-01-01T12:21:28Z</time>
      </trkpt>
      <trkpt lat="49.52911790" lon="24.77403370">
        <ele>316.00000</ele>
        <time>2010-01-01T12:21:35Z</time>
      </trkpt>
      <trkpt lat="49.52911980" lon="24.77319400">
        <ele>320.00000</ele>
        <time>2010-01-01T12:21:57Z</time>
      </trkpt>
      <trkpt lat="49.52910180" lon="24.77264270">
        <ele>321.00000</ele>
        <time>2010-01-01T12:22:11Z</time>
      </trkpt>
      <trkpt lat="49.52911370" lon="24.77233380">
        <ele>321.00000</ele>
        <time>2010-01-01T12:22:20Z</time>
      </trkpt>
      <trkpt lat="49.52913890" lon="24.77211560">
        <ele>321.00000</ele>
        <time>2010-01-01T12:22:25Z</time>
      </trkpt>
      <trkpt lat="49.52914540" lon="24.77179220">
        <ele>321.00000</ele>
        <time>2010-01-01T12:22:34Z</time>
      </trkpt>
      <trkpt lat="49.52913320" lon="24.77157640">
        <ele>322.00000</ele>
        <time>2010-01-01T12:22:39Z</time>
      </trkpt>
      <trkpt lat="49.52918450" lon="24.77076520">
        <ele>324.00000</ele>
        <time>2010-01-01T12:23:00Z</time>
      </trkpt>
      <trkpt lat="49.52925060" lon="24.77018480">
        <ele>326.00000</ele>
        <time>2010-01-01T12:23:16Z</time>
      </trkpt>
      <trkpt lat="49.52932030" lon="24.76937820">
        <ele>328.00000</ele>
        <time>2010-01-01T12:23:37Z</time>
      </trkpt>
      <trkpt lat="49.52936530" lon="24.76905450">
        <ele>330.00000</ele>
        <time>2010-01-01T12:23:46Z</time>
      </trkpt>
      <trkpt lat="49.52943880" lon="24.76820900">
        <ele>330.00000</ele>
        <time>2010-01-01T12:24:08Z</time>
      </trkpt>
      <trkpt lat="49.52946460" lon="24.76766580">
        <ele>332.00000</ele>
        <time>2010-01-01T12:24:22Z</time>
      </trkpt>
      <trkpt lat="49.52953920" lon="24.76699740">
        <ele>334.00000</ele>
        <time>2010-01-01T12:24:39Z</time>
      </trkpt>
      <trkpt lat="49.52961120" lon="24.76597050">
        <ele>334.00000</ele>
        <time>2010-01-01T12:25:06Z</time>
      </trkpt>
      <trkpt lat="49.52964600" lon="24.76574490">
        <ele>335.00000</ele>
        <time>2010-01-01T12:25:12Z</time>
      </trkpt>
      <trkpt lat="49.52990460" lon="24.76283260">
        <ele>336.00000</ele>
        <time>2010-01-01T12:26:29Z</time>
      </trkpt>
      <trkpt lat="49.53005290" lon="24.76091220">
        <ele>339.00000</ele>
        <time>2010-01-01T12:27:19Z</time>
      </trkpt>
      <trkpt lat="49.53058380" lon="24.75481700">
        <ele>362.00000</ele>
        <time>2010-01-01T12:29:59Z</time>
      </trkpt>
      <trkpt lat="49.53062840" lon="24.75426940">
        <ele>364.00000</ele>
        <time>2010-01-01T12:30:13Z</time>
      </trkpt>
      <trkpt lat="49.53062970" lon="24.75408380">
        <ele>365.00000</ele>
        <time>2010-01-01T12:30:18Z</time>
      </trkpt>
      <trkpt lat="49.53067260" lon="24.75382040">
        <ele>365.00000</ele>
        <time>2010-01-01T12:30:25Z</time>
      </trkpt>
      <trkpt lat="49.53071010" lon="24.75317020">
        <ele>365.00000</ele>
        <time>2010-01-01T12:30:42Z</time>
      </trkpt>
      <trkpt lat="49.53081660" lon="24.75217100">
        <ele>364.00000</ele>
        <time>2010-01-01T12:31:08Z</time>
      </trkpt>
      <trkpt lat="49.53211110" lon="24.73690060">
        <ele>375.00000</ele>
        <time>2010-01-01T12:37:48Z</time>
      </trkpt>
      <trkpt lat="49.53229750" lon="24.73493620">
        <ele>379.00000</ele>
        <time>2010-01-01T12:38:40Z</time>
      </trkpt>
      <trkpt lat="49.53264960" lon="24.73080290">
        <ele>385.00000</ele>
        <time>2010-01-01T12:40:28Z</time>
      </trkpt>
      <trkpt lat="49.53291960" lon="24.72744890">
        <ele>384.00000</ele>
        <time>2010-01-01T12:41:56Z</time>
      </trkpt>
      <trkpt lat="49.53303300" lon="24.72643070">
        <ele>382.00000</ele>
        <time>2010-01-01T12:42:23Z</time>
      </trkpt>
      <trkpt lat="49.53307720" lon="24.72618250">
        <ele>381.00000</ele>
        <time>2010-01-01T12:42:30Z</time>
      </trkpt>
      <trkpt lat="49.53325190" lon="24.72561880">
        <ele>379.00000</ele>
        <time>2010-01-01T12:42:46Z</time>
      </trkpt>
      <trkpt lat="49.53401820" lon="24.72355450">
        <ele>372.00000</ele>
        <time>2010-01-01T12:43:48Z</time>
      </trkpt>
      <trkpt lat="49.53418520" lon="24.72304230">
        <ele>370.00000</ele>
        <time>2010-01-01T12:44:02Z</time>
      </trkpt>
      <trkpt lat="49.53442610" lon="24.72245310">
        <ele>366.00000</ele>
        <time>2010-01-01T12:44:21Z</time>
      </trkpt>
      <trkpt lat="49.53521880" lon="24.72032540">
        <ele>352.00000</ele>
        <time>2010-01-01T12:45:24Z</time>
      </trkpt>
      <trkpt lat="49.53529480" lon="24.72008200">
        <ele>351.00000</ele>
        <time>2010-01-01T12:45:31Z</time>
      </trkpt>
      <trkpt lat="49.53558140" lon="24.71932910">
        <ele>347.00000</ele>
        <time>2010-01-01T12:45:54Z</time>
      </trkpt>
      <trkpt lat="49.53569420" lon="24.71907200">
        <ele>345.00000</ele>
        <time>2010-01-01T12:46:02Z</time>
      </trkpt>
      <trkpt lat="49.53630490" lon="24.71739850">
        <ele>335.00000</ele>
        <time>2010-01-01T12:46:52Z</time>
      </trkpt>
      <trkpt lat="49.53671520" lon="24.71630030">
        <ele>330.00000</ele>
        <time>2010-01-01T12:47:25Z</time>
      </trkpt>
      <trkpt lat="49.53683740" lon="24.71601670">
        <ele>328.00000</ele>
        <time>2010-01-01T12:47:34Z</time>
      </trkpt>
      <trkpt lat="49.53729060" lon="24.71477150">
        <ele>319.00000</ele>
        <time>2010-01-01T12:48:11Z</time>
      </trkpt>
      <trkpt lat="49.53758230" lon="24.71404480">
        <ele>314.00000</ele>
        <time>2010-01-01T12:48:33Z</time>
      </trkpt>
      <trkpt lat="49.53777300" lon="24.71372250">
        <ele>314.00000</ele>
        <time>2010-01-01T12:48:44Z</time>
      </trkpt>
      <trkpt lat="49.53797220" lon="24.71343640">
        <ele>314.00000</ele>
        <time>2010-01-01T12:48:55Z</time>
      </trkpt>
      <trkpt lat="49.53810110" lon="24.71328420">
        <ele>313.00000</ele>
        <time>2010-01-01T12:49:02Z</time>
      </trkpt>
      <trkpt lat="49.53865720" lon="24.71270220">
        <ele>311.00000</ele>
        <time>2010-01-01T12:49:29Z</time>
      </trkpt>
      <trkpt lat="49.53928030" lon="24.71201430">
        <ele>311.00000</ele>
        <time>2010-01-01T12:49:59Z</time>
      </trkpt>
      <trkpt lat="49.53947620" lon="24.71177260">
        <ele>310.00000</ele>
        <time>2010-01-01T12:50:09Z</time>
      </trkpt>
      <trkpt lat="49.54027940" lon="24.71091530">
        <ele>306.00000</ele>
        <time>2010-01-01T12:50:48Z</time>
      </trkpt>
      <trkpt lat="49.54122780" lon="24.70985390">
        <ele>300.00000</ele>
        <time>2010-01-01T12:51:35Z</time>
      </trkpt>
      <trkpt lat="49.54134830" lon="24.70969580">
        <ele>300.00000</ele>
        <time>2010-01-01T12:51:42Z</time>
      </trkpt>
      <trkpt lat="49.54210720" lon="24.70885210">
        <ele>299.00000</ele>
        <time>2010-01-01T12:52:19Z</time>
      </trkpt>
      <trkpt lat="49.54260440" lon="24.70826940">
        <ele>296.00000</ele>
        <time>2010-01-01T12:52:44Z</time>
      </trkpt>
      <trkpt lat="49.54313040" lon="24.70773990">
        <ele>296.00000</ele>
        <time>2010-01-01T12:53:09Z</time>
      </trkpt>
      <trkpt lat="49.54376850" lon="24.70703830">
        <ele>296.00000</ele>
        <time>2010-01-01T12:53:41Z</time>
      </trkpt>
      <trkpt lat="49.54424420" lon="24.70649810">
        <ele>295.00000</ele>
        <time>2010-01-01T12:54:04Z</time>
      </trkpt>
      <trkpt lat="49.54440520" lon="24.70633540">
        <ele>295.00000</ele>
        <time>2010-01-01T12:54:12Z</time>
      </trkpt>
      <trkpt lat="49.54535850" lon="24.70523210">
        <ele>297.00000</ele>
        <time>2010-01-01T12:55:00Z</time>
      </trkpt>
      <trkpt lat="49.54591220" lon="24.70464980">
        <ele>296.00000</ele>
        <time>2010-01-01T12:55:27Z</time>
      </trkpt>
      <trkpt lat="49.54777810" lon="24.70257610">
        <ele>296.00000</ele>
        <time>2010-01-01T12:56:59Z</time>
      </trkpt>
      <trkpt lat="49.54796130" lon="24.70235300">
        <ele>297.00000</ele>
        <time>2010-01-01T12:57:08Z</time>
      </trkpt>
      <trkpt lat="49.54943690" lon="24.70072750">
        <ele>298.00000</ele>
        <time>2010-01-01T12:58:21Z</time>
      </trkpt>
      <trkpt lat="49.54991300" lon="24.70017870">
        <ele>298.00000</ele>
        <time>2010-01-01T12:58:44Z</time>
      </trkpt>
      <trkpt lat="49.55024860" lon="24.69983670">
        <ele>298.00000</ele>
        <time>2010-01-01T12:59:01Z</time>
      </trkpt>
      <trkpt lat="49.55052760" lon="24.69952540">
        <ele>296.00000</ele>
        <time>2010-01-01T12:59:14Z</time>
      </trkpt>
      <trkpt lat="49.55080100" lon="24.69917900">
        <ele>296.00000</ele>
        <time>2010-01-01T12:59:28Z</time>
      </trkpt>
      <trkpt lat="49.55090710" lon="24.69900860">
        <ele>297.00000</ele>
        <time>2010-01-01T12:59:35Z</time>
      </trkpt>
      <trkpt lat="49.55101500" lon="24.69879280">
        <ele>297.00000</ele>
        <time>2010-01-01T12:59:42Z</time>
      </trkpt>
      <trkpt lat="49.55117650" lon="24.69839420">
        <ele>298.00000</ele>
        <time>2010-01-01T12:59:54Z</time>
      </trkpt>
      <trkpt lat="49.55129410" lon="24.69790680">
        <ele>298.00000</ele>
        <time>2010-01-01T13:00:07Z</time>
      </trkpt>
      <trkpt lat="49.55145810" lon="24.69705110">
        <ele>297.00000</ele>
        <time>2010-01-01T13:00:31Z</time>
      </trkpt>
      <trkpt lat="49.55158740" lon="24.69646490">
        <ele>297.00000</ele>
        <time>2010-01-01T13:00:47Z</time>
      </trkpt>
      <trkpt lat="49.55204000" lon="24.69409460">
        <ele>294.00000</ele>
        <time>2010-01-01T13:01:51Z</time>
      </trkpt>
      <trkpt lat="49.55214850" lon="24.69360580">
        <ele>296.00000</ele>
        <time>2010-01-01T13:02:04Z</time>
      </trkpt>
      <trkpt lat="49.55233960" lon="24.69262170">
        <ele>298.00000</ele>
        <time>2010-01-01T13:02:31Z</time>
      </trkpt>
      <trkpt lat="49.55235250" lon="24.69244960">
        <ele>299.00000</ele>
        <time>2010-01-01T13:02:35Z</time>
      </trkpt>
      <trkpt lat="49.55250510" lon="24.69165460">
        <ele>300.00000</ele>
        <time>2010-01-01T13:02:57Z</time>
      </trkpt>
      <trkpt lat="49.55279160" lon="24.69025910">
        <ele>301.00000</ele>
        <time>2010-01-01T13:03:35Z</time>
      </trkpt>
      <trkpt lat="49.55290940" lon="24.68952750">
        <ele>301.00000</ele>
        <time>2010-01-01T13:03:55Z</time>
      </trkpt>
      <trkpt lat="49.55294090" lon="24.68759520">
        <ele>303.00000</ele>
        <time>2010-01-01T13:04:45Z</time>
      </trkpt>
      <trkpt lat="49.55293650" lon="24.68659270">
        <ele>305.00000</ele>
        <time>2010-01-01T13:05:11Z</time>
      </trkpt>
      <trkpt lat="49.55295630" lon="24.68609090">
        <ele>305.00000</ele>
        <time>2010-01-01T13:05:24Z</time>
      </trkpt>
      <trkpt lat="49.55293820" lon="24.68588640">
        <ele>304.00000</ele>
        <time>2010-01-01T13:05:29Z</time>
      </trkpt>
      <trkpt lat="49.55296670" lon="24.68505130">
        <ele>305.00000</ele>
        <time>2010-01-01T13:05:51Z</time>
      </trkpt>
      <trkpt lat="49.55294790" lon="24.68481850">
        <ele>305.00000</ele>
        <time>2010-01-01T13:05:57Z</time>
      </trkpt>
      <trkpt lat="49.55298260" lon="24.68390820">
        <ele>304.00000</ele>
        <time>2010-01-01T13:06:21Z</time>
      </trkpt>
      <trkpt lat="49.55304910" lon="24.68355800">
        <ele>303.00000</ele>
        <time>2010-01-01T13:06:30Z</time>
      </trkpt>
      <trkpt lat="49.55353890" lon="24.68180430">
        <ele>302.00000</ele>
        <time>2010-01-01T13:07:20Z</time>
      </trkpt>
      <trkpt lat="49.55469270" lon="24.67795720">
        <ele>297.00000</ele>
        <time>2010-01-01T13:09:10Z</time>
      </trkpt>
      <trkpt lat="49.55480490" lon="24.67743660">
        <ele>296.00000</ele>
        <time>2010-01-01T13:09:24Z</time>
      </trkpt>
      <trkpt lat="49.55485690" lon="24.67697040">
        <ele>299.00000</ele>
        <time>2010-01-01T13:09:36Z</time>
      </trkpt>
      <trkpt lat="49.55487060" lon="24.67653750">
        <ele>299.00000</ele>
        <time>2010-01-01T13:09:48Z</time>
      </trkpt>
      <trkpt lat="49.55477800" lon="24.67504070">
        <ele>290.00000</ele>
        <time>2010-01-01T13:10:27Z</time>
      </trkpt>
      <trkpt lat="49.55466000" lon="24.67346570">
        <ele>284.00000</ele>
        <time>2010-01-01T13:11:08Z</time>
      </trkpt>
      <trkpt lat="49.55452770" lon="24.67138630">
        <ele>279.00000</ele>
        <time>2010-01-01T13:12:02Z</time>
      </trkpt>
      <trkpt lat="49.55432790" lon="24.66883040">
        <ele>280.00000</ele>
        <time>2010-01-01T13:13:09Z</time>
      </trkpt>
      <trkpt lat="49.55398970" lon="24.66407120">
        <ele>279.00000</ele>
        <time>2010-01-01T13:15:13Z</time>
      </trkpt>
      <trkpt lat="49.55398720" lon="24.66331820">
        <ele>279.00000</ele>
        <time>2010-01-01T13:15:33Z</time>
      </trkpt>
      <trkpt lat="49.55404360" lon="24.66245730">
        <ele>278.00000</ele>
        <time>2010-01-01T13:15:55Z</time>
      </trkpt>
      <trkpt lat="49.55413750" lon="24.66167690">
        <ele>276.00000</ele>
        <time>2010-01-01T13:16:16Z</time>
      </trkpt>
      <trkpt lat="49.55429140" lon="24.66101670">
        <ele>276.00000</ele>
        <time>2010-01-01T13:16:34Z</time>
      </trkpt>
      <trkpt lat="49.55454920" lon="24.66029870">
        <ele>276.00000</ele>
        <time>2010-01-01T13:16:55Z</time>
      </trkpt>
      <trkpt lat="49.55485590" lon="24.65952050">
        <ele>278.00000</ele>
        <time>2010-01-01T13:17:19Z</time>
      </trkpt>
      <trkpt lat="49.55511480" lon="24.65889090">
        <ele>278.00000</ele>
        <time>2010-01-01T13:17:38Z</time>
      </trkpt>
      <trkpt lat="49.55623480" lon="24.65636180">
        <ele>272.00000</ele>
        <time>2010-01-01T13:18:58Z</time>
      </trkpt>
      <trkpt lat="49.55842210" lon="24.65133620">
        <ele>278.00000</ele>
        <time>2010-01-01T13:21:35Z</time>
      </trkpt>
      <trkpt lat="49.55876910" lon="24.65037530">
        <ele>278.00000</ele>
        <time>2010-01-01T13:22:04Z</time>
      </trkpt>
      <trkpt lat="49.55893120" lon="24.64977230">
        <ele>279.00000</ele>
        <time>2010-01-01T13:22:21Z</time>
      </trkpt>
      <trkpt lat="49.55949790" lon="24.64724050">
        <ele>278.00000</ele>
        <time>2010-01-01T13:23:30Z</time>
      </trkpt>
      <trkpt lat="49.55964200" lon="24.64648090">
        <ele>279.00000</ele>
        <time>2010-01-01T13:23:51Z</time>
      </trkpt>
      <trkpt lat="49.56011060" lon="24.64423100">
        <ele>273.00000</ele>
        <time>2010-01-01T13:24:52Z</time>
      </trkpt>
      <trkpt lat="49.56015700" lon="24.64388390">
        <ele>272.00000</ele>
        <time>2010-01-01T13:25:01Z</time>
      </trkpt>
      <trkpt lat="49.56033800" lon="24.64306790">
        <ele>269.00000</ele>
        <time>2010-01-01T13:25:24Z</time>
      </trkpt>
      <trkpt lat="49.56035320" lon="24.64290700">
        <ele>269.00000</ele>
        <time>2010-01-01T13:25:28Z</time>
      </trkpt>
      <trkpt lat="49.56040270" lon="24.64276100">
        <ele>270.00000</ele>
        <time>2010-01-01T13:25:32Z</time>
      </trkpt>
      <trkpt lat="49.56071510" lon="24.64145910">
        <ele>273.00000</ele>
        <time>2010-01-01T13:26:08Z</time>
      </trkpt>
      <trkpt lat="49.56079110" lon="24.64101780">
        <ele>274.00000</ele>
        <time>2010-01-01T13:26:20Z</time>
      </trkpt>
      <trkpt lat="49.56091270" lon="24.64043900">
        <ele>272.00000</ele>
        <time>2010-01-01T13:26:36Z</time>
      </trkpt>
      <trkpt lat="49.56100390" lon="24.63987250">
        <ele>272.00000</ele>
        <time>2010-01-01T13:26:51Z</time>
      </trkpt>
      <trkpt lat="49.56143870" lon="24.63795540">
        <ele>272.00000</ele>
        <time>2010-01-01T13:27:44Z</time>
      </trkpt>
      <trkpt lat="49.56162560" lon="24.63700000">
        <ele>271.00000</ele>
        <time>2010-01-01T13:28:10Z</time>
      </trkpt>
      <trkpt lat="49.56198720" lon="24.63543060">
        <ele>276.00000</ele>
        <time>2010-01-01T13:28:53Z</time>
      </trkpt>
      <trkpt lat="49.56209800" lon="24.63483920">
        <ele>276.00000</ele>
        <time>2010-01-01T13:29:09Z</time>
      </trkpt>
      <trkpt lat="49.56221530" lon="24.63434230">
        <ele>276.00000</ele>
        <time>2010-01-01T13:29:23Z</time>
      </trkpt>
      <trkpt lat="49.56229210" lon="24.63385900">
        <ele>276.00000</ele>
        <time>2010-01-01T13:29:35Z</time>
      </trkpt>
      <trkpt lat="49.56257840" lon="24.63259070">
        <ele>277.00000</ele>
        <time>2010-01-01T13:30:10Z</time>
      </trkpt>
      <trkpt lat="49.56260060" lon="24.63241180">
        <ele>278.00000</ele>
        <time>2010-01-01T13:30:15Z</time>
      </trkpt>
      <trkpt lat="49.56268340" lon="24.63199700">
        <ele>281.00000</ele>
        <time>2010-01-01T13:30:26Z</time>
      </trkpt>
      <trkpt lat="49.56280340" lon="24.63155210">
        <ele>282.00000</ele>
        <time>2010-01-01T13:30:39Z</time>
      </trkpt>
      <trkpt lat="49.56285920" lon="24.63120160">
        <ele>282.00000</ele>
        <time>2010-01-01T13:30:48Z</time>
      </trkpt>
      <trkpt lat="49.56293540" lon="24.63090610">
        <ele>282.00000</ele>
        <time>2010-01-01T13:30:56Z</time>
      </trkpt>
      <trkpt lat="49.56306980" lon="24.63024640">
        <ele>283.00000</ele>
        <time>2010-01-01T13:31:14Z</time>
      </trkpt>
      <trkpt lat="49.56317570" lon="24.62986280">
        <ele>284.00000</ele>
        <time>2010-01-01T13:31:25Z</time>
      </trkpt>
      <trkpt lat="49.56326370" lon="24.62940630">
        <ele>284.00000</ele>
        <time>2010-01-01T13:31:38Z</time>
      </trkpt>
      <trkpt lat="49.56347040" lon="24.62850420">
        <ele>285.00000</ele>
        <time>2010-01-01T13:32:02Z</time>
      </trkpt>
      <trkpt lat="49.56357590" lon="24.62815510">
        <ele>285.00000</ele>
        <time>2010-01-01T13:32:12Z</time>
      </trkpt>
      <trkpt lat="49.56386570" lon="24.62742130">
        <ele>283.00000</ele>
        <time>2010-01-01T13:32:35Z</time>
      </trkpt>
      <trkpt lat="49.56434410" lon="24.62635460">
        <ele>278.00000</ele>
        <time>2010-01-01T13:33:08Z</time>
      </trkpt>
      <trkpt lat="49.56457050" lon="24.62581630">
        <ele>275.00000</ele>
        <time>2010-01-01T13:33:25Z</time>
      </trkpt>
      <trkpt lat="49.56501510" lon="24.62486130">
        <ele>273.00000</ele>
        <time>2010-01-01T13:33:56Z</time>
      </trkpt>
      <trkpt lat="49.56524010" lon="24.62433340">
        <ele>272.00000</ele>
        <time>2010-01-01T13:34:12Z</time>
      </trkpt>
      <trkpt lat="49.56547730" lon="24.62371070">
        <ele>271.00000</ele>
        <time>2010-01-01T13:34:31Z</time>
      </trkpt>
      <trkpt lat="49.56731500" lon="24.61760310">
        <ele>266.00000</ele>
        <time>2010-01-01T13:37:26Z</time>
      </trkpt>
      <trkpt lat="49.56798530" lon="24.61545960">
        <ele>265.00000</ele>
        <time>2010-01-01T13:38:27Z</time>
      </trkpt>
      <trkpt lat="49.56804390" lon="24.61504020">
        <ele>264.00000</ele>
        <time>2010-01-01T13:38:39Z</time>
      </trkpt>
      <trkpt lat="49.56804130" lon="24.61440100">
        <ele>263.00000</ele>
        <time>2010-01-01T13:38:55Z</time>
      </trkpt>
      <trkpt lat="49.56790320" lon="24.61056910">
        <ele>268.00000</ele>
        <time>2010-01-01T13:40:35Z</time>
      </trkpt>
      <trkpt lat="49.56782790" lon="24.60904820">
        <ele>263.00000</ele>
        <time>2010-01-01T13:41:14Z</time>
      </trkpt>
      <trkpt lat="49.56775960" lon="24.60829730">
        <ele>264.00000</ele>
        <time>2010-01-01T13:41:34Z</time>
      </trkpt>
      <trkpt lat="49.56725550" lon="24.60380390">
        <ele>264.00000</ele>
        <time>2010-01-01T13:43:32Z</time>
      </trkpt>
      <trkpt lat="49.56696050" lon="24.60103700">
        <ele>265.00000</ele>
        <time>2010-01-01T13:44:45Z</time>
      </trkpt>
      <trkpt lat="49.56696580" lon="24.60085890">
        <ele>265.00000</ele>
        <time>2010-01-01T13:44:50Z</time>
      </trkpt>
      <trkpt lat="49.56700980" lon="24.60061290">
        <ele>264.00000</ele>
        <time>2010-01-01T13:44:56Z</time>
      </trkpt>
      <trkpt lat="49.56715600" lon="24.60015960">
        <ele>264.00000</ele>
        <time>2010-01-01T13:45:10Z</time>
      </trkpt>
      <trkpt lat="49.56728600" lon="24.59989110">
        <ele>265.00000</ele>
        <time>2010-01-01T13:45:18Z</time>
      </trkpt>
      <trkpt lat="49.56739880" lon="24.59971900">
        <ele>266.00000</ele>
        <time>2010-01-01T13:45:25Z</time>
      </trkpt>
      <trkpt lat="49.56790230" lon="24.59908190">
        <ele>266.00000</ele>
        <time>2010-01-01T13:45:51Z</time>
      </trkpt>
      <trkpt lat="49.56856460" lon="24.59840190">
        <ele>261.00000</ele>
        <time>2010-01-01T13:46:23Z</time>
      </trkpt>
      <trkpt lat="49.56890280" lon="24.59809180">
        <ele>262.00000</ele>
        <time>2010-01-01T13:46:38Z</time>
      </trkpt>
      <trkpt lat="49.56967180" lon="24.59729360">
        <ele>262.00000</ele>
        <time>2010-01-01T13:47:15Z</time>
      </trkpt>
      <trkpt lat="49.57104280" lon="24.59582180">
        <ele>257.00000</ele>
        <time>2010-01-01T13:48:22Z</time>
      </trkpt>
      <trkpt lat="49.57161400" lon="24.59517550">
        <ele>257.00000</ele>
        <time>2010-01-01T13:48:51Z</time>
      </trkpt>
      <trkpt lat="49.57194400" lon="24.59486610">
        <ele>258.00000</ele>
        <time>2010-01-01T13:49:06Z</time>
      </trkpt>
      <trkpt lat="49.57217450" lon="24.59462860">
        <ele>258.00000</ele>
        <time>2010-01-01T13:49:17Z</time>
      </trkpt>
      <trkpt lat="49.57328130" lon="24.59338080">
        <ele>256.00000</ele>
        <time>2010-01-01T13:50:12Z</time>
      </trkpt>
      <trkpt lat="49.57344670" lon="24.59314060">
        <ele>256.00000</ele>
        <time>2010-01-01T13:50:21Z</time>
      </trkpt>
      <trkpt lat="49.57367630" lon="24.59275520">
        <ele>256.00000</ele>
        <time>2010-01-01T13:50:35Z</time>
      </trkpt>
      <trkpt lat="49.57383820" lon="24.59230180">
        <ele>256.00000</ele>
        <time>2010-01-01T13:50:48Z</time>
      </trkpt>
      <trkpt lat="49.57396100" lon="24.59169690">
        <ele>256.00000</ele>
        <time>2010-01-01T13:51:05Z</time>
      </trkpt>
      <trkpt lat="49.57402860" lon="24.59092430">
        <ele>256.00000</ele>
        <time>2010-01-01T13:51:25Z</time>
      </trkpt>
      <trkpt lat="49.57434650" lon="24.58366180">
        <ele>259.00000</ele>
        <time>2010-01-01T13:54:34Z</time>
      </trkpt>
      <trkpt lat="49.57438890" lon="24.58310370">
        <ele>259.00000</ele>
        <time>2010-01-01T13:54:48Z</time>
      </trkpt>
      <trkpt lat="49.57445720" lon="24.58283600">
        <ele>259.00000</ele>
        <time>2010-01-01T13:54:56Z</time>
      </trkpt>
      <trkpt lat="49.57457260" lon="24.58255150">
        <ele>259.00000</ele>
        <time>2010-01-01T13:55:05Z</time>
      </trkpt>
      <trkpt lat="49.57462990" lon="24.58245290">
        <ele>260.00000</ele>
        <time>2010-01-01T13:55:08Z</time>
      </trkpt>
      <trkpt lat="49.57481240" lon="24.58220920">
        <ele>260.00000</ele>
        <time>2010-01-01T13:55:18Z</time>
      </trkpt>
      <trkpt lat="49.57482760" lon="24.58214470">
        <ele>260.00000</ele>
        <time>2010-01-01T13:55:20Z</time>
      </trkpt>
      <trkpt lat="49.57513700" lon="24.58148080">
        <ele>262.00000</ele>
        <time>2010-01-01T13:55:41Z</time>
      </trkpt>
      <trkpt lat="49.57531160" lon="24.58124580">
        <ele>263.00000</ele>
        <time>2010-01-01T13:55:50Z</time>
      </trkpt>
      <trkpt lat="49.57549480" lon="24.58114070">
        <ele>263.00000</ele>
        <time>2010-01-01T13:55:58Z</time>
      </trkpt>
      <trkpt lat="49.57582670" lon="24.58098930">
        <ele>262.00000</ele>
        <time>2010-01-01T13:56:12Z</time>
      </trkpt>
      <trkpt lat="49.57632960" lon="24.58071200">
        <ele>262.00000</ele>
        <time>2010-01-01T13:56:33Z</time>
      </trkpt>
      <trkpt lat="49.57703670" lon="24.58035170">
        <ele>260.00000</ele>
        <time>2010-01-01T13:57:03Z</time>
      </trkpt>
      <trkpt lat="49.57892620" lon="24.57944290">
        <ele>264.00000</ele>
        <time>2010-01-01T13:58:22Z</time>
      </trkpt>
      <trkpt lat="49.57984900" lon="24.57894310">
        <ele>267.00000</ele>
        <time>2010-01-01T13:59:01Z</time>
      </trkpt>
      <trkpt lat="49.58005560" lon="24.57886710">
        <ele>267.00000</ele>
        <time>2010-01-01T13:59:10Z</time>
      </trkpt>
      <trkpt lat="49.58039230" lon="24.57868330">
        <ele>268.00000</ele>
        <time>2010-01-01T13:59:24Z</time>
      </trkpt>
      <trkpt lat="49.58075720" lon="24.57851400">
        <ele>268.00000</ele>
        <time>2010-01-01T13:59:39Z</time>
      </trkpt>
      <trkpt lat="49.58163400" lon="24.57804480">
        <ele>267.00000</ele>
        <time>2010-01-01T14:00:16Z</time>
      </trkpt>
      <trkpt lat="49.58281030" lon="24.57747910">
        <ele>265.00000</ele>
        <time>2010-01-01T14:01:06Z</time>
      </trkpt>
      <trkpt lat="49.58330760" lon="24.57721960">
        <ele>265.00000</ele>
        <time>2010-01-01T14:01:27Z</time>
      </trkpt>
      <trkpt lat="49.58375700" lon="24.57701990">
        <ele>265.00000</ele>
        <time>2010-01-01T14:01:46Z</time>
      </trkpt>
      <trkpt lat="49.58419220" lon="24.57687970">
        <ele>264.00000</ele>
        <time>2010-01-01T14:02:03Z</time>
      </trkpt>
      <trkpt lat="49.58618860" lon="24.57649870">
        <ele>266.00000</ele>
        <time>2010-01-01T14:03:24Z</time>
      </trkpt>
      <trkpt lat="49.58629830" lon="24.57649120">
        <ele>266.00000</ele>
        <time>2010-01-01T14:03:28Z</time>
      </trkpt>
      <trkpt lat="49.58699370" lon="24.57636200">
        <ele>266.00000</ele>
        <time>2010-01-01T14:03:56Z</time>
      </trkpt>
      <trkpt lat="49.58737840" lon="24.57628460">
        <ele>265.00000</ele>
        <time>2010-01-01T14:04:12Z</time>
      </trkpt>
      <trkpt lat="49.58753260" lon="24.57623110">
        <ele>264.00000</ele>
        <time>2010-01-01T14:04:18Z</time>
      </trkpt>
      <trkpt lat="49.58874290" lon="24.57606520">
        <ele>267.00000</ele>
        <time>2010-01-01T14:05:07Z</time>
      </trkpt>
      <trkpt lat="49.58922570" lon="24.57596940">
        <ele>265.00000</ele>
        <time>2010-01-01T14:05:26Z</time>
      </trkpt>
      <trkpt lat="49.58966860" lon="24.57590680">
        <ele>265.00000</ele>
        <time>2010-01-01T14:05:44Z</time>
      </trkpt>
      <trkpt lat="49.59050150" lon="24.57573140">
        <ele>264.00000</ele>
        <time>2010-01-01T14:06:18Z</time>
      </trkpt>
      <trkpt lat="49.59089480" lon="24.57568630">
        <ele>262.00000</ele>
        <time>2010-01-01T14:06:34Z</time>
      </trkpt>
      <trkpt lat="49.59224080" lon="24.57546060">
        <ele>267.00000</ele>
        <time>2010-01-01T14:07:28Z</time>
      </trkpt>
      <trkpt lat="49.59309240" lon="24.57529220">
        <ele>267.00000</ele>
        <time>2010-01-01T14:08:02Z</time>
      </trkpt>
      <trkpt lat="49.59372440" lon="24.57519600">
        <ele>267.00000</ele>
        <time>2010-01-01T14:08:27Z</time>
      </trkpt>
      <trkpt lat="49.59520990" lon="24.57493500">
        <ele>268.00000</ele>
        <time>2010-01-01T14:09:27Z</time>
      </trkpt>
      <trkpt lat="49.59540710" lon="24.57487990">
        <ele>268.00000</ele>
        <time>2010-01-01T14:09:35Z</time>
      </trkpt>
      <trkpt lat="49.59592160" lon="24.57481150">
        <ele>269.00000</ele>
        <time>2010-01-01T14:09:56Z</time>
      </trkpt>
      <trkpt lat="49.59667160" lon="24.57468200">
        <ele>270.00000</ele>
        <time>2010-01-01T14:10:26Z</time>
      </trkpt>
      <trkpt lat="49.59689680" lon="24.57462540">
        <ele>269.00000</ele>
        <time>2010-01-01T14:10:35Z</time>
      </trkpt>
      <trkpt lat="49.59796670" lon="24.57446030">
        <ele>266.00000</ele>
        <time>2010-01-01T14:11:18Z</time>
      </trkpt>
      <trkpt lat="49.59884580" lon="24.57428750">
        <ele>265.00000</ele>
        <time>2010-01-01T14:11:54Z</time>
      </trkpt>
      <trkpt lat="49.60171870" lon="24.57377720">
        <ele>270.00000</ele>
        <time>2010-01-01T14:13:50Z</time>
      </trkpt>
      <trkpt lat="49.60206870" lon="24.57372330">
        <ele>270.00000</ele>
        <time>2010-01-01T14:14:04Z</time>
      </trkpt>
      <trkpt lat="49.60330520" lon="24.57358850">
        <ele>269.00000</ele>
        <time>2010-01-01T14:14:53Z</time>
      </trkpt>
      <trkpt lat="49.60358050" lon="24.57354080">
        <ele>267.00000</ele>
        <time>2010-01-01T14:15:04Z</time>
      </trkpt>
      <trkpt lat="49.60369360" lon="24.57353980">
        <ele>267.00000</ele>
        <time>2010-01-01T14:15:09Z</time>
      </trkpt>
      <trkpt lat="49.60464890" lon="24.57342070">
        <ele>267.00000</ele>
        <time>2010-01-01T14:15:47Z</time>
      </trkpt>
      <trkpt lat="49.60562220" lon="24.57333090">
        <ele>271.00000</ele>
        <time>2010-01-01T14:16:26Z</time>
      </trkpt>
      <trkpt lat="49.60614930" lon="24.57326100">
        <ele>272.00000</ele>
        <time>2010-01-01T14:16:48Z</time>
      </trkpt>
      <trkpt lat="49.60630570" lon="24.57325650">
        <ele>273.00000</ele>
        <time>2010-01-01T14:16:54Z</time>
      </trkpt>
      <trkpt lat="49.60736500" lon="24.57311870">
        <ele>272.00000</ele>
        <time>2010-01-01T14:17:36Z</time>
      </trkpt>
      <trkpt lat="49.60831550" lon="24.57303530">
        <ele>271.00000</ele>
        <time>2010-01-01T14:18:14Z</time>
      </trkpt>
      <trkpt lat="49.60872360" lon="24.57301530">
        <ele>270.00000</ele>
        <time>2010-01-01T14:18:31Z</time>
      </trkpt>
      <trkpt lat="49.60912270" lon="24.57302830">
        <ele>270.00000</ele>
        <time>2010-01-01T14:18:47Z</time>
      </trkpt>
      <trkpt lat="49.60950900" lon="24.57309180">
        <ele>268.00000</ele>
        <time>2010-01-01T14:19:02Z</time>
      </trkpt>
      <trkpt lat="49.60969910" lon="24.57313890">
        <ele>268.00000</ele>
        <time>2010-01-01T14:19:10Z</time>
      </trkpt>
      <trkpt lat="49.60982610" lon="24.57314890">
        <ele>268.00000</ele>
        <time>2010-01-01T14:19:15Z</time>
      </trkpt>
      <trkpt lat="49.60995660" lon="24.57318420">
        <ele>268.00000</ele>
        <time>2010-01-01T14:19:20Z</time>
      </trkpt>
      <trkpt lat="49.61032230" lon="24.57322490">
        <ele>268.00000</ele>
        <time>2010-01-01T14:19:35Z</time>
      </trkpt>
      <trkpt lat="49.61108740" lon="24.57339740">
        <ele>271.00000</ele>
        <time>2010-01-01T14:20:06Z</time>
      </trkpt>
      <trkpt lat="49.61164370" lon="24.57350240">
        <ele>272.00000</ele>
        <time>2010-01-01T14:20:29Z</time>
      </trkpt>
      <trkpt lat="49.61183260" lon="24.57352350">
        <ele>273.00000</ele>
        <time>2010-01-01T14:20:36Z</time>
      </trkpt>
      <trkpt lat="49.61217950" lon="24.57353240">
        <ele>274.00000</ele>
        <time>2010-01-01T14:20:50Z</time>
      </trkpt>
      <trkpt lat="49.61255070" lon="24.57348860">
        <ele>273.00000</ele>
        <time>2010-01-01T14:21:05Z</time>
      </trkpt>
      <trkpt lat="49.61316690" lon="24.57336730">
        <ele>273.00000</ele>
        <time>2010-01-01T14:21:30Z</time>
      </trkpt>
      <trkpt lat="49.61352210" lon="24.57336170">
        <ele>274.00000</ele>
        <time>2010-01-01T14:21:44Z</time>
      </trkpt>
      <trkpt lat="49.61436520" lon="24.57340770">
        <ele>274.00000</ele>
        <time>2010-01-01T14:22:18Z</time>
      </trkpt>
      <trkpt lat="49.61482850" lon="24.57345470">
        <ele>274.00000</ele>
        <time>2010-01-01T14:22:36Z</time>
      </trkpt>
      <trkpt lat="49.61515450" lon="24.57346630">
        <ele>276.00000</ele>
        <time>2010-01-01T14:22:49Z</time>
      </trkpt>
      <trkpt lat="49.61564380" lon="24.57350980">
        <ele>278.00000</ele>
        <time>2010-01-01T14:23:09Z</time>
      </trkpt>
      <trkpt lat="49.61590590" lon="24.57350100">
        <ele>278.00000</ele>
        <time>2010-01-01T14:23:20Z</time>
      </trkpt>
      <trkpt lat="49.61595560" lon="24.57351670">
        <ele>278.00000</ele>
        <time>2010-01-01T14:23:22Z</time>
      </trkpt>
      <trkpt lat="49.61613510" lon="24.57351800">
        <ele>278.00000</ele>
        <time>2010-01-01T14:23:29Z</time>
      </trkpt>
      <trkpt lat="49.61635150" lon="24.57354470">
        <ele>278.00000</ele>
        <time>2010-01-01T14:23:37Z</time>
      </trkpt>
      <trkpt lat="49.61673780" lon="24.57355330">
        <ele>276.00000</ele>
        <time>2010-01-01T14:23:53Z</time>
      </trkpt>
      <trkpt lat="49.61700660" lon="24.57349270">
        <ele>275.00000</ele>
        <time>2010-01-01T14:24:04Z</time>
      </trkpt>
      <trkpt lat="49.61758960" lon="24.57330880">
        <ele>273.00000</ele>
        <time>2010-01-01T14:24:28Z</time>
      </trkpt>
      <trkpt lat="49.61790390" lon="24.57319380">
        <ele>269.00000</ele>
        <time>2010-01-01T14:24:40Z</time>
      </trkpt>
      <trkpt lat="49.61837440" lon="24.57297560">
        <ele>271.00000</ele>
        <time>2010-01-01T14:25:00Z</time>
      </trkpt>
      <trkpt lat="49.61845210" lon="24.57296240">
        <ele>271.00000</ele>
        <time>2010-01-01T14:25:03Z</time>
      </trkpt>
      <trkpt lat="49.61881660" lon="24.57282400">
        <ele>273.00000</ele>
        <time>2010-01-01T14:25:18Z</time>
      </trkpt>
      <trkpt lat="49.61904450" lon="24.57276710">
        <ele>275.00000</ele>
        <time>2010-01-01T14:25:28Z</time>
      </trkpt>
      <trkpt lat="49.61926420" lon="24.57267470">
        <ele>278.00000</ele>
        <time>2010-01-01T14:25:37Z</time>
      </trkpt>
      <trkpt lat="49.61969380" lon="24.57254990">
        <ele>281.00000</ele>
        <time>2010-01-01T14:25:54Z</time>
      </trkpt>
      <trkpt lat="49.61998710" lon="24.57243290">
        <ele>283.00000</ele>
        <time>2010-01-01T14:26:06Z</time>
      </trkpt>
      <trkpt lat="49.62033510" lon="24.57231640">
        <ele>285.00000</ele>
        <time>2010-01-01T14:26:21Z</time>
      </trkpt>
      <trkpt lat="49.62063900" lon="24.57219110">
        <ele>285.00000</ele>
        <time>2010-01-01T14:26:33Z</time>
      </trkpt>
      <trkpt lat="49.62221890" lon="24.57164730">
        <ele>283.00000</ele>
        <time>2010-01-01T14:27:38Z</time>
      </trkpt>
      <trkpt lat="49.62262470" lon="24.57148930">
        <ele>285.00000</ele>
        <time>2010-01-01T14:27:55Z</time>
      </trkpt>
      <trkpt lat="49.62282300" lon="24.57143270">
        <ele>287.00000</ele>
        <time>2010-01-01T14:28:03Z</time>
      </trkpt>
      <trkpt lat="49.62357880" lon="24.57115040">
        <ele>284.00000</ele>
        <time>2010-01-01T14:28:34Z</time>
      </trkpt>
      <trkpt lat="49.62437480" lon="24.57088040">
        <ele>285.00000</ele>
        <time>2010-01-01T14:29:07Z</time>
      </trkpt>
      <trkpt lat="49.62484290" lon="24.57070440">
        <ele>288.00000</ele>
        <time>2010-01-01T14:29:26Z</time>
      </trkpt>
      <trkpt lat="49.62511120" lon="24.57063940">
        <ele>290.00000</ele>
        <time>2010-01-01T14:29:37Z</time>
      </trkpt>
      <trkpt lat="49.62582050" lon="24.57040680">
        <ele>294.00000</ele>
        <time>2010-01-01T14:30:06Z</time>
      </trkpt>
      <trkpt lat="49.62637060" lon="24.57019770">
        <ele>294.00000</ele>
        <time>2010-01-01T14:30:28Z</time>
      </trkpt>
      <trkpt lat="49.62726180" lon="24.56989940">
        <ele>293.00000</ele>
        <time>2010-01-01T14:31:05Z</time>
      </trkpt>
      <trkpt lat="49.62885360" lon="24.56931110">
        <ele>293.00000</ele>
        <time>2010-01-01T14:32:10Z</time>
      </trkpt>
      <trkpt lat="49.62916750" lon="24.56921710">
        <ele>291.00000</ele>
        <time>2010-01-01T14:32:23Z</time>
      </trkpt>
      <trkpt lat="49.63023570" lon="24.56882650">
        <ele>288.00000</ele>
        <time>2010-01-01T14:33:07Z</time>
      </trkpt>
      <trkpt lat="49.63058340" lon="24.56874490">
        <ele>284.00000</ele>
        <time>2010-01-01T14:33:21Z</time>
      </trkpt>
      <trkpt lat="49.63139750" lon="24.56846600">
        <ele>281.00000</ele>
        <time>2010-01-01T14:33:55Z</time>
      </trkpt>
      <trkpt lat="49.63219200" lon="24.56818460">
        <ele>286.00000</ele>
        <time>2010-01-01T14:34:27Z</time>
      </trkpt>
      <trkpt lat="49.63244300" lon="24.56807900">
        <ele>288.00000</ele>
        <time>2010-01-01T14:34:38Z</time>
      </trkpt>
      <trkpt lat="49.63264710" lon="24.56802720">
        <ele>289.00000</ele>
        <time>2010-01-01T14:34:46Z</time>
      </trkpt>
      <trkpt lat="49.63371730" lon="24.56763120">
        <ele>285.00000</ele>
        <time>2010-01-01T14:35:30Z</time>
      </trkpt>
      <trkpt lat="49.63424730" lon="24.56746070">
        <ele>284.00000</ele>
        <time>2010-01-01T14:35:52Z</time>
      </trkpt>
      <trkpt lat="49.63545460" lon="24.56700780">
        <ele>276.00000</ele>
        <time>2010-01-01T14:36:41Z</time>
      </trkpt>
      <trkpt lat="49.63568370" lon="24.56694190">
        <ele>275.00000</ele>
        <time>2010-01-01T14:36:51Z</time>
      </trkpt>
      <trkpt lat="49.63613040" lon="24.56676790">
        <ele>272.00000</ele>
        <time>2010-01-01T14:37:09Z</time>
      </trkpt>
      <trkpt lat="49.63655770" lon="24.56663320">
        <ele>272.00000</ele>
        <time>2010-01-01T14:37:27Z</time>
      </trkpt>
      <trkpt lat="49.63670690" lon="24.56655550">
        <ele>271.00000</ele>
        <time>2010-01-01T14:37:33Z</time>
      </trkpt>
      <trkpt lat="49.63677280" lon="24.56649570">
        <ele>271.00000</ele>
        <time>2010-01-01T14:37:36Z</time>
      </trkpt>
      <trkpt lat="49.63683990" lon="24.56632570">
        <ele>271.00000</ele>
        <time>2010-01-01T14:37:41Z</time>
      </trkpt>
      <trkpt lat="49.63687680" lon="24.56609730">
        <ele>272.00000</ele>
        <time>2010-01-01T14:37:47Z</time>
      </trkpt>
      <trkpt lat="49.63684100" lon="24.56594120">
        <ele>272.00000</ele>
        <time>2010-01-01T14:37:52Z</time>
      </trkpt>
      <trkpt lat="49.63686550" lon="24.56547110">
        <ele>273.00000</ele>
        <time>2010-01-01T14:38:04Z</time>
      </trkpt>
      <trkpt lat="49.63711750" lon="24.56144580">
        <ele>283.00000</ele>
        <time>2010-01-01T14:39:49Z</time>
      </trkpt>
      <trkpt lat="49.63717300" lon="24.56027380">
        <ele>284.00000</ele>
        <time>2010-01-01T14:40:19Z</time>
      </trkpt>
      <trkpt lat="49.63732570" lon="24.55778440">
        <ele>286.00000</ele>
        <time>2010-01-01T14:41:24Z</time>
      </trkpt>
      <trkpt lat="49.63737380" lon="24.55725640">
        <ele>286.00000</ele>
        <time>2010-01-01T14:41:38Z</time>
      </trkpt>
      <trkpt lat="49.63747650" lon="24.55672670">
        <ele>286.00000</ele>
        <time>2010-01-01T14:41:52Z</time>
      </trkpt>
      <trkpt lat="49.63759850" lon="24.55631600">
        <ele>283.00000</ele>
        <time>2010-01-01T14:42:04Z</time>
      </trkpt>
      <trkpt lat="49.63812180" lon="24.55489490">
        <ele>278.00000</ele>
        <time>2010-01-01T14:42:46Z</time>
      </trkpt>
      <trkpt lat="49.63841480" lon="24.55416090">
        <ele>278.00000</ele>
        <time>2010-01-01T14:43:09Z</time>
      </trkpt>
      <trkpt lat="49.63883330" lon="24.55300500">
        <ele>275.00000</ele>
        <time>2010-01-01T14:43:43Z</time>
      </trkpt>
      <trkpt lat="49.63933560" lon="24.55168460">
        <ele>275.00000</ele>
        <time>2010-01-01T14:44:23Z</time>
      </trkpt>
      <trkpt lat="49.63959080" lon="24.55111260">
        <ele>275.00000</ele>
        <time>2010-01-01T14:44:41Z</time>
      </trkpt>
      <trkpt lat="49.63991820" lon="24.55066210">
        <ele>277.00000</ele>
        <time>2010-01-01T14:44:58Z</time>
      </trkpt>
      <trkpt lat="49.64027740" lon="24.55030880">
        <ele>274.00000</ele>
        <time>2010-01-01T14:45:15Z</time>
      </trkpt>
      <trkpt lat="49.64144150" lon="24.54933190">
        <ele>277.00000</ele>
        <time>2010-01-01T14:46:08Z</time>
      </trkpt>
      <trkpt lat="49.64216200" lon="24.54870010">
        <ele>275.00000</ele>
        <time>2010-01-01T14:46:41Z</time>
      </trkpt>
      <trkpt lat="49.64247830" lon="24.54836810">
        <ele>275.00000</ele>
        <time>2010-01-01T14:46:57Z</time>
      </trkpt>
      <trkpt lat="49.64279790" lon="24.54793830">
        <ele>276.00000</ele>
        <time>2010-01-01T14:47:14Z</time>
      </trkpt>
      <trkpt lat="49.64303510" lon="24.54752060">
        <ele>276.00000</ele>
        <time>2010-01-01T14:47:28Z</time>
      </trkpt>
      <trkpt lat="49.64323800" lon="24.54701560">
        <ele>276.00000</ele>
        <time>2010-01-01T14:47:43Z</time>
      </trkpt>
      <trkpt lat="49.64432200" lon="24.54354790">
        <ele>280.00000</ele>
        <time>2010-01-01T14:49:23Z</time>
      </trkpt>
      <trkpt lat="49.64457870" lon="24.54287520">
        <ele>283.00000</ele>
        <time>2010-01-01T14:49:43Z</time>
      </trkpt>
      <trkpt lat="49.64473680" lon="24.54250470">
        <ele>282.00000</ele>
        <time>2010-01-01T14:49:55Z</time>
      </trkpt>
      <trkpt lat="49.64490830" lon="24.54223600">
        <ele>283.00000</ele>
        <time>2010-01-01T14:50:05Z</time>
      </trkpt>
      <trkpt lat="49.64549930" lon="24.54157800">
        <ele>282.00000</ele>
        <time>2010-01-01T14:50:34Z</time>
      </trkpt>
      <trkpt lat="49.64558080" lon="24.54147030">
        <ele>282.00000</ele>
        <time>2010-01-01T14:50:38Z</time>
      </trkpt>
      <trkpt lat="49.64574080" lon="24.54121630">
        <ele>282.00000</ele>
        <time>2010-01-01T14:50:47Z</time>
      </trkpt>
      <trkpt lat="49.64620190" lon="24.54031690">
        <ele>281.00000</ele>
        <time>2010-01-01T14:51:17Z</time>
      </trkpt>
      <trkpt lat="49.64641430" lon="24.53980440">
        <ele>281.00000</ele>
        <time>2010-01-01T14:51:33Z</time>
      </trkpt>
      <trkpt lat="49.64670950" lon="24.53893990">
        <ele>280.00000</ele>
        <time>2010-01-01T14:51:58Z</time>
      </trkpt>
      <trkpt lat="49.64692930" lon="24.53822680">
        <ele>281.00000</ele>
        <time>2010-01-01T14:52:19Z</time>
      </trkpt>
      <trkpt lat="49.64704000" lon="24.53770310">
        <ele>281.00000</ele>
        <time>2010-01-01T14:52:33Z</time>
      </trkpt>
      <trkpt lat="49.64723130" lon="24.53628970">
        <ele>284.00000</ele>
        <time>2010-01-01T14:53:10Z</time>
      </trkpt>
      <trkpt lat="49.64729120" lon="24.53596850">
        <ele>286.00000</ele>
        <time>2010-01-01T14:53:19Z</time>
      </trkpt>
      <trkpt lat="49.64738980" lon="24.53556410">
        <ele>287.00000</ele>
        <time>2010-01-01T14:53:30Z</time>
      </trkpt>
      <trkpt lat="49.64783730" lon="24.53393100">
        <ele>289.00000</ele>
        <time>2010-01-01T14:54:16Z</time>
      </trkpt>
      <trkpt lat="49.64834710" lon="24.53220960">
        <ele>287.00000</ele>
        <time>2010-01-01T14:55:05Z</time>
      </trkpt>
      <trkpt lat="49.64854240" lon="24.53163340">
        <ele>289.00000</ele>
        <time>2010-01-01T14:55:22Z</time>
      </trkpt>
      <trkpt lat="49.64903530" lon="24.53038550">
        <ele>293.00000</ele>
        <time>2010-01-01T14:56:00Z</time>
      </trkpt>
      <trkpt lat="49.64920380" lon="24.52986970">
        <ele>294.00000</ele>
        <time>2010-01-01T14:56:15Z</time>
      </trkpt>
      <trkpt lat="49.64926320" lon="24.52959050">
        <ele>294.00000</ele>
        <time>2010-01-01T14:56:23Z</time>
      </trkpt>
      <trkpt lat="49.64929730" lon="24.52930840">
        <ele>295.00000</ele>
        <time>2010-01-01T14:56:30Z</time>
      </trkpt>
      <trkpt lat="49.64931730" lon="24.52861750">
        <ele>291.00000</ele>
        <time>2010-01-01T14:56:48Z</time>
      </trkpt>
      <trkpt lat="49.64922870" lon="24.52709420">
        <ele>287.00000</ele>
        <time>2010-01-01T14:57:28Z</time>
      </trkpt>
      <trkpt lat="49.64912990" lon="24.52445470">
        <ele>288.00000</ele>
        <time>2010-01-01T14:58:36Z</time>
      </trkpt>
      <trkpt lat="49.64905660" lon="24.52296910">
        <ele>287.00000</ele>
        <time>2010-01-01T14:59:15Z</time>
      </trkpt>
      <trkpt lat="49.64902170" lon="24.52088000">
        <ele>287.00000</ele>
        <time>2010-01-01T15:00:09Z</time>
      </trkpt>
      <trkpt lat="49.64907770" lon="24.51780120">
        <ele>290.00000</ele>
        <time>2010-01-01T15:01:29Z</time>
      </trkpt>
      <trkpt lat="49.64908530" lon="24.51532420">
        <ele>291.00000</ele>
        <time>2010-01-01T15:02:33Z</time>
      </trkpt>
      <trkpt lat="49.64918340" lon="24.51147110">
        <ele>291.00000</ele>
        <time>2010-01-01T15:04:13Z</time>
      </trkpt>
      <trkpt lat="49.64917720" lon="24.51055690">
        <ele>293.00000</ele>
        <time>2010-01-01T15:04:37Z</time>
      </trkpt>
      <trkpt lat="49.64915260" lon="24.50999920">
        <ele>293.00000</ele>
        <time>2010-01-01T15:04:51Z</time>
      </trkpt>
      <trkpt lat="49.64911470" lon="24.50953660">
        <ele>295.00000</ele>
        <time>2010-01-01T15:05:03Z</time>
      </trkpt>
      <trkpt lat="49.64886230" lon="24.50830310">
        <ele>293.00000</ele>
        <time>2010-01-01T15:05:37Z</time>
      </trkpt>
      <trkpt lat="49.64874880" lon="24.50758970">
        <ele>293.00000</ele>
        <time>2010-01-01T15:05:56Z</time>
      </trkpt>
      <trkpt lat="49.64869740" lon="24.50686000">
        <ele>291.00000</ele>
        <time>2010-01-01T15:06:15Z</time>
      </trkpt>
      <trkpt lat="49.64869890" lon="24.50620340">
        <ele>292.00000</ele>
        <time>2010-01-01T15:06:32Z</time>
      </trkpt>
      <trkpt lat="49.64874810" lon="24.50558030">
        <ele>291.00000</ele>
        <time>2010-01-01T15:06:48Z</time>
      </trkpt>
      <trkpt lat="49.64884440" lon="24.50506740">
        <ele>292.00000</ele>
        <time>2010-01-01T15:07:02Z</time>
      </trkpt>
      <trkpt lat="49.64890350" lon="24.50482480">
        <ele>292.00000</ele>
        <time>2010-01-01T15:07:09Z</time>
      </trkpt>
      <trkpt lat="49.64911860" lon="24.50421260">
        <ele>292.00000</ele>
        <time>2010-01-01T15:07:27Z</time>
      </trkpt>
      <trkpt lat="49.64930570" lon="24.50378680">
        <ele>292.00000</ele>
        <time>2010-01-01T15:07:40Z</time>
      </trkpt>
      <trkpt lat="49.64962530" lon="24.50320930">
        <ele>293.00000</ele>
        <time>2010-01-01T15:08:00Z</time>
      </trkpt>
      <trkpt lat="49.65067330" lon="24.50162990">
        <ele>294.00000</ele>
        <time>2010-01-01T15:08:58Z</time>
      </trkpt>
      <trkpt lat="49.65096220" lon="24.50116500">
        <ele>294.00000</ele>
        <time>2010-01-01T15:09:15Z</time>
      </trkpt>
      <trkpt lat="49.65121870" lon="24.50063340">
        <ele>294.00000</ele>
        <time>2010-01-01T15:09:32Z</time>
      </trkpt>
      <trkpt lat="49.65142570" lon="24.50001350">
        <ele>293.00000</ele>
        <time>2010-01-01T15:09:50Z</time>
      </trkpt>
      <trkpt lat="49.65162350" lon="24.49928580">
        <ele>293.00000</ele>
        <time>2010-01-01T15:10:11Z</time>
      </trkpt>
      <trkpt lat="49.65198110" lon="24.49781260">
        <ele>295.00000</ele>
        <time>2010-01-01T15:10:52Z</time>
      </trkpt>
      <trkpt lat="49.65204190" lon="24.49748720">
        <ele>295.00000</ele>
        <time>2010-01-01T15:11:00Z</time>
      </trkpt>
      <trkpt lat="49.65212050" lon="24.49669290">
        <ele>294.00000</ele>
        <time>2010-01-01T15:11:21Z</time>
      </trkpt>
      <trkpt lat="49.65212520" lon="24.49650500">
        <ele>294.00000</ele>
        <time>2010-01-01T15:11:26Z</time>
      </trkpt>
      <trkpt lat="49.65193980" lon="24.49238270">
        <ele>296.00000</ele>
        <time>2010-01-01T15:13:13Z</time>
      </trkpt>
      <trkpt lat="49.65196440" lon="24.49091880">
        <ele>298.00000</ele>
        <time>2010-01-01T15:13:51Z</time>
      </trkpt>
      <trkpt lat="49.65190980" lon="24.48969160">
        <ele>297.00000</ele>
        <time>2010-01-01T15:14:23Z</time>
      </trkpt>
      <trkpt lat="49.65186010" lon="24.48893100">
        <ele>297.00000</ele>
        <time>2010-01-01T15:14:43Z</time>
      </trkpt>
      <trkpt lat="49.65167320" lon="24.48688580">
        <ele>295.00000</ele>
        <time>2010-01-01T15:15:36Z</time>
      </trkpt>
      <trkpt lat="49.65160700" lon="24.48628950">
        <ele>296.00000</ele>
        <time>2010-01-01T15:15:52Z</time>
      </trkpt>
      <trkpt lat="49.65110510" lon="24.48057810">
        <ele>303.00000</ele>
        <time>2010-01-01T15:18:21Z</time>
      </trkpt>
      <trkpt lat="49.65106010" lon="24.47993340">
        <ele>303.00000</ele>
        <time>2010-01-01T15:18:38Z</time>
      </trkpt>
      <trkpt lat="49.65104290" lon="24.47915530">
        <ele>304.00000</ele>
        <time>2010-01-01T15:18:58Z</time>
      </trkpt>
      <trkpt lat="49.65105930" lon="24.47845130">
        <ele>304.00000</ele>
        <time>2010-01-01T15:19:17Z</time>
      </trkpt>
      <trkpt lat="49.65112850" lon="24.47774430">
        <ele>304.00000</ele>
        <time>2010-01-01T15:19:35Z</time>
      </trkpt>
      <trkpt lat="49.65120790" lon="24.47720920">
        <ele>304.00000</ele>
        <time>2010-01-01T15:19:49Z</time>
      </trkpt>
      <trkpt lat="49.65131970" lon="24.47662490">
        <ele>306.00000</ele>
        <time>2010-01-01T15:20:05Z</time>
      </trkpt>
      <trkpt lat="49.65366110" lon="24.46519740">
        <ele>314.00000</ele>
        <time>2010-01-01T15:25:16Z</time>
      </trkpt>
      <trkpt lat="49.65370670" lon="24.46475880">
        <ele>313.00000</ele>
        <time>2010-01-01T15:25:27Z</time>
      </trkpt>
      <trkpt lat="49.65370200" lon="24.46430870">
        <ele>313.00000</ele>
        <time>2010-01-01T15:25:39Z</time>
      </trkpt>
      <trkpt lat="49.65362250" lon="24.46371490">
        <ele>314.00000</ele>
        <time>2010-01-01T15:25:55Z</time>
      </trkpt>
      <trkpt lat="49.65343730" lon="24.46301230">
        <ele>315.00000</ele>
        <time>2010-01-01T15:26:14Z</time>
      </trkpt>
      <trkpt lat="49.65339030" lon="24.46289240">
        <ele>315.00000</ele>
        <time>2010-01-01T15:26:18Z</time>
      </trkpt>
      <trkpt lat="49.65306700" lon="24.46221210">
        <ele>318.00000</ele>
        <time>2010-01-01T15:26:40Z</time>
      </trkpt>
      <trkpt lat="49.65225490" lon="24.46059860">
        <ele>323.00000</ele>
        <time>2010-01-01T15:27:33Z</time>
      </trkpt>
      <trkpt lat="49.65202380" lon="24.46018310">
        <ele>323.00000</ele>
        <time>2010-01-01T15:27:47Z</time>
      </trkpt>
      <trkpt lat="49.65188200" lon="24.45987550">
        <ele>324.00000</ele>
        <time>2010-01-01T15:27:57Z</time>
      </trkpt>
      <trkpt lat="49.65155680" lon="24.45928980">
        <ele>328.00000</ele>
        <time>2010-01-01T15:28:17Z</time>
      </trkpt>
      <trkpt lat="49.65145680" lon="24.45906160">
        <ele>330.00000</ele>
        <time>2010-01-01T15:28:24Z</time>
      </trkpt>
      <trkpt lat="49.65117290" lon="24.45854100">
        <ele>335.00000</ele>
        <time>2010-01-01T15:28:42Z</time>
      </trkpt>
      <trkpt lat="49.65055340" lon="24.45733560">
        <ele>337.00000</ele>
        <time>2010-01-01T15:29:21Z</time>
      </trkpt>
      <trkpt lat="49.65015760" lon="24.45669070">
        <ele>339.00000</ele>
        <time>2010-01-01T15:29:44Z</time>
      </trkpt>
      <trkpt lat="49.64977110" lon="24.45621180">
        <ele>341.00000</ele>
        <time>2010-01-01T15:30:04Z</time>
      </trkpt>
      <trkpt lat="49.64945430" lon="24.45588060">
        <ele>341.00000</ele>
        <time>2010-01-01T15:30:20Z</time>
      </trkpt>
      <trkpt lat="49.64827240" lon="24.45470580">
        <ele>332.00000</ele>
        <time>2010-01-01T15:31:16Z</time>
      </trkpt>
      <trkpt lat="49.64796090" lon="24.45438170">
        <ele>330.00000</ele>
        <time>2010-01-01T15:31:31Z</time>
      </trkpt>
      <trkpt lat="49.64765910" lon="24.45401880">
        <ele>329.00000</ele>
        <time>2010-01-01T15:31:46Z</time>
      </trkpt>
      <trkpt lat="49.64752160" lon="24.45380300">
        <ele>329.00000</ele>
        <time>2010-01-01T15:31:54Z</time>
      </trkpt>
      <trkpt lat="49.64738050" lon="24.45343200">
        <ele>330.00000</ele>
        <time>2010-01-01T15:32:05Z</time>
      </trkpt>
      <trkpt lat="49.64731590" lon="24.45304330">
        <ele>329.00000</ele>
        <time>2010-01-01T15:32:16Z</time>
      </trkpt>
      <trkpt lat="49.64728520" lon="24.45230940">
        <ele>327.00000</ele>
        <time>2010-01-01T15:32:35Z</time>
      </trkpt>
      <trkpt lat="49.64727630" lon="24.45156620">
        <ele>329.00000</ele>
        <time>2010-01-01T15:32:54Z</time>
      </trkpt>
      <trkpt lat="49.64727820" lon="24.45045550">
        <ele>330.00000</ele>
        <time>2010-01-01T15:33:23Z</time>
      </trkpt>
      <trkpt lat="49.64725260" lon="24.44857480">
        <ele>335.00000</ele>
        <time>2010-01-01T15:34:11Z</time>
      </trkpt>
      <trkpt lat="49.64724370" lon="24.44362870">
        <ele>340.00000</ele>
        <time>2010-01-01T15:36:20Z</time>
      </trkpt>
      <trkpt lat="49.64722170" lon="24.44297800">
        <ele>343.00000</ele>
        <time>2010-01-01T15:36:37Z</time>
      </trkpt>
      <trkpt lat="49.64723380" lon="24.44269970">
        <ele>344.00000</ele>
        <time>2010-01-01T15:36:44Z</time>
      </trkpt>
      <trkpt lat="49.64722570" lon="24.44261300">
        <ele>345.00000</ele>
        <time>2010-01-01T15:36:46Z</time>
      </trkpt>
      <trkpt lat="49.64726440" lon="24.44228490">
        <ele>346.00000</ele>
        <time>2010-01-01T15:36:55Z</time>
      </trkpt>
      <trkpt lat="49.64736370" lon="24.44181030">
        <ele>349.00000</ele>
        <time>2010-01-01T15:37:08Z</time>
      </trkpt>
      <trkpt lat="49.64758580" lon="24.44102580">
        <ele>350.00000</ele>
        <time>2010-01-01T15:37:30Z</time>
      </trkpt>
      <trkpt lat="49.64785110" lon="24.44029100">
        <ele>350.00000</ele>
        <time>2010-01-01T15:37:52Z</time>
      </trkpt>
      <trkpt lat="49.64837980" lon="24.43873760">
        <ele>349.00000</ele>
        <time>2010-01-01T15:38:37Z</time>
      </trkpt>
      <trkpt lat="49.64911100" lon="24.43679040">
        <ele>350.00000</ele>
        <time>2010-01-01T15:39:35Z</time>
      </trkpt>
      <trkpt lat="49.65015570" lon="24.43451340">
        <ele>342.00000</ele>
        <time>2010-01-01T15:40:48Z</time>
      </trkpt>
      <trkpt lat="49.65043030" lon="24.43380510">
        <ele>338.00000</ele>
        <time>2010-01-01T15:41:09Z</time>
      </trkpt>
      <trkpt lat="49.65049430" lon="24.43355700">
        <ele>335.00000</ele>
        <time>2010-01-01T15:41:16Z</time>
      </trkpt>
      <trkpt lat="49.65059100" lon="24.43298510">
        <ele>330.00000</ele>
        <time>2010-01-01T15:41:31Z</time>
      </trkpt>
      <trkpt lat="49.65061440" lon="24.43267970">
        <ele>327.00000</ele>
        <time>2010-01-01T15:41:39Z</time>
      </trkpt>
      <trkpt lat="49.65063540" lon="24.43200980">
        <ele>320.00000</ele>
        <time>2010-01-01T15:41:57Z</time>
      </trkpt>
      <trkpt lat="49.65059500" lon="24.43056980">
        <ele>313.00000</ele>
        <time>2010-01-01T15:42:34Z</time>
      </trkpt>
      <trkpt lat="49.65055280" lon="24.42984930">
        <ele>312.00000</ele>
        <time>2010-01-01T15:42:53Z</time>
      </trkpt>
      <trkpt lat="49.65045090" lon="24.42717800">
        <ele>316.00000</ele>
        <time>2010-01-01T15:44:02Z</time>
      </trkpt>
      <trkpt lat="49.65039440" lon="24.42614320">
        <ele>318.00000</ele>
        <time>2010-01-01T15:44:29Z</time>
      </trkpt>
      <trkpt lat="49.65012880" lon="24.42343470">
        <ele>320.00000</ele>
        <time>2010-01-01T15:45:40Z</time>
      </trkpt>
      <trkpt lat="49.65001810" lon="24.42247100">
        <ele>325.00000</ele>
        <time>2010-01-01T15:46:06Z</time>
      </trkpt>
      <trkpt lat="49.64986250" lon="24.42072420">
        <ele>334.00000</ele>
        <time>2010-01-01T15:46:51Z</time>
      </trkpt>
      <trkpt lat="49.64967920" lon="24.41907290">
        <ele>348.00000</ele>
        <time>2010-01-01T15:47:35Z</time>
      </trkpt>
      <trkpt lat="49.64965390" lon="24.41868330">
        <ele>352.00000</ele>
        <time>2010-01-01T15:47:45Z</time>
      </trkpt>
      <trkpt lat="49.64959420" lon="24.41820660">
        <ele>357.00000</ele>
        <time>2010-01-01T15:47:57Z</time>
      </trkpt>
      <trkpt lat="49.64951140" lon="24.41733040">
        <ele>363.00000</ele>
        <time>2010-01-01T15:48:20Z</time>
      </trkpt>
      <trkpt lat="49.64936690" lon="24.41644140">
        <ele>368.00000</ele>
        <time>2010-01-01T15:48:44Z</time>
      </trkpt>
      <trkpt lat="49.64925860" lon="24.41588850">
        <ele>371.00000</ele>
        <time>2010-01-01T15:48:59Z</time>
      </trkpt>
      <trkpt lat="49.64921120" lon="24.41553370">
        <ele>370.00000</ele>
        <time>2010-01-01T15:49:08Z</time>
      </trkpt>
      <trkpt lat="49.64902180" lon="24.41453470">
        <ele>371.00000</ele>
        <time>2010-01-01T15:49:35Z</time>
      </trkpt>
      <trkpt lat="49.64880760" lon="24.41320850">
        <ele>359.00000</ele>
        <time>2010-01-01T15:50:11Z</time>
      </trkpt>
      <trkpt lat="49.64872580" lon="24.41280750">
        <ele>355.00000</ele>
        <time>2010-01-01T15:50:22Z</time>
      </trkpt>
      <trkpt lat="49.64857630" lon="24.41171020">
        <ele>345.00000</ele>
        <time>2010-01-01T15:50:51Z</time>
      </trkpt>
      <trkpt lat="49.64842850" lon="24.41082480">
        <ele>338.00000</ele>
        <time>2010-01-01T15:51:15Z</time>
      </trkpt>
      <trkpt lat="49.64818050" lon="24.40917580">
        <ele>332.00000</ele>
        <time>2010-01-01T15:51:58Z</time>
      </trkpt>
      <trkpt lat="49.64798420" lon="24.40801470">
        <ele>333.00000</ele>
        <time>2010-01-01T15:52:29Z</time>
      </trkpt>
      <trkpt lat="49.64742840" lon="24.40418070">
        <ele>335.00000</ele>
        <time>2010-01-01T15:54:11Z</time>
      </trkpt>
      <trkpt lat="49.64739650" lon="24.40388370">
        <ele>336.00000</ele>
        <time>2010-01-01T15:54:19Z</time>
      </trkpt>
      <trkpt lat="49.64722640" lon="24.40273900">
        <ele>337.00000</ele>
        <time>2010-01-01T15:54:50Z</time>
      </trkpt>
      <trkpt lat="49.64675930" lon="24.39934220">
        <ele>342.00000</ele>
        <time>2010-01-01T15:56:20Z</time>
      </trkpt>
      <trkpt lat="49.64672540" lon="24.39917000">
        <ele>342.00000</ele>
        <time>2010-01-01T15:56:24Z</time>
      </trkpt>
      <trkpt lat="49.64592900" lon="24.39587490">
        <ele>344.00000</ele>
        <time>2010-01-01T15:57:55Z</time>
      </trkpt>
      <trkpt lat="49.64551320" lon="24.39434380">
        <ele>344.00000</ele>
        <time>2010-01-01T15:58:38Z</time>
      </trkpt>
      <trkpt lat="49.64530080" lon="24.39371480">
        <ele>346.00000</ele>
        <time>2010-01-01T15:58:57Z</time>
      </trkpt>
      <trkpt lat="49.64501630" lon="24.39295160">
        <ele>349.00000</ele>
        <time>2010-01-01T15:59:20Z</time>
      </trkpt>
      <trkpt lat="49.64441090" lon="24.39164010">
        <ele>358.00000</ele>
        <time>2010-01-01T16:00:01Z</time>
      </trkpt>
      <trkpt lat="49.64405060" lon="24.39092580">
        <ele>362.00000</ele>
        <time>2010-01-01T16:00:25Z</time>
      </trkpt>
      <trkpt lat="49.64369800" lon="24.39014430">
        <ele>370.00000</ele>
        <time>2010-01-01T16:00:50Z</time>
      </trkpt>
      <trkpt lat="49.64292930" lon="24.38865890">
        <ele>377.00000</ele>
        <time>2010-01-01T16:01:39Z</time>
      </trkpt>
      <trkpt lat="49.64259460" lon="24.38790930">
        <ele>378.00000</ele>
        <time>2010-01-01T16:02:02Z</time>
      </trkpt>
      <trkpt lat="49.64247190" lon="24.38767890">
        <ele>378.00000</ele>
        <time>2010-01-01T16:02:10Z</time>
      </trkpt>
      <trkpt lat="49.64236910" lon="24.38744380">
        <ele>378.00000</ele>
        <time>2010-01-01T16:02:18Z</time>
      </trkpt>
      <trkpt lat="49.64221690" lon="24.38716310">
        <ele>377.00000</ele>
        <time>2010-01-01T16:02:27Z</time>
      </trkpt>
      <trkpt lat="49.64185620" lon="24.38639030">
        <ele>380.00000</ele>
        <time>2010-01-01T16:02:52Z</time>
      </trkpt>
      <trkpt lat="49.64152110" lon="24.38579900">
        <ele>382.00000</ele>
        <time>2010-01-01T16:03:12Z</time>
      </trkpt>
      <trkpt lat="49.64129110" lon="24.38548050">
        <ele>381.00000</ele>
        <time>2010-01-01T16:03:24Z</time>
      </trkpt>
      <trkpt lat="49.64080280" lon="24.38494690">
        <ele>383.00000</ele>
        <time>2010-01-01T16:03:48Z</time>
      </trkpt>
      <trkpt lat="49.64024600" lon="24.38428740">
        <ele>391.00000</ele>
        <time>2010-01-01T16:04:16Z</time>
      </trkpt>
      <trkpt lat="49.64016480" lon="24.38421290">
        <ele>392.00000</ele>
        <time>2010-01-01T16:04:20Z</time>
      </trkpt>
      <trkpt lat="49.63975360" lon="24.38374030">
        <ele>397.00000</ele>
        <time>2010-01-01T16:04:41Z</time>
      </trkpt>
      <trkpt lat="49.63890150" lon="24.38281150">
        <ele>400.00000</ele>
        <time>2010-01-01T16:05:23Z</time>
      </trkpt>
      <trkpt lat="49.63783950" lon="24.38160200">
        <ele>395.00000</ele>
        <time>2010-01-01T16:06:15Z</time>
      </trkpt>
      <trkpt lat="49.63772370" lon="24.38145450">
        <ele>395.00000</ele>
        <time>2010-01-01T16:06:21Z</time>
      </trkpt>
      <trkpt lat="49.63745480" lon="24.38108710">
        <ele>393.00000</ele>
        <time>2010-01-01T16:06:36Z</time>
      </trkpt>
      <trkpt lat="49.63717120" lon="24.38063500">
        <ele>390.00000</ele>
        <time>2010-01-01T16:06:52Z</time>
      </trkpt>
      <trkpt lat="49.63690840" lon="24.38013070">
        <ele>388.00000</ele>
        <time>2010-01-01T16:07:09Z</time>
      </trkpt>
      <trkpt lat="49.63671920" lon="24.37972220">
        <ele>385.00000</ele>
        <time>2010-01-01T16:07:22Z</time>
      </trkpt>
      <trkpt lat="49.63647350" lon="24.37910050">
        <ele>383.00000</ele>
        <time>2010-01-01T16:07:41Z</time>
      </trkpt>
      <trkpt lat="49.63630200" lon="24.37861700">
        <ele>382.00000</ele>
        <time>2010-01-01T16:07:55Z</time>
      </trkpt>
      <trkpt lat="49.63488210" lon="24.37383650">
        <ele>370.00000</ele>
        <time>2010-01-01T16:10:11Z</time>
      </trkpt>
      <trkpt lat="49.63454720" lon="24.37280350">
        <ele>368.00000</ele>
        <time>2010-01-01T16:10:41Z</time>
      </trkpt>
      <trkpt lat="49.63438260" lon="24.37216650">
        <ele>369.00000</ele>
        <time>2010-01-01T16:10:59Z</time>
      </trkpt>
      <trkpt lat="49.63378450" lon="24.37021480">
        <ele>378.00000</ele>
        <time>2010-01-01T16:11:55Z</time>
      </trkpt>
      <trkpt lat="49.63358810" lon="24.36961760">
        <ele>377.00000</ele>
        <time>2010-01-01T16:12:12Z</time>
      </trkpt>
      <trkpt lat="49.63332130" lon="24.36869610">
        <ele>374.00000</ele>
        <time>2010-01-01T16:12:39Z</time>
      </trkpt>
      <trkpt lat="49.63323800" lon="24.36818550">
        <ele>371.00000</ele>
        <time>2010-01-01T16:12:52Z</time>
      </trkpt>
      <trkpt lat="49.63322710" lon="24.36804530">
        <ele>371.00000</ele>
        <time>2010-01-01T16:12:56Z</time>
      </trkpt>
      <trkpt lat="49.63323440" lon="24.36740410">
        <ele>367.00000</ele>
        <time>2010-01-01T16:13:13Z</time>
      </trkpt>
      <trkpt lat="49.63328670" lon="24.36690930">
        <ele>365.00000</ele>
        <time>2010-01-01T16:13:26Z</time>
      </trkpt>
      <trkpt lat="49.63374670" lon="24.36481280">
        <ele>359.00000</ele>
        <time>2010-01-01T16:14:23Z</time>
      </trkpt>
      <trkpt lat="49.63467190" lon="24.36130240">
        <ele>339.00000</ele>
        <time>2010-01-01T16:16:01Z</time>
      </trkpt>
      <trkpt lat="49.63484810" lon="24.36076180">
        <ele>336.00000</ele>
        <time>2010-01-01T16:16:17Z</time>
      </trkpt>
      <trkpt lat="49.63525650" lon="24.35975840">
        <ele>329.00000</ele>
        <time>2010-01-01T16:16:48Z</time>
      </trkpt>
      <trkpt lat="49.63536640" lon="24.35940690">
        <ele>327.00000</ele>
        <time>2010-01-01T16:16:58Z</time>
      </trkpt>
      <trkpt lat="49.63539990" lon="24.35922110">
        <ele>326.00000</ele>
        <time>2010-01-01T16:17:03Z</time>
      </trkpt>
      <trkpt lat="49.63542130" lon="24.35882360">
        <ele>324.00000</ele>
        <time>2010-01-01T16:17:13Z</time>
      </trkpt>
      <trkpt lat="49.63541500" lon="24.35818970">
        <ele>318.00000</ele>
        <time>2010-01-01T16:17:30Z</time>
      </trkpt>
      <trkpt lat="49.63524090" lon="24.35438560">
        <ele>305.00000</ele>
        <time>2010-01-01T16:19:08Z</time>
      </trkpt>
      <trkpt lat="49.63524480" lon="24.35392650">
        <ele>305.00000</ele>
        <time>2010-01-01T16:19:20Z</time>
      </trkpt>
      <trkpt lat="49.63535590" lon="24.35326280">
        <ele>304.00000</ele>
        <time>2010-01-01T16:19:38Z</time>
      </trkpt>
      <trkpt lat="49.63567220" lon="24.35187540">
        <ele>307.00000</ele>
        <time>2010-01-01T16:20:16Z</time>
      </trkpt>
      <trkpt lat="49.63578340" lon="24.35122960">
        <ele>305.00000</ele>
        <time>2010-01-01T16:20:34Z</time>
      </trkpt>
      <trkpt lat="49.63579650" lon="24.35095820">
        <ele>304.00000</ele>
        <time>2010-01-01T16:20:41Z</time>
      </trkpt>
      <trkpt lat="49.63578180" lon="24.34918830">
        <ele>301.00000</ele>
        <time>2010-01-01T16:21:26Z</time>
      </trkpt>
      <trkpt lat="49.63589090" lon="24.34726670">
        <ele>301.00000</ele>
        <time>2010-01-01T16:22:16Z</time>
      </trkpt>
      <trkpt lat="49.63636040" lon="24.34076740">
        <ele>306.00000</ele>
        <time>2010-01-01T16:25:06Z</time>
      </trkpt>
      <trkpt lat="49.63654340" lon="24.33846640">
        <ele>311.00000</ele>
        <time>2010-01-01T16:26:06Z</time>
      </trkpt>
      <trkpt lat="49.63656160" lon="24.33799250">
        <ele>313.00000</ele>
        <time>2010-01-01T16:26:18Z</time>
      </trkpt>
      <trkpt lat="49.63664850" lon="24.33681900">
        <ele>314.00000</ele>
        <time>2010-01-01T16:26:49Z</time>
      </trkpt>
      <trkpt lat="49.63678930" lon="24.33543610">
        <ele>315.00000</ele>
        <time>2010-01-01T16:27:25Z</time>
      </trkpt>
      <trkpt lat="49.63705970" lon="24.33355480">
        <ele>316.00000</ele>
        <time>2010-01-01T16:28:15Z</time>
      </trkpt>
      <trkpt lat="49.63728560" lon="24.33213500">
        <ele>312.00000</ele>
        <time>2010-01-01T16:28:53Z</time>
      </trkpt>
      <trkpt lat="49.63766590" lon="24.33065960">
        <ele>307.00000</ele>
        <time>2010-01-01T16:29:34Z</time>
      </trkpt>
      <trkpt lat="49.63795680" lon="24.32928680">
        <ele>303.00000</ele>
        <time>2010-01-01T16:30:12Z</time>
      </trkpt>
      <trkpt lat="49.63826220" lon="24.32794660">
        <ele>300.00000</ele>
        <time>2010-01-01T16:30:49Z</time>
      </trkpt>
      <trkpt lat="49.63848550" lon="24.32659910">
        <ele>298.00000</ele>
        <time>2010-01-01T16:31:25Z</time>
      </trkpt>
      <trkpt lat="49.63863390" lon="24.32606720">
        <ele>299.00000</ele>
        <time>2010-01-01T16:31:40Z</time>
      </trkpt>
      <trkpt lat="49.63879320" lon="24.32569880">
        <ele>299.00000</ele>
        <time>2010-01-01T16:31:51Z</time>
      </trkpt>
      <trkpt lat="49.63901100" lon="24.32532760">
        <ele>301.00000</ele>
        <time>2010-01-01T16:32:04Z</time>
      </trkpt>
      <trkpt lat="49.63946220" lon="24.32467020">
        <ele>304.00000</ele>
        <time>2010-01-01T16:32:29Z</time>
      </trkpt>
      <trkpt lat="49.63976950" lon="24.32428830">
        <ele>306.00000</ele>
        <time>2010-01-01T16:32:45Z</time>
      </trkpt>
      <trkpt lat="49.63985720" lon="24.32414590">
        <ele>307.00000</ele>
        <time>2010-01-01T16:32:50Z</time>
      </trkpt>
      <trkpt lat="49.63998960" lon="24.32401950">
        <ele>308.00000</ele>
        <time>2010-01-01T16:32:56Z</time>
      </trkpt>
      <trkpt lat="49.64022390" lon="24.32366740">
        <ele>309.00000</ele>
        <time>2010-01-01T16:33:09Z</time>
      </trkpt>
      <trkpt lat="49.64052850" lon="24.32308300">
        <ele>307.00000</ele>
        <time>2010-01-01T16:33:29Z</time>
      </trkpt>
      <trkpt lat="49.64059120" lon="24.32290720">
        <ele>305.00000</ele>
        <time>2010-01-01T16:33:34Z</time>
      </trkpt>
      <trkpt lat="49.64074230" lon="24.32235660">
        <ele>303.00000</ele>
        <time>2010-01-01T16:33:49Z</time>
      </trkpt>
      <trkpt lat="49.64122190" lon="24.32029530">
        <ele>311.00000</ele>
        <time>2010-01-01T16:34:46Z</time>
      </trkpt>
      <trkpt lat="49.64138710" lon="24.31972090">
        <ele>310.00000</ele>
        <time>2010-01-01T16:35:02Z</time>
      </trkpt>
      <trkpt lat="49.64152280" lon="24.31929100">
        <ele>310.00000</ele>
        <time>2010-01-01T16:35:15Z</time>
      </trkpt>
      <trkpt lat="49.64165000" lon="24.31909330">
        <ele>311.00000</ele>
        <time>2010-01-01T16:35:22Z</time>
      </trkpt>
      <trkpt lat="49.64182330" lon="24.31874820">
        <ele>311.00000</ele>
        <time>2010-01-01T16:35:33Z</time>
      </trkpt>
      <trkpt lat="49.64216010" lon="24.31819450">
        <ele>310.00000</ele>
        <time>2010-01-01T16:35:53Z</time>
      </trkpt>
      <trkpt lat="49.64229640" lon="24.31794540">
        <ele>310.00000</ele>
        <time>2010-01-01T16:36:02Z</time>
      </trkpt>
      <trkpt lat="49.64234730" lon="24.31781200">
        <ele>310.00000</ele>
        <time>2010-01-01T16:36:06Z</time>
      </trkpt>
      <trkpt lat="49.64260780" lon="24.31658290">
        <ele>310.00000</ele>
        <time>2010-01-01T16:36:39Z</time>
      </trkpt>
      <trkpt lat="49.64272480" lon="24.31619200">
        <ele>309.00000</ele>
        <time>2010-01-01T16:36:50Z</time>
      </trkpt>
      <trkpt lat="49.64295430" lon="24.31557610">
        <ele>306.00000</ele>
        <time>2010-01-01T16:37:09Z</time>
      </trkpt>
      <trkpt lat="49.64301440" lon="24.31536350">
        <ele>306.00000</ele>
        <time>2010-01-01T16:37:15Z</time>
      </trkpt>
      <trkpt lat="49.64306980" lon="24.31491610">
        <ele>305.00000</ele>
        <time>2010-01-01T16:37:26Z</time>
      </trkpt>
      <trkpt lat="49.64307550" lon="24.31421890">
        <ele>306.00000</ele>
        <time>2010-01-01T16:37:45Z</time>
      </trkpt>
      <trkpt lat="49.64306250" lon="24.31357250">
        <ele>304.00000</ele>
        <time>2010-01-01T16:38:01Z</time>
      </trkpt>
      <trkpt lat="49.64308310" lon="24.31271610">
        <ele>300.00000</ele>
        <time>2010-01-01T16:38:24Z</time>
      </trkpt>
      <trkpt lat="49.64306610" lon="24.31210570">
        <ele>298.00000</ele>
        <time>2010-01-01T16:38:39Z</time>
      </trkpt>
      <trkpt lat="49.64302140" lon="24.31183010">
        <ele>296.00000</ele>
        <time>2010-01-01T16:38:47Z</time>
      </trkpt>
      <trkpt lat="49.64299840" lon="24.31175810">
        <ele>296.00000</ele>
        <time>2010-01-01T16:38:49Z</time>
      </trkpt>
      <trkpt lat="49.64289810" lon="24.31157780">
        <ele>295.00000</ele>
        <time>2010-01-01T16:38:55Z</time>
      </trkpt>
      <trkpt lat="49.64272640" lon="24.31150240">
        <ele>294.00000</ele>
        <time>2010-01-01T16:39:02Z</time>
      </trkpt>
      <trkpt lat="49.64200670" lon="24.31137710">
        <ele>290.00000</ele>
        <time>2010-01-01T16:39:31Z</time>
      </trkpt>
      <trkpt lat="49.64054590" lon="24.31101810">
        <ele>290.00000</ele>
        <time>2010-01-01T16:40:30Z</time>
      </trkpt>
      <trkpt lat="49.63966020" lon="24.31084140">
        <ele>298.00000</ele>
        <time>2010-01-01T16:41:06Z</time>
      </trkpt>
      <trkpt lat="49.63952750" lon="24.31080520">
        <ele>300.00000</ele>
        <time>2010-01-01T16:41:11Z</time>
      </trkpt>
      <trkpt lat="49.63937240" lon="24.31073450">
        <ele>301.00000</ele>
        <time>2010-01-01T16:41:18Z</time>
      </trkpt>
      <trkpt lat="49.63920850" lon="24.31070620">
        <ele>302.00000</ele>
        <time>2010-01-01T16:41:25Z</time>
      </trkpt>
      <trkpt lat="49.63877130" lon="24.31056520">
        <ele>303.00000</ele>
        <time>2010-01-01T16:41:42Z</time>
      </trkpt>
      <trkpt lat="49.63829200" lon="24.31033630">
        <ele>304.00000</ele>
        <time>2010-01-01T16:42:03Z</time>
      </trkpt>
      <trkpt lat="49.63794190" lon="24.31007580">
        <ele>305.00000</ele>
        <time>2010-01-01T16:42:18Z</time>
      </trkpt>
      <trkpt lat="49.63781210" lon="24.30986260">
        <ele>306.00000</ele>
        <time>2010-01-01T16:42:26Z</time>
      </trkpt>
      <trkpt lat="49.63781480" lon="24.30963580">
        <ele>308.00000</ele>
        <time>2010-01-01T16:42:32Z</time>
      </trkpt>
      <trkpt lat="49.63792050" lon="24.30914220">
        <ele>307.00000</ele>
        <time>2010-01-01T16:42:45Z</time>
      </trkpt>
      <trkpt lat="49.63800940" lon="24.30863450">
        <ele>306.00000</ele>
        <time>2010-01-01T16:42:59Z</time>
      </trkpt>
      <trkpt lat="49.63803380" lon="24.30835640">
        <ele>305.00000</ele>
        <time>2010-01-01T16:43:06Z</time>
      </trkpt>
      <trkpt lat="49.63798220" lon="24.30743410">
        <ele>304.00000</ele>
        <time>2010-01-01T16:43:30Z</time>
      </trkpt>
      <trkpt lat="49.63783180" lon="24.30565350">
        <ele>304.00000</ele>
        <time>2010-01-01T16:44:16Z</time>
      </trkpt>
      <trkpt lat="49.63781650" lon="24.30502320">
        <ele>305.00000</ele>
        <time>2010-01-01T16:44:33Z</time>
      </trkpt>
      <trkpt lat="49.63783340" lon="24.30435930">
        <ele>303.00000</ele>
        <time>2010-01-01T16:44:50Z</time>
      </trkpt>
      <trkpt lat="49.63780000" lon="24.30377660">
        <ele>301.00000</ele>
        <time>2010-01-01T16:45:05Z</time>
      </trkpt>
      <trkpt lat="49.63775140" lon="24.30334830">
        <ele>300.00000</ele>
        <time>2010-01-01T16:45:16Z</time>
      </trkpt>
      <trkpt lat="49.63769480" lon="24.30304880">
        <ele>298.00000</ele>
        <time>2010-01-01T16:45:25Z</time>
      </trkpt>
      <trkpt lat="49.63744080" lon="24.30224390">
        <ele>290.00000</ele>
        <time>2010-01-01T16:45:48Z</time>
      </trkpt>
      <trkpt lat="49.63714710" lon="24.30105970">
        <ele>287.00000</ele>
        <time>2010-01-01T16:46:21Z</time>
      </trkpt>
      <trkpt lat="49.63698810" lon="24.30014510">
        <ele>289.00000</ele>
        <time>2010-01-01T16:46:45Z</time>
      </trkpt>
      <trkpt lat="49.63698680" lon="24.30002180">
        <ele>289.00000</ele>
        <time>2010-01-01T16:46:48Z</time>
      </trkpt>
      <trkpt lat="49.63703350" lon="24.29979260">
        <ele>289.00000</ele>
        <time>2010-01-01T16:46:55Z</time>
      </trkpt>
      <trkpt lat="49.63729360" lon="24.29916230">
        <ele>291.00000</ele>
        <time>2010-01-01T16:47:14Z</time>
      </trkpt>
      <trkpt lat="49.63743650" lon="24.29886130">
        <ele>292.00000</ele>
        <time>2010-01-01T16:47:24Z</time>
      </trkpt>
      <trkpt lat="49.63758800" lon="24.29839420">
        <ele>294.00000</ele>
        <time>2010-01-01T16:47:37Z</time>
      </trkpt>
      <trkpt lat="49.63768280" lon="24.29818420">
        <ele>295.00000</ele>
        <time>2010-01-01T16:47:44Z</time>
      </trkpt>
      <trkpt lat="49.63782960" lon="24.29765580">
        <ele>297.00000</ele>
        <time>2010-01-01T16:47:59Z</time>
      </trkpt>
      <trkpt lat="49.63802100" lon="24.29718050">
        <ele>299.00000</ele>
        <time>2010-01-01T16:48:13Z</time>
      </trkpt>
      <trkpt lat="49.63840840" lon="24.29645870">
        <ele>299.00000</ele>
        <time>2010-01-01T16:48:38Z</time>
      </trkpt>
      <trkpt lat="49.63868370" lon="24.29558720">
        <ele>300.00000</ele>
        <time>2010-01-01T16:49:03Z</time>
      </trkpt>
      <trkpt lat="49.63914600" lon="24.29390960">
        <ele>299.00000</ele>
        <time>2010-01-01T16:49:50Z</time>
      </trkpt>
      <trkpt lat="49.63927070" lon="24.29380640">
        <ele>298.00000</ele>
        <time>2010-01-01T16:49:56Z</time>
      </trkpt>
      <trkpt lat="49.64019440" lon="24.29408680">
        <ele>291.00000</ele>
        <time>2010-01-01T16:50:33Z</time>
      </trkpt>
      <trkpt lat="49.64049930" lon="24.29415170">
        <ele>291.00000</ele>
        <time>2010-01-01T16:50:46Z</time>
      </trkpt>
      <trkpt lat="49.64077830" lon="24.29413830">
        <ele>291.00000</ele>
        <time>2010-01-01T16:50:57Z</time>
      </trkpt>
      <trkpt lat="49.64125960" lon="24.29400110">
        <ele>293.00000</ele>
        <time>2010-01-01T16:51:16Z</time>
      </trkpt>
      <trkpt lat="49.64140510" lon="24.29393070">
        <ele>294.00000</ele>
        <time>2010-01-01T16:51:23Z</time>
      </trkpt>
      <trkpt lat="49.64157280" lon="24.29378410">
        <ele>295.00000</ele>
        <time>2010-01-01T16:51:30Z</time>
      </trkpt>
      <trkpt lat="49.64171730" lon="24.29362470">
        <ele>296.00000</ele>
        <time>2010-01-01T16:51:37Z</time>
      </trkpt>
      <trkpt lat="49.64191620" lon="24.29333680">
        <ele>298.00000</ele>
        <time>2010-01-01T16:51:48Z</time>
      </trkpt>
      <trkpt lat="49.64214820" lon="24.29291520">
        <ele>300.00000</ele>
        <time>2010-01-01T16:52:03Z</time>
      </trkpt>
      <trkpt lat="49.64241510" lon="24.29252210">
        <ele>302.00000</ele>
        <time>2010-01-01T16:52:17Z</time>
      </trkpt>
      <trkpt lat="49.64258500" lon="24.29238070">
        <ele>304.00000</ele>
        <time>2010-01-01T16:52:25Z</time>
      </trkpt>
      <trkpt lat="49.64271450" lon="24.29229720">
        <ele>305.00000</ele>
        <time>2010-01-01T16:52:31Z</time>
      </trkpt>
      <trkpt lat="49.64283800" lon="24.29228530">
        <ele>307.00000</ele>
        <time>2010-01-01T16:52:36Z</time>
      </trkpt>
      <trkpt lat="49.64295140" lon="24.29229510">
        <ele>309.00000</ele>
        <time>2010-01-01T16:52:40Z</time>
      </trkpt>
      <trkpt lat="49.64303310" lon="24.29227750">
        <ele>310.00000</ele>
        <time>2010-01-01T16:52:44Z</time>
      </trkpt>
      <trkpt lat="49.64322580" lon="24.29227020">
        <ele>310.00000</ele>
        <time>2010-01-01T16:52:51Z</time>
      </trkpt>
      <trkpt lat="49.64334700" lon="24.29222240">
        <ele>310.00000</ele>
        <time>2010-01-01T16:52:56Z</time>
      </trkpt>
      <trkpt lat="49.64337450" lon="24.29219660">
        <ele>310.00000</ele>
        <time>2010-01-01T16:52:58Z</time>
      </trkpt>
      <trkpt lat="49.64336550" lon="24.29219210">
        <ele>310.00000</ele>
        <time>2010-01-01T16:52:58Z</time>
      </trkpt>
      <trkpt lat="49.64340480" lon="24.29206570">
        <ele>309.00000</ele>
        <time>2010-01-01T16:53:02Z</time>
      </trkpt>
      <trkpt lat="49.64343140" lon="24.29184150">
        <ele>308.00000</ele>
        <time>2010-01-01T16:53:07Z</time>
      </trkpt>
      <trkpt lat="49.64353230" lon="24.29151890">
        <ele>309.00000</ele>
        <time>2010-01-01T16:53:17Z</time>
      </trkpt>
      <trkpt lat="49.64364080" lon="24.29150740">
        <ele>310.00000</ele>
        <time>2010-01-01T16:53:21Z</time>
      </trkpt>
      <trkpt lat="49.64402630" lon="24.29141610">
        <ele>314.00000</ele>
        <time>2010-01-01T16:53:37Z</time>
      </trkpt>
      <trkpt lat="49.64539990" lon="24.29127540">
        <ele>330.00000</ele>
        <time>2010-01-01T16:54:32Z</time>
      </trkpt>
      <trkpt lat="49.64556140" lon="24.29124820">
        <ele>332.00000</ele>
        <time>2010-01-01T16:54:38Z</time>
      </trkpt>
      <trkpt lat="49.64572550" lon="24.29124450">
        <ele>333.00000</ele>
        <time>2010-01-01T16:54:45Z</time>
      </trkpt>
      <trkpt lat="49.64593250" lon="24.29120640">
        <ele>335.00000</ele>
        <time>2010-01-01T16:54:53Z</time>
      </trkpt>
      <trkpt lat="49.64606990" lon="24.29119690">
        <ele>336.00000</ele>
        <time>2010-01-01T16:54:59Z</time>
      </trkpt>
      <trkpt lat="49.64629490" lon="24.29113570">
        <ele>338.00000</ele>
        <time>2010-01-01T16:55:08Z</time>
      </trkpt>
      <trkpt lat="49.64643860" lon="24.29107850">
        <ele>339.00000</ele>
        <time>2010-01-01T16:55:14Z</time>
      </trkpt>
      <trkpt lat="49.64670780" lon="24.29094270">
        <ele>340.00000</ele>
        <time>2010-01-01T16:55:25Z</time>
      </trkpt>
      <trkpt lat="49.64696840" lon="24.29078700">
        <ele>343.00000</ele>
        <time>2010-01-01T16:55:36Z</time>
      </trkpt>
      <trkpt lat="49.64717420" lon="24.29063850">
        <ele>346.00000</ele>
        <time>2010-01-01T16:55:45Z</time>
      </trkpt>
      <trkpt lat="49.64742160" lon="24.29043130">
        <ele>348.00000</ele>
        <time>2010-01-01T16:55:57Z</time>
      </trkpt>
      <trkpt lat="49.64772500" lon="24.29014260">
        <ele>349.00000</ele>
        <time>2010-01-01T16:56:11Z</time>
      </trkpt>
      <trkpt lat="49.64895060" lon="24.28880230">
        <ele>351.00000</ele>
        <time>2010-01-01T16:57:11Z</time>
      </trkpt>
      <trkpt lat="49.64952250" lon="24.28815210">
        <ele>353.00000</ele>
        <time>2010-01-01T16:57:39Z</time>
      </trkpt>
      <trkpt lat="49.65105560" lon="24.28647950">
        <ele>355.00000</ele>
        <time>2010-01-01T16:58:55Z</time>
      </trkpt>
      <trkpt lat="49.65146480" lon="24.28603810">
        <ele>358.00000</ele>
        <time>2010-01-01T16:59:15Z</time>
      </trkpt>
      <trkpt lat="49.65179440" lon="24.28572410">
        <ele>359.00000</ele>
        <time>2010-01-01T16:59:30Z</time>
      </trkpt>
      <trkpt lat="49.65198950" lon="24.28558670">
        <ele>359.00000</ele>
        <time>2010-01-01T16:59:39Z</time>
      </trkpt>
      <trkpt lat="49.65264470" lon="24.28526170">
        <ele>360.00000</ele>
        <time>2010-01-01T17:00:06Z</time>
      </trkpt>
      <trkpt lat="49.65466730" lon="24.28436180">
        <ele>357.00000</ele>
        <time>2010-01-01T17:01:30Z</time>
      </trkpt>
      <trkpt lat="49.65514210" lon="24.28412320">
        <ele>356.00000</ele>
        <time>2010-01-01T17:01:50Z</time>
      </trkpt>
      <trkpt lat="49.65551920" lon="24.28389090">
        <ele>356.00000</ele>
        <time>2010-01-01T17:02:07Z</time>
      </trkpt>
      <trkpt lat="49.65585500" lon="24.28362420">
        <ele>358.00000</ele>
        <time>2010-01-01T17:02:22Z</time>
      </trkpt>
      <trkpt lat="49.65644040" lon="24.28297040">
        <ele>356.00000</ele>
        <time>2010-01-01T17:02:51Z</time>
      </trkpt>
      <trkpt lat="49.65783970" lon="24.28131380">
        <ele>361.00000</ele>
        <time>2010-01-01T17:04:01Z</time>
      </trkpt>
      <trkpt lat="49.65798940" lon="24.28114680">
        <ele>362.00000</ele>
        <time>2010-01-01T17:04:09Z</time>
      </trkpt>
      <trkpt lat="49.65804050" lon="24.28113020">
        <ele>362.00000</ele>
        <time>2010-01-01T17:04:11Z</time>
      </trkpt>
      <trkpt lat="49.65807840" lon="24.28109320">
        <ele>363.00000</ele>
        <time>2010-01-01T17:04:13Z</time>
      </trkpt>
      <trkpt lat="49.65824180" lon="24.28087100">
        <ele>364.00000</ele>
        <time>2010-01-01T17:04:21Z</time>
      </trkpt>
      <trkpt lat="49.65867560" lon="24.28036520">
        <ele>365.00000</ele>
        <time>2010-01-01T17:04:43Z</time>
      </trkpt>
      <trkpt lat="49.65904860" lon="24.27986460">
        <ele>367.00000</ele>
        <time>2010-01-01T17:05:03Z</time>
      </trkpt>
      <trkpt lat="49.65943170" lon="24.27929090">
        <ele>368.00000</ele>
        <time>2010-01-01T17:05:24Z</time>
      </trkpt>
      <trkpt lat="49.66007040" lon="24.27817160">
        <ele>371.00000</ele>
        <time>2010-01-01T17:06:03Z</time>
      </trkpt>
      <trkpt lat="49.66053000" lon="24.27741640">
        <ele>370.00000</ele>
        <time>2010-01-01T17:06:30Z</time>
      </trkpt>
      <trkpt lat="49.66081670" lon="24.27705580">
        <ele>370.00000</ele>
        <time>2010-01-01T17:06:45Z</time>
      </trkpt>
      <trkpt lat="49.66092430" lon="24.27695890">
        <ele>369.00000</ele>
        <time>2010-01-01T17:06:50Z</time>
      </trkpt>
      <trkpt lat="49.66114430" lon="24.27678280">
        <ele>368.00000</ele>
        <time>2010-01-01T17:06:59Z</time>
      </trkpt>
      <trkpt lat="49.66138810" lon="24.27663520">
        <ele>367.00000</ele>
        <time>2010-01-01T17:07:10Z</time>
      </trkpt>
      <trkpt lat="49.66158400" lon="24.27653600">
        <ele>366.00000</ele>
        <time>2010-01-01T17:07:18Z</time>
      </trkpt>
      <trkpt lat="49.66213830" lon="24.27634290">
        <ele>365.00000</ele>
        <time>2010-01-01T17:07:41Z</time>
      </trkpt>
      <trkpt lat="49.66220770" lon="24.27633270">
        <ele>365.00000</ele>
        <time>2010-01-01T17:07:44Z</time>
      </trkpt>
      <trkpt lat="49.66263480" lon="24.27616640">
        <ele>364.00000</ele>
        <time>2010-01-01T17:08:01Z</time>
      </trkpt>
      <trkpt lat="49.66507580" lon="24.27530110">
        <ele>353.00000</ele>
        <time>2010-01-01T17:09:42Z</time>
      </trkpt>
      <trkpt lat="49.66573610" lon="24.27502620">
        <ele>352.00000</ele>
        <time>2010-01-01T17:10:09Z</time>
      </trkpt>
      <trkpt lat="49.66606100" lon="24.27474220">
        <ele>351.00000</ele>
        <time>2010-01-01T17:10:24Z</time>
      </trkpt>
      <trkpt lat="49.66617890" lon="24.27460590">
        <ele>351.00000</ele>
        <time>2010-01-01T17:10:30Z</time>
      </trkpt>
      <trkpt lat="49.66632620" lon="24.27436880">
        <ele>350.00000</ele>
        <time>2010-01-01T17:10:38Z</time>
      </trkpt>
      <trkpt lat="49.66663410" lon="24.27370700">
        <ele>350.00000</ele>
        <time>2010-01-01T17:10:59Z</time>
      </trkpt>
      <trkpt lat="49.66776520" lon="24.27080580">
        <ele>348.00000</ele>
        <time>2010-01-01T17:12:27Z</time>
      </trkpt>
      <trkpt lat="49.66826770" lon="24.26960520">
        <ele>350.00000</ele>
        <time>2010-01-01T17:13:04Z</time>
      </trkpt>
      <trkpt lat="49.66909420" lon="24.26789380">
        <ele>347.00000</ele>
        <time>2010-01-01T17:14:00Z</time>
      </trkpt>
      <trkpt lat="49.66942370" lon="24.26730040">
        <ele>345.00000</ele>
        <time>2010-01-01T17:14:20Z</time>
      </trkpt>
      <trkpt lat="49.66975040" lon="24.26691320">
        <ele>347.00000</ele>
        <time>2010-01-01T17:14:36Z</time>
      </trkpt>
      <trkpt lat="49.67012290" lon="24.26660730">
        <ele>350.00000</ele>
        <time>2010-01-01T17:14:53Z</time>
      </trkpt>
      <trkpt lat="49.67040420" lon="24.26642550">
        <ele>351.00000</ele>
        <time>2010-01-01T17:15:05Z</time>
      </trkpt>
      <trkpt lat="49.67076140" lon="24.26614270">
        <ele>350.00000</ele>
        <time>2010-01-01T17:15:21Z</time>
      </trkpt>
      <trkpt lat="49.67159540" lon="24.26554500">
        <ele>357.00000</ele>
        <time>2010-01-01T17:15:58Z</time>
      </trkpt>
      <trkpt lat="49.67193560" lon="24.26535620">
        <ele>356.00000</ele>
        <time>2010-01-01T17:16:13Z</time>
      </trkpt>
      <trkpt lat="49.67219170" lon="24.26516880">
        <ele>355.00000</ele>
        <time>2010-01-01T17:16:24Z</time>
      </trkpt>
      <trkpt lat="49.67250030" lon="24.26496770">
        <ele>355.00000</ele>
        <time>2010-01-01T17:16:37Z</time>
      </trkpt>
      <trkpt lat="49.67317980" lon="24.26460250">
        <ele>353.00000</ele>
        <time>2010-01-01T17:17:06Z</time>
      </trkpt>
      <trkpt lat="49.67394530" lon="24.26428500">
        <ele>354.00000</ele>
        <time>2010-01-01T17:17:38Z</time>
      </trkpt>
      <trkpt lat="49.67457910" lon="24.26409680">
        <ele>355.00000</ele>
        <time>2010-01-01T17:18:04Z</time>
      </trkpt>
      <trkpt lat="49.67573040" lon="24.26382420">
        <ele>350.00000</ele>
        <time>2010-01-01T17:18:50Z</time>
      </trkpt>
      <trkpt lat="49.67623950" lon="24.26368490">
        <ele>350.00000</ele>
        <time>2010-01-01T17:19:11Z</time>
      </trkpt>
      <trkpt lat="49.67667520" lon="24.26352310">
        <ele>351.00000</ele>
        <time>2010-01-01T17:19:29Z</time>
      </trkpt>
      <trkpt lat="49.67684500" lon="24.26343400">
        <ele>352.00000</ele>
        <time>2010-01-01T17:19:36Z</time>
      </trkpt>
      <trkpt lat="49.67700370" lon="24.26332980">
        <ele>353.00000</ele>
        <time>2010-01-01T17:19:43Z</time>
      </trkpt>
      <trkpt lat="49.67732530" lon="24.26304160">
        <ele>355.00000</ele>
        <time>2010-01-01T17:19:58Z</time>
      </trkpt>
      <trkpt lat="49.67766330" lon="24.26262550">
        <ele>358.00000</ele>
        <time>2010-01-01T17:20:15Z</time>
      </trkpt>
      <trkpt lat="49.67799740" lon="24.26207090">
        <ele>362.00000</ele>
        <time>2010-01-01T17:20:35Z</time>
      </trkpt>
      <trkpt lat="49.68031400" lon="24.25764650">
        <ele>362.00000</ele>
        <time>2010-01-01T17:23:02Z</time>
      </trkpt>
      <trkpt lat="49.68067420" lon="24.25690950">
        <ele>361.00000</ele>
        <time>2010-01-01T17:23:26Z</time>
      </trkpt>
      <trkpt lat="49.68106520" lon="24.25615690">
        <ele>359.00000</ele>
        <time>2010-01-01T17:23:51Z</time>
      </trkpt>
      <trkpt lat="49.68227620" lon="24.25374380">
        <ele>355.00000</ele>
        <time>2010-01-01T17:25:10Z</time>
      </trkpt>
      <trkpt lat="49.68361810" lon="24.25098770">
        <ele>337.00000</ele>
        <time>2010-01-01T17:26:40Z</time>
      </trkpt>
      <trkpt lat="49.68455320" lon="24.24920220">
        <ele>341.00000</ele>
        <time>2010-01-01T17:27:39Z</time>
      </trkpt>
      <trkpt lat="49.68477460" lon="24.24874810">
        <ele>345.00000</ele>
        <time>2010-01-01T17:27:54Z</time>
      </trkpt>
      <trkpt lat="49.68500210" lon="24.24836990">
        <ele>348.00000</ele>
        <time>2010-01-01T17:28:07Z</time>
      </trkpt>
      <trkpt lat="49.68562850" lon="24.24702080">
        <ele>358.00000</ele>
        <time>2010-01-01T17:28:50Z</time>
      </trkpt>
      <trkpt lat="49.68595530" lon="24.24640620">
        <ele>360.00000</ele>
        <time>2010-01-01T17:29:11Z</time>
      </trkpt>
      <trkpt lat="49.68622840" lon="24.24607320">
        <ele>360.00000</ele>
        <time>2010-01-01T17:29:25Z</time>
      </trkpt>
      <trkpt lat="49.68661230" lon="24.24571420">
        <ele>360.00000</ele>
        <time>2010-01-01T17:29:43Z</time>
      </trkpt>
      <trkpt lat="49.68784250" lon="24.24449850">
        <ele>345.00000</ele>
        <time>2010-01-01T17:30:41Z</time>
      </trkpt>
      <trkpt lat="49.68970170" lon="24.24275820">
        <ele>354.00000</ele>
        <time>2010-01-01T17:32:08Z</time>
      </trkpt>
      <trkpt lat="49.69004120" lon="24.24245650">
        <ele>351.00000</ele>
        <time>2010-01-01T17:32:24Z</time>
      </trkpt>
      <trkpt lat="49.69057910" lon="24.24191640">
        <ele>345.00000</ele>
        <time>2010-01-01T17:32:50Z</time>
      </trkpt>
      <trkpt lat="49.69126910" lon="24.24129050">
        <ele>345.00000</ele>
        <time>2010-01-01T17:33:22Z</time>
      </trkpt>
      <trkpt lat="49.69280360" lon="24.24002120">
        <ele>345.00000</ele>
        <time>2010-01-01T17:34:31Z</time>
      </trkpt>
      <trkpt lat="49.69351780" lon="24.23945340">
        <ele>341.00000</ele>
        <time>2010-01-01T17:35:04Z</time>
      </trkpt>
      <trkpt lat="49.69469280" lon="24.23860530">
        <ele>343.00000</ele>
        <time>2010-01-01T17:35:55Z</time>
      </trkpt>
      <trkpt lat="49.69592400" lon="24.23776350">
        <ele>343.00000</ele>
        <time>2010-01-01T17:36:49Z</time>
      </trkpt>
      <trkpt lat="49.69644460" lon="24.23737620">
        <ele>343.00000</ele>
        <time>2010-01-01T17:37:12Z</time>
      </trkpt>
      <trkpt lat="49.69683650" lon="24.23698370">
        <ele>345.00000</ele>
        <time>2010-01-01T17:37:31Z</time>
      </trkpt>
      <trkpt lat="49.69726050" lon="24.23646520">
        <ele>342.00000</ele>
        <time>2010-01-01T17:37:53Z</time>
      </trkpt>
      <trkpt lat="49.69810190" lon="24.23535810">
        <ele>345.00000</ele>
        <time>2010-01-01T17:38:37Z</time>
      </trkpt>
      <trkpt lat="49.69925370" lon="24.23366970">
        <ele>343.00000</ele>
        <time>2010-01-01T17:39:41Z</time>
      </trkpt>
      <trkpt lat="49.70015020" lon="24.23231680">
        <ele>336.00000</ele>
        <time>2010-01-01T17:40:31Z</time>
      </trkpt>
      <trkpt lat="49.70067240" lon="24.23146310">
        <ele>334.00000</ele>
        <time>2010-01-01T17:41:01Z</time>
      </trkpt>
      <trkpt lat="49.70206060" lon="24.22890240">
        <ele>329.00000</ele>
        <time>2010-01-01T17:42:28Z</time>
      </trkpt>
      <trkpt lat="49.70247370" lon="24.22822900">
        <ele>331.00000</ele>
        <time>2010-01-01T17:42:52Z</time>
      </trkpt>
      <trkpt lat="49.70277980" lon="24.22784370">
        <ele>330.00000</ele>
        <time>2010-01-01T17:43:07Z</time>
      </trkpt>
      <trkpt lat="49.70316940" lon="24.22742830">
        <ele>330.00000</ele>
        <time>2010-01-01T17:43:26Z</time>
      </trkpt>
      <trkpt lat="49.70445830" lon="24.22613940">
        <ele>333.00000</ele>
        <time>2010-01-01T17:44:28Z</time>
      </trkpt>
      <trkpt lat="49.70485810" lon="24.22572430">
        <ele>336.00000</ele>
        <time>2010-01-01T17:44:47Z</time>
      </trkpt>
      <trkpt lat="49.70522490" lon="24.22530730">
        <ele>339.00000</ele>
        <time>2010-01-01T17:45:05Z</time>
      </trkpt>
      <trkpt lat="49.70562740" lon="24.22478330">
        <ele>341.00000</ele>
        <time>2010-01-01T17:45:26Z</time>
      </trkpt>
      <trkpt lat="49.70899250" lon="24.21979520">
        <ele>340.00000</ele>
        <time>2010-01-01T17:48:33Z</time>
      </trkpt>
      <trkpt lat="49.70953180" lon="24.21905550">
        <ele>337.00000</ele>
        <time>2010-01-01T17:49:02Z</time>
      </trkpt>
      <trkpt lat="49.70980110" lon="24.21871250">
        <ele>337.00000</ele>
        <time>2010-01-01T17:49:16Z</time>
      </trkpt>
      <trkpt lat="49.71017000" lon="24.21829670">
        <ele>337.00000</ele>
        <time>2010-01-01T17:49:34Z</time>
      </trkpt>
      <trkpt lat="49.71093300" lon="24.21748710">
        <ele>336.00000</ele>
        <time>2010-01-01T17:50:11Z</time>
      </trkpt>
      <trkpt lat="49.71150150" lon="24.21685830">
        <ele>336.00000</ele>
        <time>2010-01-01T17:50:39Z</time>
      </trkpt>
      <trkpt lat="49.71244570" lon="24.21588610">
        <ele>334.00000</ele>
        <time>2010-01-01T17:51:25Z</time>
      </trkpt>
      <trkpt lat="49.71300020" lon="24.21519680">
        <ele>336.00000</ele>
        <time>2010-01-01T17:51:53Z</time>
      </trkpt>
      <trkpt lat="49.71330330" lon="24.21458690">
        <ele>336.00000</ele>
        <time>2010-01-01T17:52:13Z</time>
      </trkpt>
      <trkpt lat="49.71383020" lon="24.21336850">
        <ele>335.00000</ele>
        <time>2010-01-01T17:52:51Z</time>
      </trkpt>
      <trkpt lat="49.71417180" lon="24.21275840">
        <ele>333.00000</ele>
        <time>2010-01-01T17:53:12Z</time>
      </trkpt>
      <trkpt lat="49.71536730" lon="24.21098300">
        <ele>329.00000</ele>
        <time>2010-01-01T17:54:18Z</time>
      </trkpt>
      <trkpt lat="49.71573440" lon="24.21045970">
        <ele>329.00000</ele>
        <time>2010-01-01T17:54:38Z</time>
      </trkpt>
      <trkpt lat="49.71670980" lon="24.20897470">
        <ele>329.00000</ele>
        <time>2010-01-01T17:55:33Z</time>
      </trkpt>
      <trkpt lat="49.71816680" lon="24.20680890">
        <ele>331.00000</ele>
        <time>2010-01-01T17:56:54Z</time>
      </trkpt>
      <trkpt lat="49.71868790" lon="24.20610550">
        <ele>334.00000</ele>
        <time>2010-01-01T17:57:21Z</time>
      </trkpt>
      <trkpt lat="49.71906850" lon="24.20564090">
        <ele>336.00000</ele>
        <time>2010-01-01T17:57:41Z</time>
      </trkpt>
      <trkpt lat="49.71930020" lon="24.20533410">
        <ele>336.00000</ele>
        <time>2010-01-01T17:57:53Z</time>
      </trkpt>
      <trkpt lat="49.71950100" lon="24.20512290">
        <ele>337.00000</ele>
        <time>2010-01-01T17:58:03Z</time>
      </trkpt>
      <trkpt lat="49.71954770" lon="24.20508960">
        <ele>337.00000</ele>
        <time>2010-01-01T17:58:05Z</time>
      </trkpt>
      <trkpt lat="49.71982580" lon="24.20473780">
        <ele>338.00000</ele>
        <time>2010-01-01T17:58:19Z</time>
      </trkpt>
      <trkpt lat="49.72078400" lon="24.20363820">
        <ele>340.00000</ele>
        <time>2010-01-01T17:59:07Z</time>
      </trkpt>
      <trkpt lat="49.72133240" lon="24.20298500">
        <ele>341.00000</ele>
        <time>2010-01-01T17:59:35Z</time>
      </trkpt>
      <trkpt lat="49.72176440" lon="24.20241000">
        <ele>340.00000</ele>
        <time>2010-01-01T17:59:57Z</time>
      </trkpt>
      <trkpt lat="49.72203180" lon="24.20195070">
        <ele>341.00000</ele>
        <time>2010-01-01T18:00:13Z</time>
      </trkpt>
      <trkpt lat="49.72207780" lon="24.20184490">
        <ele>340.00000</ele>
        <time>2010-01-01T18:00:17Z</time>
      </trkpt>
      <trkpt lat="49.72223280" lon="24.20140450">
        <ele>337.00000</ele>
        <time>2010-01-01T18:00:30Z</time>
      </trkpt>
      <trkpt lat="49.72232300" lon="24.20104420">
        <ele>333.00000</ele>
        <time>2010-01-01T18:00:40Z</time>
      </trkpt>
      <trkpt lat="49.72265660" lon="24.19937290">
        <ele>328.00000</ele>
        <time>2010-01-01T18:01:25Z</time>
      </trkpt>
      <trkpt lat="49.72377370" lon="24.19349720">
        <ele>312.00000</ele>
        <time>2010-01-01T18:04:04Z</time>
      </trkpt>
      <trkpt lat="49.72466990" lon="24.18866040">
        <ele>316.00000</ele>
        <time>2010-01-01T18:06:14Z</time>
      </trkpt>
      <trkpt lat="49.72538840" lon="24.18498360">
        <ele>325.00000</ele>
        <time>2010-01-01T18:07:53Z</time>
      </trkpt>
      <trkpt lat="49.72565310" lon="24.18355630">
        <ele>336.00000</ele>
        <time>2010-01-01T18:08:32Z</time>
      </trkpt>
      <trkpt lat="49.72599160" lon="24.18185450">
        <ele>347.00000</ele>
        <time>2010-01-01T18:09:18Z</time>
      </trkpt>
      <trkpt lat="49.72604940" lon="24.18159680">
        <ele>348.00000</ele>
        <time>2010-01-01T18:09:25Z</time>
      </trkpt>
      <trkpt lat="49.72612340" lon="24.18134720">
        <ele>348.00000</ele>
        <time>2010-01-01T18:09:32Z</time>
      </trkpt>
      <trkpt lat="49.72617540" lon="24.18122670">
        <ele>348.00000</ele>
        <time>2010-01-01T18:09:36Z</time>
      </trkpt>
      <trkpt lat="49.72636970" lon="24.18087740">
        <ele>347.00000</ele>
        <time>2010-01-01T18:09:47Z</time>
      </trkpt>
      <trkpt lat="49.72682790" lon="24.18015060">
        <ele>349.00000</ele>
        <time>2010-01-01T18:10:14Z</time>
      </trkpt>
      <trkpt lat="49.72711840" lon="24.17973860">
        <ele>347.00000</ele>
        <time>2010-01-01T18:10:30Z</time>
      </trkpt>
      <trkpt lat="49.72899950" lon="24.17694220">
        <ele>348.00000</ele>
        <time>2010-01-01T18:12:14Z</time>
      </trkpt>
      <trkpt lat="49.72934180" lon="24.17648900">
        <ele>348.00000</ele>
        <time>2010-01-01T18:12:32Z</time>
      </trkpt>
      <trkpt lat="49.72978120" lon="24.17599300">
        <ele>347.00000</ele>
        <time>2010-01-01T18:12:54Z</time>
      </trkpt>
      <trkpt lat="49.73028280" lon="24.17551780">
        <ele>346.00000</ele>
        <time>2010-01-01T18:13:17Z</time>
      </trkpt>
      <trkpt lat="49.73085820" lon="24.17507850">
        <ele>343.00000</ele>
        <time>2010-01-01T18:13:43Z</time>
      </trkpt>
      <trkpt lat="49.73386570" lon="24.17296880">
        <ele>340.00000</ele>
        <time>2010-01-01T18:15:55Z</time>
      </trkpt>
      <trkpt lat="49.73417110" lon="24.17275020">
        <ele>339.00000</ele>
        <time>2010-01-01T18:16:09Z</time>
      </trkpt>
      <trkpt lat="49.73467360" lon="24.17236000">
        <ele>339.00000</ele>
        <time>2010-01-01T18:16:31Z</time>
      </trkpt>
      <trkpt lat="49.73791540" lon="24.16961790">
        <ele>335.00000</ele>
        <time>2010-01-01T18:18:59Z</time>
      </trkpt>
      <trkpt lat="49.73893920" lon="24.16864260">
        <ele>333.00000</ele>
        <time>2010-01-01T18:19:47Z</time>
      </trkpt>
      <trkpt lat="49.73935370" lon="24.16826700">
        <ele>333.00000</ele>
        <time>2010-01-01T18:20:06Z</time>
      </trkpt>
      <trkpt lat="49.73983200" lon="24.16777990">
        <ele>333.00000</ele>
        <time>2010-01-01T18:20:29Z</time>
      </trkpt>
      <trkpt lat="49.74045880" lon="24.16720190">
        <ele>333.00000</ele>
        <time>2010-01-01T18:20:59Z</time>
      </trkpt>
      <trkpt lat="49.74133110" lon="24.16643990">
        <ele>334.00000</ele>
        <time>2010-01-01T18:21:39Z</time>
      </trkpt>
      <trkpt lat="49.74177620" lon="24.16601010">
        <ele>334.00000</ele>
        <time>2010-01-01T18:22:00Z</time>
      </trkpt>
      <trkpt lat="49.74223950" lon="24.16560080">
        <ele>334.00000</ele>
        <time>2010-01-01T18:22:21Z</time>
      </trkpt>
      <trkpt lat="49.74270160" lon="24.16514390">
        <ele>332.00000</ele>
        <time>2010-01-01T18:22:43Z</time>
      </trkpt>
      <trkpt lat="49.74318520" lon="24.16455520">
        <ele>331.00000</ele>
        <time>2010-01-01T18:23:08Z</time>
      </trkpt>
      <trkpt lat="49.74357990" lon="24.16396460">
        <ele>332.00000</ele>
        <time>2010-01-01T18:23:30Z</time>
      </trkpt>
      <trkpt lat="49.74397820" lon="24.16325690">
        <ele>334.00000</ele>
        <time>2010-01-01T18:23:54Z</time>
      </trkpt>
      <trkpt lat="49.74542200" lon="24.16060080">
        <ele>328.00000</ele>
        <time>2010-01-01T18:25:24Z</time>
      </trkpt>
      <trkpt lat="49.74585260" lon="24.15977830">
        <ele>329.00000</ele>
        <time>2010-01-01T18:25:51Z</time>
      </trkpt>
      <trkpt lat="49.74623570" lon="24.15894820">
        <ele>329.00000</ele>
        <time>2010-01-01T18:26:17Z</time>
      </trkpt>
      <trkpt lat="49.74652970" lon="24.15826030">
        <ele>330.00000</ele>
        <time>2010-01-01T18:26:39Z</time>
      </trkpt>
      <trkpt lat="49.74680570" lon="24.15755130">
        <ele>332.00000</ele>
        <time>2010-01-01T18:27:00Z</time>
      </trkpt>
      <trkpt lat="49.74705770" lon="24.15685700">
        <ele>333.00000</ele>
        <time>2010-01-01T18:27:21Z</time>
      </trkpt>
      <trkpt lat="49.74728470" lon="24.15611410">
        <ele>331.00000</ele>
        <time>2010-01-01T18:27:42Z</time>
      </trkpt>
      <trkpt lat="49.74793220" lon="24.15339590">
        <ele>327.00000</ele>
        <time>2010-01-01T18:28:57Z</time>
      </trkpt>
      <trkpt lat="49.74830670" lon="24.15189650">
        <ele>323.00000</ele>
        <time>2010-01-01T18:29:38Z</time>
      </trkpt>
      <trkpt lat="49.74858390" lon="24.15091850">
        <ele>319.00000</ele>
        <time>2010-01-01T18:30:06Z</time>
      </trkpt>
      <trkpt lat="49.74899890" lon="24.14968640">
        <ele>315.00000</ele>
        <time>2010-01-01T18:30:42Z</time>
      </trkpt>
      <trkpt lat="49.74993070" lon="24.14707880">
        <ele>309.00000</ele>
        <time>2010-01-01T18:31:59Z</time>
      </trkpt>
      <trkpt lat="49.75079610" lon="24.14476060">
        <ele>319.00000</ele>
        <time>2010-01-01T18:33:08Z</time>
      </trkpt>
      <trkpt lat="49.75104590" lon="24.14403900">
        <ele>322.00000</ele>
        <time>2010-01-01T18:33:30Z</time>
      </trkpt>
      <trkpt lat="49.75107320" lon="24.14392600">
        <ele>323.00000</ele>
        <time>2010-01-01T18:33:33Z</time>
      </trkpt>
      <trkpt lat="49.75124570" lon="24.14347610">
        <ele>326.00000</ele>
        <time>2010-01-01T18:33:46Z</time>
      </trkpt>
      <trkpt lat="49.75238710" lon="24.14015520">
        <ele>335.00000</ele>
        <time>2010-01-01T18:35:23Z</time>
      </trkpt>
      <trkpt lat="49.75336270" lon="24.13741290">
        <ele>338.00000</ele>
        <time>2010-01-01T18:36:44Z</time>
      </trkpt>
      <trkpt lat="49.75360500" lon="24.13693910">
        <ele>338.00000</ele>
        <time>2010-01-01T18:37:00Z</time>
      </trkpt>
      <trkpt lat="49.75411730" lon="24.13606590">
        <ele>338.00000</ele>
        <time>2010-01-01T18:37:31Z</time>
      </trkpt>
      <trkpt lat="49.75626680" lon="24.13255120">
        <ele>347.00000</ele>
        <time>2010-01-01T18:39:36Z</time>
      </trkpt>
      <trkpt lat="49.75650650" lon="24.13212130">
        <ele>347.00000</ele>
        <time>2010-01-01T18:39:50Z</time>
      </trkpt>
      <trkpt lat="49.75677630" lon="24.13167610">
        <ele>346.00000</ele>
        <time>2010-01-01T18:40:06Z</time>
      </trkpt>
      <trkpt lat="49.75766400" lon="24.13000360">
        <ele>349.00000</ele>
        <time>2010-01-01T18:41:02Z</time>
      </trkpt>
      <trkpt lat="49.76019530" lon="24.12534570">
        <ele>350.00000</ele>
        <time>2010-01-01T18:43:40Z</time>
      </trkpt>
      <trkpt lat="49.76055640" lon="24.12464530">
        <ele>347.00000</ele>
        <time>2010-01-01T18:44:03Z</time>
      </trkpt>
      <trkpt lat="49.76129070" lon="24.12305470">
        <ele>349.00000</ele>
        <time>2010-01-01T18:44:53Z</time>
      </trkpt>
      <trkpt lat="49.76165320" lon="24.12215530">
        <ele>353.00000</ele>
        <time>2010-01-01T18:45:21Z</time>
      </trkpt>
      <trkpt lat="49.76269430" lon="24.11900230">
        <ele>350.00000</ele>
        <time>2010-01-01T18:46:52Z</time>
      </trkpt>
      <trkpt lat="49.76297680" lon="24.11826120">
        <ele>353.00000</ele>
        <time>2010-01-01T18:47:15Z</time>
      </trkpt>
      <trkpt lat="49.76345630" lon="24.11709920">
        <ele>355.00000</ele>
        <time>2010-01-01T18:47:50Z</time>
      </trkpt>
      <trkpt lat="49.76409750" lon="24.11545350">
        <ele>352.00000</ele>
        <time>2010-01-01T18:48:40Z</time>
      </trkpt>
      <trkpt lat="49.76461570" lon="24.11419810">
        <ele>350.00000</ele>
        <time>2010-01-01T18:49:18Z</time>
      </trkpt>
      <trkpt lat="49.76517620" lon="24.11303230">
        <ele>341.00000</ele>
        <time>2010-01-01T18:49:56Z</time>
      </trkpt>
      <trkpt lat="49.76605730" lon="24.11133570">
        <ele>346.00000</ele>
        <time>2010-01-01T18:50:52Z</time>
      </trkpt>
      <trkpt lat="49.76653580" lon="24.11036060">
        <ele>343.00000</ele>
        <time>2010-01-01T18:51:24Z</time>
      </trkpt>
      <trkpt lat="49.76773930" lon="24.10800940">
        <ele>345.00000</ele>
        <time>2010-01-01T18:52:42Z</time>
      </trkpt>
      <trkpt lat="49.76811390" lon="24.10737270">
        <ele>339.00000</ele>
        <time>2010-01-01T18:53:04Z</time>
      </trkpt>
      <trkpt lat="49.76963910" lon="24.10522980">
        <ele>350.00000</ele>
        <time>2010-01-01T18:54:26Z</time>
      </trkpt>
      <trkpt lat="49.77072830" lon="24.10378220">
        <ele>350.00000</ele>
        <time>2010-01-01T18:55:24Z</time>
      </trkpt>
      <trkpt lat="49.77137120" lon="24.10287020">
        <ele>350.00000</ele>
        <time>2010-01-01T18:55:59Z</time>
      </trkpt>
      <trkpt lat="49.77175360" lon="24.10237630">
        <ele>348.00000</ele>
        <time>2010-01-01T18:56:19Z</time>
      </trkpt>
      <trkpt lat="49.77214960" lon="24.10195180">
        <ele>347.00000</ele>
        <time>2010-01-01T18:56:38Z</time>
      </trkpt>
      <trkpt lat="49.77258520" lon="24.10140060">
        <ele>346.00000</ele>
        <time>2010-01-01T18:57:00Z</time>
      </trkpt>
      <trkpt lat="49.77337060" lon="24.10045030">
        <ele>343.00000</ele>
        <time>2010-01-01T18:57:40Z</time>
      </trkpt>
      <trkpt lat="49.77411360" lon="24.09951890">
        <ele>345.00000</ele>
        <time>2010-01-01T18:58:18Z</time>
      </trkpt>
      <trkpt lat="49.77428100" lon="24.09928650">
        <ele>346.00000</ele>
        <time>2010-01-01T18:58:27Z</time>
      </trkpt>
      <trkpt lat="49.77524560" lon="24.09816000">
        <ele>346.00000</ele>
        <time>2010-01-01T18:59:16Z</time>
      </trkpt>
      <trkpt lat="49.77586690" lon="24.09747290">
        <ele>348.00000</ele>
        <time>2010-01-01T18:59:46Z</time>
      </trkpt>
      <trkpt lat="49.77657150" lon="24.09660710">
        <ele>350.00000</ele>
        <time>2010-01-01T19:00:22Z</time>
      </trkpt>
      <trkpt lat="49.77729090" lon="24.09577480">
        <ele>350.00000</ele>
        <time>2010-01-01T19:00:58Z</time>
      </trkpt>
      <trkpt lat="49.77793120" lon="24.09500730">
        <ele>352.00000</ele>
        <time>2010-01-01T19:01:31Z</time>
      </trkpt>
      <trkpt lat="49.77831390" lon="24.09449820">
        <ele>351.00000</ele>
        <time>2010-01-01T19:01:51Z</time>
      </trkpt>
      <trkpt lat="49.77856370" lon="24.09412030">
        <ele>350.00000</ele>
        <time>2010-01-01T19:02:05Z</time>
      </trkpt>
      <trkpt lat="49.77886180" lon="24.09361720">
        <ele>353.00000</ele>
        <time>2010-01-01T19:02:23Z</time>
      </trkpt>
      <trkpt lat="49.77906150" lon="24.09319920">
        <ele>354.00000</ele>
        <time>2010-01-01T19:02:36Z</time>
      </trkpt>
      <trkpt lat="49.77933810" lon="24.09253460">
        <ele>354.00000</ele>
        <time>2010-01-01T19:02:56Z</time>
      </trkpt>
      <trkpt lat="49.77955640" lon="24.09190710">
        <ele>353.00000</ele>
        <time>2010-01-01T19:03:15Z</time>
      </trkpt>
      <trkpt lat="49.78022690" lon="24.08980030">
        <ele>350.00000</ele>
        <time>2010-01-01T19:04:16Z</time>
      </trkpt>
      <trkpt lat="49.78065690" lon="24.08855330">
        <ele>352.00000</ele>
        <time>2010-01-01T19:04:52Z</time>
      </trkpt>
      <trkpt lat="49.78100140" lon="24.08743090">
        <ele>352.00000</ele>
        <time>2010-01-01T19:05:24Z</time>
      </trkpt>
      <trkpt lat="49.78111430" lon="24.08697450">
        <ele>350.00000</ele>
        <time>2010-01-01T19:05:37Z</time>
      </trkpt>
      <trkpt lat="49.78127490" lon="24.08644610">
        <ele>350.00000</ele>
        <time>2010-01-01T19:05:52Z</time>
      </trkpt>
      <trkpt lat="49.78235900" lon="24.08301150">
        <ele>348.00000</ele>
        <time>2010-01-01T19:07:31Z</time>
      </trkpt>
      <trkpt lat="49.78332890" lon="24.07987060">
        <ele>341.00000</ele>
        <time>2010-01-01T19:09:01Z</time>
      </trkpt>
      <trkpt lat="49.78359040" lon="24.07913190">
        <ele>339.00000</ele>
        <time>2010-01-01T19:09:23Z</time>
      </trkpt>
      <trkpt lat="49.78373130" lon="24.07881750">
        <ele>339.00000</ele>
        <time>2010-01-01T19:09:32Z</time>
      </trkpt>
      <trkpt lat="49.78396700" lon="24.07838010">
        <ele>339.00000</ele>
        <time>2010-01-01T19:09:47Z</time>
      </trkpt>
      <trkpt lat="49.78427860" lon="24.07786590">
        <ele>340.00000</ele>
        <time>2010-01-01T19:10:05Z</time>
      </trkpt>
      <trkpt lat="49.78453760" lon="24.07747630">
        <ele>342.00000</ele>
        <time>2010-01-01T19:10:20Z</time>
      </trkpt>
      <trkpt lat="49.78503760" lon="24.07677120">
        <ele>346.00000</ele>
        <time>2010-01-01T19:10:47Z</time>
      </trkpt>
      <trkpt lat="49.78524020" lon="24.07654520">
        <ele>345.00000</ele>
        <time>2010-01-01T19:10:57Z</time>
      </trkpt>
      <trkpt lat="49.78641590" lon="24.07575200">
        <ele>349.00000</ele>
        <time>2010-01-01T19:11:48Z</time>
      </trkpt>
      <trkpt lat="49.78656870" lon="24.07566830">
        <ele>350.00000</ele>
        <time>2010-01-01T19:11:55Z</time>
      </trkpt>
      <trkpt lat="49.78757680" lon="24.07531370">
        <ele>348.00000</ele>
        <time>2010-01-01T19:12:36Z</time>
      </trkpt>
      <trkpt lat="49.79029950" lon="24.07439330">
        <ele>351.00000</ele>
        <time>2010-01-01T19:14:28Z</time>
      </trkpt>
      <trkpt lat="49.79076020" lon="24.07429300">
        <ele>350.00000</ele>
        <time>2010-01-01T19:14:46Z</time>
      </trkpt>
      <trkpt lat="49.79131050" lon="24.07428500">
        <ele>347.00000</ele>
        <time>2010-01-01T19:15:08Z</time>
      </trkpt>
      <trkpt lat="49.79261370" lon="24.07444910">
        <ele>349.00000</ele>
        <time>2010-01-01T19:16:01Z</time>
      </trkpt>
      <trkpt lat="49.79303430" lon="24.07451490">
        <ele>350.00000</ele>
        <time>2010-01-01T19:16:18Z</time>
      </trkpt>
      <trkpt lat="49.79359620" lon="24.07451530">
        <ele>350.00000</ele>
        <time>2010-01-01T19:16:40Z</time>
      </trkpt>
      <trkpt lat="49.79388700" lon="24.07445840">
        <ele>351.00000</ele>
        <time>2010-01-01T19:16:52Z</time>
      </trkpt>
      <trkpt lat="49.79427760" lon="24.07433050">
        <ele>353.00000</ele>
        <time>2010-01-01T19:17:08Z</time>
      </trkpt>
      <trkpt lat="49.79523200" lon="24.07388360">
        <ele>351.00000</ele>
        <time>2010-01-01T19:17:48Z</time>
      </trkpt>
      <trkpt lat="49.79532450" lon="24.07382260">
        <ele>351.00000</ele>
        <time>2010-01-01T19:17:52Z</time>
      </trkpt>
      <trkpt lat="49.79579890" lon="24.07345880">
        <ele>352.00000</ele>
        <time>2010-01-01T19:18:13Z</time>
      </trkpt>
      <trkpt lat="49.79781040" lon="24.07205770">
        <ele>358.00000</ele>
        <time>2010-01-01T19:19:41Z</time>
      </trkpt>
      <trkpt lat="49.79806510" lon="24.07184300">
        <ele>358.00000</ele>
        <time>2010-01-01T19:19:53Z</time>
      </trkpt>
      <trkpt lat="49.79835730" lon="24.07147070">
        <ele>356.00000</ele>
        <time>2010-01-01T19:20:08Z</time>
      </trkpt>
      <trkpt lat="49.79859970" lon="24.07104180">
        <ele>353.00000</ele>
        <time>2010-01-01T19:20:23Z</time>
      </trkpt>
      <trkpt lat="49.79975220" lon="24.06863220">
        <ele>353.00000</ele>
        <time>2010-01-01T19:21:40Z</time>
      </trkpt>
      <trkpt lat="49.80003030" lon="24.06809870">
        <ele>353.00000</ele>
        <time>2010-01-01T19:21:58Z</time>
      </trkpt>
      <trkpt lat="49.80031570" lon="24.06763570">
        <ele>351.00000</ele>
        <time>2010-01-01T19:22:14Z</time>
      </trkpt>
      <trkpt lat="49.80063170" lon="24.06722070">
        <ele>351.00000</ele>
        <time>2010-01-01T19:22:31Z</time>
      </trkpt>
      <trkpt lat="49.80176530" lon="24.06585910">
        <ele>351.00000</ele>
        <time>2010-01-01T19:23:28Z</time>
      </trkpt>
      <trkpt lat="49.80244700" lon="24.06511130">
        <ele>352.00000</ele>
        <time>2010-01-01T19:24:02Z</time>
      </trkpt>
      <trkpt lat="49.80258640" lon="24.06499160">
        <ele>352.00000</ele>
        <time>2010-01-01T19:24:08Z</time>
      </trkpt>
      <trkpt lat="49.80296660" lon="24.06471880">
        <ele>352.00000</ele>
        <time>2010-01-01T19:24:25Z</time>
      </trkpt>
      <trkpt lat="49.80453070" lon="24.06338780">
        <ele>353.00000</ele>
        <time>2010-01-01T19:25:37Z</time>
      </trkpt>
      <trkpt lat="49.80491590" lon="24.06302860">
        <ele>354.00000</ele>
        <time>2010-01-01T19:25:54Z</time>
      </trkpt>
      <trkpt lat="49.80533920" lon="24.06266270">
        <ele>351.00000</ele>
        <time>2010-01-01T19:26:14Z</time>
      </trkpt>
      <trkpt lat="49.80570990" lon="24.06236990">
        <ele>348.00000</ele>
        <time>2010-01-01T19:26:31Z</time>
      </trkpt>
      <trkpt lat="49.80589230" lon="24.06224530">
        <ele>347.00000</ele>
        <time>2010-01-01T19:26:39Z</time>
      </trkpt>
      <trkpt lat="49.80607430" lon="24.06216440">
        <ele>346.00000</ele>
        <time>2010-01-01T19:26:46Z</time>
      </trkpt>
      <trkpt lat="49.80619960" lon="24.06214810">
        <ele>346.00000</ele>
        <time>2010-01-01T19:26:51Z</time>
      </trkpt>
      <trkpt lat="49.80632460" lon="24.06219900">
        <ele>345.00000</ele>
        <time>2010-01-01T19:26:56Z</time>
      </trkpt>
      <trkpt lat="49.80648720" lon="24.06233240">
        <ele>345.00000</ele>
        <time>2010-01-01T19:27:04Z</time>
      </trkpt>
      <trkpt lat="49.80658850" lon="24.06239390">
        <ele>344.00000</ele>
        <time>2010-01-01T19:27:08Z</time>
      </trkpt>
      <trkpt lat="49.80682210" lon="24.06236760">
        <ele>344.00000</ele>
        <time>2010-01-01T19:27:17Z</time>
      </trkpt>
      <trkpt lat="49.80696430" lon="24.06218720">
        <ele>344.00000</ele>
        <time>2010-01-01T19:27:25Z</time>
      </trkpt>
      <trkpt lat="49.80702670" lon="24.06193010">
        <ele>345.00000</ele>
        <time>2010-01-01T19:27:32Z</time>
      </trkpt>
      <trkpt lat="49.80699810" lon="24.06166080">
        <ele>345.00000</ele>
        <time>2010-01-01T19:27:39Z</time>
      </trkpt>
      <trkpt lat="49.80688330" lon="24.06123780">
        <ele>346.00000</ele>
        <time>2010-01-01T19:27:51Z</time>
      </trkpt>
      <trkpt lat="49.80683980" lon="24.06098010">
        <ele>345.00000</ele>
        <time>2010-01-01T19:27:58Z</time>
      </trkpt>
      <trkpt lat="49.80695760" lon="24.05971180">
        <ele>348.00000</ele>
        <time>2010-01-01T19:28:31Z</time>
      </trkpt>
      <trkpt lat="49.80730510" lon="24.05697440">
        <ele>348.00000</ele>
        <time>2010-01-01T19:29:43Z</time>
      </trkpt>
      <trkpt lat="49.80752780" lon="24.05503080">
        <ele>346.00000</ele>
        <time>2010-01-01T19:30:34Z</time>
      </trkpt>
      <trkpt lat="49.80762030" lon="24.05436360">
        <ele>346.00000</ele>
        <time>2010-01-01T19:30:51Z</time>
      </trkpt>
      <trkpt lat="49.80782270" lon="24.05246290">
        <ele>347.00000</ele>
        <time>2010-01-01T19:31:41Z</time>
      </trkpt>
      <trkpt lat="49.80806450" lon="24.05080490">
        <ele>349.00000</ele>
        <time>2010-01-01T19:32:25Z</time>
      </trkpt>
      <trkpt lat="49.80828750" lon="24.04997410">
        <ele>348.00000</ele>
        <time>2010-01-01T19:32:48Z</time>
      </trkpt>
      <trkpt lat="49.80843820" lon="24.04933990">
        <ele>347.00000</ele>
        <time>2010-01-01T19:33:06Z</time>
      </trkpt>
      <trkpt lat="49.80852770" lon="24.04879180">
        <ele>347.00000</ele>
        <time>2010-01-01T19:33:20Z</time>
      </trkpt>
      <trkpt lat="49.80857840" lon="24.04824290">
        <ele>346.00000</ele>
        <time>2010-01-01T19:33:35Z</time>
      </trkpt>
      <trkpt lat="49.80860580" lon="24.04769650">
        <ele>346.00000</ele>
        <time>2010-01-01T19:33:49Z</time>
      </trkpt>
      <trkpt lat="49.80860170" lon="24.04710480">
        <ele>347.00000</ele>
        <time>2010-01-01T19:34:04Z</time>
      </trkpt>
      <trkpt lat="49.80852420" lon="24.04512110">
        <ele>347.00000</ele>
        <time>2010-01-01T19:34:56Z</time>
      </trkpt>
      <trkpt lat="49.80836150" lon="24.04266450">
        <ele>343.00000</ele>
        <time>2010-01-01T19:35:59Z</time>
      </trkpt>
      <trkpt lat="49.80826770" lon="24.04197250">
        <ele>344.00000</ele>
        <time>2010-01-01T19:36:18Z</time>
      </trkpt>
      <trkpt lat="49.80828560" lon="24.04144850">
        <ele>343.00000</ele>
        <time>2010-01-01T19:36:31Z</time>
      </trkpt>
      <trkpt lat="49.80839790" lon="24.04037700">
        <ele>345.00000</ele>
        <time>2010-01-01T19:36:59Z</time>
      </trkpt>
      <trkpt lat="49.80979780" lon="24.03145810">
        <ele>341.00000</ele>
        <time>2010-01-01T19:40:56Z</time>
      </trkpt>
      <trkpt lat="49.81046670" lon="24.02764170">
        <ele>341.00000</ele>
        <time>2010-01-01T19:42:38Z</time>
      </trkpt>
      <trkpt lat="49.81050160" lon="24.02736010">
        <ele>341.00000</ele>
        <time>2010-01-01T19:42:46Z</time>
      </trkpt>
      <trkpt lat="49.81060400" lon="24.02679030">
        <ele>340.00000</ele>
        <time>2010-01-01T19:43:01Z</time>
      </trkpt>
      <trkpt lat="49.81084540" lon="24.02605810">
        <ele>341.00000</ele>
        <time>2010-01-01T19:43:22Z</time>
      </trkpt>
      <trkpt lat="49.81095020" lon="24.02557280">
        <ele>342.00000</ele>
        <time>2010-01-01T19:43:36Z</time>
      </trkpt>
      <trkpt lat="49.81114680" lon="24.02444320">
        <ele>344.00000</ele>
        <time>2010-01-01T19:44:06Z</time>
      </trkpt>
      <trkpt lat="49.81128360" lon="24.02379410">
        <ele>344.00000</ele>
        <time>2010-01-01T19:44:23Z</time>
      </trkpt>
      <trkpt lat="49.81140650" lon="24.02331860">
        <ele>343.00000</ele>
        <time>2010-01-01T19:44:37Z</time>
      </trkpt>
      <trkpt lat="49.81243060" lon="24.01999470">
        <ele>342.00000</ele>
        <time>2010-01-01T19:46:12Z</time>
      </trkpt>
      <trkpt lat="49.81255080" lon="24.01980130">
        <ele>342.00000</ele>
        <time>2010-01-01T19:46:19Z</time>
      </trkpt>
      <trkpt lat="49.81263050" lon="24.01974470">
        <ele>342.00000</ele>
        <time>2010-01-01T19:46:22Z</time>
      </trkpt>
      <trkpt lat="49.81278400" lon="24.01972340">
        <ele>342.00000</ele>
        <time>2010-01-01T19:46:28Z</time>
      </trkpt>
      <trkpt lat="49.81322420" lon="24.01974060">
        <ele>344.00000</ele>
        <time>2010-01-01T19:46:46Z</time>
      </trkpt>
      <trkpt lat="49.81415980" lon="24.01982810">
        <ele>343.00000</ele>
        <time>2010-01-01T19:47:24Z</time>
      </trkpt>
      <trkpt lat="49.81445480" lon="24.01989890">
        <ele>341.00000</ele>
        <time>2010-01-01T19:47:36Z</time>
      </trkpt>
      <trkpt lat="49.81457040" lon="24.01988160">
        <ele>341.00000</ele>
        <time>2010-01-01T19:47:40Z</time>
      </trkpt>
      <trkpt lat="49.81493980" lon="24.01994610">
        <ele>340.00000</ele>
        <time>2010-01-01T19:47:55Z</time>
      </trkpt>
      <trkpt lat="49.81509680" lon="24.01994730">
        <ele>340.00000</ele>
        <time>2010-01-01T19:48:01Z</time>
      </trkpt>
      <trkpt lat="49.81548910" lon="24.01999000">
        <ele>340.00000</ele>
        <time>2010-01-01T19:48:17Z</time>
      </trkpt>
      <trkpt lat="49.81577800" lon="24.02005600">
        <ele>341.00000</ele>
        <time>2010-01-01T19:48:29Z</time>
      </trkpt>
      <trkpt lat="49.81621520" lon="24.02008120">
        <ele>340.00000</ele>
        <time>2010-01-01T19:48:46Z</time>
      </trkpt>
      <trkpt lat="49.81718920" lon="24.02018420">
        <ele>341.00000</ele>
        <time>2010-01-01T19:49:25Z</time>
      </trkpt>
      <trkpt lat="49.81800360" lon="24.02023670">
        <ele>343.00000</ele>
        <time>2010-01-01T19:49:58Z</time>
      </trkpt>
      <trkpt lat="49.81899820" lon="24.02034180">
        <ele>341.00000</ele>
        <time>2010-01-01T19:50:38Z</time>
      </trkpt>
      <trkpt lat="49.81971130" lon="24.02037600">
        <ele>342.00000</ele>
        <time>2010-01-01T19:51:07Z</time>
      </trkpt>
      <trkpt lat="49.82033200" lon="24.02048960">
        <ele>345.00000</ele>
        <time>2010-01-01T19:51:32Z</time>
      </trkpt>
      <trkpt lat="49.82197430" lon="24.02063600">
        <ele>342.00000</ele>
        <time>2010-01-01T19:52:37Z</time>
      </trkpt>
      <trkpt lat="49.82271450" lon="24.02073360">
        <ele>341.00000</ele>
        <time>2010-01-01T19:53:07Z</time>
      </trkpt>
      <trkpt lat="49.82351000" lon="24.02076410">
        <ele>343.00000</ele>
        <time>2010-01-01T19:53:39Z</time>
      </trkpt>
      <trkpt lat="49.82421660" lon="24.02082730">
        <ele>344.00000</ele>
        <time>2010-01-01T19:54:07Z</time>
      </trkpt>
      <trkpt lat="49.82465670" lon="24.02084590">
        <ele>342.00000</ele>
        <time>2010-01-01T19:54:25Z</time>
      </trkpt>
      <trkpt lat="49.82541140" lon="24.02089830">
        <ele>337.00000</ele>
        <time>2010-01-01T19:54:55Z</time>
      </trkpt>
    </trkseg>
  </trk>
</gpx>

